# Wetter Temperatur Luftdruck Luftfeuchtigkeit Sichtweite Windgeschwindigkeit Windrichtung Zeit
1 Clouds 20 1003 63 10000 3.24 104 11:31 14.08.2022
2 Clouds 22 1002 68 10000 3.13 70 10:26 14.08.2022
3 Thunderstorm 22 1003 68 10000 5 60 08:20 14.08.2022
4 Clouds 23 1003 64 10000 5 50 06:20 14.08.2022
5 Clouds 20 1004 72 10000 3.13 80 02:35 14.08.2022
6 Clouds 16 1004 87 10000 2 40 23:23 13.08.2022
7 Clouds 16 1004 87 10000 2 20 22:28 13.08.2022
8 Clouds 16 1004 87 10000 2 100 20:58 13.08.2022
9 Clouds 16 1004 82 10000 3.13 70 19:50 13.08.2022
10 Clouds 16 1004 82 10000 2 80 19:19 13.08.2022
11 Clouds 16 1004 93 10000 2 70 17:35 13.08.2022
12 Clouds 17 1004 88 10000 1 340 15:18 13.08.2022
13 Clouds 18 1004 72 10000 1 190 14:24 13.08.2022
14 Rain 19 1004 72 10000 2 160 13:37 13.08.2022
15 Thunderstorm 24 1003 53 10000 3 170 11:49 13.08.2022
16 Clouds 25 1002 44 10000 1 190 09:50 13.08.2022
17 Clouds 25 1003 50 10000 2 130 07:50 13.08.2022
18 Clouds 19 1004 82 10000 2 110 02:33 13.08.2022
19 Fog 15 1004 100 400 1 360 23:46 12.08.2022
20 Fog 14 1004 93 400 1.79 330 21:40 12.08.2022
21 Fog 14 1004 100 250 1 340 19:51 12.08.2022
22 Fog 14 1004 100 250 1 330 19:26 12.08.2022
23 Fog 14 1004 100 100 1 20 18:34 12.08.2022
24 Clouds 16 1004 93 10000 1 10 16:28 12.08.2022
25 Clouds 16 1004 100 10000 1 350 15:31 12.08.2022
26 Clouds 16 1004 100 10000 0 0 14:27 12.08.2022
27 Clouds 19 1003 82 10000 2 250 12:51 12.08.2022
28 Clouds 18 1003 88 10000 3.13 190 09:50 12.08.2022
29 Clouds 18 1003 93 10000 1 210 07:47 12.08.2022
30 Clouds 18 1004 85 10000 1.6 145 06:28 12.08.2022
31 Clouds 18 1002 82 10000 1 200 02:22 12.08.2022
32 Clouds 16 1002 93 10000 0 0 00:23 12.08.2022
33 Clouds 15 1002 93 10000 1 10 23:34 11.08.2022
34 Clear 13 1001 100 10000 2 230 21:58 11.08.2022
35 Clear 13 1001 100 10000 0 0 21:35 11.08.2022
36 Clear 13 1001 100 10000 0 0 20:32 11.08.2022
37 Clear 14 1001 93 10000 1 310 19:53 11.08.2022
38 Clear 15 1001 93 10000 1 230 19:30 11.08.2022
39 Clear 17 1001 82 10000 0 0 17:47 11.08.2022
40 Clouds 19 1001 72 10000 1.79 270 16:32 11.08.2022
41 Clear 20 1001 72 10000 2 190 15:20 11.08.2022
42 Clear 24 1000 53 10000 2 210 12:39 11.08.2022
43 Clear 24 1000 53 10000 2 260 09:54 11.08.2022
44 Clear 24 1000 57 10000 2 250 06:59 11.08.2022
45 Clouds 20 1000 77 10000 2 150 03:45 11.08.2022
46 Mist 15 999 100 3200 2 160 00:35 11.08.2022
47 Fog 16 999 93 10000 3.13 350 22:21 10.08.2022
48 Clouds 15 999 100 10000 1 60 21:24 10.08.2022
49 Clouds 16 998 93 10000 2 350 20:47 10.08.2022
50 Rain 17 998 93 10000 1 340 18:55 10.08.2022
51 Clouds 20 998 73 10000 3 60 17:37 10.08.2022
52 Clouds 21 998 64 10000 5 20 16:33 10.08.2022
53 Clouds 23 998 64 10000 2 330 13:35 10.08.2022
54 Clouds 26 997 50 10000 1 80 12:35 10.08.2022
55 Clouds 25 998 53 10000 2 180 09:24 10.08.2022
56 Clouds 25 998 53 10000 2 140 08:32 10.08.2022
57 Clouds 26 999 47 10000 1 260 06:23 10.08.2022
58 Clouds 21 1000 56 10000 3.13 340 03:24 10.08.2022
59 Clear 11 1002 87 10000 3 320 23:34 09.08.2022
60 Clear 11 1002 82 10000 3 320 22:56 09.08.2022
61 Clear 10 1003 87 10000 2 310 21:35 09.08.2022
62 Clear 10 1003 87 10000 3 320 20:26 09.08.2022
63 Clear 11 1003 87 10000 2 320 18:42 09.08.2022
64 Clear 12 1004 87 10000 2 330 17:28 09.08.2022
65 Clear 12 1004 87 10000 2 330 17:28 09.08.2022
66 Clear 12 1004 94 10000 2 340 16:40 09.08.2022
67 Clear 13 1003 87 10000 1 340 15:58 09.08.2022
68 Clouds 15 1006 70 10000 1.07 22 12:51 09.08.2022
69 Clear 21 1002 56 10000 2 160 09:39 09.08.2022
70 Clear 21 1002 56 10000 3 150 08:50 09.08.2022
71 Clear 22 1002 53 10000 4 140 07:52 09.08.2022
72 Clear 21 1001 64 10000 4.02 40 04:22 09.08.2022
73 Clear 14 1001 87 10000 3.13 10 23:27 08.08.2022
74 Clear 14 1001 87 10000 3.13 360 22:55 08.08.2022
75 Clear 14 1001 87 10000 3.13 360 22:18 08.08.2022
76 Clear 14 1001 87 10000 2 10 21:18 08.08.2022
77 Clear 14 1001 87 10000 3.13 10 19:51 08.08.2022
78 Clear 15 1002 82 10000 3.13 10 18:50 08.08.2022
79 Clear 15 1002 82 10000 2 20 16:44 08.08.2022
80 Clear 16 1002 77 10000 2 30 15:40 08.08.2022
81 Smoke 20 1003 64 5000 2 80 13:55 08.08.2022
82 Clear 21 1003 56 10000 4.02 40 12:19 08.08.2022
83 Clear 22 1003 49 10000 4.02 40 09:48 08.08.2022
84 Clear 21 1005 49 10000 5 50 06:51 08.08.2022
85 Clear 17 1007 63 10000 3.13 50 02:56 08.08.2022
86 Clear 6 1008 100 10000 2 350 22:42 07.08.2022
87 Clear 6 1008 93 10000 2 350 21:40 07.08.2022
88 Clear 6 1008 100 10000 1 330 20:26 07.08.2022
89 Clear 7 1008 93 10000 2 340 19:57 07.08.2022
90 Clear 7 1008 93 10000 2 340 19:39 07.08.2022
91 Clear 8 1008 100 10000 1 20 18:35 07.08.2022
92 Clear 10 1007 87 10000 1 360 16:54 07.08.2022
93 Clear 11 1007 87 10000 1 360 16:35 07.08.2022
94 Clear 12 1007 81 10000 2 250 15:23 07.08.2022
95 Clouds 15 1006 67 10000 5 260 13:34 07.08.2022
96 Clouds 15 1004 72 10000 5 250 11:58 07.08.2022
97 Clouds 16 1003 72 10000 6 230 10:34 07.08.2022
98 Clouds 17 999 72 10000 8.05 220 07:59 07.08.2022
99 Clouds 21 995 68 10000 6 140 03:32 07.08.2022
100 Clouds 19 996 68 10000 4.02 130 01:45 07.08.2022
101 Clouds 19 996 68 10000 4.02 110 22:25 06.08.2022
102 Clouds 19 996 68 10000 3.13 120 21:18 06.08.2022
103 Clouds 18 996 88 10000 1.79 100 19:41 06.08.2022
104 Rain 20 997 72 10000 5 180 18:30 06.08.2022
105 Clouds 22 996 60 10000 4.02 140 17:37 06.08.2022
106 Clouds 22 996 64 10000 3.13 130 14:52 06.08.2022
107 Clouds 20 996 77 10000 2 360 13:49 06.08.2022
108 Clouds 20 996 77 10000 3.13 340 12:19 06.08.2022
109 Smoke 24 997 64 5000 1 90 10:33 06.08.2022
110 Smoke 23 997 64 5000 1 120 09:21 06.08.2022
111 Smoke 21 997 77 5000 3.13 180 03:54 06.08.2022
112 Smoke 21 996 73 5000 3.13 140 23:56 05.08.2022
113 Smoke 22 996 68 5000 2 150 22:33 05.08.2022
114 Clouds 22 995 68 10000 1 170 20:20 05.08.2022
115 Smoke 23 996 64 5000 2 160 18:47 05.08.2022
116 Smoke 23 996 68 5000 2 140 18:27 05.08.2022
117 Smoke 23 996 68 3200 2 140 16:50 05.08.2022
118 Smoke 23 997 73 3200 3.13 120 15:23 05.08.2022
119 Smoke 24 997 69 5000 3.13 120 14:33 05.08.2022
120 Smoke 25 997 61 5000 3.13 130 13:25 05.08.2022
121 Smoke 25 997 65 5000 3.13 140 12:45 05.08.2022
122 Smoke 26 997 61 5000 3.13 140 10:59 05.08.2022
123 Smoke 27 998 54 5000 3.13 100 08:45 05.08.2022
124 Smoke 28 998 51 5000 3.13 120 07:33 05.08.2022
125 Smoke 21 1001 77 3200 2 80 01:52 05.08.2022
126 Smoke 19 1002 88 3200 1.79 130 22:40 04.08.2022
127 Mist 19 1002 94 3200 2 80 21:27 04.08.2022
128 Mist 18 1002 100 3200 1 50 20:53 04.08.2022
129 Mist 18 1003 93 3200 1 360 20:33 04.08.2022
130 Mist 19 1003 100 5000 2 60 18:57 04.08.2022
131 Mist 20 1003 93 5000 2 40 18:33 04.08.2022
132 Clouds 22 1003 88 10000 3.13 40 14:50 04.08.2022
133 Clouds 23 1003 83 10000 2 30 13:23 04.08.2022
134 Clouds 24 1003 78 10000 2 60 11:38 04.08.2022
135 Clouds 25 1003 73 10000 2 70 10:20 04.08.2022
136 Clouds 24 1004 73 10000 3.13 50 07:44 04.08.2022
137 Clear 23 1005 73 10000 3.13 80 02:46 04.08.2022
138 Fog 18 1006 100 900 2 10 23:58 03.08.2022
139 Fog 17 1006 100 250 2 10 23:36 03.08.2022
140 Fog 17 1005 100 250 2 20 21:27 03.08.2022
141 Fog 16 1005 100 150 2 360 20:20 03.08.2022
142 Fog 16 1005 100 350 2 350 19:19 03.08.2022
143 Mist 17 1005 100 2000 2 360 16:48 03.08.2022
144 Mist 18 1005 93 1800 1 40 16:22 03.08.2022
145 Clouds 20 1005 93 10000 2 40 13:40 03.08.2022
146 Clouds 22 1005 78 10000 2 60 10:50 03.08.2022
147 Clouds 21 1005 82 10000 1 140 07:23 03.08.2022
148 Smoke 20 1004 82 5000 2 320 04:22 03.08.2022
149 Smoke 19 1005 93 5000 2 320 03:23 03.08.2022
150 Smoke 18 1004 93 5000 3.13 310 00:49 03.08.2022
151 Smoke 18 1003 93 5000 3.13 310 22:37 02.08.2022
152 Smoke 18 1003 93 5000 4.02 330 21:51 02.08.2022
153 Smoke 18 1003 100 5000 4.02 360 20:30 02.08.2022
154 Smoke 19 1002 93 5000 3.13 330 17:52 02.08.2022
155 Smoke 19 1001 100 2400 2 340 14:46 02.08.2022
156 Smoke 21 1000 94 5000 1 280 10:51 02.08.2022
157 Smoke 20 999 93 2400 2 280 08:54 02.08.2022
158 Rain 20 999 93 1500 2 240 07:52 02.08.2022
159 Smoke 21 998 94 5000 1 140 05:40 02.08.2022
160 Smoke 21 998 88 5000 2 130 03:40 02.08.2022
161 Clouds 19 998 100 10000 3.13 360 23:35 01.08.2022
162 Clouds 19 998 93 10000 2 20 22:21 01.08.2022
163 Clouds 19 998 93 10000 2 350 20:47 01.08.2022
164 Rain 19 998 93 10000 1 100 19:22 01.08.2022
165 Clouds 19 998 93 10000 0 0 17:27 01.08.2022
166 Clouds 19 997 93 10000 1 310 16:50 01.08.2022
167 Rain 19 997 93 10000 3.13 360 15:51 01.08.2022
168 Rain 19 998 93 10000 3.13 10 15:29 01.08.2022
169 Clouds 24 997 64 10000 1 60 13:45 01.08.2022
170 Clouds 27 997 50 10000 4 310 11:49 01.08.2022
171 Clouds 27 997 61 10000 3 170 09:39 01.08.2022
172 Clouds 28 997 51 10000 3.13 190 08:21 01.08.2022
173 Clear 27 998 54 10000 3.13 200 04:46 01.08.2022
174 Smoke 24 998 64 5000 2 170 02:32 01.08.2022
175 Smoke 21 998 82 2400 2 170 23:54 31.07.2022
176 Smoke 20 998 93 2100 1 150 22:36 31.07.2022
177 Smoke 20 998 93 2100 1 150 22:36 31.07.2022
178 Smoke 20 998 88 3200 1 130 20:50 31.07.2022
179 Smoke 20 998 93 5000 2 140 19:40 31.07.2022
180 Smoke 20 999 88 5000 1 350 17:44 31.07.2022
181 Clear 24 999 60 10000 2 150 15:30 31.07.2022
182 Clear 26 998 57 10000 1 120 13:41 31.07.2022
183 Clear 28 998 51 10000 2 90 11:52 31.07.2022
184 Clear 32 999 29 10000 4.02 180 09:28 31.07.2022
185 Clear 29 1000 48 10000 2 130 06:43 31.07.2022
186 Clouds 25 1001 61 10000 3.13 200 02:57 31.07.2022
187 Clouds 22 1001 73 10000 2 320 23:30 30.07.2022
188 Clouds 21 1001 77 10000 2 240 22:19 30.07.2022
189 Clouds 20 1001 82 10000 4.02 200 21:47 30.07.2022
190 Clouds 20 1000 82 10000 2 180 20:56 30.07.2022
191 Clouds 21 1001 82 10000 1 170 19:58 30.07.2022
192 Clouds 21 1001 77 10000 1 230 18:51 30.07.2022
193 Clouds 22 1001 73 10000 2 170 17:41 30.07.2022
194 Clouds 23 1001 64 10000 3.13 240 15:38 30.07.2022
195 Clouds 24 1001 60 10000 3.13 190 14:53 30.07.2022
196 Clouds 29 1001 48 10000 3 230 12:47 30.07.2022
197 Clouds 29 1000 54 10000 2 170 11:55 30.07.2022
198 Clear 29 1000 48 10000 3.13 160 10:28 30.07.2022
199 Clear 30 1000 45 10000 3.13 160 09:46 30.07.2022
200 Clear 29 1001 51 10000 4.02 170 07:54 30.07.2022
201 Smoke 24 1002 69 2400 3.13 210 02:36 30.07.2022
202 Smoke 22 1003 78 2400 2 170 01:46 30.07.2022
203 Smoke 17 1002 77 3200 0 0 22:25 29.07.2022
204 Smoke 17 1002 82 3200 1 230 21:23 29.07.2022
205 Smoke 18 1002 77 5000 0 0 19:57 29.07.2022
206 Smoke 20 1002 77 3200 0 0 17:53 29.07.2022
207 Smoke 22 1002 78 2400 1 170 15:26 29.07.2022
208 Smoke 30 1001 37 5000 3 230 13:18 29.07.2022
209 Clear 34 1001 30 10000 2 160 10:42 29.07.2022
210 Clear 35 1002 26 10000 2 210 08:50 29.07.2022
211 Clear 35 1002 28 10000 3.13 230 07:54 29.07.2022
212 Clear 25 1006 57 10000 2 90 01:47 29.07.2022
213 Clear 19 1007 77 10000 1 10 22:49 28.07.2022
214 Clear 17 1007 82 10000 2 340 21:20 28.07.2022
215 Clear 18 1007 77 10000 2 350 20:31 28.07.2022
216 Clear 18 1007 77 10000 2 330 19:43 28.07.2022
217 Clear 20 1007 68 10000 2 340 18:50 28.07.2022
218 Clear 21 1007 68 10000 1.79 330 17:43 28.07.2022
219 Clear 22 1007 68 10000 2 350 16:51 28.07.2022
220 Clear 25 1007 53 10000 3.13 320 15:32 28.07.2022
221 Clear 30 1007 42 10000 1 50 13:29 28.07.2022
222 Clear 34 1007 30 10000 1 160 10:37 28.07.2022
223 Clear 33 1008 33 10000 2 120 06:42 28.07.2022
224 Clear 31 1009 43 10000 2 140 05:29 28.07.2022
225 Clear 23 1010 68 10000 1 220 00:49 28.07.2022
226 Clear 17 1010 77 10000 0 0 22:41 27.07.2022
227 Clear 16 1009 77 10000 1 10 21:28 27.07.2022
228 Clear 17 1009 72 10000 1.79 320 19:43 27.07.2022
229 Clear 18 1009 72 10000 1 330 17:50 27.07.2022
230 Smoke 22 1009 64 5000 1 280 15:52 27.07.2022
231 Smoke 23 1008 64 5000 1 230 14:58 27.07.2022
232 Smoke 24 1009 60 5000 1 230 14:35 27.07.2022
233 Clear 29 1008 39 10000 1 190 12:50 27.07.2022
234 Clear 31 1009 35 10000 2 140 08:44 27.07.2022
235 Clear 30 1010 35 10000 2 180 06:56 27.07.2022
236 Clear 24 1011 60 10000 2 160 02:42 27.07.2022
237 Clear 13 1011 82 10000 1 20 22:29 26.07.2022
238 Clear 13 1010 82 10000 1 20 21:21 26.07.2022
239 Clear 13 1010 88 10000 2 330 20:43 26.07.2022
240 Clear 15 1010 82 10000 0.89 350 18:44 26.07.2022
241 Clear 18 1010 72 10000 0.89 230 18:19 26.07.2022
242 Clear 17 1009 77 10000 1 200 16:32 26.07.2022
243 Clear 19 1009 72 10000 2 180 15:36 26.07.2022
244 Clear 26 1009 47 10000 2 170 13:47 26.07.2022
245 Clear 29 1009 34 10000 2 150 11:39 26.07.2022
246 Clear 30 1009 30 10000 2 170 09:32 26.07.2022
247 Clear 29 1009 32 10000 3.13 180 07:31 26.07.2022
248 Clear 21 1010 68 10000 3.13 150 00:57 26.07.2022
249 Clear 20 1009 72 10000 3.13 170 23:33 25.07.2022
250 Clear 19 1008 77 10000 1 140 22:27 25.07.2022
251 Clear 18 1008 82 10000 2 140 21:43 25.07.2022
252 Clear 18 1008 82 10000 2 130 20:42 25.07.2022
253 Clear 17 1007 88 10000 1 150 19:50 25.07.2022
254 Clear 17 1007 82 10000 0 0 18:21 25.07.2022
255 Clear 19 1006 68 10000 1 340 17:31 25.07.2022
256 Clear 20 1006 77 10000 1 10 15:30 25.07.2022
257 Clear 29 1005 39 10000 1 100 12:29 25.07.2022
258 Clear 30 1005 37 10000 2 120 10:32 25.07.2022
259 Clear 29 1006 39 10000 1 110 06:32 25.07.2022
260 Clear 20 1007 72 10000 2 10 23:55 24.07.2022
261 Clear 19 1007 68 10000 2 360 23:18 24.07.2022
262 Clear 15 1007 82 10000 2 350 22:35 24.07.2022
263 Clear 14 1006 82 10000 2 350 21:28 24.07.2022
264 Clear 14 1006 82 10000 3.13 330 20:53 24.07.2022
265 Clear 14 1006 82 10000 3.13 340 20:27 24.07.2022
266 Clear 16 1005 72 10000 3.13 340 18:56 24.07.2022
267 Clear 19 1005 63 10000 2 340 16:48 24.07.2022
268 Clear 21 1005 60 10000 2 340 15:51 24.07.2022
269 Clear 22 1005 56 10000 2 360 14:40 24.07.2022
270 Clear 27 1004 44 10000 1 80 12:55 24.07.2022
271 Clear 29 1004 37 10000 2 40 12:18 24.07.2022
272 Clear 30 1004 27 10000 4.02 360 11:26 24.07.2022
273 Clear 31 1004 29 10000 4.02 340 08:56 24.07.2022
274 Clear 31 1004 29 10000 3.13 340 07:52 24.07.2022
275 Clear 30 1005 28 10000 4.02 350 06:27 24.07.2022
276 Clear 24 1007 57 10000 3.13 330 01:50 24.07.2022
277 Clear 15 1007 82 10000 2 70 22:25 23.07.2022
278 Clear 14 1007 87 10000 1 130 20:35 23.07.2022
279 Clear 16 1007 82 10000 3.13 320 18:51 23.07.2022
280 Clear 16 1007 82 10000 4.02 320 17:48 23.07.2022
281 Clear 17 1007 82 10000 3.13 320 17:24 23.07.2022
282 Clear 19 1007 72 10000 2 310 15:51 23.07.2022
283 Clear 20 1007 68 10000 2 340 15:20 23.07.2022
284 Clear 22 1007 68 10000 1 300 14:36 23.07.2022
285 Clear 24 1007 64 10000 1 250 13:53 23.07.2022
286 Clear 25 1007 65 10000 3.13 180 11:46 23.07.2022
287 Clear 25 1007 65 10000 3.13 170 10:28 23.07.2022
288 Clear 25 1007 57 10000 4.02 170 09:26 23.07.2022
289 Clouds 23 1009 73 10000 3.13 170 05:58 23.07.2022
290 Clouds 20 1010 88 10000 0 0 02:54 23.07.2022
291 Rain 18 1011 93 3200 0 0 23:57 22.07.2022
292 Rain 18 1011 88 10000 0 0 21:28 22.07.2022
293 Clouds 18 1011 88 10000 1 320 19:58 22.07.2022
294 Clouds 19 1011 82 3178 1.79 310 18:41 22.07.2022
295 Clouds 19 1011 82 10000 0 0 17:38 22.07.2022
296 Clouds 22 1011 68 10000 2 340 15:30 22.07.2022
297 Clouds 25 1011 57 10000 3.13 310 12:33 22.07.2022
298 Clouds 26 1010 54 10000 5 290 09:45 22.07.2022
299 Clouds 26 1010 57 10000 4.02 280 09:19 22.07.2022
300 Clouds 26 1010 61 10000 3.13 200 07:30 22.07.2022
301 Clouds 25 1011 65 10000 3.13 260 04:19 22.07.2022
302 Clear 18 1011 93 10000 0 0 23:27 21.07.2022
303 Mist 16 1010 100 5000 0 0 21:39 21.07.2022
304 Mist 17 1009 100 2100 1 340 19:41 21.07.2022
305 Fog 18 1009 100 1800 1 310 18:29 21.07.2022
306 Fog 19 1008 93 1300 1 200 17:21 21.07.2022
307 Smoke 19 1008 100 3200 1 170 15:58 21.07.2022
308 Smoke 20 1007 100 5000 0 0 14:46 21.07.2022
309 Smoke 22 1007 88 5000 1 140 13:49 21.07.2022
310 Smoke 23 1007 83 5000 2 260 11:54 21.07.2022
311 Smoke 28 1005 51 5000 2 230 09:54 21.07.2022
312 Clouds 29 1005 45 10000 4.02 220 08:53 21.07.2022
313 Clouds 29 1005 45 10000 4.02 220 08:53 21.07.2022
314 Clear 30 1005 42 10000 4.02 180 07:50 21.07.2022
315 Clear 29 1006 42 10000 4.02 180 06:27 21.07.2022
316 Smoke 26 1006 65 3200 3.13 140 02:49 21.07.2022
317 Smoke 20 1006 93 3200 2 10 22:47 20.07.2022
318 Smoke 20 1006 93 3200 2 360 22:19 20.07.2022
319 Smoke 20 1006 88 3200 2 350 20:46 20.07.2022
320 Smoke 20 1006 88 3200 2 30 19:46 20.07.2022
321 Smoke 20 1006 88 3200 2 10 18:54 20.07.2022
322 Smoke 20 1006 88 3200 2 20 18:31 20.07.2022
323 Smoke 21 1006 82 3200 2 10 17:28 20.07.2022
324 Smoke 21 1006 83 3200 2 30 15:33 20.07.2022
325 Smoke 22 1006 78 3200 2 10 14:49 20.07.2022
326 Smoke 23 1006 78 3200 3 20 13:21 20.07.2022
327 Smoke 24 1005 73 3200 4 30 10:59 20.07.2022
328 Clouds 24 1004 69 10000 3 50 06:35 20.07.2022
329 Clouds 19 1004 82 10000 4 30 01:56 20.07.2022
330 Clear 19 1004 82 10000 3 20 00:42 20.07.2022
331 Smoke 18 1004 82 5000 3.13 350 22:37 19.07.2022
332 Smoke 18 1004 82 5000 3.13 350 22:18 19.07.2022
333 Smoke 17 1003 88 5000 3.13 10 20:50 19.07.2022
334 Smoke 17 1003 88 3200 2 360 19:37 19.07.2022
335 Smoke 18 1003 88 3200 2 10 18:42 19.07.2022
336 Smoke 18 1003 88 3200 2 360 17:55 19.07.2022
337 Smoke 19 1002 82 3200 2 360 15:50 19.07.2022
338 Smoke 21 1002 83 3200 2 50 13:51 19.07.2022
339 Smoke 25 1001 57 3200 1 100 11:34 19.07.2022
340 Smoke 25 1001 53 2400 1 120 09:54 19.07.2022
341 Smoke 25 1001 50 3200 1 160 08:48 19.07.2022
342 Smoke 25 1001 50 3200 2 190 08:21 19.07.2022
343 Smoke 23 1001 56 3200 3 150 07:18 19.07.2022
344 Smoke 22 1000 56 2400 2 130 05:20 19.07.2022
345 Smoke 21 1000 56 2400 2 130 04:40 19.07.2022
346 Smoke 19 1000 68 3200 0 0 00:21 19.07.2022
347 Smoke 19 999 72 3200 2 110 23:21 18.07.2022
348 Smoke 18 999 77 3200 2 100 22:51 18.07.2022
349 Smoke 18 999 77 3200 1 110 21:50 18.07.2022
350 Smoke 18 999 88 3200 0 0 20:50 18.07.2022
351 Smoke 19 999 82 3200 1 10 19:24 18.07.2022
352 Smoke 22 999 78 3200 1 340 16:50 18.07.2022
353 Smoke 23 999 78 3200 1 70 15:42 18.07.2022
354 Smoke 26 999 69 3200 1 80 13:45 18.07.2022
355 Smoke 28 999 58 5000 1 160 12:37 18.07.2022
356 Smoke 31 999 40 5000 1 170 10:34 18.07.2022
357 Smoke 31 999 43 5000 2 160 08:50 18.07.2022
358 Clear 31 1000 45 10000 2 110 06:54 18.07.2022
359 Clear 21 1003 88 10000 0 0 23:31 17.07.2022
360 Clear 20 1003 88 10000 0 0 22:34 17.07.2022
361 Clear 19 1003 93 10000 0 0 21:47 17.07.2022
362 Clear 19 1003 93 10000 0 0 20:55 17.07.2022
363 Clear 20 1003 93 10000 1 50 20:36 17.07.2022
364 Clear 21 1003 88 10000 1 300 19:28 17.07.2022
365 Clear 21 1003 88 10000 1 330 18:27 17.07.2022
366 Clear 23 1002 83 10000 1 310 17:38 17.07.2022
367 Clear 22 1002 88 10000 0 0 16:50 17.07.2022
368 Clear 23 1002 83 10000 0 0 16:26 17.07.2022
369 Clear 27 1002 69 10000 1 10 14:37 17.07.2022
370 Clear 29 1002 58 10000 2 70 13:31 17.07.2022
371 Clear 32 1002 40 10000 1 100 11:35 17.07.2022
372 Clear 33 1002 43 10000 2 90 08:57 17.07.2022
373 Clear 31 1004 48 10000 2 170 03:44 17.07.2022
374 Clear 27 1004 65 10000 1 110 02:32 17.07.2022
375 Clear 22 1005 78 10000 0 0 23:20 16.07.2022
376 Clear 19 1005 82 10000 2 360 21:30 16.07.2022
377 Clear 19 1005 88 10000 2 330 19:30 16.07.2022
378 Clear 21 1005 77 10000 2 360 18:27 16.07.2022
379 Clear 22 1005 78 10000 2 360 16:34 16.07.2022
380 Clear 26 1005 61 10000 2 80 13:49 16.07.2022
381 Clear 30 1006 45 10000 2 100 10:53 16.07.2022
382 Clear 31 1006 45 10000 2 90 09:33 16.07.2022
383 Clear 31 1006 43 10000 1 120 08:43 16.07.2022
384 Clear 31 1006 45 10000 1 120 08:23 16.07.2022
385 Clear 28 1008 54 10000 2 120 04:21 16.07.2022
386 Clear 26 1008 61 10000 2 120 02:49 16.07.2022
387 Clear 20 1009 82 10000 1 30 23:34 15.07.2022
388 Clear 19 1009 88 10000 1.79 360 22:41 15.07.2022
389 Clear 18 1009 93 10000 2 310 21:29 15.07.2022
390 Clear 18 1009 93 10000 1 330 20:30 15.07.2022
391 Clear 19 1009 93 10000 2 340 18:42 15.07.2022
392 Clear 19 1009 93 10000 1 320 17:38 15.07.2022
393 Clear 23 1009 78 10000 0 0 14:54 15.07.2022
394 Clouds 25 1009 69 10000 1 70 13:18 15.07.2022
395 Clouds 27 1009 57 10000 2 110 11:44 15.07.2022
396 Clouds 28 1009 51 10000 2 100 10:23 15.07.2022
397 Clouds 26 1010 61 10000 2 110 06:30 15.07.2022
398 Clouds 21 1011 88 10000 3.13 310 00:58 15.07.2022
399 Clouds 21 1011 82 10000 3.13 320 00:22 15.07.2022
400 Rain 19 1011 93 10000 2 320 22:52 14.07.2022
401 Clouds 19 1011 93 10000 3.13 320 21:51 14.07.2022
402 Clouds 19 1011 93 10000 3.13 320 21:30 14.07.2022
403 Clouds 19 1011 100 10000 4.02 320 20:45 14.07.2022
404 Rain 19 1011 100 10000 2 300 20:24 14.07.2022
405 Rain 19 1011 100 10000 2 310 19:45 14.07.2022
406 Rain 20 1011 93 10000 5 320 16:23 14.07.2022
407 Rain 20 1011 93 10000 2 290 15:50 14.07.2022
408 Clouds 21 1011 88 10000 4.02 320 14:43 14.07.2022
409 Rain 22 1011 83 10000 3.13 300 13:32 14.07.2022
410 Clouds 23 1010 78 10000 5 260 12:18 14.07.2022
411 Clouds 26 1010 57 10000 2 20 11:25 14.07.2022
412 Clouds 27 1010 54 10000 3 40 10:39 14.07.2022
413 Clear 28 1010 51 10000 3.13 60 08:21 14.07.2022
414 Clear 26 1012 61 10000 2 80 03:29 14.07.2022
415 Clear 20 1012 82 10000 2 80 00:54 14.07.2022
416 Clear 19 1011 88 10000 2 40 23:35 13.07.2022
417 Clear 18 1011 93 10000 2 10 22:23 13.07.2022
418 Clear 17 1011 100 10000 1 10 21:30 13.07.2022
419 Clear 17 1011 93 10000 2 360 20:26 13.07.2022
420 Clear 19 1011 88 10000 2 350 17:56 13.07.2022
421 Clear 19 1010 93 10000 1 20 16:59 13.07.2022
422 Clear 22 1010 83 10000 1 10 15:51 13.07.2022
423 Clear 24 1009 69 10000 1 90 13:45 13.07.2022
424 Clear 26 1009 54 10000 1 100 11:24 13.07.2022
425 Clouds 26 1009 54 10000 2 100 10:40 13.07.2022
426 Clouds 26 1008 57 10000 2 110 09:28 13.07.2022
427 Clouds 26 1008 54 10000 2 140 08:21 13.07.2022
428 Clouds 22 1009 78 10000 2 150 04:36 13.07.2022
429 Clouds 18 1008 100 10000 1 260 00:25 13.07.2022
430 Clouds 18 1007 100 10000 2 210 22:29 12.07.2022
431 Clouds 17 1007 100 10000 1 300 21:46 12.07.2022
432 Rain 17 1007 100 10000 1 160 20:53 12.07.2022
433 Thunderstorm 18 1007 100 10000 1 130 19:48 12.07.2022
434 Rain 20 1006 77 10000 3 230 18:35 12.07.2022
435 Clouds 20 1006 77 10000 2 20 16:36 12.07.2022
436 Clear 23 1007 64 10000 2 30 14:32 12.07.2022
437 Clear 23 1007 64 10000 2 30 14:32 12.07.2022
438 Clear 23 1007 64 10000 2 50 13:35 12.07.2022
439 Clouds 25 1007 57 10000 2 70 11:54 12.07.2022
440 Clouds 25 1007 53 10000 2 60 10:27 12.07.2022
441 Clouds 25 1008 57 10000 2 100 08:57 12.07.2022
442 Clouds 24 1008 57 10000 1 190 07:48 12.07.2022
443 Clouds 23 1008 60 10000 2 100 05:47 12.07.2022
444 Clouds 23 1008 60 10000 2 90 05:29 12.07.2022
445 Clouds 18 1009 82 10000 1 80 01:31 12.07.2022
446 Clouds 15 1008 100 10000 1 330 22:43 11.07.2022
447 Clouds 14 1008 93 10000 0 0 21:34 11.07.2022
448 Clouds 14 1008 93 10000 2 320 20:32 11.07.2022
449 Clouds 14 1007 93 10000 2 330 19:27 11.07.2022
450 Clear 15 1007 93 10000 2 340 18:30 11.07.2022
451 Clear 14 1006 93 10000 1 170 16:31 11.07.2022
452 Clear 17 1006 82 10000 1 310 15:28 11.07.2022
453 Clouds 19 1005 72 10000 1 270 13:26 11.07.2022
454 Clouds 20 1004 72 10000 3.13 280 11:24 11.07.2022
455 Clouds 20 1004 72 10000 3.13 280 11:24 11.07.2022
456 Clouds 20 1004 72 10000 3.13 280 11:24 11.07.2022
457 Clouds 21 1003 68 10000 4.02 240 10:18 11.07.2022
458 Clouds 20 1003 77 10000 4.02 230 09:40 11.07.2022
459 Clouds 17 1003 88 10000 3.13 260 08:32 11.07.2022
460 Clouds 19 996 93 10000 6 200 01:54 11.07.2022
461 Mist 18 995 100 5000 3.13 360 23:55 10.07.2022
462 Clouds 17 996 100 10000 3.13 340 22:52 10.07.2022
463 Rain 17 997 100 5000 3.13 330 21:20 10.07.2022
464 Rain 18 997 93 10000 3.13 350 20:37 10.07.2022
465 Rain 18 998 93 10000 3.13 350 19:40 10.07.2022
466 Thunderstorm 18 999 93 10000 2 50 18:43 10.07.2022
467 Clouds 20 998 73 10000 3 360 17:36 10.07.2022
468 Clouds 21 998 68 10000 4 350 16:41 10.07.2022
469 Clouds 21 999 68 10000 4 360 15:24 10.07.2022
470 Clouds 23 999 64 10000 4 10 13:48 10.07.2022
471 Clear 26 999 53 10000 5 40 12:27 10.07.2022
472 Clear 25 1000 57 10000 4 30 09:58 10.07.2022
473 Clear 25 1000 53 10000 4 40 08:44 10.07.2022
474 Clear 22 1000 68 10000 5 30 07:30 10.07.2022
475 Clouds 17 1002 77 10000 4 30 01:31 10.07.2022
476 Clouds 16 1003 77 10000 3.13 10 22:43 09.07.2022
477 Clouds 16 1003 82 10000 3.13 350 22:19 09.07.2022
478 Clouds 17 1003 77 10000 3.13 20 20:46 09.07.2022
479 Clouds 18 1004 67 10000 2 350 18:37 09.07.2022
480 Clouds 18 1004 67 10000 3.13 50 17:45 09.07.2022
481 Clouds 18 1004 72 10000 3.13 40 16:44 09.07.2022
482 Clouds 19 1005 68 10000 3.13 50 15:41 09.07.2022
483 Clouds 20 1005 59 10000 3.13 40 14:36 09.07.2022
484 Clouds 20 1006 59 10000 3.13 40 13:50 09.07.2022
485 Clouds 21 1006 56 10000 3.13 50 12:47 09.07.2022
486 Clear 22 1006 46 10000 4.02 40 11:31 09.07.2022
487 Clear 24 1006 31 10000 4.02 40 10:22 09.07.2022
488 Clear 24 1007 33 10000 3.13 80 07:53 09.07.2022
489 Clear 23 1007 40 10000 2 120 05:24 09.07.2022
490 Clear 19 1007 63 10000 3.13 170 02:34 09.07.2022
491 Clear 14 1006 71 10000 2 330 22:59 08.07.2022
492 Clear 11 1006 81 10000 2 320 21:59 08.07.2022
493 Clear 10 1006 87 10000 1 310 20:42 08.07.2022
494 Clear 9 1006 87 10000 1 230 20:23 08.07.2022
495 Clear 14 1004 71 10000 3.13 290 18:26 08.07.2022
496 Clear 16 1004 63 10000 4 280 16:49 08.07.2022
497 Clear 18 1002 55 10000 3 300 14:54 08.07.2022
498 Clear 20 1001 52 10000 4 300 13:45 08.07.2022
499 Clear 23 999 40 10000 7 310 11:59 08.07.2022
500 Clear 22 997 46 10000 7.15 300 10:37 08.07.2022
501 Clouds 19 995 68 10000 3 280 08:37 08.07.2022
502 Clouds 17 993 72 10000 8 280 06:50 08.07.2022
503 Clouds 17 986 72 10000 7.15 220 01:49 08.07.2022
504 Clouds 17 985 67 10000 5 200 23:30 07.07.2022
505 Clouds 17 985 67 10000 5 190 22:38 07.07.2022
506 Clouds 18 985 67 10000 4.92 220 20:40 07.07.2022
507 Clear 19 984 82 10000 4.02 220 18:23 07.07.2022
508 Clouds 19 983 88 10000 4.02 210 16:57 07.07.2022
509 Clouds 20 983 88 10000 4.02 190 14:56 07.07.2022
510 Clouds 20 983 88 10000 3.13 190 13:25 07.07.2022
511 Clouds 20 983 88 10000 3.13 180 12:37 07.07.2022
512 Clouds 20 983 88 10000 3.13 180 12:18 07.07.2022
513 Rain 21 984 88 10000 7 250 11:29 07.07.2022
514 Clouds 24 984 73 10000 8.05 240 10:42 07.07.2022
515 Clouds 34 981 36 10000 8.05 156 10:24 07.07.2022
516 Clouds 24 986 78 10000 5 30 07:22 07.07.2022
517 Clouds 18 992 88 10000 5 30 02:55 07.07.2022
518 Clouds 18 995 83 10000 3.99 42 23:36 06.07.2022
519 Clouds 17 995 88 10000 6 50 23:18 06.07.2022
520 Clouds 17 995 88 10000 6 50 22:56 06.07.2022
521 Clouds 17 996 88 10000 0 0 22:38 06.07.2022
522 Clouds 19 997 77 10000 4.92 30 20:54 06.07.2022
523 Clouds 19 998 88 10000 4.02 30 19:35 06.07.2022
524 Clouds 21 998 77 10000 2 60 17:32 06.07.2022
525 Clouds 23 998 68 10000 2 350 15:59 06.07.2022
526 Clouds 25 998 65 10000 5 340 14:33 06.07.2022
527 Clouds 29 997 54 10000 3 300 12:35 06.07.2022
528 Clouds 30 996 51 10000 4 300 11:48 06.07.2022
529 Clouds 30 996 55 10000 4.02 310 10:18 06.07.2022
530 Clouds 34 995 40 10000 5 260 07:44 06.07.2022
531 Clouds 34 995 40 10000 5 260 07:44 06.07.2022
532 Clouds 33 995 43 10000 7.15 270 07:20 06.07.2022
533 Clear 28 994 61 10000 4.02 200 01:42 06.07.2022
534 Clear 25 994 73 10000 3.13 200 22:45 05.07.2022
535 Clear 22 994 83 10000 1 190 21:36 05.07.2022
536 Clear 20 995 93 10000 1 120 20:38 05.07.2022
537 Clear 20 995 88 10000 0.89 100 19:41 05.07.2022
538 Clear 21 995 82 10000 0 0 19:21 05.07.2022
539 Clear 23 996 73 10000 1 10 17:46 05.07.2022
540 Clear 23 996 73 10000 1 360 16:44 05.07.2022
541 Clear 25 997 69 10000 2 20 15:25 05.07.2022
542 Clouds 28 998 58 10000 3.13 40 13:53 05.07.2022
543 Clouds 28 997 65 10000 2 60 12:42 05.07.2022
544 Clouds 31 998 55 10000 2 60 11:32 05.07.2022
545 Clear 32 999 49 10000 2 110 10:34 05.07.2022
546 Clear 32 999 49 10000 3.13 150 08:26 05.07.2022
547 Clear 32 1000 49 10000 3.13 160 07:31 05.07.2022
548 Clear 30 1001 55 10000 2 110 04:47 05.07.2022
549 Clear 29 1001 54 10000 2 130 04:21 05.07.2022
550 Clear 25 1001 65 10000 3.13 340 23:45 04.07.2022
551 Clear 23 1001 73 10000 2 330 23:25 04.07.2022
552 Clear 23 1001 73 10000 4.02 310 22:21 04.07.2022
553 Clear 21 1001 82 10000 2 280 21:20 04.07.2022
554 Clear 21 1001 82 10000 1 290 20:52 04.07.2022
555 Clear 21 1001 82 10000 3.13 310 20:33 04.07.2022
556 Clear 21 1001 82 10000 2 300 19:51 04.07.2022
557 Clear 22 1000 78 10000 2 310 19:33 04.07.2022
558 Clear 22 1000 78 10000 1.79 10 17:42 04.07.2022
559 Clear 24 999 73 10000 3.13 260 15:44 04.07.2022
560 Clouds 26 999 61 10000 2 240 14:54 04.07.2022
561 Clouds 28 999 61 10000 2 180 13:29 04.07.2022
562 Thunderstorm 28 999 58 10000 2 160 12:20 04.07.2022
563 Clouds 29 997 51 10000 4 170 10:33 04.07.2022
564 Clear 32 997 40 10000 4 180 09:40 04.07.2022
565 Clear 28 998 51 10000 3 170 07:21 04.07.2022
566 Clear 29 998 48 10000 1 170 03:35 04.07.2022
567 Clear 23 998 68 10000 2 150 00:35 04.07.2022
568 Clear 22 998 78 10000 1 240 22:58 03.07.2022
569 Clear 22 998 78 10000 1 240 22:58 03.07.2022
570 Clouds 19 998 88 10000 0 0 20:51 03.07.2022
571 Clouds 19 998 88 10000 2 200 20:25 03.07.2022
572 Clouds 20 998 88 10000 2 140 19:26 03.07.2022
573 Clouds 21 998 82 10000 1 240 18:35 03.07.2022
574 Clouds 22 998 78 10000 1 240 17:43 03.07.2022
575 Clouds 23 998 73 10000 3.13 160 15:49 03.07.2022
576 Clouds 25 998 50 10000 1 140 14:58 03.07.2022
577 Clouds 27 998 44 10000 3.13 130 13:59 03.07.2022
578 Clouds 27 998 44 10000 3.13 130 13:33 03.07.2022
579 Clouds 28 998 45 10000 2 120 12:33 03.07.2022
580 Clear 29 998 42 10000 2 130 11:20 03.07.2022
581 Clouds 29 998 42 10000 3.13 140 10:38 03.07.2022
582 Clouds 30 999 35 10000 3.13 190 09:31 03.07.2022
583 Clear 31 999 33 10000 2 110 07:34 03.07.2022
584 Clear 23 1002 56 10000 0 0 01:42 03.07.2022
585 Clear 20 1003 59 10000 1 90 00:20 03.07.2022
586 Clear 17 1003 72 10000 2 40 22:33 02.07.2022
587 Clear 15 1003 76 10000 2 10 20:50 02.07.2022
588 Clear 14 1003 76 10000 1 340 19:52 02.07.2022
589 Clear 15 1003 76 10000 2 330 19:20 02.07.2022
590 Clear 18 1003 67 10000 1.79 10 17:41 02.07.2022
591 Clear 18 1003 72 10000 2 360 16:53 02.07.2022
592 Clear 24 1003 50 10000 2 50 14:31 02.07.2022
593 Clear 27 1003 41 10000 3.13 60 12:21 02.07.2022
594 Clear 28 1003 37 10000 3.13 80 11:26 02.07.2022
595 Clear 28 1003 37 10000 2 90 10:37 02.07.2022
596 Clear 28 1003 37 10000 3.13 90 08:55 02.07.2022
597 Clear 28 1004 34 10000 3.13 90 08:20 02.07.2022
598 Clear 28 1004 34 10000 3.13 100 07:27 02.07.2022
599 Clear 24 1006 50 10000 2 110 01:53 02.07.2022
600 Clear 21 1006 64 10000 2 330 23:56 01.07.2022
601 Clear 17 1006 67 10000 1 330 22:41 01.07.2022
602 Clear 14 1005 82 10000 2 320 21:47 01.07.2022
603 Clear 14 1005 82 10000 2 310 21:27 01.07.2022
604 Clear 14 1006 82 10000 3 320 20:40 01.07.2022
605 Clear 14 1005 82 10000 2 310 19:46 01.07.2022
606 Clear 17 1005 77 10000 2 340 17:53 01.07.2022
607 Clear 19 1004 77 10000 1 310 15:54 01.07.2022
608 Clear 24 1004 50 10000 2 240 13:54 01.07.2022
609 Clear 24 1004 53 10000 2 170 12:41 01.07.2022
610 Clear 27 1004 41 10000 3.13 120 10:20 01.07.2022
611 Clear 27 1004 41 10000 2 120 09:43 01.07.2022
612 Clear 26 1005 39 10000 5 170 05:25 01.07.2022
613 Clear 21 1005 60 10000 1 300 00:42 01.07.2022
614 Clear 17 1005 72 10000 3.13 310 23:22 30.06.2022
615 Clear 16 1005 77 10000 2 310 22:44 30.06.2022
616 Clear 15 1005 76 10000 1 310 22:25 30.06.2022
617 Clear 14 1005 82 10000 2 320 21:45 30.06.2022
618 Clear 11 1005 93 10000 1 280 20:30 30.06.2022
619 Clear 11 1005 93 10000 0 0 19:54 30.06.2022
620 Clear 13 1005 87 10000 1 300 19:25 30.06.2022
621 Clear 14 1005 82 10000 2 320 18:42 30.06.2022
622 Clear 15 1005 82 10000 2 310 17:44 30.06.2022
623 Clear 16 1004 82 10000 3.13 330 16:55 30.06.2022
624 Clear 17 1004 77 10000 2 330 15:42 30.06.2022
625 Clouds 21 1005 60 10000 2 340 13:49 30.06.2022
626 Clouds 23 1005 53 10000 3.13 330 12:36 30.06.2022
627 Clouds 23 1005 53 10000 3.13 320 11:55 30.06.2022
628 Clouds 25 1005 53 10000 4.02 300 09:55 30.06.2022
629 Clouds 24 1005 57 10000 3.13 310 09:35 30.06.2022
630 Clouds 23 1005 60 10000 4.02 310 08:19 30.06.2022
631 Clouds 23 1005 60 10000 4.02 320 07:24 30.06.2022
632 Clouds 21 1004 73 10000 6 310 02:38 30.06.2022
633 Clouds 20 1003 82 10000 4.02 340 23:38 29.06.2022
634 Clouds 19 1002 82 10000 1 10 22:41 29.06.2022
635 Clouds 19 1002 82 10000 2 60 21:58 29.06.2022
636 Clouds 18 1001 82 10000 1 350 20:34 29.06.2022
637 Clouds 18 1001 82 10000 2 360 19:55 29.06.2022
638 Clouds 19 1001 82 10000 1 350 17:55 29.06.2022
639 Clouds 19 1002 82 10000 0 0 16:55 29.06.2022
640 Clear 20 1002 77 10000 1 130 15:33 29.06.2022
641 Clear 22 1002 73 10000 1 90 13:43 29.06.2022
642 Clouds 24 1002 64 10000 1 140 12:36 29.06.2022
643 Clouds 23 1002 56 10000 3.13 160 09:46 29.06.2022
644 Clouds 23 1003 60 10000 4.02 170 09:22 29.06.2022
645 Clear 23 1003 56 10000 5 150 06:29 29.06.2022
646 Clear 21 1003 40 10000 4.02 300 02:59 29.06.2022
647 Clear 18 1003 45 10000 3.13 270 00:53 29.06.2022
648 Clear 17 1003 48 10000 3.13 280 00:33 29.06.2022
649 Clear 14 1002 71 10000 4.02 300 22:50 28.06.2022
650 Clear 12 1001 87 10000 2 320 21:58 28.06.2022
651 Clear 13 1001 81 10000 2 300 21:39 28.06.2022
652 Clear 13 1001 81 10000 2 300 21:19 28.06.2022
653 Clear 13 1001 81 10000 2 320 19:54 28.06.2022
654 Clear 14 1001 82 10000 4.02 310 19:28 28.06.2022
655 Clear 14 1000 82 10000 3.13 310 18:40 28.06.2022
656 Clear 16 999 77 10000 4.02 310 16:58 28.06.2022
657 Clear 17 999 72 10000 2 300 15:55 28.06.2022
658 Clear 19 998 63 10000 4 300 14:50 28.06.2022
659 Clear 20 998 64 10000 5 320 14:18 28.06.2022
660 Clouds 22 997 56 10000 4 310 13:45 28.06.2022
661 Clouds 23 997 53 10000 5 320 12:28 28.06.2022
662 Clouds 24 995 57 10000 4 330 09:53 28.06.2022
663 Clouds 25 995 50 10000 5 320 08:55 28.06.2022
664 Clouds 27 995 41 10000 5 300 08:33 28.06.2022
665 Clouds 26 995 44 10000 5 310 07:20 28.06.2022
666 Clouds 23 995 60 10000 6 280 03:39 28.06.2022
667 Clear 20 994 72 10000 2 240 23:51 27.06.2022
668 Clouds 20 994 72 10000 2 240 23:26 27.06.2022
669 Clouds 18 994 82 10000 3.13 230 21:53 27.06.2022
670 Clouds 18 994 82 10000 3.13 230 21:22 27.06.2022
671 Clouds 19 994 72 10000 3.13 250 20:21 27.06.2022
672 Clouds 20 994 73 10000 2 180 18:50 27.06.2022
673 Clouds 19 994 77 10000 3.13 230 17:38 27.06.2022
674 Clouds 20 994 77 10000 1 180 15:50 27.06.2022
675 Clouds 21 995 73 10000 2 210 14:18 27.06.2022
676 Rain 22 994 68 10000 1 280 12:58 27.06.2022
677 Thunderstorm 23 994 68 10000 3 360 11:40 27.06.2022
678 Clouds 28 994 45 10000 5 200 09:45 27.06.2022
679 Clouds 28 994 45 10000 6 200 08:43 27.06.2022
680 Clouds 27 994 47 10000 6 180 07:49 27.06.2022
681 Clouds 26 996 47 10000 3.13 250 05:50 27.06.2022
682 Clear 23 996 56 10000 4.02 230 01:24 27.06.2022
683 Clear 21 996 60 10000 3.13 220 22:59 26.06.2022
684 Clear 21 996 60 10000 1.79 220 21:38 26.06.2022
685 Clouds 22 995 49 10000 3 250 20:33 26.06.2022
686 Clouds 24 994 43 10000 3 250 18:34 26.06.2022
687 Clouds 25 994 38 10000 6 280 17:47 26.06.2022
688 Clear 23 994 56 10000 2 180 15:37 26.06.2022
689 Clear 28 994 39 10000 2 180 14:23 26.06.2022
690 Clear 30 994 32 10000 2 190 13:24 26.06.2022
691 Clear 30 994 35 10000 4.02 180 11:49 26.06.2022
692 Clear 31 994 23 10000 3.13 160 10:42 26.06.2022
693 Clear 31 995 23 10000 3.13 150 10:19 26.06.2022
694 Clear 31 996 20 10000 4.02 160 08:27 26.06.2022
695 Clear 31 997 19 10000 4.02 180 06:31 26.06.2022
696 Clear 19 999 68 10000 1 150 00:37 26.06.2022
697 Clear 19 999 68 10000 1 150 00:19 26.06.2022
698 Clear 17 999 67 10000 0 0 23:31 25.06.2022
699 Clear 16 1000 67 10000 0 0 22:48 25.06.2022
700 Clear 14 999 77 10000 0 0 22:25 25.06.2022
701 Clear 12 1000 76 10000 0 0 21:21 25.06.2022
702 Clear 11 1000 82 10000 1 280 20:48 25.06.2022
703 Clear 12 1000 82 10000 1 310 20:25 25.06.2022
704 Clear 12 1000 82 10000 1 310 20:25 25.06.2022
705 Clear 14 1000 76 10000 3.13 320 18:24 25.06.2022
706 Clear 14 1000 77 10000 1 310 17:27 25.06.2022
707 Clear 18 999 63 10000 2 320 16:27 25.06.2022
708 Clear 23 999 49 10000 0 0 14:41 25.06.2022
709 Clear 28 999 26 10000 0.89 90 12:51 25.06.2022
710 Clear 28 999 26 10000 1 90 12:31 25.06.2022
711 Clear 28 1000 28 10000 3.13 90 09:35 25.06.2022
712 Clear 29 1000 26 10000 2 90 08:54 25.06.2022
713 Clear 28 1001 26 10000 3.13 90 08:20 25.06.2022
714 Clear 26 1001 36 10000 4.02 100 06:36 25.06.2022
715 Clear 20 1002 37 10000 2 310 00:50 25.06.2022
716 Clear 19 1002 39 10000 2 310 23:57 24.06.2022
717 Clear 17 1002 39 10000 3.13 300 22:28 24.06.2022
718 Clear 14 1001 41 10000 2 360 21:28 24.06.2022
719 Clear 12 1001 50 10000 1 280 20:24 24.06.2022
720 Clear 15 1001 38 10000 1 310 19:37 24.06.2022
721 Clear 15 1001 38 10000 1 310 19:18 24.06.2022
722 Clear 14 1001 38 10000 2 340 18:31 24.06.2022
723 Clear 14 1001 38 10000 3.13 340 17:57 24.06.2022
724 Clear 17 1001 31 10000 3.13 320 16:46 24.06.2022
725 Clear 23 1000 20 10000 3 330 14:50 24.06.2022
726 Clear 24 1000 25 10000 4 320 14:23 24.06.2022
727 Clear 26 1000 17 10000 5 340 13:41 24.06.2022
728 Clear 28 999 13 10000 5 350 11:41 24.06.2022
729 Clear 29 999 12 10000 5 340 10:36 24.06.2022
730 Clear 29 999 12 10000 6 320 09:42 24.06.2022
731 Clear 29 999 12 10000 6 320 09:42 24.06.2022
732 Clear 29 1000 13 10000 5 330 08:54 24.06.2022
733 Clear 29 1000 14 10000 6 320 08:19 24.06.2022
734 Clear 29 1000 15 10000 6 360 06:44 24.06.2022
735 Clear 28 1000 20 10000 6 330 06:22 24.06.2022
736 Clear 27 1001 26 10000 7.15 360 04:46 24.06.2022
737 Clear 20 1000 49 10000 7.15 330 23:32 23.06.2022
738 Clear 19 1000 52 10000 7.15 320 22:43 23.06.2022
739 Clear 16 1000 58 10000 7.15 320 20:59 23.06.2022
740 Clear 17 1000 55 10000 7.15 300 20:36 23.06.2022
741 Clear 17 1000 55 10000 6 300 19:48 23.06.2022
742 Clear 18 1000 51 10000 4.02 320 18:27 23.06.2022
743 Clear 19 1000 45 10000 4.02 300 17:34 23.06.2022
744 Clear 20 1000 39 10000 3.13 330 16:26 23.06.2022
745 Clear 22 1001 35 10000 3 320 15:26 23.06.2022
746 Clear 22 1001 35 10000 3 320 15:26 23.06.2022
747 Clear 25 1001 27 10000 5 320 14:18 23.06.2022
748 Clear 30 1000 20 10000 6 330 11:41 23.06.2022
749 Clear 30 1000 16 10000 6 350 10:40 23.06.2022
750 Clear 30 1000 22 10000 5 310 09:19 23.06.2022
751 Clear 28 1002 30 10000 6 320 04:43 23.06.2022
752 Clear 23 1002 43 10000 4.02 320 00:27 23.06.2022
753 Clear 20 1002 45 10000 4.02 320 23:52 22.06.2022
754 Clear 20 1002 45 10000 4.02 320 23:18 22.06.2022
755 Clear 16 1003 51 10000 4.02 320 21:36 22.06.2022
756 Clear 16 1003 51 10000 5 320 20:51 22.06.2022
757 Clear 15 1002 51 10000 4.02 310 20:18 22.06.2022
758 Clear 12 1002 62 10000 1 280 19:27 22.06.2022
759 Clear 13 1003 62 10000 2 300 17:33 22.06.2022
760 Clear 15 1003 51 10000 3 320 16:41 22.06.2022
761 Clear 15 1003 51 10000 3 320 16:41 22.06.2022
762 Clear 19 1002 39 10000 2 320 15:28 22.06.2022
763 Clear 24 1002 29 10000 3 320 14:41 22.06.2022
764 Clear 25 1002 27 10000 4 330 13:46 22.06.2022
765 Clear 27 1002 21 10000 4 320 13:24 22.06.2022
766 Clear 27 1002 39 10000 1 30 11:54 22.06.2022
767 Clear 27 1002 39 10000 1 140 10:58 22.06.2022
768 Clear 27 1002 41 10000 2 130 10:36 22.06.2022
769 Clear 26 1002 44 10000 2 150 08:57 22.06.2022
770 Clear 26 1003 47 10000 3.13 100 06:39 22.06.2022
771 Clear 22 1004 60 10000 2 360 01:59 22.06.2022
772 Clear 20 1004 59 10000 3.13 350 00:56 22.06.2022
773 Clear 17 1004 67 10000 3.13 340 22:40 21.06.2022
774 Clear 15 1003 76 10000 3.13 350 20:47 21.06.2022
775 Clear 17 1003 77 10000 3.13 360 19:20 21.06.2022
776 Clear 18 1003 67 10000 3.13 10 17:47 21.06.2022
777 Clear 19 1002 68 10000 4.02 360 16:36 21.06.2022
778 Clear 24 1001 46 10000 5 10 11:57 21.06.2022
779 Clear 24 1000 43 10000 6 350 10:38 21.06.2022
780 Clear 25 1000 44 10000 5 360 09:20 21.06.2022
781 Clear 25 1000 44 10000 6 10 07:40 21.06.2022
782 Clear 23 999 53 10000 2 60 04:43 21.06.2022
783 Clear 18 999 59 10000 4.02 350 00:21 21.06.2022
784 Clear 15 998 76 10000 3.13 340 22:21 20.06.2022
785 Clear 15 997 76 10000 4.02 320 21:36 20.06.2022
786 Clear 17 997 77 10000 3.13 340 20:28 20.06.2022
787 Clouds 17 997 67 10000 2 360 19:35 20.06.2022
788 Clouds 19 997 63 10000 3 10 18:25 20.06.2022
789 Clouds 19 997 59 10000 3 20 17:45 20.06.2022
790 Clear 21 997 56 10000 3.13 30 16:24 20.06.2022
791 Clear 22 997 56 10000 3 10 15:20 20.06.2022
792 Clear 29 996 30 10000 2 170 12:18 20.06.2022
793 Clear 29 996 28 10000 4.02 140 09:57 20.06.2022
794 Clear 29 996 26 10000 4.02 140 08:54 20.06.2022
795 Clear 29 996 30 10000 5 130 07:51 20.06.2022
796 Clear 28 997 32 10000 6 170 05:18 20.06.2022
797 Clear 20 999 59 10000 2 170 01:32 20.06.2022
798 Clear 18 999 67 10000 2 190 23:49 19.06.2022
799 Clear 16 999 77 10000 1 190 22:40 19.06.2022
800 Clear 12 999 82 10000 0 0 21:43 19.06.2022
801 Clear 11 1000 87 10000 1 230 20:55 19.06.2022
802 Clear 11 1000 93 10000 2 220 20:25 19.06.2022
803 Clear 12 1000 93 10000 1 220 19:45 19.06.2022
804 Clear 13 999 81 10000 0 0 18:33 19.06.2022
805 Clear 14 999 82 10000 1 230 17:48 19.06.2022
806 Clear 15 999 76 10000 1 230 17:21 19.06.2022
807 Clear 15 1000 82 10000 2 230 16:34 19.06.2022
808 Clear 17 1000 67 10000 1 230 15:37 19.06.2022
809 Clear 20 1000 59 10000 1 210 14:51 19.06.2022
810 Clear 24 1000 43 10000 2 180 13:54 19.06.2022
811 Clear 26 1000 34 10000 3 200 12:39 19.06.2022
812 Clear 26 1001 29 10000 5 170 10:54 19.06.2022
813 Clear 27 1001 28 10000 5 170 09:34 19.06.2022
814 Clear 27 1002 30 10000 5 180 08:43 19.06.2022
815 Clear 27 1002 32 10000 6 180 07:36 19.06.2022
816 Clear 26 1003 41 10000 4.02 170 04:41 19.06.2022
817 Clear 20 1005 64 10000 2 150 01:28 19.06.2022
818 Clear 19 1005 68 10000 2 160 00:24 19.06.2022
819 Clear 18 1005 72 10000 1 160 23:35 18.06.2022
820 Clear 15 1005 72 10000 0 0 22:36 18.06.2022
821 Clear 12 1004 76 10000 1 10 20:56 18.06.2022
822 Clear 10 1004 93 10000 1 30 20:28 18.06.2022
823 Clear 11 1004 87 10000 1 10 19:37 18.06.2022
824 Clear 12 1004 87 10000 1 330 18:45 18.06.2022
825 Clear 14 1004 82 10000 2 260 17:31 18.06.2022
826 Clear 14 1004 82 10000 1 240 16:47 18.06.2022
827 Clear 18 1004 63 10000 2 220 15:30 18.06.2022
828 Clear 22 1004 49 10000 1 180 14:42 18.06.2022
829 Clear 23 1003 40 10000 1 170 13:22 18.06.2022
830 Clear 24 1003 38 10000 1.79 110 11:38 18.06.2022
831 Clear 24 1003 38 10000 2 90 10:46 18.06.2022
832 Clear 24 1003 38 10000 3.13 140 09:22 18.06.2022
833 Clear 24 1003 38 10000 3.13 90 08:19 18.06.2022
834 Clear 23 1004 40 10000 3.13 80 06:44 18.06.2022
835 Clear 20 1004 56 10000 2 100 03:24 18.06.2022
836 Clear 18 1004 63 10000 1 10 01:24 18.06.2022
837 Clear 16 1004 67 10000 1.79 330 00:46 18.06.2022
838 Clear 14 1004 71 10000 2 310 23:52 17.06.2022
839 Clear 12 1004 76 10000 2 290 23:19 17.06.2022
840 Clear 8 1003 87 10000 2 320 20:55 17.06.2022
841 Clear 8 1003 87 10000 3 310 19:31 17.06.2022
842 Clear 9 1003 87 10000 3 320 18:37 17.06.2022
843 Clear 10 1003 81 10000 3 310 17:43 17.06.2022
844 Clear 11 1003 82 10000 3 320 16:43 17.06.2022
845 Clear 11 1003 82 10000 3 320 16:43 17.06.2022
846 Clear 13 1003 81 10000 2 310 15:43 17.06.2022
847 Clear 13 1003 87 10000 1 320 15:20 17.06.2022
848 Clear 18 1002 59 10000 1 60 14:20 17.06.2022
849 Clear 18 1002 51 10000 2 60 13:46 17.06.2022
850 Clouds 20 1002 42 10000 3.13 350 12:57 17.06.2022
851 Clear 20 1002 39 10000 3.13 330 11:57 17.06.2022
852 Clear 21 1002 35 10000 4.02 340 11:36 17.06.2022
853 Clear 21 1002 35 10000 3.13 280 10:51 17.06.2022
854 Clear 21 1002 40 10000 5 300 08:30 17.06.2022
855 Clear 20 1002 42 10000 4.92 330 07:47 17.06.2022
856 Clear 20 1002 39 10000 4.02 300 05:57 17.06.2022
857 Clouds 15 1003 67 10000 1 270 02:52 17.06.2022
858 Clouds 12 1003 76 10000 3.13 310 00:42 17.06.2022
859 Clouds 13 1002 71 10000 2 320 22:45 16.06.2022
860 Clouds 13 1002 71 10000 2 10 22:20 16.06.2022
861 Clouds 12 1002 76 10000 2 10 21:19 16.06.2022
862 Clouds 13 1002 66 10000 3.13 40 20:50 16.06.2022
863 Clouds 14 1001 77 10000 4 330 19:58 16.06.2022
864 Clouds 16 1001 72 10000 4 360 18:44 16.06.2022
865 Rain 15 1001 88 10000 1 30 17:44 16.06.2022
866 Thunderstorm 17 1001 67 10000 10 300 16:46 16.06.2022
867 Clouds 17 1000 67 10000 4 270 15:44 16.06.2022
868 Clouds 18 1000 63 10000 5 310 15:20 16.06.2022
869 Clouds 20 1000 52 10000 1 280 13:49 16.06.2022
870 Clouds 22 999 46 10000 1 350 12:38 16.06.2022
871 Clouds 23 999 38 10000 2 30 11:55 16.06.2022
872 Clouds 24 999 41 10000 2 80 11:19 16.06.2022
873 Clouds 23 999 40 10000 4.02 60 10:35 16.06.2022
874 Clouds 25 999 36 10000 5 60 09:37 16.06.2022
875 Clouds 24 999 35 10000 4.02 70 08:50 16.06.2022
876 Clouds 25 999 36 10000 6 50 07:38 16.06.2022
877 Clouds 23 1000 49 10000 4.02 90 05:43 16.06.2022
878 Clear 21 1001 56 10000 1 80 03:23 16.06.2022
879 Clear 20 1001 59 10000 3.13 330 01:51 16.06.2022
880 Clear 20 1001 56 10000 1 260 01:22 16.06.2022
881 Clear 20 1001 56 10000 1 260 01:22 16.06.2022
882 Clouds 17 1001 63 10000 3.13 250 23:58 15.06.2022
883 Clouds 15 1001 76 10000 2 180 22:47 15.06.2022
884 Clouds 14 1002 82 10000 2 210 21:29 15.06.2022
885 Clouds 13 1002 87 10000 1 140 20:58 15.06.2022
886 Clouds 13 1002 81 10000 1 100 20:36 15.06.2022
887 Clouds 13 1001 87 10000 1 100 19:52 15.06.2022
888 Clouds 13 1002 87 10000 2 250 18:30 15.06.2022
889 Rain 14 1002 82 10000 2 330 17:43 15.06.2022
890 Clouds 14 1002 82 10000 2 240 16:21 15.06.2022
891 Clouds 16 1002 72 10000 2 230 14:57 15.06.2022
892 Clouds 20 1002 52 10000 2 240 13:22 15.06.2022
893 Clouds 20 1002 52 10000 1 10 12:40 15.06.2022
894 Clouds 19 1002 55 10000 2 100 11:24 15.06.2022
895 Clouds 20 1002 56 10000 2 60 10:22 15.06.2022
896 Clouds 18 1002 63 10000 3.13 60 08:59 15.06.2022
897 Clouds 18 1002 63 10000 5 60 07:36 15.06.2022
898 Clouds 17 1002 67 10000 5 60 05:36 15.06.2022
899 Clouds 14 1002 82 10000 3.13 350 02:47 15.06.2022
900 Clouds 12 1003 93 10000 2 10 01:36 15.06.2022
901 Clouds 11 1002 93 10000 3.13 310 00:19 15.06.2022
902 Clouds 11 1002 93 10000 2 340 23:38 14.06.2022
903 Clouds 10 1002 93 10000 2 330 22:47 14.06.2022
904 Clouds 10 1002 93 10000 0 0 21:43 14.06.2022
905 Clouds 10 1002 93 10000 2 270 21:20 14.06.2022
906 Clouds 10 1002 87 10000 1 310 20:40 14.06.2022
907 Clouds 11 1002 87 10000 2 350 19:47 14.06.2022
908 Clouds 12 1002 81 10000 1.79 320 18:39 14.06.2022
909 Clouds 12 1002 87 10000 2 300 17:19 14.06.2022
910 Clouds 12 1002 87 10000 1.79 300 16:42 14.06.2022
911 Clouds 13 1002 81 10000 1 330 15:41 14.06.2022
912 Clouds 16 1002 67 10000 2 320 14:53 14.06.2022
913 Clouds 17 1002 63 10000 1 340 14:18 14.06.2022
914 Clouds 17 1002 67 10000 1 10 13:24 14.06.2022
915 Clouds 19 1001 52 10000 4 230 11:58 14.06.2022
916 Clouds 18 1001 55 10000 4.02 230 10:52 14.06.2022
917 Clouds 18 1002 59 10000 3 230 10:29 14.06.2022
918 Thunderstorm 17 1002 77 10000 3.13 300 09:22 14.06.2022
919 Clouds 17 1002 67 10000 3.13 20 08:37 14.06.2022
920 Clouds 21 1001 43 10000 5 190 06:32 14.06.2022
921 Clear 19 1002 59 10000 4.02 170 03:52 14.06.2022
922 Clear 16 1003 72 10000 3.13 190 01:38 14.06.2022
923 Clear 14 1003 82 10000 3.13 180 00:24 14.06.2022
924 Clear 11 1003 93 10000 1 220 22:58 13.06.2022
925 Clear 10 1003 100 10000 0 0 22:23 13.06.2022
926 Clear 6 1003 100 10000 0 0 21:39 13.06.2022
927 Mist 7 1003 93 5000 2 310 19:59 13.06.2022
928 Mist 9 1003 93 1700 1 130 19:18 13.06.2022
929 Clear 8 1003 93 10000 0 0 17:56 13.06.2022
930 Clear 10 1003 93 10000 1 160 17:25 13.06.2022
931 Clear 11 1004 93 10000 2 160 16:31 13.06.2022
932 Clouds 12 1004 87 10000 1 190 14:52 13.06.2022
933 Clouds 12 1003 94 10000 2 130 14:31 13.06.2022
934 Rain 13 1004 88 10000 5 360 13:36 13.06.2022
935 Rain 14 1005 72 10000 5 350 12:23 13.06.2022
936 Thunderstorm 20 1003 39 10000 4.02 180 10:58 13.06.2022
937 Clouds 21 1003 35 10000 5 190 10:26 13.06.2022
938 Clouds 18 1005 42 10000 2.39 261 08:59 13.06.2022
939 Clouds 18 1005 43 10000 3.65 231 06:53 13.06.2022
940 Clear 18 1006 51 10000 6 160 05:35 13.06.2022
941 Clear 17 1007 51 10000 3.13 250 02:27 13.06.2022
942 Clear 15 1007 58 10000 3.13 220 01:36 13.06.2022
943 Clear 15 1007 58 10000 3.13 220 01:36 13.06.2022
944 Clear 13 1006 71 10000 4.02 240 23:49 12.06.2022
945 Clear 11 1006 81 10000 4.92 260 22:44 12.06.2022
946 Clear 10 1006 87 10000 4.02 250 21:58 12.06.2022
947 Clear 10 1005 87 10000 4.02 250 20:54 12.06.2022
948 Clear 10 1005 87 10000 5 250 20:18 12.06.2022
949 Clear 11 1004 87 10000 5 260 19:30 12.06.2022
950 Clouds 12 1004 87 10000 4.02 260 17:41 12.06.2022
951 Clouds 14 1003 87 10000 3.13 300 15:57 12.06.2022
952 Clouds 14 1003 93 10000 1 200 14:56 12.06.2022
953 Clouds 14 1003 93 10000 1 280 14:20 12.06.2022
954 Rain 14 1003 93 10000 1 30 13:49 12.06.2022
955 Clouds 15 1003 87 10000 2 340 12:35 12.06.2022
956 Clouds 15 1002 87 10000 5 320 11:37 12.06.2022
957 Clouds 15 1002 87 10000 4.02 320 10:22 12.06.2022
958 Thunderstorm 16 1002 82 5000 8.05 250 08:54 12.06.2022
959 Clouds 19 1002 55 10000 6 230 08:35 12.06.2022
960 Rain 21 1002 43 10000 6 210 07:32 12.06.2022
961 Clouds 24 1003 38 10000 4 150 04:35 12.06.2022
962 Clouds 22 1004 43 10000 4.02 130 02:53 12.06.2022
963 Clouds 19 1004 55 10000 2 90 01:39 12.06.2022
964 Clouds 18 1005 59 10000 2 100 00:58 12.06.2022
965 Clouds 16 1005 67 10000 1 90 00:20 12.06.2022
966 Clouds 15 1005 72 10000 1 320 23:40 11.06.2022
967 Clouds 14 1006 87 10000 3 70 22:38 11.06.2022
968 Clouds 13 1007 76 10000 3.13 350 21:42 11.06.2022
969 Clouds 12 1007 81 10000 1 10 20:36 11.06.2022
970 Clouds 12 1007 81 10000 1 350 19:46 11.06.2022
971 Clouds 12 1007 81 10000 1 320 19:19 11.06.2022
972 Clouds 14 1007 77 10000 1 10 18:33 11.06.2022
973 Clouds 14 1007 77 10000 0 0 17:50 11.06.2022
974 Clouds 15 1007 72 10000 1 140 17:26 11.06.2022
975 Clouds 15 1007 72 10000 1 160 16:55 11.06.2022
976 Clouds 16 1008 63 10000 2 210 16:27 11.06.2022
977 Clouds 17 1008 59 10000 1 80 15:31 11.06.2022
978 Clouds 20 1007 42 10000 2 240 13:53 11.06.2022
979 Clouds 21 1007 37 10000 3 250 12:51 11.06.2022
980 Clouds 24 1007 27 10000 4 260 10:48 11.06.2022
981 Clouds 23 1007 28 10000 3 260 09:51 11.06.2022
982 Clouds 24 1007 29 10000 4.02 270 09:18 11.06.2022
983 Clouds 23 1008 28 10000 5 310 07:40 11.06.2022
984 Clouds 24 1008 27 10000 6 320 06:25 11.06.2022
985 Clear 24 1008 25 10000 6 280 04:30 11.06.2022
986 Clear 20 1009 49 10000 4.02 270 01:53 11.06.2022
987 Clear 18 1009 55 10000 2 250 01:32 11.06.2022
988 Clear 17 1009 55 10000 5 280 23:49 10.06.2022
989 Clear 16 1008 58 10000 6 270 22:31 10.06.2022
990 Clear 15 1008 67 10000 5 280 21:50 10.06.2022
991 Clear 14 1009 67 10000 4.02 280 20:41 10.06.2022
992 Clear 13 1009 76 10000 3.13 270 20:21 10.06.2022
993 Clear 14 1009 77 10000 3 300 19:20 10.06.2022
994 Clear 14 1008 82 10000 4 300 18:55 10.06.2022
995 Clouds 15 1008 82 10000 5 310 17:55 10.06.2022
996 Clouds 16 1008 82 10000 4 300 17:33 10.06.2022
997 Clouds 16 1008 82 10000 4 290 16:50 10.06.2022
998 Clouds 16 1008 87 10000 4.02 300 15:44 10.06.2022
999 Clouds 17 1008 77 10000 3.13 300 14:51 10.06.2022
1000 Clouds 19 1008 77 10000 2 220 13:26 10.06.2022
1001 Clouds 18 1008 77 10000 1 240 11:59 10.06.2022
1002 Clouds 20 1008 68 10000 2 290 11:25 10.06.2022
1003 Clouds 19 1008 72 10000 2 150 10:36 10.06.2022
1004 Clouds 16 1008 82 10000 1 230 09:26 10.06.2022
1005 Clouds 18 1008 72 10000 2 240 07:57 10.06.2022
1006 Clouds 17 1008 72 10000 2 310 06:49 10.06.2022
1007 Clouds 16 1008 82 10000 4 310 06:30 10.06.2022
1008 Rain 15 1008 88 10000 3 290 05:32 10.06.2022
1009 Clouds 20 1007 49 10000 2 20 02:50 10.06.2022
1010 Clouds 20 1006 52 10000 3.13 80 01:37 10.06.2022
1011 Clear 18 1006 55 10000 2 40 23:58 09.06.2022
1012 Clear 17 1006 59 10000 3.13 340 22:43 09.06.2022
1013 Clear 16 1006 58 10000 1 60 21:44 09.06.2022
1014 Clear 15 1006 62 10000 3.13 310 21:25 09.06.2022
1015 Clear 14 1006 67 10000 3.13 330 20:38 09.06.2022
1016 Clear 15 1006 58 10000 4.02 330 19:51 09.06.2022
1017 Clear 14 1006 67 10000 2 310 18:41 09.06.2022
1018 Clear 16 1006 63 10000 3.13 310 17:33 09.06.2022
1019 Clear 18 1006 55 10000 3.13 320 16:28 09.06.2022
1020 Clouds 21 1006 52 10000 2 310 15:22 09.06.2022
1021 Clouds 24 1006 41 10000 3 360 14:30 09.06.2022
1022 Clouds 25 1006 36 10000 3 310 13:44 09.06.2022
1023 Clouds 27 1006 28 10000 4 350 13:19 09.06.2022
1024 Clouds 29 1006 28 10000 4.02 320 11:35 09.06.2022
1025 Clouds 27 1006 32 10000 5 330 10:34 09.06.2022
1026 Clear 29 1006 26 10000 8.05 310 09:38 09.06.2022
1027 Clear 29 1006 28 10000 7.15 310 09:20 09.06.2022
1028 Clear 29 1007 30 10000 6 290 07:29 09.06.2022
1029 Clear 25 1009 44 10000 2 260 04:30 09.06.2022
1030 Clear 20 1010 56 10000 1 240 00:36 09.06.2022
1031 Clear 18 1010 67 10000 2 230 23:23 08.06.2022
1032 Clear 16 1010 72 10000 1 230 22:44 08.06.2022
1033 Clear 14 1011 71 10000 1 230 22:24 08.06.2022
1034 Clear 11 1011 82 10000 1 140 21:40 08.06.2022
1035 Clear 11 1011 82 10000 1 340 20:25 08.06.2022
1036 Clear 11 1010 87 10000 1 320 19:42 08.06.2022
1037 Clear 11 1011 87 10000 1 310 18:48 08.06.2022
1038 Clear 13 1011 81 10000 0 0 17:46 08.06.2022
1039 Clear 17 1011 72 10000 2 280 15:56 08.06.2022
1040 Clear 20 1011 52 10000 1 130 14:46 08.06.2022
1041 Clear 27 1010 32 10000 2 70 12:55 08.06.2022
1042 Clear 27 1010 32 10000 2 70 12:55 08.06.2022
1043 Clear 28 1010 26 10000 3.13 40 11:41 08.06.2022
1044 Clear 28 1010 26 10000 3.13 40 11:19 08.06.2022
1045 Clear 28 1011 24 10000 3.13 50 09:30 08.06.2022
1046 Clear 28 1011 24 10000 3.13 50 08:55 08.06.2022
1047 Clear 28 1011 26 10000 3.13 60 07:22 08.06.2022
1048 Clear 26 1012 31 10000 3.13 50 04:49 08.06.2022
1049 Clear 20 1012 64 10000 3.13 40 01:27 08.06.2022
1050 Clear 19 1012 63 10000 4.02 360 23:41 07.06.2022
1051 Clear 18 1012 67 10000 4.02 10 23:22 07.06.2022
1052 Clouds 18 1012 63 10000 4.02 360 22:38 07.06.2022
1053 Clouds 16 1012 72 10000 4.02 340 21:41 07.06.2022
1054 Clouds 16 1012 72 10000 3.13 330 21:23 07.06.2022
1055 Clouds 16 1011 72 10000 3.13 350 20:42 07.06.2022
1056 Clouds 17 1011 67 10000 3.13 10 19:58 07.06.2022
1057 Clouds 17 1011 67 10000 2 340 18:38 07.06.2022
1058 Clouds 17 1010 72 10000 2 340 17:51 07.06.2022
1059 Clouds 17 1010 72 10000 1 70 16:49 07.06.2022
1060 Clouds 21 1009 56 10000 4 360 16:31 07.06.2022
1061 Clouds 22 1009 56 10000 3 340 15:38 07.06.2022
1062 Clouds 22 1009 56 10000 3 340 15:19 07.06.2022
1063 Clouds 21 1009 68 10000 3 350 14:44 07.06.2022
1064 Clouds 26 1008 47 10000 3 360 13:42 07.06.2022
1065 Clouds 26 1008 47 10000 3 360 13:42 07.06.2022
1066 Clouds 26 1008 47 10000 3 360 13:23 07.06.2022
1067 Clouds 29 1008 30 10000 2 340 11:56 07.06.2022
1068 Clouds 28 1008 37 10000 3.13 310 10:53 07.06.2022
1069 Clouds 26 1008 78 10000 5 70 09:26 07.06.2022
1070 Thunderstorm 22 1009 46 10000 5 60 08:22 07.06.2022
1071 Thunderstorm 23 1009 46 10000 8 350 07:18 07.06.2022
1072 Clouds 28 1009 32 10000 2 170 04:52 07.06.2022
1073 Clear 20 1010 60 10000 2 120 01:28 07.06.2022
1074 Clear 17 1010 67 10000 2 90 23:59 06.06.2022
1075 Clear 16 1010 67 10000 0 0 22:56 06.06.2022
1076 Clear 14 1010 72 10000 0 0 22:30 06.06.2022
1077 Clear 12 1010 76 10000 0 0 21:28 06.06.2022
1078 Clear 13 1010 76 10000 2 310 19:29 06.06.2022
1079 Clear 13 1009 82 10000 2 320 18:59 06.06.2022
1080 Clear 14 1009 77 10000 2 320 18:32 06.06.2022
1081 Clear 16 1009 67 10000 3.13 330 17:27 06.06.2022
1082 Clear 17 1009 67 10000 2 330 16:21 06.06.2022
1083 Clear 19 1009 63 10000 1 310 15:33 06.06.2022
1084 Clear 24 1009 43 10000 1 10 14:36 06.06.2022
1085 Clear 25 1009 41 10000 1 50 13:27 06.06.2022
1086 Clear 27 1009 32 10000 3.13 60 12:37 06.06.2022
1087 Clear 28 1009 28 10000 2 90 11:54 06.06.2022
1088 Clear 28 1009 24 10000 3.13 80 10:46 06.06.2022
1089 Clear 28 1010 28 10000 3.13 80 09:40 06.06.2022
1090 Clear 29 1010 24 10000 3.13 110 08:33 06.06.2022
1091 Clear 27 1011 28 10000 3.13 130 07:28 06.06.2022
1092 Clear 27 1012 28 10000 2 110 05:29 06.06.2022
1093 Clear 27 1012 28 10000 2 110 05:29 06.06.2022
1094 Clear 27 1013 36 10000 2 120 03:44 06.06.2022
1095 Clear 22 1014 46 10000 1 30 01:23 06.06.2022
1096 Clear 22 1014 49 10000 1 10 00:42 06.06.2022
1097 Clear 17 1014 63 10000 1 360 23:44 05.06.2022
1098 Clear 15 1014 67 10000 0 0 22:47 05.06.2022
1099 Clear 12 1014 82 10000 1 330 20:59 05.06.2022
1100 Clear 12 1014 82 10000 0 0 19:50 05.06.2022
1101 Clear 13 1014 82 10000 2 340 18:30 05.06.2022
1102 Clear 13 1014 82 10000 1 360 17:55 05.06.2022
1103 Clear 14 1014 77 10000 2 360 17:27 05.06.2022
1104 Clear 16 1014 72 10000 2 340 16:57 05.06.2022
1105 Clear 16 1014 77 10000 2 360 16:37 05.06.2022
1106 Clear 20 1014 56 10000 1 60 14:34 05.06.2022
1107 Clear 25 1014 38 10000 2 50 12:59 05.06.2022
1108 Clear 24 1014 43 10000 2 70 11:49 05.06.2022
1109 Clear 27 1014 32 10000 3 60 10:42 05.06.2022
1110 Clear 27 1014 30 10000 3.13 60 10:22 05.06.2022
1111 Clear 28 1014 24 10000 3.13 110 08:40 05.06.2022
1112 Clear 28 1014 23 10000 2 120 08:20 05.06.2022
1113 Clear 25 1015 33 10000 3.13 160 05:23 05.06.2022
1114 Clear 24 1016 38 10000 3.13 140 04:30 05.06.2022
1115 Clear 23 1016 38 10000 2 310 01:33 05.06.2022
1116 Clear 22 1016 43 10000 0 0 00:52 05.06.2022
1117 Clear 15 1016 58 10000 1 110 22:43 04.06.2022
1118 Clear 10 1015 76 10000 0 0 20:55 04.06.2022
1119 Clear 12 1014 71 10000 2 350 18:53 04.06.2022
1120 Clear 15 1013 76 10000 2 320 16:47 04.06.2022
1121 Clear 14 1013 82 10000 2 320 16:19 04.06.2022
1122 Clear 19 1012 63 10000 1 200 15:22 04.06.2022
1123 Clear 24 1012 35 10000 1.79 180 13:46 04.06.2022
1124 Clear 26 1012 27 10000 3.13 160 11:23 04.06.2022
1125 Clear 27 1012 26 10000 3.13 170 10:50 04.06.2022
1126 Clear 27 1012 26 10000 3.13 170 09:45 04.06.2022
1127 Clear 29 1012 23 10000 3.13 170 08:44 04.06.2022
1128 Clear 29 1012 23 10000 3.13 170 08:44 04.06.2022
1129 Clear 28 1012 23 10000 5 210 07:51 04.06.2022
1130 Clear 27 1013 24 10000 4.02 190 06:20 04.06.2022
1131 Clear 19 1014 55 10000 2 170 02:36 04.06.2022
1132 Clear 16 1014 67 10000 1 110 00:20 04.06.2022
1133 Clear 14 1014 72 10000 0 0 22:49 03.06.2022
1134 Clear 11 1014 82 10000 0 0 21:43 03.06.2022
1135 Clear 13 1015 76 10000 1.6 219 20:38 03.06.2022
1136 Clouds 16 1014 65 10000 2.2 186 19:19 03.06.2022
1137 Clouds 18 1014 57 10000 1.12 189 16:54 03.06.2022
1138 Clouds 18 1014 56 10000 0.61 190 15:40 03.06.2022
1139 Clouds 19 1014 57 10000 0.88 231 13:49 03.06.2022
1140 Clear 26 1012 29 10000 2 150 11:51 03.06.2022
1141 Clear 26 1012 27 10000 3.13 140 09:54 03.06.2022
1142 Clear 25 1012 31 10000 3.13 210 09:29 03.06.2022
1143 Clear 26 1012 29 10000 4.02 210 07:42 03.06.2022
1144 Clear 25 1012 31 10000 3.13 210 06:45 03.06.2022
1145 Clear 25 1013 31 10000 2 200 06:27 03.06.2022
1146 Clear 21 1013 46 10000 2 200 02:50 03.06.2022
1147 Clear 15 1013 62 10000 3.13 190 23:36 02.06.2022
1148 Clear 14 1012 62 10000 0 0 21:58 02.06.2022
1149 Clear 14 1011 62 10000 2 170 20:34 02.06.2022
1150 Clear 13 1011 66 10000 2 120 19:54 02.06.2022
1151 Clear 13 1011 71 10000 2 110 19:36 02.06.2022
1152 Clear 14 1010 67 10000 1 150 18:34 02.06.2022
1153 Clear 16 1009 63 10000 1 270 16:28 02.06.2022
1154 Clear 19 1009 45 10000 2 140 15:30 02.06.2022
1155 Clouds 21 1008 43 10000 0 0 13:30 02.06.2022
1156 Clouds 21 1008 43 10000 0 0 13:30 02.06.2022
1157 Clouds 21 1008 43 10000 1 120 12:46 02.06.2022
1158 Clouds 23 1007 35 10000 1 70 10:34 02.06.2022
1159 Clear 24 1007 33 10000 3 130 09:29 02.06.2022
1160 Clear 24 1007 35 10000 3 150 08:39 02.06.2022
1161 Clear 24 1007 35 10000 3 150 08:19 02.06.2022
1162 Clear 22 1007 43 10000 5 140 06:20 02.06.2022
1163 Clear 20 1007 52 10000 2 120 03:49 02.06.2022
1164 Clear 14 1006 87 10000 2 30 00:39 02.06.2022
1165 Clouds 12 1005 93 10000 2 350 22:57 01.06.2022
1166 Clouds 12 1005 93 10000 2 30 21:52 01.06.2022
1167 Clouds 12 1005 93 10000 2 20 21:24 01.06.2022
1168 Clouds 12 1005 93 10000 1.79 20 20:38 01.06.2022
1169 Clouds 12 1004 93 10000 2 40 19:50 01.06.2022
1170 Clouds 12 1003 100 10000 2 20 18:28 01.06.2022
1171 Clouds 13 1003 93 10000 2 30 16:56 01.06.2022
1172 Clouds 13 1003 93 10000 2 30 15:42 01.06.2022
1173 Clouds 13 1002 93 10000 2 20 14:46 01.06.2022
1174 Clouds 14 1002 93 10000 3.13 60 13:18 01.06.2022
1175 Clouds 15 1001 93 10000 3.13 60 10:44 01.06.2022
1176 Rain 14 1001 100 5000 0 0 09:28 01.06.2022
1177 Thunderstorm 16 1000 77 10000 5 90 08:18 01.06.2022
1178 Clouds 17 1000 72 10000 2 80 07:20 01.06.2022
1179 Clouds 14 1000 87 10000 2 60 03:55 01.06.2022
1180 Rain 13 999 87 10000 2 30 23:47 31.05.2022
1181 Rain 12 999 93 10000 2 50 22:41 31.05.2022
1182 Rain 12 999 93 10000 2 50 22:22 31.05.2022
1183 Clouds 13 999 87 10000 1.79 340 21:39 31.05.2022
1184 Rain 13 999 87 10000 1 40 20:44 31.05.2022
1185 Clouds 14 999 71 10000 2 130 19:31 31.05.2022
1186 Rain 16 999 67 10000 5 170 18:26 31.05.2022
1187 Clouds 16 999 63 10000 2 130 17:37 31.05.2022
1188 Clear 15 999 67 10000 2 60 15:46 31.05.2022
1189 Clear 15 999 72 10000 2 20 15:22 31.05.2022
1190 Clear 18 999 55 10000 3.13 90 12:56 31.05.2022
1191 Clear 17 999 59 10000 4.02 70 12:18 31.05.2022
1192 Clouds 18 999 59 10000 4 80 10:25 31.05.2022
1193 Clear 18 1000 59 10000 4.02 60 07:46 31.05.2022
1194 Clouds 17 1001 67 10000 3.13 120 06:21 31.05.2022
1195 Clouds 13 1001 88 10000 3 130 04:31 31.05.2022
1196 Clouds 12 1001 87 10000 3.13 120 23:45 30.05.2022
1197 Rain 11 1001 93 10000 3.13 110 23:24 30.05.2022
1198 Rain 11 1001 93 10000 2 110 22:37 30.05.2022
1199 Clouds 12 1002 87 10000 2 140 21:40 30.05.2022
1200 Clouds 12 1001 81 10000 3.13 150 20:51 30.05.2022
1201 Clouds 12 1001 81 10000 3.13 130 19:44 30.05.2022
1202 Clouds 13 1001 71 10000 2 120 18:18 30.05.2022
1203 Clouds 14 1001 67 10000 3 120 17:23 30.05.2022
1204 Clouds 15 1001 63 10000 3 130 16:22 30.05.2022
1205 Clouds 17 1000 55 10000 3 60 13:32 30.05.2022
1206 Clouds 19 1000 48 10000 4 50 11:40 30.05.2022
1207 Clouds 18 1000 55 10000 4.02 350 09:58 30.05.2022
1208 Clouds 18 1000 48 10000 3.13 20 08:52 30.05.2022
1209 Clouds 17 1001 51 10000 4.02 40 06:26 30.05.2022
1210 Clear 17 1002 51 10000 3.13 70 04:52 30.05.2022
1211 Clouds 13 1002 66 10000 2 130 00:43 30.05.2022
1212 Clouds 11 1002 76 10000 1 80 22:46 29.05.2022
1213 Clouds 12 1002 71 10000 2 130 22:28 29.05.2022
1214 Clouds 11 1003 81 10000 1 330 20:29 29.05.2022
1215 Clouds 11 1003 87 10000 1 20 19:29 29.05.2022
1216 Clouds 11 1003 87 10000 0 0 18:34 29.05.2022
1217 Rain 13 1003 76 10000 2 150 16:25 29.05.2022
1218 Rain 14 1004 67 10000 3.13 150 15:46 29.05.2022
1219 Clouds 16 1003 55 10000 4 130 14:54 29.05.2022
1220 Clouds 14 1003 67 10000 2 80 13:18 29.05.2022
1221 Rain 16 1003 58 10000 4.02 110 11:20 29.05.2022
1222 Clouds 18 1003 42 10000 4.02 110 10:34 29.05.2022
1223 Clouds 18 1003 45 10000 4.02 100 08:31 29.05.2022
1224 Clear 18 1004 39 10000 3.13 100 04:58 29.05.2022
1225 Clear 19 1005 37 10000 5 110 04:36 29.05.2022
1226 Clear 17 1006 45 10000 4.02 130 01:52 29.05.2022
1227 Clear 11 1007 71 10000 3.13 20 23:48 28.05.2022
1228 Clear 10 1007 71 10000 3.13 30 23:20 28.05.2022
1229 Clear 10 1007 76 10000 4.02 30 22:19 28.05.2022
1230 Clear 10 1007 66 10000 3.13 20 20:58 28.05.2022
1231 Clear 10 1007 66 10000 4.02 20 19:20 28.05.2022
1232 Clouds 10 1007 71 10000 4.02 30 18:40 28.05.2022
1233 Clouds 10 1007 71 10000 4.02 10 17:33 28.05.2022
1234 Clear 11 1007 57 10000 5 20 15:56 28.05.2022
1235 Clear 11 1008 57 10000 5 30 15:38 28.05.2022
1236 Clear 12 1008 54 10000 7.15 30 13:38 28.05.2022
1237 Clear 13 1008 50 10000 8.05 30 12:43 28.05.2022
1238 Clear 15 1008 44 10000 10 30 11:37 28.05.2022
1239 Clear 16 1008 44 10000 11.18 30 10:41 28.05.2022
1240 Clear 16 1007 41 10000 10 30 09:55 28.05.2022
1241 Clear 14 1008 44 10000 10 30 08:33 28.05.2022
1242 Clouds 14 1008 47 10000 10 30 06:50 28.05.2022
1243 Clouds 13 1008 47 10000 8.05 30 05:18 28.05.2022
1244 Clouds 10 1010 61 10000 5 10 02:27 28.05.2022
1245 Clouds 8 1009 65 10000 4.02 10 23:58 27.05.2022
1246 Clear 8 1009 65 10000 4.02 10 22:48 27.05.2022
1247 Clear 7 1009 65 10000 4.02 360 21:29 27.05.2022
1248 Clear 7 1009 65 10000 3.13 360 20:45 27.05.2022
1249 Clear 7 1009 65 10000 3.13 360 20:19 27.05.2022
1250 Clear 6 1009 65 10000 3.13 20 19:38 27.05.2022
1251 Clear 7 1009 60 10000 3.13 10 19:20 27.05.2022
1252 Clear 8 1009 49 10000 3.13 360 17:24 27.05.2022
1253 Clear 8 1009 65 10000 2 30 15:57 27.05.2022
1254 Clear 11 1009 43 10000 3.13 10 14:57 27.05.2022
1255 Clear 14 1009 35 10000 4 30 13:41 27.05.2022
1256 Clear 14 1009 30 10000 4.02 30 12:20 27.05.2022
1257 Clear 15 1008 28 10000 2 340 11:31 27.05.2022
1258 Clear 15 1009 26 10000 1 340 10:43 27.05.2022
1259 Clear 15 1008 28 10000 4.02 60 09:59 27.05.2022
1260 Clear 15 1008 30 10000 4.02 60 09:30 27.05.2022
1261 Clear 15 1009 26 10000 3 90 07:40 27.05.2022
1262 Clear 12 1009 40 10000 4.02 70 04:58 27.05.2022
1263 Clear 9 1009 53 10000 2 50 01:44 27.05.2022
1264 Clear 6 1008 60 10000 2 20 23:31 26.05.2022
1265 Clear 3 1008 74 10000 2 350 22:28 26.05.2022
1266 Clear 0 1008 86 10000 2 330 21:32 26.05.2022
1267 Clear 1 1007 80 10000 3.13 320 19:39 26.05.2022
1268 Clear 2 1007 74 10000 3.13 320 18:52 26.05.2022
1269 Clear 3 1007 74 10000 3.13 310 17:36 26.05.2022
1270 Clear 3 1007 74 10000 2 310 16:31 26.05.2022
1271 Clear 3 1007 80 10000 0 0 15:33 26.05.2022
1272 Clear 7 1007 60 10000 0 0 14:20 26.05.2022
1273 Clear 9 1006 45 10000 2 50 12:20 26.05.2022
1274 Clear 9 1006 49 10000 4.02 50 11:21 26.05.2022
1275 Clear 9 1006 53 10000 4.02 60 09:39 26.05.2022
1276 Clouds 10 1006 50 10000 3 60 08:51 26.05.2022
1277 Clouds 8 1005 61 10000 3.13 80 06:51 26.05.2022
1278 Rain 5 1005 75 10000 4.02 340 02:54 26.05.2022
1279 Clouds 4 1004 80 10000 3.13 340 00:19 26.05.2022
1280 Clouds 2 1004 93 10000 2 20 23:19 25.05.2022
1281 Clouds 3 1004 86 10000 3.13 310 21:46 25.05.2022
1282 Clouds 2 1004 93 10000 2 280 20:53 25.05.2022
1283 Clouds 2 1004 93 10000 3.13 310 19:59 25.05.2022
1284 Rain 3 1004 80 10000 3.13 280 18:48 25.05.2022
1285 Clear 4 1005 64 10000 3.13 290 17:26 25.05.2022
1286 Clear 4 1005 60 10000 5 290 16:35 25.05.2022
1287 Clear 5 1005 52 10000 4.02 270 15:53 25.05.2022
1288 Clear 5 1006 52 10000 4.02 310 14:51 25.05.2022
1289 Clear 5 1006 52 10000 4.02 300 14:32 25.05.2022
1290 Clear 5 1006 48 10000 7.15 310 13:28 25.05.2022
1291 Clouds 8 1005 44 10000 6.72 314 12:24 25.05.2022
1292 Clear 6 1005 45 10000 8 310 10:42 25.05.2022
1293 Clear 7 1005 45 10000 9 340 09:53 25.05.2022
1294 Clouds 9 1004 45 10000 8.94 310 08:22 25.05.2022
1295 Clouds 10 1003 37 10000 8.32 311 06:45 25.05.2022
1296 Clouds 8 1002 56 10000 7.15 320 02:55 25.05.2022
1297 Clouds 6 1002 70 10000 5 280 23:53 24.05.2022
1298 Clouds 6 1002 70 10000 5 290 23:23 24.05.2022
1299 Clouds 6 1003 70 10000 4.02 280 22:19 24.05.2022
1300 Clear 5 1003 75 10000 4.02 280 21:38 24.05.2022
1301 Clear 5 1003 75 10000 3.13 260 21:19 24.05.2022
1302 Clear 5 1003 80 10000 3.13 290 19:37 24.05.2022
1303 Clear 5 1003 80 10000 3.13 280 18:50 24.05.2022
1304 Clear 6 1004 81 10000 3.13 310 16:41 24.05.2022
1305 Clear 7 1004 81 10000 3.13 310 16:19 24.05.2022
1306 Clear 7 1004 81 10000 3.13 310 16:19 24.05.2022
1307 Clouds 8 1004 87 10000 4.02 310 14:50 24.05.2022
1308 Clouds 11 1004 81 10000 5 330 13:52 24.05.2022
1309 Clouds 11 1003 81 10000 5 320 12:46 24.05.2022
1310 Rain 12 1002 76 10000 4.02 310 10:29 24.05.2022
1311 Clouds 13 1002 76 10000 7.15 250 09:43 24.05.2022
1312 Clouds 13 1002 76 10000 7.15 250 08:49 24.05.2022
1313 Rain 12 1004 81 10000 4.02 230 06:56 24.05.2022
1314 Clouds 13 1006 47 10000 5 200 03:48 24.05.2022
1315 Clouds 10 1007 62 10000 0 0 01:50 24.05.2022
1316 Clouds 9 1007 61 10000 3.13 200 01:19 24.05.2022
1317 Clouds 6 1008 70 10000 3 190 22:51 23.05.2022
1318 Clear 4 1008 81 10000 1 210 21:55 23.05.2022
1319 Clear 2 1008 80 10000 0 0 21:26 23.05.2022
1320 Clear 1 1008 86 10000 1 310 20:26 23.05.2022
1321 Clear 1 1008 86 10000 0 0 19:31 23.05.2022
1322 Clear 2 1008 87 10000 1 300 18:54 23.05.2022
1323 Clear 2 1008 87 10000 1 280 18:27 23.05.2022
1324 Clear 4 1008 86 10000 1 300 17:18 23.05.2022
1325 Clear 10 1008 57 10000 1.79 40 14:52 23.05.2022
1326 Clear 10 1007 53 10000 2 60 12:56 23.05.2022
1327 Clouds 12 1007 46 10000 3.13 80 11:31 23.05.2022
1328 Clouds 14 1007 38 10000 3.13 100 09:50 23.05.2022
1329 Clouds 16 1007 31 10000 3 130 09:28 23.05.2022
1330 Clouds 15 1007 35 10000 4.92 280 08:20 23.05.2022
1331 Clouds 16 1006 29 10000 4.02 290 06:45 23.05.2022
1332 Clouds 15 1006 38 10000 5 300 05:25 23.05.2022
1333 Clear 11 1007 37 10000 3.13 180 02:23 23.05.2022
1334 Clear 8 1007 49 10000 3.13 150 01:37 23.05.2022
1335 Clear 7 1007 45 10000 2 130 23:51 22.05.2022
1336 Clear 6 1007 52 10000 0 0 22:36 22.05.2022
1337 Clear 4 1007 60 10000 1 190 21:55 22.05.2022
1338 Clear 4 1006 60 10000 1 130 20:54 22.05.2022
1339 Clear 5 1006 60 10000 1 150 20:31 22.05.2022
1340 Clear 5 1006 60 10000 2 180 19:56 22.05.2022
1341 Clear 8 1006 45 10000 2 200 18:55 22.05.2022
1342 Clear 7 1006 48 10000 2 210 18:25 22.05.2022
1343 Clear 6 1006 52 10000 2 250 17:34 22.05.2022
1344 Clear 6 1006 70 10000 0 0 16:36 22.05.2022
1345 Clear 7 1006 60 10000 0 0 14:49 22.05.2022
1346 Clear 12 1006 37 10000 0 0 13:54 22.05.2022
1347 Clear 14 1006 28 10000 2 100 12:52 22.05.2022
1348 Clear 17 1005 20 10000 2 110 11:47 22.05.2022
1349 Clear 17 1006 21 10000 4.02 150 09:45 22.05.2022
1350 Clear 17 1006 23 10000 3.13 130 08:54 22.05.2022
1351 Clear 16 1007 29 10000 2 140 07:22 22.05.2022
1352 Clear 17 1000 24 10000 3.13 150 06:24 22.05.2022
1353 Clear 12 1008 50 10000 3.13 180 02:33 22.05.2022
1354 Clear 8 1002 59 10000 3.13 190 00:44 22.05.2022
1355 Clear 6 1008 70 10000 2 180 23:55 21.05.2022
1356 Clear 5 1009 75 10000 0 0 23:21 21.05.2022
1357 Clear 3 998 73 10000 1 310 21:47 21.05.2022
1358 Clear 0 1009 93 10000 1 320 21:26 21.05.2022
1359 Clear 3 998 72 10000 1 20 20:25 21.05.2022
1360 Clear 3 998 71 10000 1 330 19:43 21.05.2022
1361 Clear 5 1008 80 10000 2 200 18:21 21.05.2022
1362 Clear 6 1008 70 10000 2 150 16:55 21.05.2022
1363 Clouds 8 1008 65 10000 1.79 240 14:38 21.05.2022
1364 Clouds 10 1008 53 10000 3.13 150 13:54 21.05.2022
1365 Clouds 14 1008 38 10000 1 90 13:18 21.05.2022
1366 Clouds 15 1007 33 10000 2 130 12:38 21.05.2022
1367 Clouds 15 1007 38 10000 3 110 10:53 21.05.2022
1368 Clouds 15 1007 36 10000 4 90 09:53 21.05.2022
1369 Clouds 15 1007 38 10000 1 220 08:58 21.05.2022
1370 Clouds 15 1007 44 10000 4 300 08:35 21.05.2022
1371 Clouds 6 1010 87 10000 3.21 9 05:29 21.05.2022
1372 Clear 6 1007 81 10000 1 110 01:24 21.05.2022
1373 Clear 1 1007 86 10000 2 10 23:29 20.05.2022
1374 Clear 0 1007 93 10000 1 340 22:26 20.05.2022
1375 Clear 0 1006 93 10000 2 320 21:55 20.05.2022
1376 Clear 0 1006 93 10000 2 330 21:18 20.05.2022
1377 Clear 0 1006 93 10000 2 320 20:44 20.05.2022
1378 Clear 1 1006 86 10000 2 320 19:45 20.05.2022
1379 Clear 4 998 73 10000 1 10 18:48 20.05.2022
1380 Clear 6 998 67 10000 2 340 17:47 20.05.2022
1381 Clear 6 1005 75 10000 2 40 16:22 20.05.2022
1382 Clear 6 1004 70 10000 2 50 15:53 20.05.2022
1383 Clouds 9 1004 57 10000 4.02 10 14:32 20.05.2022
1384 Clouds 10 1004 53 10000 5 20 13:56 20.05.2022
1385 Clouds 12 1003 46 10000 3.13 60 11:51 20.05.2022
1386 Clouds 14 1002 41 10000 6 30 10:30 20.05.2022
1387 Clouds 14 994 37 10000 6 70 08:58 20.05.2022
1388 Clouds 13 1001 47 10000 5 90 07:42 20.05.2022
1389 Clouds 14 1000 38 10000 4 100 06:39 20.05.2022
1390 Clouds 13 1000 41 10000 7 50 05:39 20.05.2022
1391 Clear 10 993 52 10000 4.02 20 01:18 20.05.2022
1392 Clear 6 999 70 10000 5 20 23:28 19.05.2022
1393 Clear 5 992 67 10000 4.02 10 22:33 19.05.2022
1394 Clear 5 992 69 10000 3.13 10 21:49 19.05.2022
1395 Clear 4 999 80 10000 4.02 360 21:23 19.05.2022
1396 Clear 4 999 80 10000 4 10 20:43 19.05.2022
1397 Clear 5 999 75 10000 3.13 10 19:54 19.05.2022
1398 Clear 6 999 65 10000 3.13 40 18:58 19.05.2022
1399 Clear 8 999 56 10000 2 120 17:35 19.05.2022
1400 Clouds 10 1000 46 10000 3 130 15:34 19.05.2022
1401 Clouds 11 993 43 10000 4.02 130 14:35 19.05.2022
1402 Clouds 11 1000 46 10000 3.13 100 13:59 19.05.2022
1403 Clouds 13 993 37 10000 5 110 11:52 19.05.2022
1404 Clouds 14 1000 35 10000 2 110 10:30 19.05.2022
1405 Clouds 14 1001 33 10000 4.02 160 08:33 19.05.2022
1406 Clouds 15 1001 26 10000 2 120 06:57 19.05.2022
1407 Clear 12 1004 40 10000 2 80 03:26 19.05.2022
1408 Clear 7 1005 56 10000 1 20 00:56 19.05.2022
1409 Clear 6 1005 60 10000 2 20 23:21 18.05.2022
1410 Clear 5 999 59 10000 1.79 350 22:41 18.05.2022
1411 Clear 3 1006 69 10000 2 330 21:33 18.05.2022
1412 Clear 4 999 61 10000 2 30 20:55 18.05.2022
1413 Clear 3 1006 69 10000 2 320 20:19 18.05.2022
1414 Clouds 5 1006 65 10000 2 10 18:47 18.05.2022
1415 Clouds 5 1006 65 10000 2 350 17:42 18.05.2022
1416 Clouds 7 999 52 10000 2 360 17:23 18.05.2022
1417 Clouds 6 1006 60 10000 2 350 16:52 18.05.2022
1418 Clouds 6 1006 60 10000 1 80 15:43 18.05.2022
1419 Clouds 7 1006 56 10000 1 80 15:19 18.05.2022
1420 Clouds 11 1005 40 10000 1 360 13:53 18.05.2022
1421 Clouds 11 998 33 10000 2 80 12:53 18.05.2022
1422 Clouds 12 1005 34 10000 3.13 280 11:47 18.05.2022
1423 Clouds 11 1005 40 10000 1 100 11:29 18.05.2022
1424 Clouds 12 1005 37 10000 2 110 10:36 18.05.2022
1425 Clouds 12 1004 37 10000 2 60 07:56 18.05.2022
1426 Clouds 12 1004 40 10000 3.13 60 06:52 18.05.2022
1427 Clear 9 1004 57 10000 3.13 80 02:47 18.05.2022
1428 Clear 6 1004 75 10000 1 90 00:41 18.05.2022
1429 Clouds 3 1004 86 10000 2 70 22:59 17.05.2022
1430 Clouds 2 1003 93 10000 1 70 21:21 17.05.2022
1431 Clouds 2 1003 93 10000 1 70 21:21 17.05.2022
1432 Clouds 2 1003 100 10000 1.79 80 20:38 17.05.2022
1433 Clouds 3 1004 93 10000 1 50 19:29 17.05.2022
1434 Clouds 4 1003 93 10000 0 0 18:22 17.05.2022
1435 Clouds 4 1003 87 10000 0 0 17:28 17.05.2022
1436 Clouds 4 1003 87 10000 1 110 16:36 17.05.2022
1437 Clouds 5 1003 81 10000 1 110 15:45 17.05.2022
1438 Clouds 5 1003 81 10000 1 130 14:48 17.05.2022
1439 Clouds 6 1003 75 10000 1 140 14:23 17.05.2022
1440 Clouds 7 1003 70 10000 1 180 12:36 17.05.2022
1441 Clouds 7 995 63 10000 4.02 140 10:23 17.05.2022
1442 Clouds 8 1002 65 10000 2 110 08:45 17.05.2022
1443 Clouds 9 1002 61 10000 3 120 07:41 17.05.2022
1444 Clouds 6 1002 75 10000 3.13 120 05:58 17.05.2022
1445 Rain 3 1001 93 10000 3.13 350 00:47 17.05.2022
1446 Rain 3 1000 80 10000 3.13 320 22:51 16.05.2022
1447 Clouds 3 993 70 10000 4.02 320 22:30 16.05.2022
1448 Clouds 3 1000 80 10000 3.13 330 20:56 16.05.2022
1449 Clouds 3 1000 86 10000 1 320 20:25 16.05.2022
1450 Clouds 4 1000 86 10000 1.79 30 18:39 16.05.2022
1451 Clouds 6 1000 81 10000 2 330 16:41 16.05.2022
1452 Clouds 8 999 66 10000 4 330 14:48 16.05.2022
1453 Clouds 9 999 43 10000 1 240 13:27 16.05.2022
1454 Clouds 10 998 39 10000 1 40 11:42 16.05.2022
1455 Clouds 10 998 39 10000 2 70 10:34 16.05.2022
1456 Clouds 8 998 61 10000 2 100 07:47 16.05.2022
1457 Clouds 5 997 75 10000 2 100 05:40 16.05.2022
1458 Snow 2 990 61 5000 5 10 00:35 16.05.2022
1459 Snow 2 998 55 10000 4.02 350 22:39 15.05.2022
1460 Clouds 2 998 51 10000 4.02 20 21:54 15.05.2022
1461 Clear 2 998 51 10000 5 350 21:34 15.05.2022
1462 Clear 2 999 51 10000 5 360 20:35 15.05.2022
1463 Clear 2 993 46 10000 5 350 18:37 15.05.2022
1464 Clear 3 1001 51 10000 6 350 16:52 15.05.2022
1465 Clear 3 1005 55 10000 5 330 14:26 15.05.2022
1466 Clear 4 1005 48 10000 5 340 13:44 15.05.2022
1467 Clear 6 1007 38 10000 6 320 11:55 15.05.2022
1468 Clear 6 1001 30 10000 5 320 10:43 15.05.2022
1469 Clear 7 1002 29 10000 4.02 350 08:58 15.05.2022
1470 Clear 6 1010 33 10000 5 20 07:22 15.05.2022
1471 Clear 7 1004 26 10000 3.13 10 06:42 15.05.2022
1472 Clear 4 1005 36 10000 2 310 02:38 15.05.2022
1473 Clear 0 1013 54 10000 2 270 00:22 15.05.2022
1474 Clear 0 1006 47 10000 2 290 23:35 14.05.2022
1475 Clear -2 1005 52 10000 5 300 21:45 14.05.2022
1476 Clear -2 1012 58 10000 3.13 320 21:25 14.05.2022
1477 Clear -2 1011 58 10000 4.02 320 20:25 14.05.2022
1478 Clear -1 1011 54 10000 5 310 19:20 14.05.2022
1479 Clear -1 1011 54 10000 3.13 320 18:57 14.05.2022
1480 Clear -1 1011 54 10000 2 300 17:44 14.05.2022
1481 Clear 0 1011 54 10000 2 300 15:58 14.05.2022
1482 Clear 2 1010 47 10000 4 320 14:38 14.05.2022
1483 Clear 4 1009 41 10000 7.15 320 13:27 14.05.2022
1484 Clear 6 1008 35 10000 9 330 11:45 14.05.2022
1485 Clear 7 1007 33 10000 9 310 10:43 14.05.2022
1486 Clear 7 1007 33 10000 9 310 10:18 14.05.2022
1487 Clear 9 1006 29 10000 8.05 310 09:23 14.05.2022
1488 Clear 9 1005 29 10000 9 310 07:26 14.05.2022
1489 Clear 9 1004 37 10000 8 360 04:32 14.05.2022
1490 Clear 2 1004 55 10000 5 340 00:27 14.05.2022
1491 Clouds 1 1004 69 10000 3.13 340 23:25 13.05.2022
1492 Clouds 1 1004 69 10000 3.13 340 23:25 13.05.2022
1493 Clouds 0 1004 80 10000 4.02 320 22:54 13.05.2022
1494 Clouds 1 1004 74 10000 5 320 22:21 13.05.2022
1495 Clouds 2 1005 80 10000 3.13 320 20:58 13.05.2022
1496 Clouds 2 1005 86 10000 3.13 320 20:37 13.05.2022
1497 Clouds 2 1005 86 10000 3.13 320 20:19 13.05.2022
1498 Rain 2 1006 93 10000 4.02 340 18:56 13.05.2022
1499 Clouds 6 1006 81 10000 5 330 17:30 13.05.2022
1500 Clouds 7 1006 76 10000 4 360 16:29 13.05.2022
1501 Clouds 7 1006 70 10000 4 360 15:45 13.05.2022
1502 Clouds 9 1006 71 10000 6 350 14:38 13.05.2022
1503 Clouds 12 1005 58 10000 7 340 12:51 13.05.2022
1504 Clear 16 1005 20 10000 2 150 11:39 13.05.2022
1505 Clear 17 1005 19 10000 3 160 09:54 13.05.2022
1506 Clear 16 1006 18 10000 2 150 09:26 13.05.2022
1507 Clear 16 1007 20 10000 4 130 07:51 13.05.2022
1508 Clear 16 1008 20 10000 3 120 06:50 13.05.2022
1509 Clear 15 1010 21 10000 2 120 04:54 13.05.2022
1510 Clear 6 1013 45 10000 0 0 00:57 13.05.2022
1511 Clear 1 1014 60 10000 1 20 22:49 12.05.2022
1512 Clear 0 1014 63 10000 1 340 22:30 12.05.2022
1513 Clear -2 1015 69 10000 1 340 20:49 12.05.2022
1514 Clear -1 1015 63 10000 1 330 19:49 12.05.2022
1515 Clear 1 1015 59 10000 2 340 18:25 12.05.2022
1516 Clear 3 1016 55 10000 1 300 16:44 12.05.2022
1517 Clear 7 1016 49 10000 1 310 14:57 12.05.2022
1518 Clear 10 1016 40 10000 1 110 13:48 12.05.2022
1519 Clear 15 1017 21 10000 1 210 11:48 12.05.2022
1520 Clear 15 1017 21 10000 2 230 10:32 12.05.2022
1521 Clear 14 1018 21 10000 1 160 08:53 12.05.2022
1522 Clear 14 1018 23 10000 2 220 07:59 12.05.2022
1523 Clear 13 1019 24 10000 2 240 07:22 12.05.2022
1524 Clear 10 1021 25 10000 4 170 04:32 12.05.2022
1525 Clear 4 1022 48 10000 2 170 01:29 12.05.2022
1526 Clear 1 1022 50 10000 1 210 23:18 11.05.2022
1527 Clear -1 1022 74 10000 1 240 22:18 11.05.2022
1528 Clear -4 1021 80 10000 2 230 21:25 11.05.2022
1529 Clear -4 1021 86 10000 1 260 20:20 11.05.2022
1530 Clear -1 1021 68 10000 1 290 17:37 11.05.2022
1531 Clear 0 1020 69 10000 2 280 16:27 11.05.2022
1532 Clear 1 1020 64 10000 0 0 14:48 11.05.2022
1533 Clear 3 1020 48 10000 0 0 14:25 11.05.2022
1534 Clear 7 1019 36 10000 3 320 12:54 11.05.2022
1535 Clear 8 1018 27 10000 3 300 11:48 11.05.2022
1536 Clear 8 1017 24 10000 4.02 310 09:29 11.05.2022
1537 Clear 6 1016 26 10000 4.02 310 06:30 11.05.2022
1538 Clear 2 1015 37 10000 4.02 300 02:18 11.05.2022
1539 Clear -4 1013 58 10000 5 310 22:58 10.05.2022
1540 Clear -4 1012 58 10000 4.02 330 22:29 10.05.2022
1541 Clear -5 1012 62 10000 3.13 330 21:40 10.05.2022
1542 Clear -4 1012 58 10000 3.13 320 20:34 10.05.2022
1543 Clear -4 1012 58 10000 4.02 330 18:49 10.05.2022
1544 Clear -3 1012 53 10000 5 320 17:38 10.05.2022
1545 Clear -3 1013 58 10000 4.02 330 16:24 10.05.2022
1546 Clear 1 1012 47 10000 7.15 320 13:31 10.05.2022
1547 Clear 3 1011 41 10000 6 320 11:54 10.05.2022
1548 Clear 4 1011 38 10000 5 330 11:32 10.05.2022
1549 Clear 4 1011 38 10000 6 320 10:56 10.05.2022
1550 Clear 4 1011 38 10000 5 360 09:47 10.05.2022
1551 Clear 4 1011 38 10000 6 340 08:18 10.05.2022
1552 Clear 3 1012 40 10000 4.02 320 06:20 10.05.2022
1553 Clouds 0 1013 50 10000 3.13 340 01:54 10.05.2022
1554 Clouds -2 1014 54 10000 4.02 320 23:53 09.05.2022
1555 Clear -3 1014 63 10000 2 320 22:36 09.05.2022
1556 Clear -3 1014 63 10000 2 310 21:39 09.05.2022
1557 Clouds -3 1014 63 10000 3.13 340 20:20 09.05.2022
1558 Clouds -1 1013 63 10000 5 350 18:25 09.05.2022
1559 Clouds -1 1013 68 10000 5 320 17:26 09.05.2022
1560 Clouds 0 1012 74 10000 4.92 330 16:19 09.05.2022
1561 Clouds 0 1012 74 10000 5 330 15:47 09.05.2022
1562 Clear 1 1011 69 10000 5 330 14:36 09.05.2022
1563 Clear 2 1010 69 10000 5 330 13:58 09.05.2022
1564 Clear 4 1009 69 10000 6 330 13:22 09.05.2022
1565 Clear 7 1007 42 10000 5 300 11:53 09.05.2022
1566 Clear 7 1007 42 10000 6 300 10:48 09.05.2022
1567 Clear 7 1007 42 10000 6 280 10:23 09.05.2022
1568 Clear 8 1004 36 10000 7.15 270 07:57 09.05.2022
1569 Clear 9 1003 36 10000 6 290 05:53 09.05.2022
1570 Clouds 4 1001 86 10000 4.02 300 00:59 09.05.2022
1571 Rain 4 1000 93 10000 5 270 23:28 08.05.2022
1572 Rain 4 1000 93 10000 3.13 250 22:32 08.05.2022
1573 Clouds 3 999 100 10000 3 170 21:20 08.05.2022
1574 Rain 4 999 93 10000 1 130 20:25 08.05.2022
1575 Rain 5 1000 93 10000 1 30 19:33 08.05.2022
1576 Rain 5 1000 93 10000 4 320 18:38 08.05.2022
1577 Clouds 7 999 76 10000 5 320 17:39 08.05.2022
1578 Clouds 8 999 61 10000 4 330 16:22 08.05.2022
1579 Clouds 7 999 65 10000 0 0 15:22 08.05.2022
1580 Clouds 11 999 50 10000 2 220 12:49 08.05.2022
1581 Clouds 11 999 50 10000 2 190 11:45 08.05.2022
1582 Clouds 14 998 33 10000 10 230 10:25 08.05.2022
1583 Clear 14 998 28 10000 4 190 09:53 08.05.2022
1584 Clear 15 999 25 10000 6 190 07:44 08.05.2022
1585 Clear 15 1000 26 10000 6 170 05:57 08.05.2022
1586 Clear 11 1003 40 10000 5 150 03:22 08.05.2022
1587 Clear 4 1006 60 10000 2 130 00:48 08.05.2022
1588 Clouds 2 1007 69 10000 2 200 23:56 07.05.2022
1589 Clouds 1 1007 74 10000 1 150 23:28 07.05.2022
1590 Clouds 0 1008 80 10000 0 0 22:35 07.05.2022
1591 Clouds 0 1008 80 10000 1 150 21:56 07.05.2022
1592 Clouds -1 1008 86 10000 1 150 21:21 07.05.2022
1593 Clear -1 1008 80 10000 2 280 20:23 07.05.2022
1594 Clear 0 1008 74 10000 2 60 18:41 07.05.2022
1595 Clear 3 1008 59 10000 2 330 16:34 07.05.2022
1596 Clear 5 1008 56 10000 1 310 14:53 07.05.2022
1597 Clear 11 1007 35 10000 9 310 11:23 07.05.2022
1598 Clear 12 1006 35 10000 7 330 09:42 07.05.2022
1599 Clear 12 1006 35 10000 8 310 08:30 07.05.2022
1600 Clear 11 1006 43 10000 6 270 07:20 07.05.2022
1601 Clear 10 1007 43 10000 6 270 06:42 07.05.2022
1602 Clear 9 1009 40 10000 5 250 03:57 07.05.2022
1603 Clear 1 1011 64 10000 1 170 23:44 06.05.2022
1604 Clear -3 1011 79 10000 0 0 22:35 06.05.2022
1605 Clear -4 1011 79 10000 1 160 21:52 06.05.2022
1606 Clear -4 1011 73 10000 1 320 21:24 06.05.2022
1607 Clear -4 1011 79 10000 1 310 19:43 06.05.2022
1608 Clear -4 1011 79 10000 1 310 19:21 06.05.2022
1609 Clear -2 1011 63 10000 2 300 18:29 06.05.2022
1610 Clear -2 1011 63 10000 2 300 17:34 06.05.2022
1611 Clear 0 1010 54 10000 2 310 15:51 06.05.2022
1612 Clear 1 1010 50 10000 2 290 15:18 06.05.2022
1613 Clear 5 1010 38 10000 2 340 13:45 06.05.2022
1614 Clear 7 1009 33 10000 2 280 12:47 06.05.2022
1615 Clouds 7 1009 33 10000 3 340 11:58 06.05.2022
1616 Clouds 7 1009 33 10000 3 330 10:41 06.05.2022
1617 Clouds 7 1009 30 10000 4.02 310 09:47 06.05.2022
1618 Clouds 7 1009 28 10000 5 300 09:18 06.05.2022
1619 Clear 8 1008 26 10000 5 300 07:40 06.05.2022
1620 Clear 7 1009 28 10000 6 270 06:25 06.05.2022
1621 Clear 6 1009 28 10000 6 300 02:58 06.05.2022
1622 Clear 5 1009 33 10000 5 300 01:58 06.05.2022
1623 Clear 0 1008 46 10000 5 300 22:50 05.05.2022
1624 Clear 0 1007 51 10000 5 300 21:46 05.05.2022
1625 Clear 1 1007 47 10000 5 300 20:34 05.05.2022
1626 Clear 1 1006 47 10000 4 300 18:54 05.05.2022
1627 Clear 3 1005 60 10000 4 310 16:40 05.05.2022
1628 Clear 3 1004 65 10000 2 300 14:59 05.05.2022
1629 Clear 6 1003 52 10000 4 290 13:29 05.05.2022
1630 Clear 6 1003 49 10000 5 290 12:55 05.05.2022
1631 Clouds 7 1001 42 10000 6 340 10:59 05.05.2022
1632 Clear 7 1001 45 10000 7 340 09:40 05.05.2022
1633 Clouds 5 1000 80 10000 5 340 08:34 05.05.2022
1634 Clouds 5 1000 86 10000 5 330 06:23 05.05.2022
1635 Clouds 5 998 70 10000 6 350 02:23 05.05.2022
1636 Clouds 5 998 70 10000 6 360 01:37 05.05.2022
1637 Clouds 2 999 74 10000 3.13 30 23:57 04.05.2022
1638 Clouds 1 999 80 10000 2 350 22:57 04.05.2022
1639 Clouds 1 999 74 10000 3.13 330 21:59 04.05.2022
1640 Clouds 1 1000 74 10000 3.13 360 21:34 04.05.2022
1641 Clouds 1 1000 80 10000 2 360 20:42 04.05.2022
1642 Clouds 2 1000 69 10000 2 20 19:59 04.05.2022
1643 Clouds 1 1000 74 10000 2 340 19:35 04.05.2022
1644 Clouds 1 1001 74 10000 1 360 18:23 04.05.2022
1645 Clouds 2 1001 69 10000 2 360 17:59 04.05.2022
1646 Clouds 2 1001 74 10000 2 350 16:36 04.05.2022
1647 Clouds 2 1002 69 10000 2 40 15:32 04.05.2022
1648 Clouds 3 1002 65 10000 2 90 14:38 04.05.2022
1649 Clouds 3 1002 65 10000 1 100 14:19 04.05.2022
1650 Clouds 6 1002 52 10000 1 150 12:36 04.05.2022
1651 Clouds 7 1001 45 10000 3 200 11:28 04.05.2022
1652 Clouds 7 1001 48 10000 4.02 180 09:50 04.05.2022
1653 Clouds 8 1001 46 10000 4 170 09:20 04.05.2022
1654 Clouds 8 1001 36 10000 4 210 07:33 04.05.2022
1655 Clouds 6 1002 52 10000 5 150 04:34 04.05.2022
1656 Clear 2 1003 74 10000 2 80 02:33 04.05.2022
1657 Clear -4 1005 79 10000 2 350 22:59 03.05.2022
1658 Clear -5 1005 79 10000 2 360 21:47 03.05.2022
1659 Clear -5 1005 79 10000 1 10 21:23 03.05.2022
1660 Clear -5 1006 85 10000 2 10 20:39 03.05.2022
1661 Clear -4 1006 73 10000 3.13 10 19:21 03.05.2022
1662 Clear -4 1006 73 10000 1 20 18:42 03.05.2022
1663 Clear -4 1007 73 10000 2 10 17:20 03.05.2022
1664 Clear -2 1008 64 10000 2 20 15:51 03.05.2022
1665 Clear 0 1008 51 10000 2 40 14:23 03.05.2022
1666 Clear 3 1008 38 10000 2 110 12:35 03.05.2022
1667 Clear 4 1008 32 10000 3.13 100 11:24 03.05.2022
1668 Clear 4 1008 38 10000 2 310 10:26 03.05.2022
1669 Clear 3 1008 44 10000 2 240 08:19 03.05.2022
1670 Clear 2 1008 43 10000 2 170 06:45 03.05.2022
1671 Clouds -2 1008 54 10000 3.13 260 01:59 03.05.2022
1672 Clouds -4 1007 73 10000 6 250 22:56 02.05.2022
1673 Clouds -4 1007 73 10000 5 240 22:28 02.05.2022
1674 Clouds -3 1007 68 10000 4 230 21:27 02.05.2022
1675 Clouds -4 1006 73 10000 4.02 230 19:26 02.05.2022
1676 Snow -4 1006 73 10000 4.02 230 18:26 02.05.2022
1677 Snow -4 1006 73 10000 4.02 230 17:39 02.05.2022
1678 Clouds -4 1006 68 10000 5 250 16:42 02.05.2022
1679 Clouds -3 1006 63 10000 6 260 15:41 02.05.2022
1680 Clouds -3 1005 58 10000 6 260 14:27 02.05.2022
1681 Clouds -2 1004 58 10000 7.15 260 13:19 02.05.2022
1682 Clouds -2 1003 58 10000 7.15 260 11:41 02.05.2022
1683 Clouds -1 1001 63 10000 9 260 09:42 02.05.2022
1684 Clouds -1 999 80 10000 7.15 240 08:20 02.05.2022
1685 Rain 4 996 80 10000 6 200 06:31 02.05.2022
1686 Clear 6 996 35 10000 4.02 160 00:44 02.05.2022
1687 Clear 5 996 38 10000 3.13 160 00:21 02.05.2022
1688 Clear 2 998 47 10000 4.02 150 22:54 01.05.2022
1689 Clear 1 999 50 10000 2 170 21:42 01.05.2022
1690 Clear 0 1000 54 10000 2 170 20:30 01.05.2022
1691 Clear 0 1001 59 10000 2 190 19:21 01.05.2022
1692 Clear 0 1002 59 10000 0 0 18:52 01.05.2022
1693 Clear 1 1003 50 10000 2 260 17:49 01.05.2022
1694 Clear 3 1004 48 10000 3 160 16:29 01.05.2022
1695 Clear 4 1004 45 10000 3 160 15:51 01.05.2022
1696 Clear 4 1005 41 10000 2 160 14:45 01.05.2022
1697 Clear 10 1006 23 10000 4 190 12:24 01.05.2022
1698 Clear 11 1007 22 10000 4 190 10:22 01.05.2022
1699 Clear 11 1008 22 10000 6 200 08:49 01.05.2022
1700 Clear 11 1010 22 10000 4 190 06:31 01.05.2022
1701 Clear 4 1012 41 10000 3.13 200 01:56 01.05.2022
1702 Clear -4 1013 68 10000 1 210 22:18 30.04.2022
1703 Clear -6 1014 92 10000 0 0 21:32 30.04.2022
1704 Clear -5 1014 85 10000 0 0 19:54 30.04.2022
1705 Clear -5 1014 85 10000 0 0 19:24 30.04.2022
1706 Clear -3 1014 68 10000 2 340 17:31 30.04.2022
1707 Clear -2 1015 64 10000 0 0 15:51 30.04.2022
1708 Clear -2 1015 64 10000 0 0 15:51 30.04.2022
1709 Clear -2 1015 58 10000 0 0 15:18 30.04.2022
1710 Clear 3 1015 38 10000 1 130 13:52 30.04.2022
1711 Clear 7 1016 24 10000 2 170 11:48 30.04.2022
1712 Clear 6 1016 28 10000 2 170 11:26 30.04.2022
1713 Clear 7 1016 26 10000 1 220 09:57 30.04.2022
1714 Clear 7 1017 24 10000 3 140 07:47 30.04.2022
1715 Clear 6 1019 31 10000 3 150 04:25 30.04.2022
1716 Clear -5 1020 67 10000 1 160 23:57 29.04.2022
1717 Clear -7 1020 67 10000 2 310 22:51 29.04.2022
1718 Clear -7 1020 67 10000 2 320 21:56 29.04.2022
1719 Clear -7 1020 73 10000 2 310 21:25 29.04.2022
1720 Clear -7 1020 73 10000 2 320 20:18 29.04.2022
1721 Clear -6 1021 73 10000 1 310 19:27 29.04.2022
1722 Clear -4 1021 68 10000 1 310 17:34 29.04.2022
1723 Clear -4 1021 68 10000 1 20 16:36 29.04.2022
1724 Clear -2 1021 59 10000 0 0 14:36 29.04.2022
1725 Clear 2 1021 44 10000 1 80 13:36 29.04.2022
1726 Clear 3 1021 44 10000 1 60 12:36 29.04.2022
1727 Clear 5 1021 35 10000 2 60 10:32 29.04.2022
1728 Clear 5 1021 27 10000 3.13 20 07:55 29.04.2022
1729 Clear 5 1021 30 10000 4.02 360 07:25 29.04.2022
1730 Clear 4 1021 41 10000 3.13 30 06:30 29.04.2022
1731 Clear 1 1022 40 10000 3.13 340 01:47 29.04.2022
1732 Clear -3 1021 53 10000 3.13 330 23:58 28.04.2022
1733 Clear -4 1021 58 10000 4 320 23:25 28.04.2022
1734 Clear -5 1021 58 10000 3 340 22:24 28.04.2022
1735 Clear -5 1021 58 10000 3 340 21:41 28.04.2022
1736 Clear -5 1020 63 10000 3 320 20:45 28.04.2022
1737 Clear -4 1020 58 10000 2 340 19:52 28.04.2022
1738 Clear -3 1020 59 10000 4 320 19:24 28.04.2022
1739 Clear -3 1020 59 10000 4 320 18:52 28.04.2022
1740 Clear -3 1019 63 10000 4 310 17:54 28.04.2022
1741 Clear -3 1019 63 10000 3 320 16:52 28.04.2022
1742 Clear -2 1019 59 10000 3 310 16:20 28.04.2022
1743 Clouds -2 1019 59 10000 2 330 15:48 28.04.2022
1744 Clouds -1 1019 55 10000 3 310 14:58 28.04.2022
1745 Clouds 0 1019 51 10000 2 360 13:37 28.04.2022
1746 Clouds 2 1018 44 10000 4 310 12:29 28.04.2022
1747 Clouds 3 1017 34 10000 5 320 11:37 28.04.2022
1748 Clouds 3 1017 32 10000 6 320 10:26 28.04.2022
1749 Clouds 3 1017 32 10000 5 330 09:50 28.04.2022
1750 Clear 3 1016 34 10000 6 330 07:41 28.04.2022
1751 Clear 4 1015 33 10000 6 330 06:43 28.04.2022
1752 Clear 3 1015 32 10000 4.02 300 05:52 28.04.2022
1753 Clear 3 1015 34 10000 5 300 04:43 28.04.2022
1754 Clouds 0 1014 51 10000 5 310 01:53 28.04.2022
1755 Clear -4 1014 63 10000 5 330 23:32 27.04.2022
1756 Clear -4 1013 63 10000 5 330 22:20 27.04.2022
1757 Clear -4 1013 63 10000 4 330 21:43 27.04.2022
1758 Clear -3 1013 59 10000 5 320 20:45 27.04.2022
1759 Clear -2 1013 54 10000 5 330 19:55 27.04.2022
1760 Clear -3 1012 59 10000 5 320 19:34 27.04.2022
1761 Clear -3 1012 59 10000 5 330 18:41 27.04.2022
1762 Clear -3 1013 59 10000 4 320 18:20 27.04.2022
1763 Clear -1 1013 55 10000 4 320 16:18 27.04.2022
1764 Clear 1 1013 44 10000 2 300 13:18 27.04.2022
1765 Clouds 2 1013 34 10000 2 320 11:26 27.04.2022
1766 Clouds 1 1013 34 10000 2 350 10:50 27.04.2022
1767 Clouds 1 1012 40 10000 2 330 08:28 27.04.2022
1768 Clear 1 1012 40 10000 1 340 06:42 27.04.2022
1769 Clear -1 1013 42 10000 4.02 320 02:35 27.04.2022
1770 Clear -2 1013 42 10000 3.13 330 01:23 27.04.2022
1771 Clear -4 1013 53 10000 4.02 310 00:27 27.04.2022
1772 Clear -6 1013 58 10000 4 320 23:24 26.04.2022
1773 Clear -7 1013 62 10000 3.13 320 22:51 26.04.2022
1774 Clear -7 1013 63 10000 3 310 22:31 26.04.2022
1775 Clear -6 1013 63 10000 3 320 21:24 26.04.2022
1776 Clear -6 1013 63 10000 3 320 20:38 26.04.2022
1777 Clear -6 1013 68 10000 3 320 19:45 26.04.2022
1778 Clear -6 1013 68 10000 3 320 19:26 26.04.2022
1779 Clear -6 1013 68 10000 3 330 18:39 26.04.2022
1780 Clear -4 1013 63 10000 3 350 17:41 26.04.2022
1781 Clear -3 1013 59 10000 2 360 15:41 26.04.2022
1782 Clear -2 1013 59 10000 2 30 13:55 26.04.2022
1783 Clear -1 1013 51 10000 2 60 13:28 26.04.2022
1784 Clear 3 1013 35 10000 4 340 11:24 26.04.2022
1785 Clear 3 1013 34 10000 3.13 350 10:30 26.04.2022
1786 Clear 3 1013 34 10000 5 300 08:34 26.04.2022
1787 Clear 1 1014 37 10000 3.13 320 05:29 26.04.2022
1788 Clear 0 1014 36 10000 5 300 04:22 26.04.2022
1789 Clear -2 1015 46 10000 4.02 310 00:51 26.04.2022
1790 Clear -5 1014 53 10000 3.13 320 23:51 25.04.2022
1791 Clear -7 1014 63 10000 3 330 21:57 25.04.2022
1792 Clear -7 1014 63 10000 3 320 21:26 25.04.2022
1793 Clear -6 1014 63 10000 3 330 19:58 25.04.2022
1794 Clear -5 1014 58 10000 3 320 18:48 25.04.2022
1795 Clear -4 1014 58 10000 3 320 17:40 25.04.2022
1796 Clear -4 1014 58 10000 3 310 16:44 25.04.2022
1797 Clear -2 1013 50 10000 3 320 15:23 25.04.2022
1798 Clear -1 1013 47 10000 3 310 14:34 25.04.2022
1799 Clear 1 1012 44 10000 4 350 12:49 25.04.2022
1800 Clouds 4 1011 30 10000 3 320 10:44 25.04.2022
1801 Clouds 4 1011 35 10000 4.02 300 09:42 25.04.2022
1802 Clouds 4 1011 35 10000 4 280 07:49 25.04.2022
1803 Clear 3 1010 40 10000 3.13 310 05:55 25.04.2022
1804 Clouds -1 1010 54 10000 4.02 350 01:30 25.04.2022
1805 Clouds -4 1009 68 10000 3.13 330 23:56 24.04.2022
1806 Clouds -4 1009 68 10000 3.13 330 23:25 24.04.2022
1807 Clear -4 1009 73 10000 3.13 330 22:39 24.04.2022
1808 Clear -4 1008 68 10000 4.02 330 21:56 24.04.2022
1809 Clear -5 1008 79 10000 3.13 330 21:22 24.04.2022
1810 Clear -5 1008 79 10000 3.13 330 20:46 24.04.2022
1811 Clear -5 1008 79 10000 3.13 320 20:21 24.04.2022
1812 Clear -5 1007 85 10000 2 330 18:44 24.04.2022
1813 Clear -4 1007 92 10000 3.13 320 17:54 24.04.2022
1814 Clouds -3 1007 86 10000 4.02 330 17:21 24.04.2022
1815 Clouds -2 1007 86 10000 3 300 16:55 24.04.2022
1816 Clouds -2 1007 86 10000 2 300 16:29 24.04.2022
1817 Clouds -3 1007 93 10000 1 250 15:43 24.04.2022
1818 Clouds -2 1007 93 10000 2 40 14:36 24.04.2022
1819 Clouds -1 1007 86 10000 2 300 13:27 24.04.2022
1820 Clouds 0 1006 80 10000 3 280 12:56 24.04.2022
1821 Clouds 1 1006 69 10000 2 310 11:50 24.04.2022
1822 Clouds 1 1006 74 10000 1 90 10:47 24.04.2022
1823 Clouds 3 1006 59 10000 4.02 120 09:47 24.04.2022
1824 Clouds 4 1005 48 10000 3 90 07:55 24.04.2022
1825 Clouds 2 1005 51 10000 2 20 05:45 24.04.2022
1826 Clouds -1 1006 74 10000 1 80 02:30 24.04.2022
1827 Clear -3 1006 79 10000 1 320 00:45 24.04.2022
1828 Clear -5 1006 92 10000 2 300 23:52 23.04.2022
1829 Clear -7 1006 92 10000 2 310 23:25 23.04.2022
1830 Clear -7 1006 92 10000 2 310 23:25 23.04.2022
1831 Clear -7 1006 92 10000 1 350 21:59 23.04.2022
1832 Clear -7 1006 92 10000 2 330 21:38 23.04.2022
1833 Clear -6 1006 85 10000 3.13 320 20:59 23.04.2022
1834 Clear -6 1006 92 10000 2 300 19:56 23.04.2022
1835 Clear -5 1006 85 10000 2 310 19:20 23.04.2022
1836 Clear -4 1006 85 10000 2 300 18:54 23.04.2022
1837 Clear -4 1006 85 10000 2 310 18:31 23.04.2022
1838 Clear -3 1006 86 10000 2 310 17:44 23.04.2022
1839 Clouds -3 1006 92 10000 1 120 16:45 23.04.2022
1840 Clouds -1 1006 80 10000 1 350 15:43 23.04.2022
1841 Clouds -1 1006 86 10000 2 160 13:24 23.04.2022
1842 Clouds 0 1006 74 10000 2 60 11:29 23.04.2022
1843 Clouds 1 1005 69 10000 4 280 09:39 23.04.2022
1844 Snow 0 1006 86 3200 3.13 290 07:52 23.04.2022
1845 Clouds 1 1006 55 10000 1 110 03:57 23.04.2022
1846 Clouds -2 1006 63 10000 1 120 02:34 23.04.2022
1847 Clouds -5 1006 79 10000 2 340 23:34 22.04.2022
1848 Clouds -5 1006 79 10000 3 320 22:40 22.04.2022
1849 Clouds -6 1006 85 10000 1 350 21:55 22.04.2022
1850 Clouds -6 1006 85 10000 1 350 21:55 22.04.2022
1851 Clear -6 1006 79 10000 2 330 21:37 22.04.2022
1852 Clear -6 1006 79 10000 2 320 20:29 22.04.2022
1853 Clear -6 1006 79 10000 2 320 19:23 22.04.2022
1854 Clear -6 1006 79 10000 2 320 18:53 22.04.2022
1855 Clear -6 1006 79 10000 2 320 18:20 22.04.2022
1856 Clear -5 1006 79 10000 2 320 16:53 22.04.2022
1857 Clear -4 1006 79 10000 1 10 15:57 22.04.2022
1858 Clear -4 1006 79 10000 1 340 15:23 22.04.2022
1859 Clear -2 1006 69 10000 2 360 14:37 22.04.2022
1860 Clouds 0 1006 55 10000 1 30 13:41 22.04.2022
1861 Clouds 1 1005 55 10000 1 50 12:35 22.04.2022
1862 Clouds 2 1005 47 10000 2 350 11:23 22.04.2022
1863 Clouds 2 1005 51 10000 2 320 10:56 22.04.2022
1864 Clouds 2 1005 51 10000 3.13 290 10:32 22.04.2022
1865 Clouds 3 1005 32 10000 1 310 09:54 22.04.2022
1866 Clouds 2 1005 34 10000 1 120 08:56 22.04.2022
1867 Clouds 2 1005 37 10000 2 80 08:29 22.04.2022
1868 Clouds 2 1006 43 10000 2 100 05:31 22.04.2022
1869 Clear -7 1006 79 10000 0 0 00:53 22.04.2022
1870 Clear -10 1006 78 10000 1 330 23:29 21.04.2022
1871 Clear -11 1006 85 10000 1 290 22:34 21.04.2022
1872 Clear -11 1006 85 10000 1 330 21:25 21.04.2022
1873 Clear -10 1006 85 10000 0 0 20:29 21.04.2022
1874 Clear -9 1006 85 10000 2 320 18:49 21.04.2022
1875 Clear -9 1006 85 10000 2 320 18:49 21.04.2022
1876 Clear -8 1006 85 10000 2 320 18:19 21.04.2022
1877 Clear -7 1006 85 10000 1 330 16:56 21.04.2022
1878 Clear -5 1006 85 10000 0 0 15:24 21.04.2022
1879 Clear -5 1006 85 10000 1 310 14:52 21.04.2022
1880 Clear -3 1005 80 10000 0 0 13:59 21.04.2022
1881 Clear -2 1005 69 10000 2 300 13:21 21.04.2022
1882 Clouds 0 1005 59 10000 2 270 11:46 21.04.2022
1883 Clouds 0 1004 63 10000 3.13 340 09:24 21.04.2022
1884 Clouds 0 1004 59 10000 4.02 330 08:38 21.04.2022
1885 Clouds 0 1004 50 10000 4.02 280 06:36 21.04.2022
1886 Clouds -1 1004 58 10000 2 130 03:39 21.04.2022
1887 Clouds 0 1004 59 10000 2 130 03:20 21.04.2022
1888 Clear -1 1004 58 10000 2 110 02:44 21.04.2022
1889 Clear -5 1003 80 10000 1 20 00:34 21.04.2022
1890 Clouds -5 1003 74 10000 1 290 23:25 20.04.2022
1891 Clouds -5 1003 74 10000 3 320 22:59 20.04.2022
1892 Clouds -5 1003 74 10000 3 320 22:59 20.04.2022
1893 Clouds -5 1003 74 10000 2 320 22:33 20.04.2022
1894 Clouds -6 1002 79 10000 1 280 21:36 20.04.2022
1895 Clouds -5 1002 74 10000 2 320 20:44 20.04.2022
1896 Clouds -5 1002 80 10000 0 0 20:21 20.04.2022
1897 Clouds -4 1002 74 10000 1 320 19:39 20.04.2022
1898 Clouds -4 1002 74 10000 1 350 18:45 20.04.2022
1899 Clouds -4 1002 74 10000 1 340 17:49 20.04.2022
1900 Clouds -4 1001 68 10000 2 120 16:39 20.04.2022
1901 Clouds -3 1001 68 10000 1 30 14:58 20.04.2022
1902 Clouds -1 1000 58 10000 0 0 12:22 20.04.2022
1903 Clouds -1 999 54 10000 2 320 11:40 20.04.2022
1904 Clouds 1 999 43 10000 3 290 10:43 20.04.2022
1905 Clouds 1 998 43 10000 1 250 09:28 20.04.2022
1906 Clouds 1 998 40 10000 3.13 250 08:29 20.04.2022
1907 Clouds 0 997 63 10000 4.02 270 07:53 20.04.2022
1908 Clouds 0 997 59 10000 3.13 220 06:18 20.04.2022
1909 Clear -3 995 73 10000 2 230 01:37 20.04.2022
1910 Clear -4 995 79 10000 2 230 00:21 20.04.2022
1911 Clear -5 994 80 10000 2 240 22:59 19.04.2022
1912 Clear -5 994 80 10000 3 260 22:23 19.04.2022
1913 Clouds -5 994 80 10000 3 250 21:53 19.04.2022
1914 Clouds -4 993 80 10000 4 260 20:59 19.04.2022
1915 Clouds -3 993 74 10000 3 250 20:37 19.04.2022
1916 Clouds -3 992 80 10000 3 250 19:32 19.04.2022
1917 Clouds -3 992 74 10000 4 260 18:30 19.04.2022
1918 Clouds -3 991 74 10000 5 270 16:50 19.04.2022
1919 Clouds -2 990 74 10000 5 260 16:25 19.04.2022
1920 Clouds -1 990 74 10000 4 250 15:59 19.04.2022
1921 Clouds 0 990 80 10000 3 250 14:46 19.04.2022
1922 Clouds 1 988 80 10000 4.02 250 12:53 19.04.2022
1923 Clouds 1 988 74 10000 4.02 260 12:34 19.04.2022
1924 Clouds 1 987 80 10000 5 280 11:34 19.04.2022
1925 Snow 1 985 86 5000 6 290 09:35 19.04.2022
1926 Snow 1 984 86 2400 7.15 290 07:49 19.04.2022
1927 Clouds 1 983 93 1400 2 130 04:25 19.04.2022
1928 Clouds 1 983 86 10000 2 140 02:39 19.04.2022
1929 Snow 0 984 86 10000 2 130 23:51 18.04.2022
1930 Snow 0 985 80 10000 3.13 140 22:53 18.04.2022
1931 Snow 1 986 75 10000 2 150 21:26 18.04.2022
1932 Clouds 1 986 75 10000 2 160 20:39 18.04.2022
1933 Clouds 1 986 74 10000 3.13 190 20:19 18.04.2022
1934 Clouds 1 986 74 10000 2 160 19:33 18.04.2022
1935 Clouds 1 986 80 10000 3.13 160 18:45 18.04.2022
1936 Clouds 1 988 80 10000 4.02 180 17:49 18.04.2022
1937 Clouds 1 988 80 10000 4.02 180 17:19 18.04.2022
1938 Clouds 1 988 74 10000 3.13 200 16:39 18.04.2022
1939 Clouds 2 989 69 10000 3.13 200 15:41 18.04.2022
1940 Clouds 3 989 60 10000 2 180 14:27 18.04.2022
1941 Clear 4 990 48 10000 4 200 13:24 18.04.2022
1942 Clear 4 990 41 10000 5 190 12:27 18.04.2022
1943 Clear 5 990 38 10000 5 180 10:58 18.04.2022
1944 Clear 5 990 35 10000 5 180 10:18 18.04.2022
1945 Clear 5 991 35 10000 5 190 09:30 18.04.2022
1946 Clear 4 992 41 10000 6 180 07:29 18.04.2022
1947 Clear 3 996 47 10000 6 180 03:51 18.04.2022
1948 Clear -7 1001 73 10000 1 160 23:30 17.04.2022
1949 Clear -8 1003 73 10000 1 150 22:37 17.04.2022
1950 Clear -7 1004 73 10000 1 120 21:39 17.04.2022
1951 Clear -7 1004 73 10000 1 120 21:19 17.04.2022
1952 Clear -6 1005 73 10000 1 100 20:25 17.04.2022
1953 Clear -7 1006 79 10000 1 170 19:20 17.04.2022
1954 Clear -7 1008 73 10000 1 200 17:38 17.04.2022
1955 Clear -4 1009 63 10000 2 160 15:37 17.04.2022
1956 Clear -4 1010 63 10000 2 150 14:53 17.04.2022
1957 Clear -5 1010 86 10000 1 180 13:44 17.04.2022
1958 Clear 0 1011 47 10000 1 210 12:56 17.04.2022
1959 Clear 1 1012 47 10000 3.13 160 11:22 17.04.2022
1960 Clear 1 1012 47 10000 4 160 10:38 17.04.2022
1961 Clear 1 1012 43 10000 4.02 160 10:19 17.04.2022
1962 Clear 1 1013 43 10000 4.02 170 09:23 17.04.2022
1963 Clear 1 1013 43 10000 4 160 08:41 17.04.2022
1964 Clear 0 1014 43 10000 3.13 170 06:53 17.04.2022
1965 Clear -3 1016 58 10000 2 160 03:20 17.04.2022
1966 Clear -6 1016 57 10000 4.02 320 00:53 17.04.2022
1967 Clear -8 1016 67 10000 4.02 320 23:48 16.04.2022
1968 Clear -7 1016 63 10000 5 330 22:27 16.04.2022
1969 Clear -7 1016 63 10000 3 320 21:29 16.04.2022
1970 Clear -6 1015 63 10000 4 330 19:54 16.04.2022
1971 Clear -6 1015 63 10000 3 320 18:54 16.04.2022
1972 Clear -5 1015 58 10000 3 330 17:38 16.04.2022
1973 Clear -4 1015 58 10000 3 330 16:32 16.04.2022
1974 Clear -3 1015 54 10000 3 310 15:26 16.04.2022
1975 Clear -2 1015 50 10000 3 310 14:47 16.04.2022
1976 Clear 0 1015 43 10000 2 330 13:56 16.04.2022
1977 Clear 0 1015 47 10000 1 350 13:25 16.04.2022
1978 Clear 1 1014 44 10000 0 0 11:58 16.04.2022
1979 Clear 1 1013 43 10000 3.13 60 10:42 16.04.2022
1980 Clear 1 1013 50 10000 4.02 40 09:41 16.04.2022
1981 Clear 3 1013 35 10000 4 340 08:56 16.04.2022
1982 Clear 3 1012 35 10000 5 10 07:31 16.04.2022
1983 Clear 3 1012 32 10000 3 170 06:22 16.04.2022
1984 Clear -2 1012 54 10000 1 90 01:59 16.04.2022
1985 Clear -5 1012 54 10000 2 360 00:21 16.04.2022
1986 Clear -8 1011 67 10000 2 340 22:54 15.04.2022
1987 Clear -7 1011 68 10000 2 340 22:31 15.04.2022
1988 Clear -7 1011 68 10000 1 330 21:44 15.04.2022
1989 Clear -5 1010 58 10000 2 10 20:55 15.04.2022
1990 Clear -4 1010 58 10000 3 20 19:59 15.04.2022
1991 Clear -4 1010 58 10000 3 10 19:38 15.04.2022
1992 Clear -4 1009 58 10000 3 10 18:46 15.04.2022
1993 Clouds -4 1009 63 10000 3 360 18:24 15.04.2022
1994 Clouds -3 1009 68 10000 3 360 17:30 15.04.2022
1995 Clouds -1 1008 59 10000 2 10 16:26 15.04.2022
1996 Clouds 0 1008 59 10000 4 30 15:59 15.04.2022
1997 Clouds 1 1007 51 10000 4 60 14:41 15.04.2022
1998 Clouds 2 1007 55 10000 3 50 13:33 15.04.2022
1999 Clouds 2 1006 60 10000 3 30 12:40 15.04.2022
2000 Clouds 3 1005 52 10000 2 60 11:54 15.04.2022
2001 Clouds 3 1004 55 10000 3.13 80 10:53 15.04.2022
2002 Clouds 4 1004 48 10000 4 70 10:24 15.04.2022
2003 Clouds 4 1003 45 10000 3 70 09:38 15.04.2022
2004 Clouds 4 1003 45 10000 3 70 09:18 15.04.2022
2005 Clouds 4 1002 48 10000 3 80 06:56 15.04.2022
2006 Clouds 3 1002 47 10000 4.02 50 05:57 15.04.2022
2007 Clouds 0 1001 50 10000 2 80 02:34 15.04.2022
2008 Clouds -2 1001 58 10000 2 120 23:30 14.04.2022
2009 Clouds -3 1001 63 10000 1 120 22:47 14.04.2022
2010 Clouds -2 1001 58 10000 2 140 22:29 14.04.2022
2011 Clouds -2 1001 63 10000 2 140 21:57 14.04.2022
2012 Clouds -2 1002 68 10000 2 140 20:37 14.04.2022
2013 Clouds -1 1002 68 10000 2 160 19:23 14.04.2022
2014 Clouds -1 1003 68 10000 3.13 160 18:19 14.04.2022
2015 Clouds 0 1003 63 10000 2 140 17:28 14.04.2022
2016 Clouds 0 1003 69 10000 2 150 16:36 14.04.2022
2017 Clouds 1 1004 69 10000 3.13 150 14:58 14.04.2022
2018 Clouds 2 1005 60 10000 4 170 13:45 14.04.2022
2019 Clouds 2 1005 59 10000 3.13 150 12:52 14.04.2022
2020 Clouds 3 1005 51 10000 4.02 170 12:31 14.04.2022
2021 Clouds 3 1006 47 10000 3.13 170 11:24 14.04.2022
2022 Clouds 4 1006 45 10000 3 170 10:52 14.04.2022
2023 Clouds 4 1006 48 10000 3.13 160 10:26 14.04.2022
2024 Clouds 4 1007 41 10000 4 190 08:54 14.04.2022
2025 Clouds 4 1009 38 10000 4 190 06:53 14.04.2022
2026 Clear -2 1012 50 10000 2 210 03:28 14.04.2022
2027 Clear -11 1016 78 10000 0 0 23:25 13.04.2022
2028 Clear -12 1017 85 10000 1 250 22:20 13.04.2022
2029 Clear -10 1017 72 10000 2 330 21:36 13.04.2022
2030 Clear -9 1018 78 10000 1 310 20:22 13.04.2022
2031 Clear -8 1018 79 10000 1 320 19:36 13.04.2022
2032 Clear -7 1019 79 10000 1 300 18:27 13.04.2022
2033 Clear -7 1019 86 10000 0 0 17:24 13.04.2022
2034 Clear -4 1020 74 10000 1 250 16:34 13.04.2022
2035 Clear -3 1020 68 10000 1 200 15:40 13.04.2022
2036 Clear -3 1020 68 10000 2 230 14:51 13.04.2022
2037 Clear -2 1021 69 10000 2 230 14:28 13.04.2022
2038 Clear -1 1021 69 10000 1 220 13:29 13.04.2022
2039 Clear 0 1022 59 10000 2 210 12:27 13.04.2022
2040 Clouds 1 1022 55 10000 2 150 10:55 13.04.2022
2041 Clouds 1 1022 50 10000 1 220 09:44 13.04.2022
2042 Clouds 1 1023 50 10000 3.13 200 08:43 13.04.2022
2043 Clouds 1 1024 47 10000 3.13 220 06:52 13.04.2022
2044 Clouds 1 1024 50 10000 3.13 210 06:26 13.04.2022
2045 Clouds 1 1024 50 10000 3.13 180 05:52 13.04.2022
2046 Clear -10 1025 78 10000 1 170 00:24 13.04.2022
2047 Clear -12 1025 85 10000 2 170 23:46 12.04.2022
2048 Clear -12 1025 92 10000 1 230 22:19 12.04.2022
2049 Clear -12 1025 92 10000 0 0 21:32 12.04.2022
2050 Clear -11 1025 85 10000 1 300 20:42 12.04.2022
2051 Clear -10 1025 85 10000 1 290 19:53 12.04.2022
2052 Clear -10 1025 85 10000 1 310 19:32 12.04.2022
2053 Clear -8 1025 79 10000 1 80 18:42 12.04.2022
2054 Clear -8 1025 86 10000 1 300 17:30 12.04.2022
2055 Clear -6 1025 73 10000 2 320 16:25 12.04.2022
2056 Clear -6 1025 79 10000 2 310 15:33 12.04.2022
2057 Clear -4 1025 74 10000 2 230 14:32 12.04.2022
2058 Clear -3 1025 68 10000 1 220 13:38 12.04.2022
2059 Clear -2 1025 64 10000 1 220 12:53 12.04.2022
2060 Clouds 0 1025 55 10000 1 180 11:47 12.04.2022
2061 Clouds 1 1025 51 10000 1 220 11:20 12.04.2022
2062 Clouds 1 1024 47 10000 1 50 09:24 12.04.2022
2063 Clouds 0 1024 59 10000 1 10 07:59 12.04.2022
2064 Clouds -1 1024 63 10000 1 60 06:32 12.04.2022
2065 Clouds -1 1024 63 10000 1 60 06:32 12.04.2022
2066 Clouds -1 1024 63 10000 2 20 05:35 12.04.2022
2067 Clouds -5 1023 68 10000 2 20 00:59 12.04.2022
2068 Clouds -6 1023 73 10000 2 40 22:53 11.04.2022
2069 Clouds -6 1022 73 10000 3 360 21:49 11.04.2022
2070 Clouds -6 1022 68 10000 2 20 20:59 11.04.2022
2071 Clear -6 1022 68 10000 2 20 20:29 11.04.2022
2072 Clear -6 1022 63 10000 2 10 19:56 11.04.2022
2073 Clear -6 1021 63 10000 2 350 19:21 11.04.2022
2074 Clear -7 1021 63 10000 2 340 18:48 11.04.2022
2075 Clear -7 1021 62 10000 3.13 360 17:57 11.04.2022
2076 Clear -7 1021 52 10000 3.13 10 16:57 11.04.2022
2077 Clear -7 1021 52 10000 2 20 16:20 11.04.2022
2078 Clear -5 1020 50 10000 3 40 14:35 11.04.2022
2079 Clear -2 1020 43 10000 2 340 12:53 11.04.2022
2080 Clear -2 1020 43 10000 2 350 12:35 11.04.2022
2081 Clear -1 1020 37 10000 3 340 11:42 11.04.2022
2082 Clear 0 1019 34 10000 3 340 10:34 11.04.2022
2083 Clear 0 1019 32 10000 4 340 09:22 11.04.2022
2084 Clear -2 1019 36 10000 3.13 50 06:51 11.04.2022
2085 Clear -7 1019 49 10000 3 30 02:32 11.04.2022
2086 Clear -11 1018 57 10000 3 350 22:54 10.04.2022
2087 Clear -11 1017 62 10000 3 360 22:26 10.04.2022
2088 Clear -10 1017 62 10000 4 10 21:33 10.04.2022
2089 Clouds -8 1017 67 10000 4 20 20:33 10.04.2022
2090 Clouds -7 1017 73 10000 4 20 19:45 10.04.2022
2091 Clouds -6 1016 73 10000 4 20 19:23 10.04.2022
2092 Clouds -6 1016 73 10000 3 30 18:45 10.04.2022
2093 Clouds -5 1016 74 10000 3 30 17:55 10.04.2022
2094 Snow -4 1016 68 10000 4.02 70 17:35 10.04.2022
2095 Clouds -3 1015 79 10000 5 40 16:25 10.04.2022
2096 Clouds -2 1014 58 10000 4.02 360 15:30 10.04.2022
2097 Clouds -1 1014 69 10000 3 360 14:25 10.04.2022
2098 Clouds 0 1014 69 10000 2 360 12:35 10.04.2022
2099 Clear 0 1014 59 10000 5 350 11:49 10.04.2022
2100 Clear 1 1014 55 10000 3.13 20 11:29 10.04.2022
2101 Clear 1 1014 55 10000 5 360 10:56 10.04.2022
2102 Clear 2 1013 44 10000 4 330 09:58 10.04.2022
2103 Clear 2 1013 44 10000 5 330 09:37 10.04.2022
2104 Clear 2 1013 43 10000 5 330 08:22 10.04.2022
2105 Clear 2 1013 43 10000 6 330 07:27 10.04.2022
2106 Clear 1 1013 47 10000 5 330 05:50 10.04.2022
2107 Clear -2 1013 46 10000 5 320 02:25 10.04.2022
2108 Clear -4 1013 49 10000 5 300 00:28 10.04.2022
2109 Clear -5 1013 57 10000 4.02 300 23:48 09.04.2022
2110 Clear -5 1013 57 10000 5 310 22:47 09.04.2022
2111 Clear -4 1013 53 10000 3.13 300 21:35 09.04.2022
2112 Clear -5 1013 57 10000 2 280 20:49 09.04.2022
2113 Clear -5 1013 58 10000 3 300 20:26 09.04.2022
2114 Clear -5 1013 58 10000 4 300 19:42 09.04.2022
2115 Clear -6 1013 57 10000 3.13 310 18:59 09.04.2022
2116 Clear -6 1013 58 10000 3 310 18:20 09.04.2022
2117 Clear -8 1013 61 10000 3.13 310 17:39 09.04.2022
2118 Clear -7 1013 58 10000 3 310 16:52 09.04.2022
2119 Clear -7 1013 58 10000 2 310 15:55 09.04.2022
2120 Clear -6 1013 58 10000 2 310 15:30 09.04.2022
2121 Clear -7 1013 63 10000 3 310 14:44 09.04.2022
2122 Clear -7 1013 68 10000 2 310 14:22 09.04.2022
2123 Clear -4 1012 54 10000 1 310 13:18 09.04.2022
2124 Clear 0 1012 37 10000 2 360 12:41 09.04.2022
2125 Clear 0 1012 39 10000 2 30 11:22 09.04.2022
2126 Clear 1 1011 34 10000 2 50 10:21 09.04.2022
2127 Clear 1 1011 37 10000 3 40 09:38 09.04.2022
2128 Clear 2 1011 31 10000 3.13 20 08:53 09.04.2022
2129 Clear 1 1011 43 10000 4.02 10 06:56 09.04.2022
2130 Clear -10 1010 78 10000 2 20 01:32 09.04.2022
2131 Clear -14 1009 77 10000 1 350 23:45 08.04.2022
2132 Clear -14 1008 85 10000 2 340 21:58 08.04.2022
2133 Clear -13 1008 85 10000 2 10 21:29 08.04.2022
2134 Clear -12 1007 92 10000 2 360 20:38 08.04.2022
2135 Clear -12 1007 92 10000 3 350 19:20 08.04.2022
2136 Clear -10 1007 85 10000 3 360 18:29 08.04.2022
2137 Clear -10 1007 92 10000 3 360 17:49 08.04.2022
2138 Clear -9 1006 86 10000 3 360 17:25 08.04.2022
2139 Clear -10 1006 85 10000 2 350 16:47 08.04.2022
2140 Clear -8 1006 79 10000 2 360 15:57 08.04.2022
2141 Clear -7 1006 79 10000 2 360 15:26 08.04.2022
2142 Clouds -5 1005 74 10000 1 40 14:27 08.04.2022
2143 Clouds -4 1005 74 10000 1 100 13:46 08.04.2022
2144 Clouds -3 1005 68 10000 2 60 13:27 08.04.2022
2145 Clouds 0 1004 59 10000 3 60 11:56 08.04.2022
2146 Clouds 0 1003 50 10000 3.13 50 10:33 08.04.2022
2147 Clouds 0 1003 59 10000 4.02 40 09:38 08.04.2022
2148 Clouds 0 1003 59 10000 3.13 50 08:51 08.04.2022
2149 Clouds 0 1003 43 10000 2 350 06:55 08.04.2022
2150 Clear -4 1004 45 10000 0 0 05:18 08.04.2022
2151 Clear -14 1004 65 10000 2 40 01:29 08.04.2022
2152 Clear -14 1004 65 10000 1 70 00:25 08.04.2022
2153 Clear -14 1004 65 10000 1 70 00:25 08.04.2022
2154 Clear -15 1004 72 10000 2 30 22:59 07.04.2022
2155 Clear -15 1004 72 10000 3 20 22:39 07.04.2022
2156 Clear -15 1004 72 10000 3 20 22:21 07.04.2022
2157 Clear -14 1004 72 10000 2 40 21:52 07.04.2022
2158 Clear -15 1004 77 10000 1 350 21:19 07.04.2022
2159 Clear -13 1004 71 10000 1 30 20:37 07.04.2022
2160 Clear -13 1004 78 10000 2 360 18:35 07.04.2022
2161 Clear -12 1004 78 10000 2 330 17:27 07.04.2022
2162 Clear -13 1004 78 10000 1 340 16:44 07.04.2022
2163 Clear -12 1004 79 10000 1 350 16:22 07.04.2022
2164 Clear -12 1004 79 10000 1 350 16:22 07.04.2022
2165 Clear -12 1004 72 10000 1 10 14:50 07.04.2022
2166 Clear -9 1004 67 10000 0 0 13:43 07.04.2022
2167 Clear -7 1004 63 10000 2 110 12:58 07.04.2022
2168 Clouds -5 1004 50 10000 0 0 11:40 07.04.2022
2169 Clear -4 1004 49 10000 1 130 09:42 07.04.2022
2170 Clear -4 1004 42 10000 1 240 08:38 07.04.2022
2171 Clear -5 1005 41 10000 1 250 06:57 07.04.2022
2172 Clear -12 1008 55 10000 2 350 02:58 07.04.2022
2173 Clear -13 1008 60 10000 3.13 350 02:27 07.04.2022
2174 Clear -15 1009 65 10000 2 330 00:28 07.04.2022
2175 Clear -15 1010 66 10000 3 330 22:52 06.04.2022
2176 Clear -14 1010 61 10000 3 340 22:30 06.04.2022
2177 Clear -14 1010 61 10000 3 340 21:45 06.04.2022
2178 Clear -14 1010 61 10000 4 340 20:40 06.04.2022
2179 Clear -13 1011 61 10000 3 340 19:57 06.04.2022
2180 Clear -12 1011 56 10000 4 340 18:52 06.04.2022
2181 Clear -12 1012 56 10000 3 340 18:33 06.04.2022
2182 Clear -11 1012 52 10000 3 350 17:35 06.04.2022
2183 Clear -11 1013 57 10000 3 350 16:39 06.04.2022
2184 Clear -10 1013 52 10000 3 340 15:49 06.04.2022
2185 Clear -10 1013 51 10000 4.02 340 15:21 06.04.2022
2186 Clear -9 1014 52 10000 2 330 13:30 06.04.2022
2187 Clear -7 1014 48 10000 4.02 340 12:28 06.04.2022
2188 Clear -7 1015 48 10000 2 360 10:54 06.04.2022
2189 Clear -7 1015 48 10000 1 10 10:31 06.04.2022
2190 Clear -7 1015 48 10000 1 90 09:42 06.04.2022
2191 Clear -7 1015 44 10000 2 10 08:36 06.04.2022
2192 Clear -7 1015 44 10000 2 340 07:56 06.04.2022
2193 Clear -11 1016 56 10000 0.89 120 04:42 06.04.2022
2194 Clear -16 1016 71 10000 3.13 330 23:57 05.04.2022
2195 Clear -16 1016 71 10000 3.13 320 23:22 05.04.2022
2196 Clear -15 1016 65 10000 3.13 330 21:31 05.04.2022
2197 Clear -14 1016 65 10000 3.13 330 20:54 05.04.2022
2198 Clear -14 1016 65 10000 2 330 20:23 05.04.2022
2199 Clear -12 1016 60 10000 3.13 340 18:26 05.04.2022
2200 Clear -11 1016 56 10000 4.02 340 17:20 05.04.2022
2201 Clear -10 1016 57 10000 3 350 16:41 05.04.2022
2202 Clear -9 1016 57 10000 3 330 15:50 05.04.2022
2203 Clear -9 1016 57 10000 3 330 15:30 05.04.2022
2204 Clear -8 1016 53 10000 3 320 13:45 05.04.2022
2205 Clear -6 1015 49 10000 4 310 11:55 05.04.2022
2206 Clear -5 1014 46 10000 5 310 11:33 05.04.2022
2207 Clear -5 1014 46 10000 5 310 10:58 05.04.2022
2208 Clear -4 1014 42 10000 6 310 09:31 05.04.2022
2209 Clear -4 1013 42 10000 6 340 08:27 05.04.2022
2210 Clear -8 1013 57 10000 3.13 310 03:37 05.04.2022
2211 Clear -11 1012 72 10000 3.13 330 23:38 04.04.2022
2212 Clear -10 1012 79 10000 3 320 22:37 04.04.2022
2213 Clouds -10 1012 85 10000 2 330 21:46 04.04.2022
2214 Clouds -9 1012 79 10000 3 320 21:18 04.04.2022
2215 Clouds -8 1012 79 10000 3 330 20:47 04.04.2022
2216 Clouds -8 1012 85 10000 4.02 320 19:28 04.04.2022
2217 Clouds -8 1012 85 10000 4.02 320 18:40 04.04.2022
2218 Clouds -7 1011 85 10000 4.02 330 17:20 04.04.2022
2219 Clouds -6 1011 79 10000 4.02 330 16:31 04.04.2022
2220 Clouds -6 1011 85 10000 4.02 320 15:33 04.04.2022
2221 Clouds -5 1011 79 10000 3.13 320 14:46 04.04.2022
2222 Clouds -5 1011 79 10000 4.02 320 14:27 04.04.2022
2223 Clouds -5 1010 73 10000 2 360 12:58 04.04.2022
2224 Clouds -4 1009 73 10000 2 40 11:29 04.04.2022
2225 Clouds -2 1008 68 10000 3.13 360 10:29 04.04.2022
2226 Clouds -3 1006 68 10000 1 60 05:34 04.04.2022
2227 Clouds -6 1005 79 10000 1 40 02:59 04.04.2022
2228 Snow -9 1003 92 2400 0 0 23:42 03.04.2022
2229 Snow -9 1003 92 5000 0 0 22:18 03.04.2022
2230 Snow -9 1003 92 3200 1 360 21:31 03.04.2022
2231 Clouds -18 1004 100 4978 0.66 8 20:32 03.04.2022
2232 Snow -8 1002 93 3200 0 0 18:47 03.04.2022
2233 Snow -8 1002 93 3200 1 350 17:56 03.04.2022
2234 Snow -8 1002 93 3200 1 350 17:36 03.04.2022
2235 Fog -9 1002 92 800 1 20 16:50 03.04.2022
2236 Snow -8 1002 100 3200 1 80 15:56 03.04.2022
2237 Snow -6 1002 100 2400 1 50 14:27 03.04.2022
2238 Snow -5 1001 93 3200 1 80 13:28 03.04.2022
2239 Clouds -5 1000 92 10000 1 60 11:51 03.04.2022
2240 Snow -4 999 85 5000 2 50 09:59 03.04.2022
2241 Snow -4 998 85 5000 2 50 09:18 03.04.2022
2242 Snow -4 997 73 2400 1 40 06:28 03.04.2022
2243 Snow -7 996 79 3200 3.13 30 02:56 03.04.2022
2244 Snow -8 995 61 5000 3.13 50 23:50 02.04.2022
2245 Clouds -7 995 58 10000 4 50 22:51 02.04.2022
2246 Snow -7 995 79 10000 3.13 40 21:56 02.04.2022
2247 Snow -7 995 79 10000 3.13 40 21:56 02.04.2022
2248 Snow -8 995 85 10000 4.02 50 21:21 02.04.2022
2249 Snow -6 996 73 1800 3.13 50 20:36 02.04.2022
2250 Clouds -6 996 67 10000 3.13 50 18:49 02.04.2022
2251 Clouds -6 996 67 10000 3.13 40 18:20 02.04.2022
2252 Clouds -5 996 73 10000 3.13 40 17:23 02.04.2022
2253 Clouds -3 997 63 10000 3.13 60 15:58 02.04.2022
2254 Clouds -3 997 68 10000 3.13 50 15:20 02.04.2022
2255 Clouds -3 997 73 10000 3.13 90 14:32 02.04.2022
2256 Clouds -2 998 74 10000 3.13 90 13:34 02.04.2022
2257 Clouds -1 998 74 10000 3.13 80 12:32 02.04.2022
2258 Clouds 0 998 69 10000 4.02 100 10:46 02.04.2022
2259 Clouds 1 999 69 10000 2 100 08:33 02.04.2022
2260 Clouds -2 1000 79 10000 3.13 60 05:58 02.04.2022
2261 Snow -4 1002 79 10000 2 70 03:28 02.04.2022
2262 Snow -6 1004 85 5000 2 120 23:55 01.04.2022
2263 Snow -6 1005 85 10000 2 110 22:51 01.04.2022
2264 Clouds -5 1006 67 10000 2 130 21:30 01.04.2022
2265 Clouds -5 1006 73 10000 2 120 20:50 01.04.2022
2266 Clouds -5 1007 79 10000 2 120 19:51 01.04.2022
2267 Clouds -5 1007 79 10000 2 130 19:27 01.04.2022
2268 Snow -5 1007 73 10000 2 140 18:42 01.04.2022
2269 Clouds -7 1008 73 10000 0 0 17:45 01.04.2022
2270 Clouds -6 1009 57 10000 1 70 16:34 01.04.2022
2271 Clouds -6 1010 57 10000 1 100 15:19 01.04.2022
2272 Clouds -6 1010 62 10000 2 40 14:18 01.04.2022
2273 Clouds -6 1011 62 10000 1 60 13:32 01.04.2022
2274 Clouds -7 1011 67 10000 2 30 12:32 01.04.2022
2275 Clouds -6 1012 62 10000 1 20 11:18 01.04.2022
2276 Clear -3 1013 42 10000 1 80 09:53 01.04.2022
2277 Clear -4 1014 45 10000 2 100 07:59 01.04.2022
2278 Clear -7 1016 52 10000 1 80 06:30 01.04.2022
2279 Clear -10 1017 57 10000 1 40 04:45 01.04.2022
2280 Clear -14 1018 66 10000 1 60 03:41 01.04.2022
2281 Clear -18 1018 78 10000 1 80 01:53 01.04.2022
2282 Clear -21 1019 83 10000 2 300 22:56 31.03.2022
2283 Clear -22 1020 83 10000 0 0 21:50 31.03.2022
2284 Clear -21 1020 83 10000 1 300 21:31 31.03.2022
2285 Clear -21 1020 76 10000 0 0 20:28 31.03.2022
2286 Clear -20 1020 76 10000 1 280 19:47 31.03.2022
2287 Clear -17 1020 71 10000 3.13 310 18:43 31.03.2022
2288 Clear -15 1020 66 10000 2 320 17:41 31.03.2022
2289 Clear -13 1020 61 10000 3 330 16:34 31.03.2022
2290 Clear -13 1020 61 10000 3 330 15:35 31.03.2022
2291 Clear -11 1021 57 10000 3 310 14:54 31.03.2022
2292 Clear -11 1021 57 10000 2 310 14:34 31.03.2022
2293 Clear -5 1020 42 10000 3 330 11:34 31.03.2022
2294 Clear -5 1020 42 10000 1 100 10:41 31.03.2022
2295 Clear -5 1020 45 10000 2 100 09:44 31.03.2022
2296 Clear -6 1020 48 10000 2 100 07:53 31.03.2022
2297 Clear -6 1020 48 10000 4.02 20 04:42 31.03.2022
2298 Clear -16 1019 71 10000 2 340 23:34 30.03.2022
2299 Clear -16 1019 71 10000 3.13 310 22:27 30.03.2022
2300 Clear -15 1019 65 10000 3.13 320 21:37 30.03.2022
2301 Clear -15 1019 71 10000 3.13 320 20:44 30.03.2022
2302 Clear -16 1019 71 10000 2 290 19:59 30.03.2022
2303 Clear -15 1019 65 10000 2 320 18:50 30.03.2022
2304 Clear -15 1019 72 10000 3 310 17:53 30.03.2022
2305 Clear -14 1019 66 10000 3 320 17:34 30.03.2022
2306 Clear -13 1019 66 10000 2 320 16:51 30.03.2022
2307 Clear -13 1019 66 10000 2 310 16:30 30.03.2022
2308 Clear -11 1019 62 10000 3 300 14:55 30.03.2022
2309 Clouds -9 1019 53 10000 3 300 13:34 30.03.2022
2310 Clouds -8 1019 53 10000 2 310 12:41 30.03.2022
2311 Clouds -6 1018 48 10000 3.13 360 10:54 30.03.2022
2312 Clouds -5 1018 45 10000 5 310 09:58 30.03.2022
2313 Clouds -5 1018 45 10000 3.13 300 08:57 30.03.2022
2314 Clouds -6 1018 53 10000 5 290 07:31 30.03.2022
2315 Clouds -6 1017 53 10000 5 300 05:40 30.03.2022
2316 Clear -10 1017 66 10000 2 160 03:21 30.03.2022
2317 Clear -15 1016 78 10000 4 280 23:32 29.03.2022
2318 Clear -15 1016 78 10000 3 280 22:19 29.03.2022
2319 Clear -15 1016 78 10000 3 280 21:41 29.03.2022
2320 Clear -14 1015 78 10000 3 280 20:44 29.03.2022
2321 Clear -12 1015 79 10000 4 300 19:45 29.03.2022
2322 Clear -12 1015 85 10000 4 310 18:54 29.03.2022
2323 Clear -11 1014 79 10000 5 310 18:18 29.03.2022
2324 Clear -10 1014 79 10000 5 310 17:20 29.03.2022
2325 Clear -10 1013 73 10000 3 330 16:55 29.03.2022
2326 Clear -10 1013 73 10000 3 330 15:57 29.03.2022
2327 Clear -8 1012 62 10000 3 310 14:44 29.03.2022
2328 Clear -7 1012 58 10000 3 310 13:52 29.03.2022
2329 Clear -5 1011 54 10000 3 320 12:46 29.03.2022
2330 Clear -3 1010 53 10000 1 160 11:28 29.03.2022
2331 Clouds -4 1009 58 10000 2 100 10:23 29.03.2022
2332 Clouds -3 1008 53 10000 1 140 09:20 29.03.2022
2333 Snow -5 1007 73 5000 4.02 320 06:55 29.03.2022
2334 Clouds -7 1006 73 10000 4.02 310 03:47 29.03.2022
2335 Clouds -9 1003 61 10000 2 20 23:49 28.03.2022
2336 Clear -9 1003 61 10000 3.13 350 22:59 28.03.2022
2337 Clear -9 1003 61 10000 3.13 350 22:39 28.03.2022
2338 Clear -10 1003 61 10000 1 330 22:19 28.03.2022
2339 Clear -11 1002 67 10000 3 330 20:47 28.03.2022
2340 Clear -11 1002 67 10000 3 10 19:59 28.03.2022
2341 Clear -11 1002 67 10000 3 10 19:40 28.03.2022
2342 Clear -11 1002 67 10000 3 10 19:40 28.03.2022
2343 Clear -10 1002 62 10000 2 360 18:52 28.03.2022
2344 Clear -10 1001 62 10000 2 360 18:18 28.03.2022
2345 Clear -10 1001 67 10000 2 20 17:30 28.03.2022
2346 Clear -9 1001 62 10000 3 10 15:48 28.03.2022
2347 Clear -7 1001 52 10000 2 20 14:24 28.03.2022
2348 Clear -7 1001 57 10000 2 20 13:33 28.03.2022
2349 Clear -5 1000 53 10000 2 30 11:54 28.03.2022
2350 Clear -3 1000 49 10000 3.13 20 10:49 28.03.2022
2351 Clear -2 1000 42 10000 4 10 09:38 28.03.2022
2352 Clear -2 1000 42 10000 4.02 10 08:46 28.03.2022
2353 Clear -3 1000 45 10000 4.02 360 08:21 28.03.2022
2354 Clear -4 1000 49 10000 4.02 350 07:26 28.03.2022
2355 Clear -12 1002 51 10000 3.13 10 02:46 28.03.2022
2356 Clear -19 1004 64 10000 2 340 22:57 27.03.2022
2357 Clear -19 1004 70 10000 2 20 21:55 27.03.2022
2358 Clear -19 1004 70 10000 2 20 21:37 27.03.2022
2359 Clear -18 1005 70 10000 2 10 20:42 27.03.2022
2360 Clear -17 1005 71 10000 2 20 19:44 27.03.2022
2361 Clear -16 1005 65 10000 2 10 18:47 27.03.2022
2362 Clear -16 1006 71 10000 2 350 18:25 27.03.2022
2363 Clear -15 1006 71 10000 2 330 17:37 27.03.2022
2364 Clear -14 1007 65 10000 2 360 15:57 27.03.2022
2365 Clear -12 1008 60 10000 2 30 14:22 27.03.2022
2366 Clear -12 1008 72 10000 2 30 13:33 27.03.2022
2367 Clear -7 1009 57 10000 2 20 11:41 27.03.2022
2368 Clear -5 1010 53 10000 3.13 30 09:49 27.03.2022
2369 Clear -6 1011 57 10000 2 50 07:55 27.03.2022
2370 Clear -10 1013 61 10000 1 10 05:18 27.03.2022
2371 Clear -21 1016 77 10000 1 50 00:30 27.03.2022
2372 Clear -23 1016 76 10000 1 350 22:53 26.03.2022
2373 Clear -23 1016 83 10000 1 360 22:25 26.03.2022
2374 Clear -22 1016 83 10000 2 330 21:31 26.03.2022
2375 Clear -21 1017 83 10000 1.79 330 19:39 26.03.2022
2376 Clear -20 1017 84 10000 2 330 18:44 26.03.2022
2377 Clear -19 1017 84 10000 2 330 17:44 26.03.2022
2378 Clear -18 1017 84 10000 2 330 16:47 26.03.2022
2379 Clear -17 1017 84 10000 2 310 15:43 26.03.2022
2380 Clear -16 1017 84 10000 2 320 14:18 26.03.2022
2381 Clear -15 1018 84 10000 3.13 320 13:47 26.03.2022
2382 Clear -13 1018 84 10000 1 330 12:31 26.03.2022
2383 Clear -9 1018 67 10000 1 10 10:56 26.03.2022
2384 Clear -6 1018 62 10000 2 40 09:21 26.03.2022
2385 Clear -6 1019 62 10000 2 50 07:34 26.03.2022
2386 Clear -7 1020 62 10000 1 90 05:52 26.03.2022
2387 Clear -10 1021 66 10000 1 120 03:22 26.03.2022
2388 Clear -19 1021 77 10000 2 330 22:50 25.03.2022
2389 Clear -20 1021 84 10000 0 0 20:58 25.03.2022
2390 Clear -20 1021 84 10000 0 0 20:37 25.03.2022
2391 Clear -17 1020 85 10000 2 330 19:20 25.03.2022
2392 Clear -16 1020 78 10000 4 320 18:37 25.03.2022
2393 Clear -17 1020 84 10000 2 310 17:34 25.03.2022
2394 Clear -17 1020 84 10000 3.13 320 16:29 25.03.2022
2395 Clear -19 1020 84 10000 1 340 15:46 25.03.2022
2396 Clear -14 1019 84 10000 1 10 13:32 25.03.2022
2397 Clear -10 1019 73 10000 2 340 11:38 25.03.2022
2398 Clear -6 1018 62 10000 3.13 30 09:43 25.03.2022
2399 Clear -5 1017 57 10000 2 50 08:56 25.03.2022
2400 Clear -4 1017 53 10000 1 60 07:46 25.03.2022
2401 Clear -5 1017 57 10000 2 50 07:19 25.03.2022
2402 Clear -10 1016 73 10000 1 90 03:45 25.03.2022
2403 Clear -18 1014 85 10000 1 300 23:54 24.03.2022
2404 Clear -18 1014 85 10000 1 320 22:24 24.03.2022
2405 Clear -17 1013 78 10000 2 330 21:24 24.03.2022
2406 Clear -17 1013 85 10000 2 330 19:50 24.03.2022
2407 Clear -16 1012 84 10000 1 340 18:45 24.03.2022
2408 Clear -15 1012 92 10000 2 340 17:36 24.03.2022
2409 Clear -14 1012 92 10000 2 350 16:33 24.03.2022
2410 Clear -12 1011 85 10000 2 360 14:53 24.03.2022
2411 Clouds -9 1011 78 10000 2 10 14:32 24.03.2022
2412 Clouds -8 1011 72 10000 2 10 13:36 24.03.2022
2413 Clouds -8 1011 72 10000 1 10 12:29 24.03.2022
2414 Clouds -6 1010 67 10000 2 30 11:27 24.03.2022
2415 Clear -5 1009 62 10000 2 30 09:28 24.03.2022
2416 Clear -5 1009 62 10000 2 40 08:38 24.03.2022
2417 Clear -9 1009 67 10000 2 50 05:36 24.03.2022
2418 Clear -17 1009 71 10000 0 0 00:38 24.03.2022
2419 Snow -20 1009 84 10000 2 350 22:21 23.03.2022
2420 Snow -19 1008 77 10000 1 350 21:24 23.03.2022
2421 Snow -19 1008 84 10000 1 360 20:44 23.03.2022
2422 Clouds -19 1008 77 10000 1 360 19:33 23.03.2022
2423 Clear -20 1008 76 10000 2 310 18:18 23.03.2022
2424 Clear -19 1007 77 10000 1 340 17:25 23.03.2022
2425 Clear -18 1007 77 10000 2 320 15:56 23.03.2022
2426 Clear -17 1007 78 10000 2 330 14:48 23.03.2022
2427 Clear -15 1006 78 10000 2 350 13:34 23.03.2022
2428 Clear -11 1005 66 10000 1 150 11:33 23.03.2022
2429 Clear -5 1005 49 10000 2 150 08:41 23.03.2022
2430 Clear -8 1004 57 10000 3.13 160 05:50 23.03.2022
2431 Clear -13 1004 72 10000 3 160 02:50 23.03.2022
2432 Clear -15 1003 77 10000 2 320 00:27 23.03.2022
2433 Clear -20 1003 84 10000 1 290 21:53 22.03.2022
2434 Clear -20 1003 84 10000 1 10 21:23 22.03.2022
2435 Clear -16 1002 78 10000 2 20 20:29 22.03.2022
2436 Clear -17 1002 77 10000 1 360 19:27 22.03.2022
2437 Clear -15 1002 78 10000 2 340 18:49 22.03.2022
2438 Clear -14 1001 78 10000 4 300 17:44 22.03.2022
2439 Clear -15 1001 84 10000 3.13 310 16:58 22.03.2022
2440 Clear -15 1001 77 10000 2 300 15:48 22.03.2022
2441 Clear -15 1001 77 10000 2 310 15:21 22.03.2022
2442 Clear -15 1001 77 10000 2 320 14:45 22.03.2022
2443 Clear -13 1001 72 10000 3 310 13:52 22.03.2022
2444 Clear -11 1001 67 10000 3 300 12:34 22.03.2022
2445 Clear -11 1001 61 10000 2 300 11:24 22.03.2022
2446 Clear -7 1000 52 10000 4 330 09:42 22.03.2022
2447 Clear -6 1000 48 10000 5 310 07:35 22.03.2022
2448 Clear -14 999 61 10000 2 140 03:58 22.03.2022
2449 Clear -19 999 78 10000 1 170 01:27 22.03.2022
2450 Clear -25 999 76 10000 1 280 22:57 21.03.2022
2451 Clear -23 999 77 10000 3 310 21:39 21.03.2022
2452 Clear -26 999 75 10000 1 70 20:44 21.03.2022
2453 Clear -21 999 77 10000 3 330 20:23 21.03.2022
2454 Clear -24 999 76 10000 1 350 19:47 21.03.2022
2455 Clear -21 998 84 10000 3 320 18:59 21.03.2022
2456 Clear -22 998 83 10000 2 300 17:36 21.03.2022
2457 Clear -21 998 76 10000 2 290 16:59 21.03.2022
2458 Clear -21 999 83 10000 2 290 16:35 21.03.2022
2459 Clear -20 999 84 10000 2 300 15:44 21.03.2022
2460 Clear -19 999 84 10000 2 330 14:45 21.03.2022
2461 Clear -18 999 84 10000 1 320 13:20 21.03.2022
2462 Clear -18 1000 77 10000 0 0 12:22 21.03.2022
2463 Clear -15 1000 71 10000 0 0 11:34 21.03.2022
2464 Clear -10 1000 56 10000 1 90 09:53 21.03.2022
2465 Clear -9 1000 61 10000 1 70 07:53 21.03.2022
2466 Clear -11 1001 61 10000 1 80 06:30 21.03.2022
2467 Clear -20 1004 77 10000 1 50 02:24 21.03.2022
2468 Clear -28 1006 75 10000 1 360 23:26 20.03.2022
2469 Clear -29 1006 75 10000 1 350 22:36 20.03.2022
2470 Clear -28 1006 68 10000 2 360 21:40 20.03.2022
2471 Clear -28 1007 75 10000 2 330 20:58 20.03.2022
2472 Clear -28 1007 75 10000 2 350 20:36 20.03.2022
2473 Clear -28 1007 75 10000 1 340 19:55 20.03.2022
2474 Clear -27 1008 75 10000 1 350 19:24 20.03.2022
2475 Clear -26 1008 75 10000 1 340 17:50 20.03.2022
2476 Clear -25 1008 76 10000 2 320 17:28 20.03.2022
2477 Clear -25 1009 76 10000 1 340 16:40 20.03.2022
2478 Clear -23 1010 76 10000 1 350 14:53 20.03.2022
2479 Clear -22 1010 76 10000 1 350 13:39 20.03.2022
2480 Clear -19 1011 77 10000 2 10 12:20 20.03.2022
2481 Clear -16 1011 65 10000 2 350 10:38 20.03.2022
2482 Clear -11 1011 56 10000 1 70 08:35 20.03.2022
2483 Clear -13 1012 61 10000 1 60 06:40 20.03.2022
2484 Clear -19 1014 65 10000 1 300 03:27 20.03.2022
2485 Clear -27 1015 69 10000 0 0 00:54 20.03.2022
2486 Clear -27 1015 69 10000 0 0 00:54 20.03.2022
2487 Clear -28 1015 76 10000 1 10 00:35 20.03.2022
2488 Clear -30 1015 75 10000 1 340 22:42 19.03.2022
2489 Clear -29 1015 75 10000 1 350 21:27 19.03.2022
2490 Clear -28 1016 75 10000 2 340 19:42 19.03.2022
2491 Clear -27 1016 75 10000 2 330 18:44 19.03.2022
2492 Clear -26 1016 75 10000 2 310 17:55 19.03.2022
2493 Clear -26 1016 75 10000 1 320 17:33 19.03.2022
2494 Clear -25 1017 69 10000 2 320 15:41 19.03.2022
2495 Clear -23 1017 77 10000 2 320 14:21 19.03.2022
2496 Clear -22 1017 76 10000 1 340 12:56 19.03.2022
2497 Clear -21 1017 70 10000 1 340 12:37 19.03.2022
2498 Clear -20 1017 65 10000 1 40 11:47 19.03.2022
2499 Clear -13 1017 47 10000 1 60 09:55 19.03.2022
2500 Clear -13 1019 42 10000 1 110 05:59 19.03.2022
2501 Clear -18 1021 59 10000 1 150 02:48 19.03.2022
2502 Clear -23 1021 64 10000 0 0 01:32 19.03.2022
2503 Clear -27 1021 68 10000 1 280 23:22 18.03.2022
2504 Clear -27 1021 68 10000 0 0 22:23 18.03.2022
2505 Clear -27 1022 69 10000 0 0 20:48 18.03.2022
2506 Clear -26 1022 76 10000 1 300 19:49 18.03.2022
2507 Clear -26 1022 76 10000 1 330 19:19 18.03.2022
2508 Clear -25 1022 77 10000 1 310 17:27 18.03.2022
2509 Clear -25 1022 77 10000 1 300 16:45 18.03.2022
2510 Clear -22 1023 77 10000 1 350 14:37 18.03.2022
2511 Clear -22 1023 77 10000 1 350 14:18 18.03.2022
2512 Clear -18 1024 70 10000 2 250 12:19 18.03.2022
2513 Clear -16 1024 59 10000 2 220 10:39 18.03.2022
2514 Clear -13 1024 46 10000 1 200 09:23 18.03.2022
2515 Clear -12 1024 39 10000 1 80 07:45 18.03.2022
2516 Clear -13 1025 39 10000 1 70 05:46 18.03.2022
2517 Clear -16 1026 45 10000 3.13 350 02:50 18.03.2022
2518 Clear -20 1027 58 10000 3.13 330 00:22 18.03.2022
2519 Clear -21 1027 58 10000 3.13 330 23:20 17.03.2022
2520 Clear -21 1027 64 10000 3.13 330 22:23 17.03.2022
2521 Clear -22 1027 63 10000 3.13 320 21:48 17.03.2022
2522 Clear -22 1027 63 10000 3.13 320 21:20 17.03.2022
2523 Clear -22 1027 63 10000 3 310 20:41 17.03.2022
2524 Clear -22 1027 63 10000 3.13 320 19:45 17.03.2022
2525 Clear -22 1028 63 10000 3.13 320 18:57 17.03.2022
2526 Clear -21 1028 64 10000 3.13 320 17:56 17.03.2022
2527 Clear -21 1028 64 10000 3.13 320 16:48 17.03.2022
2528 Clear -21 1028 70 10000 2 320 15:44 17.03.2022
2529 Clear -20 1028 64 10000 2 330 15:23 17.03.2022
2530 Clear -19 1028 70 10000 3.13 320 13:50 17.03.2022
2531 Clear -20 1028 84 10000 3.13 320 12:49 17.03.2022
2532 Clear -20 1028 76 10000 1 300 12:21 17.03.2022
2533 Clear -18 1028 77 10000 0 0 11:27 17.03.2022
2534 Clear -14 1028 77 10000 1 60 09:57 17.03.2022
2535 Snow -13 1027 71 10000 4.02 340 08:34 17.03.2022
2536 Snow -13 1027 71 10000 4.02 340 08:34 17.03.2022
2537 Clear -14 1027 55 10000 2 40 07:33 17.03.2022
2538 Clear -14 1028 46 10000 3.13 20 05:47 17.03.2022
2539 Clear -19 1029 59 10000 2 350 00:46 17.03.2022
2540 Clear -20 1029 64 10000 3 320 23:39 16.03.2022
2541 Clear -21 1029 70 10000 1 320 22:44 16.03.2022
2542 Clear -20 1029 64 10000 2 330 22:21 16.03.2022
2543 Clear -20 1030 64 10000 1 340 21:34 16.03.2022
2544 Clear -21 1030 70 10000 1.79 10 19:40 16.03.2022
2545 Clear -21 1030 70 10000 1 60 19:19 16.03.2022
2546 Clear -21 1030 64 10000 2 40 18:35 16.03.2022
2547 Clear -21 1030 64 10000 2 30 17:41 16.03.2022
2548 Clear -21 1031 70 10000 2 20 16:50 16.03.2022
2549 Clear -21 1031 64 10000 1 20 15:53 16.03.2022
2550 Clear -20 1031 65 10000 2 360 14:25 16.03.2022
2551 Clear -20 1031 65 10000 2 20 13:24 16.03.2022
2552 Clear -19 1031 65 10000 3 360 11:53 16.03.2022
2553 Clear -19 1031 65 10000 3 10 11:20 16.03.2022
2554 Clear -18 1031 60 10000 3 10 10:18 16.03.2022
2555 Clear -17 1030 59 10000 4.02 30 08:51 16.03.2022
2556 Clear -18 1031 59 10000 2 80 04:45 16.03.2022
2557 Clear -25 1030 77 10000 2 340 00:48 16.03.2022
2558 Clear -27 1029 75 10000 2 340 22:37 15.03.2022
2559 Clear -28 1029 75 10000 1 10 21:52 15.03.2022
2560 Clear -26 1029 75 10000 2 350 19:53 15.03.2022
2561 Clear -27 1029 75 10000 2 330 18:45 15.03.2022
2562 Clear -26 1028 76 10000 2 330 16:55 15.03.2022
2563 Clear -26 1028 75 10000 1 340 16:20 15.03.2022
2564 Clear -25 1027 76 10000 3.13 330 14:57 15.03.2022
2565 Clear -24 1027 76 10000 0 0 14:34 15.03.2022
2566 Clear -24 1027 76 10000 2 320 13:27 15.03.2022
2567 Clear -23 1027 76 10000 2 360 12:21 15.03.2022
2568 Clear -21 1026 70 10000 3.13 360 11:28 15.03.2022
2569 Clear -15 1025 55 10000 2 190 09:39 15.03.2022
2570 Clear -15 1025 55 10000 3.13 200 08:32 15.03.2022
2571 Clear -15 1025 55 10000 3.13 200 07:50 15.03.2022
2572 Clear -15 1025 55 10000 2 200 06:51 15.03.2022
2573 Clear -23 1025 70 10000 1 160 02:59 15.03.2022
2574 Fog -30 1024 76 10000 0 0 23:39 14.03.2022
2575 Clear -30 1023 76 10000 1 160 23:21 14.03.2022
2576 Clear -29 1023 76 10000 0 0 22:19 14.03.2022
2577 Clear -25 1023 76 10000 2 290 21:22 14.03.2022
2578 Clear -24 1022 76 10000 1 280 20:35 14.03.2022
2579 Clear -23 1022 76 10000 2 300 19:59 14.03.2022
2580 Snow -20 1022 76 10000 3.13 300 18:37 14.03.2022
2581 Snow -19 1022 77 10000 2 310 17:44 14.03.2022
2582 Snow -21 1022 76 10000 2 290 16:57 14.03.2022
2583 Snow -20 1021 76 10000 2 280 15:37 14.03.2022
2584 Snow -19 1021 84 10000 2 300 14:38 14.03.2022
2585 Clear -17 1021 65 10000 0 0 12:21 14.03.2022
2586 Clear -15 1021 60 10000 1 90 10:51 14.03.2022
2587 Clear -14 1021 55 10000 1 80 09:41 14.03.2022
2588 Clear -14 1021 55 10000 1 80 09:21 14.03.2022
2589 Clear -14 1021 60 10000 1 80 08:55 14.03.2022
2590 Clear -14 1021 60 10000 1 90 07:28 14.03.2022
2591 Clear -15 1021 60 10000 2 160 05:44 14.03.2022
2592 Clear -18 1022 64 10000 0 0 01:52 14.03.2022
2593 Clear -19 1022 70 10000 0 0 01:20 14.03.2022
2594 Clear -24 1022 77 10000 2 310 22:43 13.03.2022
2595 Clear -23 1022 84 10000 2 320 21:29 13.03.2022
2596 Clear -24 1022 77 10000 2 310 20:55 13.03.2022
2597 Clear -23 1022 77 10000 2 310 20:30 13.03.2022
2598 Clear -22 1022 76 10000 2 330 19:49 13.03.2022
2599 Clear -21 1023 76 10000 2 320 19:27 13.03.2022
2600 Clear -21 1023 76 10000 2 330 18:59 13.03.2022
2601 Clear -22 1023 76 10000 2 300 18:31 13.03.2022
2602 Clear -21 1023 76 10000 2 310 17:41 13.03.2022
2603 Clear -20 1023 76 10000 2 310 16:57 13.03.2022
2604 Clear -20 1023 76 10000 3.13 310 16:29 13.03.2022
2605 Clear -22 1023 76 10000 2 320 15:44 13.03.2022
2606 Clear -17 1023 65 10000 1 360 14:56 13.03.2022
2607 Clear -17 1023 65 10000 3.13 330 13:43 13.03.2022
2608 Clear -22 1024 84 10000 3 320 12:38 13.03.2022
2609 Clear -22 1024 77 10000 1 20 11:51 13.03.2022
2610 Clear -19 1024 70 10000 1 10 11:31 13.03.2022
2611 Clear -19 1024 70 10000 1 10 11:31 13.03.2022
2612 Clear -18 1024 70 10000 2 20 10:46 13.03.2022
2613 Clear -15 1023 60 10000 0 0 09:59 13.03.2022
2614 Clear -15 1023 60 10000 1 210 09:40 13.03.2022
2615 Clear -13 1024 55 10000 2 190 08:45 13.03.2022
2616 Clear -12 1024 55 10000 2 200 07:40 13.03.2022
2617 Clear -15 1024 61 10000 2 190 05:40 13.03.2022
2618 Clear -23 1024 70 10000 1 180 02:39 13.03.2022
2619 Clear -30 1025 76 10000 1 230 23:33 12.03.2022
2620 Clear -29 1024 76 10000 1 170 21:53 12.03.2022
2621 Clear -28 1024 75 10000 1 240 20:34 12.03.2022
2622 Clear -29 1024 76 10000 1 180 19:47 12.03.2022
2623 Clear -27 1024 83 10000 2 320 18:58 12.03.2022
2624 Clear -25 1024 76 10000 1 260 18:22 12.03.2022
2625 Clear -27 1024 68 10000 1 250 17:23 12.03.2022
2626 Clear -26 1024 75 10000 2 310 16:23 12.03.2022
2627 Clear -26 1024 75 10000 2 310 16:23 12.03.2022
2628 Clear -25 1024 76 10000 2 310 15:22 12.03.2022
2629 Clear -23 1024 76 10000 1 290 14:28 12.03.2022
2630 Clear -23 1024 76 10000 2 320 12:45 12.03.2022
2631 Clear -22 1025 76 10000 1 330 11:56 12.03.2022
2632 Clear -22 1025 77 10000 1 330 11:34 12.03.2022
2633 Clear -21 1024 70 10000 0 0 10:52 12.03.2022
2634 Clear -17 1025 59 10000 0 0 09:45 12.03.2022
2635 Clear -16 1025 65 10000 1 70 08:55 12.03.2022
2636 Clear -17 1025 66 10000 1 50 07:19 12.03.2022
2637 Clear -23 1027 70 10000 1 120 02:36 12.03.2022
2638 Clear -28 1027 68 10000 2 290 23:56 11.03.2022
2639 Clear -28 1027 75 10000 2 310 22:56 11.03.2022
2640 Clear -28 1027 75 10000 2 320 21:35 11.03.2022
2641 Clear -27 1027 75 10000 3.13 320 20:54 11.03.2022
2642 Clear -27 1027 75 10000 3.13 310 20:29 11.03.2022
2643 Clear -27 1027 83 10000 3.13 320 19:42 11.03.2022
2644 Clear -28 1027 75 10000 2 320 19:20 11.03.2022
2645 Clear -25 1026 76 10000 2 320 17:29 11.03.2022
2646 Clear -25 1027 83 10000 2 320 16:27 11.03.2022
2647 Clear -24 1027 76 10000 1 340 15:53 11.03.2022
2648 Clear -26 1026 83 10000 1 340 14:19 11.03.2022
2649 Clear -23 1026 76 10000 1 330 12:44 11.03.2022
2650 Clear -24 1026 83 10000 2 350 12:20 11.03.2022
2651 Clear -23 1026 77 10000 0 0 11:43 11.03.2022
2652 Clear -19 1025 59 10000 1 30 09:40 11.03.2022
2653 Clear -18 1024 60 10000 1 30 08:47 11.03.2022
2654 Clear -18 1024 65 10000 1 50 07:53 11.03.2022
2655 Clear -18 1024 65 10000 1 50 07:28 11.03.2022
2656 Clear -19 1023 65 10000 1 50 05:42 11.03.2022
2657 Clear -25 1023 77 10000 2 160 02:56 11.03.2022
2658 Clear -30 1021 76 10000 2 330 22:56 10.03.2022
2659 Clear -31 1021 76 10000 2 320 22:28 10.03.2022
2660 Clear -31 1020 76 10000 2 300 21:27 10.03.2022
2661 Clear -30 1020 76 10000 0 0 20:45 10.03.2022
2662 Clear -30 1019 76 10000 1 290 19:22 10.03.2022
2663 Clear -31 1019 69 10000 1 280 18:39 10.03.2022
2664 Clear -28 1018 76 10000 2 310 16:53 10.03.2022
2665 Clear -26 1018 76 10000 2 310 15:41 10.03.2022
2666 Clear -28 1018 83 10000 1 310 14:23 10.03.2022
2667 Clear -26 1018 76 10000 1 310 12:46 10.03.2022
2668 Clear -24 1018 83 10000 0 0 11:39 10.03.2022
2669 Clear -20 1017 70 10000 0 0 10:19 10.03.2022
2670 Clear -17 1017 65 10000 1 150 08:48 10.03.2022
2671 Clear -17 1018 66 10000 1 180 05:50 10.03.2022
2672 Clear -23 1018 70 10000 1 160 03:42 10.03.2022
2673 Clear -29 1018 76 10000 0 0 00:23 10.03.2022
2674 Clear -30 1018 76 10000 0 0 22:45 09.03.2022
2675 Clear -29 1018 76 10000 1 310 21:48 09.03.2022
2676 Clear -29 1018 76 10000 1 330 20:59 09.03.2022
2677 Clear -29 1018 76 10000 1 330 19:40 09.03.2022
2678 Clear -29 1018 76 10000 1 330 18:19 09.03.2022
2679 Clear -27 1017 76 10000 1 340 17:26 09.03.2022
2680 Clear -26 1017 76 10000 1 340 16:23 09.03.2022
2681 Clear -25 1017 84 10000 2 320 14:27 09.03.2022
2682 Clear -23 1017 84 10000 2 330 13:51 09.03.2022
2683 Clear -25 1016 84 10000 1 10 12:36 09.03.2022
2684 Clear -23 1016 70 10000 1 360 11:48 09.03.2022
2685 Clear -21 1016 77 10000 2 340 11:18 09.03.2022
2686 Clear -14 1015 56 10000 2 190 09:41 09.03.2022
2687 Clear -14 1015 56 10000 2 200 08:47 09.03.2022
2688 Clear -16 1014 60 10000 3 180 06:27 09.03.2022
2689 Clear -26 1014 76 10000 1 170 01:53 09.03.2022
2690 Clear -28 1014 76 10000 1 210 00:22 09.03.2022
2691 Clear -28 1014 76 10000 1 320 22:46 08.03.2022
2692 Clear -25 1014 84 10000 3 350 21:51 08.03.2022
2693 Clear -28 1014 76 10000 1 300 21:21 08.03.2022
2694 Clear -30 1014 76 10000 1 280 20:22 08.03.2022
2695 Clear -29 1014 76 10000 1 330 19:24 08.03.2022
2696 Clear -29 1014 83 10000 1 290 18:22 08.03.2022
2697 Clear -24 1014 76 10000 3.13 310 16:44 08.03.2022
2698 Clear -25 1015 77 10000 3 310 14:57 08.03.2022
2699 Clear -24 1015 84 10000 1 310 13:45 08.03.2022
2700 Clear -22 1015 77 10000 1 290 12:23 08.03.2022
2701 Clear -21 1014 76 10000 1 330 11:42 08.03.2022
2702 Clear -16 1014 65 10000 2 360 10:28 08.03.2022
2703 Clear -15 1014 65 10000 1 40 08:57 08.03.2022
2704 Clear -16 1012 66 10000 0 0 06:30 08.03.2022
2705 Clear -20 1012 77 10000 3 40 02:50 08.03.2022
2706 Clear -21 1010 76 10000 3.13 10 22:48 07.03.2022
2707 Clear -21 1010 76 10000 3.13 20 21:45 07.03.2022
2708 Clear -20 1010 76 10000 3.13 10 21:22 07.03.2022
2709 Clear -21 1009 83 10000 2 10 20:33 07.03.2022
2710 Clear -22 1009 83 10000 3 20 19:50 07.03.2022
2711 Clear -22 1009 83 10000 2 10 19:20 07.03.2022
2712 Clear -21 1009 83 10000 2 30 18:29 07.03.2022
2713 Clear -21 1009 76 10000 3.13 20 17:31 07.03.2022
2714 Clear -20 1009 84 10000 3.13 10 16:43 07.03.2022
2715 Clear -18 1008 77 10000 2 350 14:51 07.03.2022
2716 Clear -17 1008 71 10000 2 360 12:34 07.03.2022
2717 Clear -17 1008 71 10000 3 20 11:34 07.03.2022
2718 Clear -16 1008 71 10000 2 20 10:31 07.03.2022
2719 Clear -14 1008 66 10000 2 20 08:34 07.03.2022
2720 Clear -21 1011 77 10000 2 20 02:50 07.03.2022
2721 Clear -24 1011 76 10000 2 10 00:20 07.03.2022
2722 Clear -27 1012 83 10000 2 10 23:26 06.03.2022
2723 Clear -26 1012 75 10000 1 20 22:29 06.03.2022
2724 Clear -27 1012 83 10000 2 40 21:37 06.03.2022
2725 Clear -25 1012 76 10000 1 360 20:29 06.03.2022
2726 Clear -26 1013 75 10000 2 350 19:43 06.03.2022
2727 Clear -25 1013 76 10000 2 20 18:50 06.03.2022
2728 Clear -24 1013 76 10000 2 20 17:49 06.03.2022
2729 Clear -24 1013 83 10000 2 20 17:20 06.03.2022
2730 Clear -23 1013 83 10000 2 10 16:39 06.03.2022
2731 Clear -22 1014 76 10000 3.13 360 15:31 06.03.2022
2732 Clear -24 1014 83 10000 3 340 14:42 06.03.2022
2733 Clear -25 1014 77 10000 1 360 13:49 06.03.2022
2734 Clear -23 1014 84 10000 2 10 12:40 06.03.2022
2735 Clear -22 1014 77 10000 2 30 11:46 06.03.2022
2736 Clear -21 1014 71 10000 2 20 10:43 06.03.2022
2737 Clear -19 1015 71 10000 2 20 09:21 06.03.2022
2738 Clear -17 1015 66 10000 2 20 08:28 06.03.2022
2739 Clear -17 1016 71 10000 3 30 07:26 06.03.2022
2740 Clear -26 1018 70 10000 1 50 02:45 06.03.2022
2741 Clear -32 1018 75 10000 1 10 00:41 06.03.2022
2742 Clear -32 1018 75 10000 1 10 00:22 06.03.2022
2743 Clear -31 1018 69 10000 2 350 23:19 05.03.2022
2744 Clear -31 1018 76 10000 1 340 22:35 05.03.2022
2745 Clear -31 1018 76 10000 2 340 21:31 05.03.2022
2746 Clear -31 1018 76 10000 2 350 20:39 05.03.2022
2747 Clear -30 1018 75 10000 2 340 19:23 05.03.2022
2748 Clear -30 1019 75 10000 2 340 18:48 05.03.2022
2749 Clear -29 1019 75 10000 1 340 17:35 05.03.2022
2750 Clear -29 1019 82 10000 2 320 16:19 05.03.2022
2751 Clear -28 1019 75 10000 2 330 15:30 05.03.2022
2752 Clear -28 1019 75 10000 2 330 14:36 05.03.2022
2753 Clear -28 1019 82 10000 1 350 13:46 05.03.2022
2754 Clear -26 1019 83 10000 2 320 12:46 05.03.2022
2755 Clear -23 1018 76 10000 2 10 11:21 05.03.2022
2756 Clear -25 1018 76 10000 2 350 10:53 05.03.2022
2757 Clear -22 1018 63 10000 1.79 40 09:40 05.03.2022
2758 Clear -20 1018 64 10000 1 20 08:46 05.03.2022
2759 Clear -19 1017 71 10000 1 70 07:23 05.03.2022
2760 Clear -19 1017 71 10000 1 70 07:23 05.03.2022
2761 Clear -20 1017 71 10000 0 0 05:39 05.03.2022
2762 Clear -29 1015 76 10000 2 330 00:51 05.03.2022
2763 Clear -31 1014 74 10000 1 260 23:21 04.03.2022
2764 Clear -31 1014 67 10000 1 300 22:39 04.03.2022
2765 Snow -29 1013 75 10000 1 320 21:45 04.03.2022
2766 Snow -27 1013 75 10000 2 310 20:48 04.03.2022
2767 Snow -26 1013 75 10000 2 310 19:39 04.03.2022
2768 Snow -26 1012 75 10000 1 310 18:59 04.03.2022
2769 Snow -27 1012 75 10000 1 320 18:36 04.03.2022
2770 Clear -26 1011 83 10000 2 350 17:29 04.03.2022
2771 Clear -25 1011 76 10000 2 360 16:36 04.03.2022
2772 Clear -23 1011 76 10000 2 360 15:27 04.03.2022
2773 Clear -23 1011 76 10000 2 360 15:27 04.03.2022
2774 Clear -21 1011 76 10000 2 360 13:38 04.03.2022
2775 Clear -22 1010 83 10000 3.13 10 12:51 04.03.2022
2776 Clear -21 1010 76 10000 2 360 11:38 04.03.2022
2777 Clear -20 1009 71 10000 2 10 10:42 04.03.2022
2778 Clear -18 1009 70 10000 2 360 09:28 04.03.2022
2779 Clear -17 1008 66 10000 3 20 08:20 04.03.2022
2780 Clear -17 1008 66 10000 2 50 06:58 04.03.2022
2781 Clear -21 1007 71 10000 3 30 03:28 04.03.2022
2782 Snow -24 1007 77 3200 3 20 00:19 04.03.2022
2783 Clear -25 1006 77 10000 2 10 22:19 03.03.2022
2784 Clear -26 1006 75 10000 2 20 21:37 03.03.2022
2785 Clear -26 1006 75 10000 2 20 20:59 03.03.2022
2786 Clear -27 1006 75 10000 1 350 19:48 03.03.2022
2787 Clear -28 1005 76 10000 1 360 18:49 03.03.2022
2788 Clear -28 1005 76 10000 2 360 17:46 03.03.2022
2789 Clear -28 1005 76 10000 2 350 17:26 03.03.2022
2790 Clear -28 1005 76 10000 2 350 15:47 03.03.2022
2791 Clear -28 1005 76 10000 2 340 14:59 03.03.2022
2792 Clear -28 1005 76 10000 2 340 14:33 03.03.2022
2793 Clear -28 1004 75 10000 2 330 12:52 03.03.2022
2794 Clear -28 1004 75 10000 2 350 11:45 03.03.2022
2795 Clear -28 1004 82 10000 2 60 10:40 03.03.2022
2796 Clear -23 1003 69 10000 1 100 08:45 03.03.2022
2797 Clear -23 1003 70 10000 1 90 07:25 03.03.2022
2798 Clear -23 1004 70 10000 1 70 06:33 03.03.2022
2799 Mist -32 1005 75 5000 1 60 01:44 03.03.2022
2800 Clouds -33 1005 74 10000 1 310 23:29 02.03.2022
2801 Clear -33 1005 74 10000 0 0 22:50 02.03.2022
2802 Clear -33 1005 74 10000 0 0 22:50 02.03.2022
2803 Clear -33 1005 74 10000 1 330 21:29 02.03.2022
2804 Clear -32 1005 74 10000 1 340 20:44 02.03.2022
2805 Clear -32 1006 74 10000 1 340 20:22 02.03.2022
2806 Clear -31 1006 74 10000 1 350 19:34 02.03.2022
2807 Clear -31 1006 74 10000 1.79 340 18:44 02.03.2022
2808 Clear -31 1006 82 10000 2 10 17:59 02.03.2022
2809 Clear -31 1006 74 10000 2 310 17:23 02.03.2022
2810 Clear -29 1006 75 10000 1 350 16:45 02.03.2022
2811 Clear -29 1006 75 10000 1 350 16:45 02.03.2022
2812 Clear -27 1006 75 10000 3.13 320 14:45 02.03.2022
2813 Clear -26 1007 75 10000 2 320 13:24 02.03.2022
2814 Clear -26 1007 75 10000 2 330 12:43 02.03.2022
2815 Clear -25 1007 76 10000 2 340 11:47 02.03.2022
2816 Clear -25 1007 76 10000 2 350 11:24 02.03.2022
2817 Clear -20 1007 76 10000 1 100 09:46 02.03.2022
2818 Clear -18 1007 70 10000 1 110 08:59 02.03.2022
2819 Clear -16 1006 59 10000 1 160 07:39 02.03.2022
2820 Clear -16 1006 65 10000 2 170 06:51 02.03.2022
2821 Clear -18 1006 70 10000 1 110 02:54 02.03.2022
2822 Snow -21 1005 83 10000 1 60 00:29 02.03.2022
2823 Snow -21 1005 83 10000 1 320 22:48 01.03.2022
2824 Snow -20 1005 76 10000 1 330 22:21 01.03.2022
2825 Snow -21 1005 83 10000 2 330 21:25 01.03.2022
2826 Snow -21 1004 76 10000 1 320 20:32 01.03.2022
2827 Snow -21 1004 76 10000 1 340 19:45 01.03.2022
2828 Snow -22 1004 83 10000 1 320 18:51 01.03.2022
2829 Snow -23 1004 84 10000 0 0 18:21 01.03.2022
2830 Snow -24 1004 84 5000 0 0 17:30 01.03.2022
2831 Snow -20 1004 76 5000 0 0 16:35 01.03.2022
2832 Snow -20 1003 84 5000 0 0 15:42 01.03.2022
2833 Snow -19 1003 77 5000 1 360 14:41 01.03.2022
2834 Snow -19 1003 77 5000 1 360 14:23 01.03.2022
2835 Snow -19 1003 77 5000 0.89 10 13:25 01.03.2022
2836 Snow -20 1003 84 5000 1 30 12:34 01.03.2022
2837 Snow -19 1003 77 5000 1 50 10:38 01.03.2022
2838 Snow -18 1002 77 5000 1 90 09:25 01.03.2022
2839 Clear -18 1001 71 10000 0 0 07:55 01.03.2022
2840 Clear -18 1001 64 10000 0 0 06:27 01.03.2022
2841 Snow -19 1001 70 10000 1 30 02:45 01.03.2022
2842 Snow -21 1001 76 10000 1.79 320 00:40 01.03.2022
2843 Snow -21 1001 76 10000 1 320 23:35 28.02.2022
2844 Snow -21 1001 76 5000 1 330 22:28 28.02.2022
2845 Snow -21 1001 76 5000 1 300 21:43 28.02.2022
2846 Snow -21 1001 76 5000 1 280 20:33 28.02.2022
2847 Snow -21 1002 76 5000 2 290 19:42 28.02.2022
2848 Snow -22 1002 83 10000 0 0 18:49 28.02.2022
2849 Snow -23 1002 84 10000 3 310 17:33 28.02.2022
2850 Snow -23 1003 77 5000 2 300 16:54 28.02.2022
2851 Snow -23 1003 77 5000 2 290 15:58 28.02.2022
2852 Snow -24 1003 77 10000 1 320 14:32 28.02.2022
2853 Clear -24 1004 77 10000 1 330 13:52 28.02.2022
2854 Clear -26 1004 84 10000 1 280 13:18 28.02.2022
2855 Clear -28 1004 83 10000 0 0 11:59 28.02.2022
2856 Clear -26 1005 76 10000 0 0 11:19 28.02.2022
2857 Clear -22 1004 77 10000 1 340 10:22 28.02.2022
2858 Clear -21 1004 70 10000 1 260 09:43 28.02.2022
2859 Clear -20 1004 64 10000 2 180 08:52 28.02.2022
2860 Clear -20 1004 65 10000 3 210 07:58 28.02.2022
2861 Clear -22 1004 71 10000 3 180 05:54 28.02.2022
2862 Clear -23 1005 70 10000 3 190 04:30 28.02.2022
2863 Clear -26 1006 76 10000 2 280 00:52 28.02.2022
2864 Clear -29 1006 76 10000 1 230 22:45 27.02.2022
2865 Clear -28 1006 76 10000 1 150 22:26 27.02.2022
2866 Snow -26 1006 75 10000 1 220 21:37 27.02.2022
2867 Clear -28 1006 76 10000 1 230 20:43 27.02.2022
2868 Clear -29 1006 76 10000 1 140 20:18 27.02.2022
2869 Clear -29 1006 76 10000 1 170 19:48 27.02.2022
2870 Clear -29 1006 76 10000 2 250 19:21 27.02.2022
2871 Clear -29 1006 76 10000 2 250 19:21 27.02.2022
2872 Clear -28 1006 75 10000 1 190 18:33 27.02.2022
2873 Clear -29 1006 76 10000 2 160 17:49 27.02.2022
2874 Clear -30 1006 75 10000 1 270 16:25 27.02.2022
2875 Clear -31 1007 74 10000 0 0 15:21 27.02.2022
2876 Clear -33 1007 75 10000 0 0 12:37 27.02.2022
2877 Clear -31 1007 74 10000 2 330 11:51 27.02.2022
2878 Clear -29 1007 68 10000 1 170 10:37 27.02.2022
2879 Clear -26 1007 69 10000 2 210 09:58 27.02.2022
2880 Clear -25 1007 63 10000 2 210 09:23 27.02.2022
2881 Clear -25 1007 63 10000 2 190 08:45 27.02.2022
2882 Clear -25 1007 63 10000 2 190 08:45 27.02.2022
2883 Clear -25 1006 64 10000 2 180 06:26 27.02.2022
2884 Snow -31 1006 69 10000 2 170 03:44 27.02.2022
2885 Clear -38 1006 74 10000 1 240 23:57 26.02.2022
2886 Clear -37 1005 74 10000 1 160 22:43 26.02.2022
2887 Clear -35 1005 75 10000 1 300 21:29 26.02.2022
2888 Clear -34 1005 68 10000 2 280 20:43 26.02.2022
2889 Clear -33 1005 75 10000 2 310 19:57 26.02.2022
2890 Clear -34 1005 75 10000 0 0 19:33 26.02.2022
2891 Clear -32 1004 74 10000 2 310 18:34 26.02.2022
2892 Clear -30 1004 75 10000 3.13 320 17:37 26.02.2022
2893 Snow -30 1004 75 10000 3.13 320 16:39 26.02.2022
2894 Snow -29 1004 68 10000 4.02 320 15:42 26.02.2022
2895 Snow -29 1004 75 10000 3.13 320 15:19 26.02.2022
2896 Clear -29 1004 75 10000 3.13 320 14:44 26.02.2022
2897 Clear -29 1004 75 10000 3.13 320 14:20 26.02.2022
2898 Clear -29 1004 75 10000 3.13 320 12:53 26.02.2022
2899 Clear -27 1004 75 10000 2 300 11:54 26.02.2022
2900 Clear -25 1004 76 10000 2 310 11:27 26.02.2022
2901 Clear -25 1004 69 10000 2 300 10:22 26.02.2022
2902 Clear -22 1003 58 10000 4.02 300 08:35 26.02.2022
2903 Clear -22 1003 58 10000 3.13 300 06:46 26.02.2022
2904 Snow -27 1003 76 10000 3 250 00:26 26.02.2022
2905 Snow -26 1003 76 10000 3 260 22:44 25.02.2022
2906 Clear -24 1003 69 10000 4.02 280 21:33 25.02.2022
2907 Clear -24 1003 69 10000 4.02 290 20:57 25.02.2022
2908 Clear -24 1004 69 10000 4.02 280 20:28 25.02.2022
2909 Clear -23 1004 69 10000 5 290 18:18 25.02.2022
2910 Clear -23 1004 69 10000 3.13 290 17:21 25.02.2022
2911 Clear -22 1004 69 10000 3.13 300 16:20 25.02.2022
2912 Clear -21 1005 70 10000 4 310 15:42 25.02.2022
2913 Clear -21 1005 70 10000 4.02 310 15:18 25.02.2022
2914 Clear -21 1005 70 10000 5 310 14:39 25.02.2022
2915 Clear -19 1005 64 10000 5 320 13:36 25.02.2022
2916 Clear -19 1005 70 10000 6 310 12:45 25.02.2022
2917 Clear -17 1005 71 10000 5 330 11:28 25.02.2022
2918 Clouds -15 1004 71 10000 6 310 10:28 25.02.2022
2919 Clouds -15 1004 71 10000 4.02 320 09:53 25.02.2022
2920 Clouds -13 1003 71 10000 5 310 08:46 25.02.2022
2921 Snow -15 1003 78 10000 2 180 07:37 25.02.2022
2922 Clear -17 1003 66 10000 2 170 05:47 25.02.2022
2923 Snow -22 1004 71 10000 0 0 02:58 25.02.2022
2924 Snow -27 1005 76 10000 1 310 22:56 24.02.2022
2925 Snow -28 1005 76 10000 1 360 21:56 24.02.2022
2926 Snow -28 1005 76 10000 1 360 21:37 24.02.2022
2927 Snow -30 1004 76 10000 1 60 21:18 24.02.2022
2928 Snow -26 1005 76 10000 0 0 19:38 24.02.2022
2929 Snow -27 1005 76 10000 1 290 18:38 24.02.2022
2930 Snow -28 1005 76 10000 1 310 18:18 24.02.2022
2931 Snow -28 1005 76 10000 1 340 17:33 24.02.2022
2932 Snow -26 1005 76 10000 1 20 16:45 24.02.2022
2933 Snow -24 1005 77 5000 0 0 16:21 24.02.2022
2934 Clouds -24 1006 77 10000 1 350 14:53 24.02.2022
2935 Snow -25 1006 77 10000 0 0 14:26 24.02.2022
2936 Snow -24 1006 77 10000 1 350 13:39 24.02.2022
2937 Snow -24 1006 77 10000 1 350 13:39 24.02.2022
2938 Snow -24 1007 84 10000 2 350 12:49 24.02.2022
2939 Snow -24 1007 77 10000 0 0 10:40 24.02.2022
2940 Snow -20 1007 70 10000 0 0 08:59 24.02.2022
2941 Snow -20 1007 70 10000 1 50 08:40 24.02.2022
2942 Clear -19 1007 71 10000 1 90 05:52 24.02.2022
2943 Snow -22 1008 77 10000 2 360 01:56 24.02.2022
2944 Snow -22 1008 77 10000 2 360 01:56 24.02.2022
2945 Snow -22 1009 76 10000 2 40 22:56 23.02.2022
2946 Snow -22 1009 76 10000 2 30 21:40 23.02.2022
2947 Snow -23 1009 76 10000 2 30 20:31 23.02.2022
2948 Snow -23 1010 76 10000 2 20 19:46 23.02.2022
2949 Snow -23 1010 76 10000 3.13 40 18:32 23.02.2022
2950 Snow -24 1011 83 10000 3.13 40 17:36 23.02.2022
2951 Snow -25 1012 76 10000 2 20 14:44 23.02.2022
2952 Snow -26 1013 75 10000 2 20 12:45 23.02.2022
2953 Snow -26 1014 75 10000 1 20 11:59 23.02.2022
2954 Clear -27 1014 68 10000 1 10 10:31 23.02.2022
2955 Clear -25 1014 70 10000 1 10 08:59 23.02.2022
2956 Clear -26 1015 70 10000 1 40 08:23 23.02.2022
2957 Clear -27 1016 63 10000 2 50 05:49 23.02.2022
2958 Clear -34 1018 68 10000 1 360 00:40 23.02.2022
2959 Clear -35 1018 75 10000 1 360 23:38 22.02.2022
2960 Clear -34 1018 68 10000 1 360 22:32 22.02.2022
2961 Clear -34 1018 75 10000 1 340 21:49 22.02.2022
2962 Clear -34 1018 68 10000 1 330 21:31 22.02.2022
2963 Clear -34 1018 68 10000 1 360 20:55 22.02.2022
2964 Clear -34 1018 75 10000 1 350 20:30 22.02.2022
2965 Clear -34 1018 75 10000 1 350 19:42 22.02.2022
2966 Clear -34 1018 75 10000 1 350 19:19 22.02.2022
2967 Clear -32 1017 68 10000 2 320 17:49 22.02.2022
2968 Clear -32 1018 68 10000 2 320 17:23 22.02.2022
2969 Clear -32 1018 68 10000 2 320 16:41 22.02.2022
2970 Clear -32 1018 75 10000 1 300 15:44 22.02.2022
2971 Clear -32 1018 75 10000 1 300 15:44 22.02.2022
2972 Clear -32 1018 75 10000 2 320 14:44 22.02.2022
2973 Clear -29 1018 76 10000 2 40 12:31 22.02.2022
2974 Clear -28 1018 69 10000 2 40 10:52 22.02.2022
2975 Clear -26 1017 70 10000 3 40 08:41 22.02.2022
2976 Clear -26 1017 70 10000 3 50 07:27 22.02.2022
2977 Clear -26 1016 70 10000 2 60 05:57 22.02.2022
2978 Clear -27 1017 69 10000 4 30 02:45 22.02.2022
2979 Snow -26 1016 70 10000 4 30 22:46 21.02.2022
2980 Snow -26 1016 76 10000 4 30 21:42 21.02.2022
2981 Snow -26 1016 76 5000 4 30 20:35 21.02.2022
2982 Snow -25 1016 70 10000 4 30 18:46 21.02.2022
2983 Snow -25 1017 77 2400 2 10 17:36 21.02.2022
2984 Snow -26 1018 76 5000 2 30 15:22 21.02.2022
2985 Snow -26 1018 76 2400 2 30 14:21 21.02.2022
2986 Snow -26 1018 76 2400 2 30 14:21 21.02.2022
2987 Snow -27 1019 76 5000 2 30 13:22 21.02.2022
2988 Snow -28 1020 76 5000 2 360 12:23 21.02.2022
2989 Snow -30 1021 76 10000 2 360 11:19 21.02.2022
2990 Clear -32 1022 68 10000 2 350 09:34 21.02.2022
2991 Mist -32 1025 68 5000 1 20 05:35 21.02.2022
2992 Fog -40 1027 74 550 0 0 23:44 20.02.2022
2993 Fog -40 1028 67 600 0 0 22:25 20.02.2022
2994 Fog -40 1028 67 550 0 0 21:42 20.02.2022
2995 Fog -40 1028 67 800 0 0 20:53 20.02.2022
2996 Fog -40 1028 67 1000 0 0 20:35 20.02.2022
2997 Mist -39 1029 65 1000 0 0 19:32 20.02.2022
2998 Mist -39 1029 67 2400 0 0 18:50 20.02.2022
2999 Mist -39 1029 65 2400 0 0 18:31 20.02.2022
3000 Mist -39 1029 65 2400 0 0 18:31 20.02.2022
3001 Mist -40 1029 74 2400 0 0 17:49 20.02.2022
3002 Clear -37 1029 73 10000 2 310 15:37 20.02.2022
3003 Clear -37 1030 73 10000 2 320 14:42 20.02.2022
3004 Clear -36 1030 73 10000 1 340 13:23 20.02.2022
3005 Clear -36 1030 73 10000 2 350 12:28 20.02.2022
3006 Clear -34 1030 74 10000 2 10 10:47 20.02.2022
3007 Clear -33 1030 67 10000 1 360 10:19 20.02.2022
3008 Clear -29 1030 68 10000 2 180 08:50 20.02.2022
3009 Snow -37 1031 66 10000 1 280 00:54 20.02.2022
3010 Snow -37 1031 66 10000 1 280 00:54 20.02.2022
3011 Snow -37 1031 73 10000 1 260 00:30 20.02.2022
3012 Snow -37 1031 73 10000 0 0 22:47 19.02.2022
3013 Clear -37 1031 73 10000 0 0 22:22 19.02.2022
3014 Clear -37 1031 66 10000 1 320 21:25 19.02.2022
3015 Clear -37 1031 74 10000 0 0 19:53 19.02.2022
3016 Clear -36 1031 73 10000 1 330 19:28 19.02.2022
3017 Clear -36 1031 68 10000 2 330 18:33 19.02.2022
3018 Clear -36 1031 75 10000 2 320 17:36 19.02.2022
3019 Clear -36 1031 68 10000 1 320 16:28 19.02.2022
3020 Clear -34 1032 67 10000 2 340 14:56 19.02.2022
3021 Clear -34 1032 68 10000 2 320 14:37 19.02.2022
3022 Clear -34 1032 68 10000 2 320 13:22 19.02.2022
3023 Clear -34 1032 75 10000 1 10 11:37 19.02.2022
3024 Clear -31 1032 67 10000 0 0 09:55 19.02.2022
3025 Clear -28 1032 63 10000 1 170 06:54 19.02.2022
3026 Snow -31 1033 69 10000 0 0 03:38 19.02.2022
3027 Clear -36 1033 66 10000 0 0 23:29 18.02.2022
3028 Clear -36 1033 66 10000 0 0 21:49 18.02.2022
3029 Mist -37 1033 73 5000 0 0 20:51 18.02.2022
3030 Mist -37 1033 73 5000 0 0 19:53 18.02.2022
3031 Clear -36 1033 66 10000 1 280 18:50 18.02.2022
3032 Clear -37 1033 66 10000 1 290 18:22 18.02.2022
3033 Clear -37 1033 73 10000 1 320 17:50 18.02.2022
3034 Clear -34 1033 67 10000 2 310 14:50 18.02.2022
3035 Mist -34 1034 74 5000 2 310 13:55 18.02.2022
3036 Mist -34 1034 74 5000 1 340 12:53 18.02.2022
3037 Mist -34 1034 74 5000 1 20 12:32 18.02.2022
3038 Mist -34 1033 74 5000 2 40 11:27 18.02.2022
3039 Mist -33 1033 74 5000 1 50 10:23 18.02.2022
3040 Clear -28 1033 69 10000 1 170 06:56 18.02.2022
3041 Clear -30 1033 69 10000 1 170 05:39 18.02.2022
3042 Mist -39 1033 67 2400 1 330 23:24 17.02.2022
3043 Clear -38 1033 74 10000 1 310 21:45 17.02.2022
3044 Clear -37 1033 73 10000 1 280 21:19 17.02.2022
3045 Clear -37 1033 66 10000 1 290 20:37 17.02.2022
3046 Clear -36 1033 73 10000 1 320 19:48 17.02.2022
3047 Clear -36 1033 75 10000 0 0 18:41 17.02.2022
3048 Clear -35 1033 66 10000 2 330 17:50 17.02.2022
3049 Mist -37 1032 74 3200 0 0 16:25 17.02.2022
3050 Mist -35 1032 75 3200 1 290 15:32 17.02.2022
3051 Clear -34 1032 75 10000 1 330 14:26 17.02.2022
3052 Clear -33 1032 75 10000 1 50 12:35 17.02.2022
3053 Clear -32 1032 75 10000 1 50 11:21 17.02.2022
3054 Clear -27 1032 62 10000 1 160 08:52 17.02.2022
3055 Clear -32 1033 68 10000 0 0 01:45 17.02.2022
3056 Clear -34 1034 68 10000 1 330 23:19 16.02.2022
3057 Clear -34 1034 75 10000 0 0 21:31 16.02.2022
3058 Clear -34 1034 68 10000 0 0 19:47 16.02.2022
3059 Clear -34 1034 75 10000 0 0 18:38 16.02.2022
3060 Clear -34 1034 75 10000 0 0 17:53 16.02.2022
3061 Clear -32 1035 68 10000 2 170 15:38 16.02.2022
3062 Clear -32 1035 68 10000 2 170 15:18 16.02.2022
3063 Clear -32 1035 68 10000 0 0 12:59 16.02.2022
3064 Clear -32 1035 68 10000 1 140 11:58 16.02.2022
3065 Clear -33 1035 75 10000 0 0 11:26 16.02.2022
3066 Mist -32 1035 68 5000 1 80 10:33 16.02.2022
3067 Mist -32 1036 75 5000 1 150 07:54 16.02.2022
3068 Mist -33 1036 68 5000 1 170 06:26 16.02.2022
3069 Fog -41 1037 65 550 1 310 23:45 15.02.2022
3070 Fog -39 1037 65 400 0 0 22:29 15.02.2022
3071 Fog -39 1037 65 900 2 310 21:47 15.02.2022
3072 Fog -40 1038 72 900 1 330 21:27 15.02.2022
3073 Fog -39 1037 65 900 2 330 20:56 15.02.2022
3074 Fog -39 1038 65 900 2 330 19:57 15.02.2022
3075 Mist -39 1038 65 1000 3.13 320 18:56 15.02.2022
3076 Mist -39 1038 73 1200 1 350 18:22 15.02.2022
3077 Mist -38 1038 66 2400 1 360 17:50 15.02.2022
3078 Mist -38 1038 66 2400 3.13 320 16:50 15.02.2022
3079 Clear -38 1038 66 10000 2 320 15:28 15.02.2022
3080 Clear -37 1038 73 10000 1 10 13:27 15.02.2022
3081 Clear -37 1038 73 10000 1 10 12:37 15.02.2022
3082 Clear -37 1038 66 10000 2 20 11:40 15.02.2022
3083 Clear -35 1038 66 10000 1 40 09:31 15.02.2022
3084 Clear -33 1038 68 10000 2 60 06:59 15.02.2022
3085 Mist -35 1038 68 5000 2 60 05:32 15.02.2022
3086 Fog -41 1039 65 400 1 340 23:33 14.02.2022
3087 Fog -40 1039 65 450 1 330 21:54 14.02.2022
3088 Fog -40 1039 65 900 2 330 20:40 14.02.2022
3089 Fog -39 1039 65 600 2 330 19:44 14.02.2022
3090 Fog -39 1039 73 1200 2 320 19:25 14.02.2022
3091 Mist -38 1039 66 1300 2 320 18:23 14.02.2022
3092 Mist -38 1039 66 3200 2 320 17:26 14.02.2022
3093 Clear -38 1040 73 10000 2 330 16:25 14.02.2022
3094 Clear -37 1040 73 10000 1.79 330 14:39 14.02.2022
3095 Clear -37 1040 66 10000 1 340 13:33 14.02.2022
3096 Clear -37 1040 73 10000 0 0 12:55 14.02.2022
3097 Clear -36 1041 73 10000 1 350 11:55 14.02.2022
3098 Clear -35 1041 66 10000 1 10 10:58 14.02.2022
3099 Clear -32 1041 67 10000 1 40 08:46 14.02.2022
3100 Clear -31 1041 61 10000 1 60 07:33 14.02.2022
3101 Clear -32 1042 68 10000 1 70 06:32 14.02.2022
3102 Mist -38 1043 66 1500 2 320 22:43 13.02.2022
3103 Mist -39 1043 73 1500 2 320 22:25 13.02.2022
3104 Mist -38 1043 66 5000 1 350 21:36 13.02.2022
3105 Mist -38 1043 66 5000 2 320 20:42 13.02.2022
3106 Clear -38 1043 67 10000 1 330 19:51 13.02.2022
3107 Clear -37 1043 73 10000 1 340 18:54 13.02.2022
3108 Clear -37 1043 66 10000 1 360 18:35 13.02.2022
3109 Clear -36 1044 68 10000 1 340 16:38 13.02.2022
3110 Clear -36 1044 75 10000 1 360 15:27 13.02.2022
3111 Clear -35 1044 75 10000 1 360 14:37 13.02.2022
3112 Clear -33 1044 75 10000 2 20 12:52 13.02.2022
3113 Clear -33 1044 75 10000 2 10 12:18 13.02.2022
3114 Clear -33 1044 75 10000 2 360 10:38 13.02.2022
3115 Clear -32 1044 75 10000 2 10 09:49 13.02.2022
3116 Clear -27 1044 69 10000 1 170 07:54 13.02.2022
3117 Clear -34 1044 68 10000 1 180 00:49 13.02.2022
3118 Clear -35 1044 75 10000 2 160 00:20 13.02.2022
3119 Clear -35 1044 75 10000 1 150 22:34 12.02.2022
3120 Clear -35 1044 75 10000 1 170 21:40 12.02.2022
3121 Clear -36 1044 75 10000 1 180 20:55 12.02.2022
3122 Mist -37 1044 74 5000 0 0 19:56 12.02.2022
3123 Mist -38 1044 74 5000 1 170 18:54 12.02.2022
3124 Mist -38 1044 74 5000 1 170 18:54 12.02.2022
3125 Mist -37 1044 74 5000 0 0 18:35 12.02.2022
3126 Mist -37 1044 74 5000 0 0 17:38 12.02.2022
3127 Mist -37 1044 67 5000 1 260 16:44 12.02.2022
3128 Clear -38 1044 67 10000 1 280 15:52 12.02.2022
3129 Clear -37 1044 66 10000 0 0 15:20 12.02.2022
3130 Clear -37 1044 73 10000 0 0 14:25 12.02.2022
3131 Clear -35 1043 66 10000 0 0 11:31 12.02.2022
3132 Clear -33 1043 67 10000 1 40 10:30 12.02.2022
3133 Clear -31 1043 74 10000 1 190 09:37 12.02.2022
3134 Clear -30 1043 68 10000 2 190 08:46 12.02.2022
3135 Clear -29 1043 69 10000 2 180 06:52 12.02.2022
3136 Clear -32 1043 68 10000 2 170 04:47 12.02.2022
3137 Clear -35 1043 75 10000 1 190 02:19 12.02.2022
3138 Clear -38 1043 73 10000 2 180 23:21 11.02.2022
3139 Clear -39 1043 73 10000 0 0 22:21 11.02.2022
3140 Clear -38 1043 73 10000 0 0 21:32 11.02.2022
3141 Clear -38 1043 73 10000 1 240 20:26 11.02.2022
3142 Clear -37 1043 73 10000 0 0 19:28 11.02.2022
3143 Clear -37 1043 66 10000 1 230 18:29 11.02.2022
3144 Clear -36 1043 73 10000 1 180 17:27 11.02.2022
3145 Clear -37 1043 66 10000 0.89 150 16:40 11.02.2022
3146 Clear -37 1043 66 10000 0 0 15:19 11.02.2022
3147 Clear -36 1043 66 10000 0 0 14:37 11.02.2022
3148 Clear -37 1043 73 10000 0 0 14:19 11.02.2022
3149 Clear -37 1043 73 10000 0 0 13:44 11.02.2022
3150 Clear -37 1043 73 10000 1 190 13:25 11.02.2022
3151 Clear -31 1042 74 10000 2 190 10:59 11.02.2022
3152 Clear -29 1042 75 10000 2 180 09:32 11.02.2022
3153 Clear -26 1042 62 10000 1 190 08:33 11.02.2022
3154 Clear -26 1042 62 10000 1.79 180 07:45 11.02.2022
3155 Clear -27 1042 62 10000 2 170 06:22 11.02.2022
3156 Clear -30 1042 68 10000 1 200 02:21 11.02.2022
3157 Clear -30 1041 76 10000 0 0 23:45 10.02.2022
3158 Clear -30 1041 76 10000 0 0 22:26 10.02.2022
3159 Clear -30 1041 69 10000 0 0 21:41 10.02.2022
3160 Clear -31 1041 76 10000 0 0 20:50 10.02.2022
3161 Clear -32 1041 75 10000 0 0 19:51 10.02.2022
3162 Clear -32 1040 75 10000 0 0 19:22 10.02.2022
3163 Clear -33 1040 75 10000 0 0 18:32 10.02.2022
3164 Clear -33 1040 67 10000 1 300 17:21 10.02.2022
3165 Clear -33 1040 67 10000 1.79 320 16:43 10.02.2022
3166 Clear -36 1040 73 10000 1 320 15:40 10.02.2022
3167 Clear -37 1040 73 10000 1 320 15:21 10.02.2022
3168 Clear -38 1040 74 10000 0 0 14:35 10.02.2022
3169 Clear -37 1040 67 10000 0 0 13:40 10.02.2022
3170 Clear -37 1040 67 10000 0 0 13:19 10.02.2022
3171 Clear -35 1039 68 10000 0 0 11:52 10.02.2022
3172 Clear -35 1039 68 10000 1 180 11:30 10.02.2022
3173 Clear -35 1039 75 10000 1 200 10:23 10.02.2022
3174 Clear -34 1039 68 10000 1 180 09:44 10.02.2022
3175 Clear -31 1038 69 10000 2 180 08:40 10.02.2022
3176 Clear -31 1038 62 10000 2 160 06:33 10.02.2022
3177 Clear -33 1038 68 10000 1 320 02:43 10.02.2022
3178 Clear -38 1038 74 10000 0 0 00:53 10.02.2022
3179 Clear -37 1038 67 10000 1 170 00:30 10.02.2022
3180 Clear -37 1038 74 10000 1 170 23:58 09.02.2022
3181 Clear -35 1038 75 10000 2 320 22:54 09.02.2022
3182 Clear -36 1038 68 10000 0 0 22:30 09.02.2022
3183 Clear -36 1038 75 10000 1 290 21:47 09.02.2022
3184 Clear -37 1038 74 10000 1 300 21:27 09.02.2022
3185 Clear -38 1037 74 10000 0 0 20:43 09.02.2022
3186 Clear -38 1037 73 10000 0 0 20:22 09.02.2022
3187 Clear -38 1037 73 10000 1 300 19:41 09.02.2022
3188 Clear -37 1037 66 10000 0 0 18:38 09.02.2022
3189 Clear -35 1037 66 10000 2 310 16:55 09.02.2022
3190 Clear -35 1037 74 10000 3.13 320 15:59 09.02.2022
3191 Clear -38 1036 73 10000 1 310 15:22 09.02.2022
3192 Clear -37 1036 66 10000 1 20 12:43 09.02.2022
3193 Clear -36 1036 73 10000 0 0 11:29 09.02.2022
3194 Mist -35 1035 66 3200 1 160 10:33 09.02.2022
3195 Mist -34 1035 74 3200 1 180 09:47 09.02.2022
3196 Clear -33 1035 74 10000 1 180 09:21 09.02.2022
3197 Clear -32 1035 67 10000 1 160 08:43 09.02.2022
3198 Clear -32 1034 68 10000 1 80 05:57 09.02.2022
3199 Mist -34 1034 75 5000 0 0 03:51 09.02.2022
3200 Mist -34 1034 68 5000 1 170 03:25 09.02.2022
3201 Mist -37 1033 66 5000 0 0 23:45 08.02.2022
3202 Mist -38 1032 73 5000 1 210 23:18 08.02.2022
3203 Mist -37 1032 66 5000 1 300 22:38 08.02.2022
3204 Mist -37 1032 73 5000 1 300 22:18 08.02.2022
3205 Mist -37 1032 73 5000 2 310 21:22 08.02.2022
3206 Mist -37 1032 73 5000 2 310 21:22 08.02.2022
3207 Mist -37 1032 73 5000 2 310 21:22 08.02.2022
3208 Mist -38 1032 73 5000 1 290 20:57 08.02.2022
3209 Mist -37 1031 66 5000 1 290 20:34 08.02.2022
3210 Snow -37 1031 73 10000 0 0 19:18 08.02.2022
3211 Snow -35 1030 66 10000 2 330 17:58 08.02.2022
3212 Clear -35 1030 74 10000 2 320 16:56 08.02.2022
3213 Clear -35 1030 74 10000 2 330 15:46 08.02.2022
3214 Clear -36 1030 73 10000 2 320 14:58 08.02.2022
3215 Clear -36 1029 73 10000 2 330 13:48 08.02.2022
3216 Clear -35 1029 74 10000 1 320 12:24 08.02.2022
3217 Clear -33 1028 74 10000 2 350 10:48 08.02.2022
3218 Clear -32 1028 67 10000 2 350 09:47 08.02.2022
3219 Clear -30 1027 68 10000 1 10 08:38 08.02.2022
3220 Clear -30 1026 68 10000 1 90 06:24 08.02.2022
3221 Snow -29 1026 68 10000 1 50 04:40 08.02.2022
3222 Snow -30 1026 68 10000 1 50 04:22 08.02.2022
3223 Snow -31 1026 74 10000 1 40 03:36 08.02.2022
3224 Snow -31 1026 74 10000 1 40 03:18 08.02.2022
3225 Snow -31 1026 74 10000 1 40 02:59 08.02.2022
3226 Snow -32 1026 74 10000 2 350 02:36 08.02.2022
3227 Snow -32 1026 74 10000 2 350 02:18 08.02.2022
3228 Snow -32 1026 67 10000 1 20 01:44 08.02.2022
3229 Snow -33 1025 75 10000 1 330 01:25 08.02.2022
3230 Snow -34 1025 75 10000 1 360 00:55 08.02.2022
3231 Snow -34 1025 75 10000 1 350 00:21 08.02.2022
3232 Snow -34 1025 68 10000 1 360 23:44 07.02.2022
3233 Snow -35 1025 74 10000 1 360 23:18 07.02.2022
3234 Clear -35 1025 66 10000 1 350 22:59 07.02.2022
3235 Clear -35 1025 68 10000 1 10 22:19 07.02.2022
3236 Clear -35 1025 68 10000 1 320 21:50 07.02.2022
3237 Clear -36 1025 73 10000 1 20 21:27 07.02.2022
3238 Clear -35 1025 66 10000 2 10 20:43 07.02.2022
3239 Clear -36 1025 73 10000 1 10 20:24 07.02.2022
3240 Clear -37 1025 73 10000 1 20 19:47 07.02.2022
3241 Clear -35 1025 74 10000 1 30 18:34 07.02.2022
3242 Clear -33 1025 68 10000 2 40 16:53 07.02.2022
3243 Clear -33 1025 68 10000 2 30 16:24 07.02.2022
3244 Clear -33 1025 75 10000 1 40 15:48 07.02.2022
3245 Clear -34 1025 74 10000 2 40 13:39 07.02.2022
3246 Clear -35 1025 66 10000 2 40 13:21 07.02.2022
3247 Clear -36 1025 75 10000 2 20 11:58 07.02.2022
3248 Clear -35 1025 68 10000 2 30 11:38 07.02.2022
3249 Clear -35 1025 68 10000 2 40 10:54 07.02.2022
3250 Clear -34 1024 68 10000 2 20 10:36 07.02.2022
3251 Clear -34 1024 68 10000 3 360 09:53 07.02.2022
3252 Clear -33 1024 68 10000 3 20 09:18 07.02.2022
3253 Clear -33 1024 67 10000 3.13 20 08:44 07.02.2022
3254 Clear -33 1024 68 10000 3 10 07:34 07.02.2022
3255 Clear -33 1024 62 10000 2 50 06:34 07.02.2022
3256 Mist -36 1024 75 5000 2 30 04:22 07.02.2022
3257 Mist -37 1024 66 3200 3.13 20 01:30 07.02.2022
3258 Snow -37 1024 66 10000 3.13 30 23:51 06.02.2022
3259 Snow -37 1024 73 10000 3.13 20 23:19 06.02.2022
3260 Clear -37 1024 73 10000 3.13 20 22:39 06.02.2022
3261 Clear -36 1024 66 10000 4.02 20 21:37 06.02.2022
3262 Clear -36 1024 66 10000 4.02 20 21:18 06.02.2022
3263 Clear -36 1024 66 10000 3.13 20 20:48 06.02.2022
3264 Clear -37 1024 73 10000 3.13 10 20:21 06.02.2022
3265 Snow -36 1024 73 10000 3.13 20 18:54 06.02.2022
3266 Snow -37 1024 73 10000 1.79 20 18:27 06.02.2022
3267 Snow -36 1024 66 10000 0.89 10 17:29 06.02.2022
3268 Snow -36 1024 73 10000 3.13 20 16:51 06.02.2022
3269 Snow -35 1025 66 10000 1.79 20 15:51 06.02.2022
3270 Snow -35 1024 74 10000 1.79 20 15:28 06.02.2022
3271 Snow -35 1024 74 10000 1.79 20 14:59 06.02.2022
3272 Snow -35 1024 66 10000 1.79 30 13:59 06.02.2022
3273 Snow -35 1024 74 10000 3.13 20 13:20 06.02.2022
3274 Snow -35 1024 74 10000 3.13 10 12:19 06.02.2022
3275 Snow -34 1024 74 10000 3.13 30 10:33 06.02.2022
3276 Snow -33 1024 67 10000 1.79 20 09:43 06.02.2022
3277 Snow -32 1024 74 10000 1.79 10 08:41 06.02.2022
3278 Snow -31 1024 67 10000 0 0 06:34 06.02.2022
3279 Clear -31 1024 74 10000 0.89 10 05:28 06.02.2022
3280 Clear -31 1024 74 10000 0.89 10 05:28 06.02.2022
3281 Clear -33 1024 74 10000 0.89 30 02:25 06.02.2022
3282 Snow -33 1024 75 10000 1 70 00:32 06.02.2022
3283 Snow -32 1024 75 10000 0 0 23:39 05.02.2022
3284 Snow -31 1025 69 5000 1 70 21:47 05.02.2022
3285 Snow -32 1025 74 10000 1 10 20:41 05.02.2022
3286 Snow -33 1025 74 10000 0.89 10 20:20 05.02.2022
3287 Snow -32 1025 67 10000 0.89 60 19:42 05.02.2022
3288 Snow -33 1025 74 10000 0.89 340 18:37 05.02.2022
3289 Snow -32 1025 74 10000 0.89 340 17:35 05.02.2022
3290 Snow -32 1026 74 10000 0.89 10 16:20 05.02.2022
3291 Snow -33 1026 74 10000 0.89 10 15:31 05.02.2022
3292 Snow -32 1026 74 10000 1.79 360 13:38 05.02.2022
3293 Clear -32 1026 67 10000 0.89 360 12:46 05.02.2022
3294 Clear -32 1026 67 10000 0.89 10 11:45 05.02.2022
3295 Snow -31 1026 67 10000 1.79 10 10:43 05.02.2022
3296 Snow -31 1026 74 10000 1.79 20 09:50 05.02.2022
3297 Snow -29 1026 75 10000 0.89 60 08:47 05.02.2022
3298 Clear -29 1026 68 10000 1.79 180 06:59 05.02.2022
3299 Clear -29 1026 68 10000 1.79 180 06:35 05.02.2022
3300 Snow -36 1026 68 10000 0 0 02:40 05.02.2022
3301 Snow -37 1026 73 10000 0 0 01:18 05.02.2022
3302 Snow -35 1026 66 10000 0.89 110 00:36 05.02.2022
3303 Snow -35 1026 74 5000 0.89 290 23:33 04.02.2022
3304 Clear -37 1026 73 10000 1.79 280 22:45 04.02.2022
3305 Clear -38 1026 67 10000 1 290 21:36 04.02.2022
3306 Clear -38 1026 67 10000 1 290 21:18 04.02.2022
3307 Clear -37 1026 67 10000 1 280 20:36 04.02.2022
3308 Clear -38 1026 67 10000 0 0 19:18 04.02.2022
3309 Clear -36 1026 75 10000 2 320 16:22 04.02.2022
3310 Clear -35 1027 68 10000 2 340 15:19 04.02.2022
3311 Clear -35 1027 75 10000 2 10 14:40 04.02.2022
3312 Clear -34 1027 75 10000 2 350 12:43 04.02.2022
3313 Clear -33 1027 75 10000 2 90 11:45 04.02.2022
3314 Clear -32 1026 74 10000 3.13 20 10:55 04.02.2022
3315 Clear -28 1026 75 10000 1.79 300 09:56 04.02.2022
3316 Clear -26 1026 69 10000 3.13 300 07:56 04.02.2022
3317 Clear -28 1026 68 10000 3.13 310 03:47 04.02.2022
3318 Clear -29 1026 68 10000 1.79 350 02:36 04.02.2022
3319 Clear -30 1027 68 10000 1.79 250 23:40 03.02.2022
3320 Clouds -31 1027 74 10000 0.89 300 22:51 03.02.2022
3321 Clouds -28 1027 75 10000 0.89 310 21:52 03.02.2022
3322 Clouds -28 1027 75 10000 0.89 310 21:29 03.02.2022
3323 Clouds -27 1027 68 10000 0.89 330 20:22 03.02.2022
3324 Clear -27 1027 68 10000 3.13 300 19:46 03.02.2022
3325 Clear -28 1027 68 10000 0.89 300 18:56 03.02.2022
3326 Clear -29 1028 76 10000 1 320 17:59 03.02.2022
3327 Clear -28 1028 75 10000 0.89 320 16:55 03.02.2022
3328 Clear -28 1028 75 10000 1.79 300 15:34 03.02.2022
3329 Clear -30 1029 76 10000 0 0 13:50 03.02.2022
3330 Clear -31 1029 76 10000 0 0 12:22 03.02.2022
3331 Clear -30 1029 75 10000 0.89 200 08:56 03.02.2022
3332 Clear -29 1029 68 10000 0.89 190 07:41 03.02.2022
3333 Clear -38 1029 73 10000 0 0 00:49 03.02.2022
3334 Clear -38 1029 73 10000 0 0 00:22 03.02.2022
3335 Clear -37 1029 66 10000 0 0 22:39 02.02.2022
3336 Clear -38 1028 73 10000 1.79 310 21:46 02.02.2022
3337 Clear -37 1029 73 10000 1.79 280 21:28 02.02.2022
3338 Clear -38 1029 67 10000 0 0 20:24 02.02.2022
3339 Clear -38 1029 67 10000 0 0 19:46 02.02.2022
3340 Clear -37 1028 74 10000 1 340 18:56 02.02.2022
3341 Clear -37 1028 67 10000 0 0 18:24 02.02.2022
3342 Snow -37 1028 74 10000 0 0 17:20 02.02.2022
3343 Snow -36 1028 75 10000 0 0 16:56 02.02.2022
3344 Snow -32 1027 75 10000 1 50 15:23 02.02.2022
3345 Snow -31 1027 76 5000 1 40 12:30 02.02.2022
3346 Snow -31 1027 76 5000 1 30 11:48 02.02.2022
3347 Snow -30 1027 75 10000 0.89 100 11:30 02.02.2022
3348 Snow -30 1027 75 10000 0.89 100 11:30 02.02.2022
3349 Snow -29 1025 68 5000 1.79 50 08:30 02.02.2022
3350 Snow -29 1024 68 10000 3.13 330 01:46 02.02.2022
3351 Snow -29 1024 75 10000 0.89 300 22:33 01.02.2022
3352 Snow -28 1024 75 10000 0.89 280 20:51 01.02.2022
3353 Snow -31 1024 76 10000 0 0 19:23 01.02.2022
3354 Snow -31 1025 74 10000 0 0 16:57 01.02.2022
3355 Snow -31 1025 74 10000 0 0 16:19 01.02.2022
3356 Snow -31 1026 76 10000 1 30 12:57 01.02.2022
3357 Snow -31 1026 76 10000 1 10 11:57 01.02.2022
3358 Snow -30 1026 76 10000 2 20 08:51 01.02.2022
3359 Snow -30 1026 68 10000 0.89 30 02:20 01.02.2022
3360 Snow -30 1026 75 10000 1.79 320 23:37 31.01.2022
3361 Snow -29 1026 75 5000 0.89 230 22:33 31.01.2022
3362 Snow -29 1026 75 5000 0 0 21:35 31.01.2022
3363 Snow -29 1026 75 5000 0 0 21:35 31.01.2022
3364 Snow -29 1026 75 10000 0 0 20:34 31.01.2022
3365 Snow -29 1026 75 10000 0 0 19:57 31.01.2022
3366 Snow -29 1026 68 10000 0.89 350 18:32 31.01.2022
3367 Snow -28 1026 68 10000 0.89 360 17:57 31.01.2022
3368 Snow -28 1026 68 10000 0 0 17:18 31.01.2022
3369 Snow -29 1026 75 10000 0 0 16:23 31.01.2022
3370 Snow -28 1026 75 10000 0 0 14:53 31.01.2022
3371 Snow -28 1027 75 10000 0.89 160 13:31 31.01.2022
3372 Snow -29 1027 75 10000 0 0 12:37 31.01.2022
3373 Snow -29 1027 68 10000 0 0 11:20 31.01.2022
3374 Snow -29 1027 68 10000 0.89 40 10:47 31.01.2022
3375 Snow -30 1027 75 5000 0.89 50 09:37 31.01.2022
3376 Snow -30 1028 75 5000 0.89 40 08:56 31.01.2022
3377 Snow -30 1028 76 10000 0 0 08:20 31.01.2022
3378 Snow -30 1028 69 10000 1 130 07:40 31.01.2022
3379 Snow -32 1028 68 5000 0 0 05:25 31.01.2022
3380 Mist -36 1029 66 2000 0.89 90 00:24 31.01.2022
3381 Fog -38 1029 66 800 0 0 22:33 30.01.2022
3382 Fog -38 1030 66 700 0.89 350 21:46 30.01.2022
3383 Fog -38 1030 66 700 0.89 360 21:24 30.01.2022
3384 Mist -38 1030 66 1100 0.89 330 20:53 30.01.2022
3385 Mist -38 1029 66 1500 0.89 70 20:31 30.01.2022
3386 Mist -39 1029 74 1500 0 0 19:56 30.01.2022
3387 Mist -38 1029 66 3200 0.89 330 18:51 30.01.2022
3388 Mist -38 1029 66 3200 0.89 20 18:22 30.01.2022
3389 Mist -39 1029 67 3200 1 330 17:31 30.01.2022
3390 Mist -38 1029 66 3200 0.89 320 16:43 30.01.2022
3391 Mist -38 1029 66 3200 0.89 320 16:23 30.01.2022
3392 Mist -39 1029 67 5000 1 360 15:54 30.01.2022
3393 Mist -38 1029 66 5000 0.89 360 15:33 30.01.2022
3394 Mist -38 1029 66 5000 0.89 340 14:47 30.01.2022
3395 Clear -37 1029 66 10000 1.79 10 13:47 30.01.2022
3396 Clear -37 1029 73 10000 1.79 360 12:46 30.01.2022
3397 Clear -37 1029 73 10000 1.79 10 10:47 30.01.2022
3398 Clear -37 1029 66 10000 1.79 20 10:25 30.01.2022
3399 Clear -37 1028 74 10000 1 30 09:23 30.01.2022
3400 Clear -35 1028 75 10000 2 40 07:59 30.01.2022
3401 Mist -36 1026 68 2100 0 0 02:44 30.01.2022
3402 Clear -35 1025 66 10000 0.89 300 01:54 30.01.2022
3403 Clear -35 1024 66 10000 0.89 320 23:49 29.01.2022
3404 Clear -36 1024 66 10000 0.89 270 22:50 29.01.2022
3405 Clear -35 1024 66 10000 1.79 160 21:29 29.01.2022
3406 Clear -36 1023 73 10000 0 0 20:57 29.01.2022
3407 Clear -36 1023 66 10000 0 0 19:52 29.01.2022
3408 Clear -35 1023 66 10000 0 0 19:31 29.01.2022
3409 Clear -36 1023 73 10000 0 0 18:44 29.01.2022
3410 Clear -35 1022 66 10000 0 0 17:54 29.01.2022
3411 Clear -35 1022 66 10000 0.89 300 16:44 29.01.2022
3412 Clear -35 1022 74 10000 1.79 290 15:25 29.01.2022
3413 Mist -35 1022 75 5000 1 280 13:48 29.01.2022
3414 Mist -35 1021 68 5000 1 240 13:27 29.01.2022
3415 Mist -36 1021 75 5000 1 240 12:52 29.01.2022
3416 Clear -36 1021 75 10000 0 0 11:39 29.01.2022
3417 Clear -34 1021 68 10000 1 340 10:32 29.01.2022
3418 Clear -29 1019 75 10000 0.89 110 07:57 29.01.2022
3419 Snow -33 1018 75 10000 2 300 01:38 29.01.2022
3420 Clear -32 1017 74 10000 0.89 270 00:31 29.01.2022
3421 Clear -32 1017 74 10000 0.89 270 00:31 29.01.2022
3422 Snow -33 1017 67 10000 0.89 280 23:29 28.01.2022
3423 Clear -33 1017 74 10000 0.89 240 22:46 28.01.2022
3424 Clear -34 1017 74 10000 1.79 270 22:18 28.01.2022
3425 Clear -36 1017 75 10000 1 280 20:41 28.01.2022
3426 Clear -36 1017 68 10000 1 220 19:53 28.01.2022
3427 Clear -34 1017 74 10000 0.89 240 18:51 28.01.2022
3428 Clear -34 1017 74 10000 1.79 220 17:52 28.01.2022
3429 Clear -37 1018 74 10000 1 240 15:46 28.01.2022
3430 Clear -36 1018 73 10000 1.79 260 14:46 28.01.2022
3431 Clear -37 1019 74 10000 1 320 12:40 28.01.2022
3432 Clear -36 1019 75 10000 0 0 11:38 28.01.2022
3433 Clear -36 1019 75 10000 0 0 11:38 28.01.2022
3434 Clear -37 1019 67 10000 0 0 10:22 28.01.2022
3435 Clear -35 1019 66 10000 0.89 180 09:45 28.01.2022
3436 Clear -33 1019 67 10000 0.89 170 07:40 28.01.2022
3437 Clear -34 1020 68 10000 1 170 05:30 28.01.2022
3438 Mist -35 1020 66 5000 0.89 230 03:48 28.01.2022
3439 Mist -36 1022 73 5000 1.79 160 02:23 28.01.2022
3440 Clear -37 1022 66 10000 0.89 230 01:35 28.01.2022
3441 Clear -35 1022 74 10000 0.89 220 23:47 27.01.2022
3442 Clear -35 1024 75 10000 1 170 21:58 27.01.2022
3443 Clear -35 1024 75 10000 1 180 21:34 27.01.2022
3444 Clear -35 1024 75 10000 2 170 20:55 27.01.2022
3445 Clear -36 1025 75 10000 1 180 19:35 27.01.2022
3446 Mist -36 1026 68 5000 0 0 17:58 27.01.2022
3447 Mist -36 1027 68 5000 0 0 15:43 27.01.2022
3448 Mist -37 1028 67 1500 1 290 13:39 27.01.2022
3449 Mist -38 1028 67 1100 0 0 12:46 27.01.2022
3450 Clear -39 1027 73 10000 0.89 360 10:59 27.01.2022
3451 Clear -39 1027 73 10000 0.89 360 09:27 27.01.2022
3452 Clear -39 1027 73 10000 0.89 30 08:39 27.01.2022
3453 Clear -36 1027 66 10000 0.89 70 07:23 27.01.2022
3454 Mist -37 1025 66 5000 0.89 30 02:59 27.01.2022
3455 Clear -37 1025 73 10000 0.89 40 23:52 26.01.2022
3456 Clear -36 1024 73 10000 1.79 40 22:27 26.01.2022
3457 Clear -35 1024 66 10000 0.89 40 21:41 26.01.2022
3458 Snow -33 1024 67 10000 3.13 30 20:42 26.01.2022
3459 Snow -31 1024 67 10000 3.13 30 20:23 26.01.2022
3460 Snow -30 1024 68 5000 3.13 30 19:28 26.01.2022
3461 Snow -30 1023 68 5000 3.13 10 18:46 26.01.2022
3462 Snow -30 1023 75 5000 3.13 20 17:52 26.01.2022
3463 Snow -30 1023 75 5000 3.13 10 17:24 26.01.2022
3464 Snow -30 1023 75 10000 1.79 10 16:40 26.01.2022
3465 Snow -30 1023 75 10000 1.79 20 15:50 26.01.2022
3466 Snow -30 1023 76 5000 2 10 14:23 26.01.2022
3467 Snow -30 1023 76 10000 2 20 11:56 26.01.2022
3468 Snow -30 1023 76 5000 2 10 10:45 26.01.2022
3469 Snow -31 1023 76 5000 2 10 09:49 26.01.2022
3470 Snow -30 1023 76 5000 1 10 08:32 26.01.2022
3471 Clear -27 1023 76 10000 1 180 05:42 26.01.2022
3472 Clear -30 1024 76 10000 3 260 00:18 26.01.2022
3473 Snow -28 1024 68 5000 1.79 290 23:28 25.01.2022
3474 Snow -27 1024 75 5000 3.13 300 22:48 25.01.2022
3475 Snow -27 1023 75 5000 3.13 280 22:18 25.01.2022
3476 Clear -31 1024 76 10000 1 260 21:22 25.01.2022
3477 Clear -33 1024 75 10000 1 260 20:44 25.01.2022
3478 Clear -35 1024 68 10000 2 250 19:53 25.01.2022
3479 Clear -35 1024 68 10000 2 250 19:53 25.01.2022
3480 Clear -36 1024 75 10000 1 270 18:46 25.01.2022
3481 Clear -35 1024 68 10000 1 260 17:45 25.01.2022
3482 Clear -35 1024 68 10000 0 0 16:58 25.01.2022
3483 Clear -35 1024 68 10000 0 0 16:34 25.01.2022
3484 Clear -35 1024 75 10000 1 320 15:39 25.01.2022
3485 Snow -35 1023 75 10000 0 0 14:58 25.01.2022
3486 Snow -34 1023 68 10000 1 330 13:47 25.01.2022
3487 Clear -34 1023 75 10000 0 0 10:59 25.01.2022
3488 Clear -33 1022 68 10000 1 20 09:20 25.01.2022
3489 Clear -29 1022 69 10000 0 0 07:30 25.01.2022
3490 Clear -30 1022 69 10000 0 0 06:53 25.01.2022
3491 Clear -30 1021 69 10000 1 70 05:22 25.01.2022
3492 Snow -29 1019 76 10000 2 40 23:37 24.01.2022
3493 Snow -29 1019 76 10000 2 40 23:19 24.01.2022
3494 Snow -29 1019 76 10000 2 30 23:00 24.01.2022
3495 Snow -28 1019 76 5000 2 50 22:41 24.01.2022
3496 Snow -27 1019 76 5000 3 50 21:55 24.01.2022
3497 Snow -27 1019 76 5000 2 50 21:32 24.01.2022
3498 Snow -26 1019 70 5000 4 30 20:33 24.01.2022
3499 Snow -26 1019 76 5000 3 40 19:57 24.01.2022
3500 Snow -26 1019 76 10000 3 40 19:35 24.01.2022
3501 Snow -26 1019 76 10000 2 30 18:35 24.01.2022
3502 Snow -26 1019 76 10000 3 40 17:24 24.01.2022
3503 Snow -26 1019 76 10000 3 40 16:55 24.01.2022
3504 Snow -25 1019 69 10000 3.13 40 16:21 24.01.2022
3505 Snow -24 1020 76 10000 1.79 360 14:44 24.01.2022
3506 Snow -24 1020 76 10000 1.79 20 13:26 24.01.2022
3507 Snow -25 1020 76 10000 1.79 10 12:30 24.01.2022
3508 Snow -25 1021 76 10000 1.79 20 10:46 24.01.2022
3509 Snow -26 1021 75 10000 1.79 20 09:49 24.01.2022
3510 Snow -26 1021 75 10000 1.79 10 08:54 24.01.2022
3511 Snow -26 1022 75 10000 0.89 10 07:19 24.01.2022
3512 Snow -30 1024 75 10000 0.89 30 01:31 24.01.2022
3513 Snow -29 1023 76 10000 1 20 00:45 24.01.2022
3514 Snow -28 1024 76 10000 1 360 00:26 24.01.2022
3515 Snow -27 1024 76 10000 2 60 22:43 23.01.2022
3516 Snow -26 1024 76 10000 1 40 21:50 23.01.2022
3517 Snow -26 1024 76 10000 1 50 21:26 23.01.2022
3518 Snow -26 1024 76 10000 0 0 20:48 23.01.2022
3519 Snow -27 1024 75 10000 0.89 90 19:54 23.01.2022
3520 Snow -27 1024 75 10000 0 0 18:52 23.01.2022
3521 Snow -26 1024 75 10000 0 0 17:52 23.01.2022
3522 Snow -27 1024 75 10000 1.79 340 16:48 23.01.2022
3523 Snow -27 1024 75 10000 1.79 10 15:18 23.01.2022
3524 Clouds -27 1024 75 10000 3.13 40 14:32 23.01.2022
3525 Clouds -28 1024 75 10000 0.89 360 13:27 23.01.2022
3526 Clear -27 1024 75 10000 1.79 50 12:36 23.01.2022
3527 Clear -27 1024 75 10000 1.79 50 12:18 23.01.2022
3528 Snow -27 1024 75 10000 0.89 40 11:24 23.01.2022
3529 Snow -27 1024 68 10000 1.79 30 10:57 23.01.2022
3530 Snow -27 1024 75 10000 0.89 10 10:21 23.01.2022
3531 Snow -28 1025 75 10000 0.89 60 09:19 23.01.2022
3532 Snow -28 1025 76 10000 1 60 05:58 23.01.2022
3533 Snow -28 1025 68 5000 1.79 20 02:25 23.01.2022
3534 Snow -29 1025 76 5000 2 20 01:34 23.01.2022
3535 Snow -29 1025 76 5000 1 30 00:31 23.01.2022
3536 Snow -29 1025 69 5000 1 40 23:57 22.01.2022
3537 Snow -30 1025 76 5000 0 0 22:47 22.01.2022
3538 Snow -31 1026 76 10000 0 0 21:38 22.01.2022
3539 Snow -32 1026 75 10000 0 0 20:24 22.01.2022
3540 Snow -31 1027 76 10000 2 20 19:34 22.01.2022
3541 Clear -30 1027 69 10000 1 30 18:29 22.01.2022
3542 Clear -30 1027 76 10000 0 0 17:42 22.01.2022
3543 Snow -30 1027 69 10000 1 40 16:57 22.01.2022
3544 Snow -30 1027 69 10000 0 0 16:20 22.01.2022
3545 Snow -31 1028 76 10000 0 0 15:42 22.01.2022
3546 Snow -32 1028 68 5000 1 70 13:59 22.01.2022
3547 Snow -32 1029 67 5000 0 0 12:58 22.01.2022
3548 Snow -32 1029 67 5000 0 0 12:31 22.01.2022
3549 Snow -34 1029 75 5000 1 10 11:58 22.01.2022
3550 Clear -37 1029 74 10000 0 0 10:39 22.01.2022
3551 Clear -37 1029 74 10000 0 0 10:19 22.01.2022
3552 Clear -34 1029 68 10000 0 0 08:54 22.01.2022
3553 Clear -33 1029 75 10000 1 160 08:31 22.01.2022
3554 Clear -30 1029 69 10000 0 0 05:20 22.01.2022
3555 Snow -32 1029 75 10000 1 30 02:27 22.01.2022
3556 Snow -32 1029 68 10000 2 10 23:49 21.01.2022
3557 Snow -32 1029 75 10000 2 30 22:58 21.01.2022
3558 Snow -32 1029 75 10000 3 50 20:48 21.01.2022
3559 Snow -32 1029 75 10000 2 20 19:20 21.01.2022
3560 Snow -32 1029 68 10000 3 20 17:48 21.01.2022
3561 Snow -32 1029 75 10000 2 20 15:54 21.01.2022
3562 Clear -33 1030 68 10000 2 30 14:41 21.01.2022
3563 Clouds -27 1034 99 964 0.94 72 12:43 21.01.2022
3564 Snow -32 1031 75 10000 2 10 11:29 21.01.2022
3565 Snow -32 1031 75 5000 2 20 10:27 21.01.2022
3566 Snow -32 1031 68 3200 1 10 08:58 21.01.2022
3567 Snow -32 1031 67 5000 1.79 10 07:48 21.01.2022
3568 Snow -35 1033 66 10000 0.89 30 01:48 21.01.2022
3569 Snow -36 1033 66 5000 0.89 30 22:47 20.01.2022
3570 Mist -37 1033 73 5000 0.89 20 21:49 20.01.2022
3571 Mist -37 1034 73 5000 0.89 20 21:25 20.01.2022
3572 Snow -37 1034 66 5000 0 0 19:47 20.01.2022
3573 Snow -37 1034 66 5000 0 0 19:18 20.01.2022
3574 Mist -38 1033 66 3200 0 0 17:37 20.01.2022
3575 Mist -39 1033 65 3200 0 0 16:19 20.01.2022
3576 Mist -39 1033 65 2100 0 0 15:29 20.01.2022
3577 Mist -40 1034 65 2400 0 0 14:20 20.01.2022
3578 Mist -40 1033 65 1200 0 0 12:49 20.01.2022
3579 Mist -40 1034 65 2400 0 0 12:29 20.01.2022
3580 Mist -41 1033 65 2400 0 0 11:19 20.01.2022
3581 Mist -41 1033 66 1800 1 20 10:18 20.01.2022
3582 Mist -41 1033 65 5000 0 0 08:51 20.01.2022
3583 Mist -41 1033 66 3200 0 0 06:57 20.01.2022
3584 Fog -43 1033 64 900 0.89 20 00:40 20.01.2022
3585 Fog -43 1033 64 900 0.89 350 22:39 19.01.2022
3586 Fog -43 1033 64 900 0 0 21:36 19.01.2022
3587 Fog -43 1033 64 900 0.89 20 20:58 19.01.2022
3588 Fog -43 1033 64 900 0.89 20 20:40 19.01.2022
3589 Fog -43 1033 64 600 0 0 18:59 19.01.2022
3590 Mist -42 1033 64 1100 0.89 10 17:51 19.01.2022
3591 Fog -42 1033 64 900 0.89 30 17:18 19.01.2022
3592 Fog -42 1034 64 600 0.89 30 15:35 19.01.2022
3593 Fog -42 1034 72 800 0.89 20 13:26 19.01.2022
3594 Fog -42 1035 64 400 0.89 360 11:59 19.01.2022
3595 Fog -42 1035 64 400 0.89 360 11:38 19.01.2022
3596 Fog -42 1035 64 900 0 0 09:49 19.01.2022
3597 Fog -42 1035 64 900 0 0 09:22 19.01.2022
3598 Fog -41 1036 66 900 1 60 05:29 19.01.2022
3599 Mist -41 1038 65 1300 0 0 00:22 19.01.2022
3600 Fog -41 1038 65 750 0.89 20 23:18 18.01.2022
3601 Fog -41 1039 65 900 0.89 30 21:50 18.01.2022
3602 Fog -41 1039 65 800 0.89 10 20:38 18.01.2022
3603 Fog -40 1039 65 600 0.89 10 19:51 18.01.2022
3604 Fog -40 1039 65 700 0 0 19:33 18.01.2022
3605 Fog -40 1039 65 600 0.89 360 18:23 18.01.2022
3606 Fog -40 1040 65 650 0.89 350 17:32 18.01.2022
3607 Fog -40 1040 65 700 0 0 16:22 18.01.2022
3608 Mist -39 1040 65 1500 0.89 10 15:25 18.01.2022
3609 Mist -39 1040 65 1600 0.89 50 14:23 18.01.2022
3610 Fog -40 1041 72 450 0 0 11:45 18.01.2022
3611 Fog -40 1041 65 300 0 0 10:30 18.01.2022
3612 Fog -39 1041 65 450 0 0 08:36 18.01.2022
3613 Fog -39 1041 65 400 0 0 07:45 18.01.2022
3614 Fog -40 1041 65 250 0 0 01:34 18.01.2022
3615 Fog -42 1040 72 550 0 0 22:47 17.01.2022
3616 Fog -42 1040 64 450 0 0 21:50 17.01.2022
3617 Fog -42 1040 64 300 0 0 21:29 17.01.2022
3618 Fog -41 1040 65 450 0.89 160 19:37 17.01.2022
3619 Fog -41 1039 65 700 0 0 18:26 17.01.2022
3620 Fog -41 1039 65 500 0 0 17:22 17.01.2022
3621 Fog -42 1040 64 250 0.89 350 16:22 17.01.2022
3622 Fog -41 1039 65 450 0 0 14:58 17.01.2022
3623 Fog -41 1039 65 650 0 0 14:32 17.01.2022
3624 Fog -41 1039 65 900 0.89 340 13:19 17.01.2022
3625 Fog -40 1039 65 900 0.89 300 12:27 17.01.2022
3626 Mist -39 1039 65 1100 0 0 11:33 17.01.2022
3627 Mist -40 1039 65 3200 0 0 10:21 17.01.2022
3628 Mist -39 1039 65 5000 0 0 08:44 17.01.2022
3629 Mist -36 1038 73 5000 0.89 180 07:21 17.01.2022
3630 Fog -39 1039 65 700 0.89 300 01:52 17.01.2022
3631 Fog -38 1039 67 1500 2 310 00:43 17.01.2022
3632 Mist -39 1038 65 5000 0.89 310 21:22 16.01.2022
3633 Mist -39 1038 65 5000 0 0 20:28 16.01.2022
3634 Mist -36 1038 75 5000 1 220 18:46 16.01.2022
3635 Mist -36 1038 73 3200 0 0 17:50 16.01.2022
3636 Mist -36 1038 66 3200 0 0 16:55 16.01.2022
3637 Mist -36 1038 75 3200 0 0 15:43 16.01.2022
3638 Mist -36 1038 66 1500 0 0 14:29 16.01.2022
3639 Mist -36 1038 66 1500 0 0 14:29 16.01.2022
3640 Mist -38 1038 73 1500 0.89 240 13:33 16.01.2022
3641 Mist -38 1038 66 1300 0.89 180 12:21 16.01.2022
3642 Mist -38 1038 66 1200 0 0 11:27 16.01.2022
3643 Mist -38 1037 66 1400 0.89 170 10:28 16.01.2022
3644 Mist -38 1037 66 1200 0.89 140 09:58 16.01.2022
3645 Mist -38 1037 66 1200 0.89 290 09:37 16.01.2022
3646 Fog -38 1037 66 900 0.89 290 09:19 16.01.2022
3647 Fog -37 1036 66 750 0.89 160 06:35 16.01.2022
3648 Fog -40 1035 65 250 0 0 00:19 16.01.2022
3649 Fog -41 1035 72 250 0 0 22:50 15.01.2022
3650 Fog -40 1034 65 350 0 0 21:21 15.01.2022
3651 Fog -40 1034 65 250 0 0 20:44 15.01.2022
3652 Fog -40 1034 65 350 0 0 20:21 15.01.2022
3653 Fog -41 1034 72 350 0 0 19:26 15.01.2022
3654 Fog -41 1033 72 200 0 0 17:58 15.01.2022
3655 Fog -41 1033 65 200 0.89 290 16:49 15.01.2022
3656 Fog -39 1033 65 600 0.89 170 14:36 15.01.2022
3657 Fog -40 1032 65 750 0 0 12:39 15.01.2022
3658 Fog -40 1032 65 900 0 0 11:21 15.01.2022
3659 Fog -39 1032 65 1200 0.89 210 09:45 15.01.2022
3660 Fog -40 1031 72 550 0 0 01:27 15.01.2022
3661 Mist -39 1031 65 2100 0.89 260 22:40 14.01.2022
3662 Mist -40 1030 65 2100 0 0 20:57 14.01.2022
3663 Mist -40 1030 65 1700 0 0 20:24 14.01.2022
3664 Fog -40 1030 65 900 0 0 19:49 14.01.2022
3665 Fog -40 1029 72 450 0 0 18:33 14.01.2022
3666 Fog -40 1029 65 650 0 0 17:21 14.01.2022
3667 Fog -40 1029 72 750 1 330 16:40 14.01.2022
3668 Mist -39 1028 65 1500 1.79 320 14:50 14.01.2022
3669 Clear -39 1028 73 10000 0 0 14:20 14.01.2022
3670 Mist -38 1027 73 5000 0.89 320 12:47 14.01.2022
3671 Mist -37 1027 66 2400 0.89 320 11:51 14.01.2022
3672 Clear -37 1026 67 10000 0 0 10:24 14.01.2022
3673 Snow -34 1025 68 10000 0 0 08:52 14.01.2022
3674 Snow -32 1024 68 10000 1 40 07:30 14.01.2022
3675 Snow -34 1023 75 10000 2 30 02:20 14.01.2022
3676 Clear -35 1022 68 10000 2 40 23:40 13.01.2022
3677 Clear -36 1022 68 10000 2 10 21:46 13.01.2022
3678 Clear -36 1022 75 10000 2 20 21:27 13.01.2022
3679 Clear -36 1022 75 10000 2 40 19:44 13.01.2022
3680 Clear -35 1022 68 10000 2 20 19:23 13.01.2022
3681 Clear -35 1022 75 10000 2 10 18:36 13.01.2022
3682 Mist -35 1022 66 5000 1.79 20 16:48 13.01.2022
3683 Mist -36 1021 66 2400 1.79 20 15:38 13.01.2022
3684 Mist -36 1022 66 2400 1.79 10 15:18 13.01.2022
3685 Mist -37 1021 73 2400 1.79 10 13:28 13.01.2022
3686 Clear -37 1021 73 10000 1.79 360 10:39 13.01.2022
3687 Clear -36 1021 66 10000 1.79 360 09:23 13.01.2022
3688 Clear -36 1021 73 10000 1.79 20 08:28 13.01.2022
3689 Clear -36 1021 73 10000 1.79 360 07:58 13.01.2022
3690 Clear -35 1021 66 10000 1.79 360 07:18 13.01.2022
3691 Mist -35 1021 74 5000 1.79 20 05:20 13.01.2022
3692 Mist -37 1021 66 1700 0.89 340 03:34 13.01.2022
3693 Mist -39 1021 74 5000 2 320 01:38 13.01.2022
3694 Clear -36 1021 68 10000 1 340 23:53 12.01.2022
3695 Clear -36 1021 68 10000 2 350 23:33 12.01.2022
3696 Snow -35 1022 68 10000 2 350 21:59 12.01.2022
3697 Snow -35 1022 68 10000 2 350 21:39 12.01.2022
3698 Snow -35 1022 75 10000 2 350 21:18 12.01.2022
3699 Snow -34 1022 68 10000 2 360 20:41 12.01.2022
3700 Snow -33 1022 68 10000 2 10 18:48 12.01.2022
3701 Snow -33 1023 68 10000 1 30 17:54 12.01.2022
3702 Snow -33 1023 68 10000 1 20 16:52 12.01.2022
3703 Snow -34 1024 75 10000 1 20 14:50 12.01.2022
3704 Snow -34 1024 75 10000 1 30 14:19 12.01.2022
3705 Snow -34 1024 67 10000 1.79 40 12:57 12.01.2022
3706 Snow -34 1025 67 10000 0.89 40 09:48 12.01.2022
3707 Snow -34 1025 68 10000 1 20 07:57 12.01.2022
3708 Snow -34 1025 68 5000 1 50 07:33 12.01.2022
3709 Mist -35 1025 68 5000 1 350 02:20 12.01.2022
3710 Snow -36 1025 68 3200 2 20 23:26 11.01.2022
3711 Mist -37 1025 74 2100 1 340 22:39 11.01.2022
3712 Mist -37 1025 74 2100 1 340 22:18 11.01.2022
3713 Fog -38 1025 67 900 1 340 20:40 11.01.2022
3714 Mist -38 1025 67 1500 2 10 19:35 11.01.2022
3715 Clear -38 1025 67 10000 2 10 17:54 11.01.2022
3716 Clear -38 1025 74 10000 2 30 16:46 11.01.2022
3717 Clear -37 1025 67 10000 2 10 16:28 11.01.2022
3718 Clear -36 1025 68 10000 2 10 14:57 11.01.2022
3719 Clear -36 1025 68 10000 2 10 14:38 11.01.2022
3720 Mist -36 1026 68 5000 2 10 13:52 11.01.2022
3721 Mist -36 1025 68 5000 2 360 13:28 11.01.2022
3722 Mist -36 1026 75 5000 2 20 12:36 11.01.2022
3723 Mist -35 1026 68 3200 2 20 10:40 11.01.2022
3724 Mist -36 1026 68 2100 2 20 08:26 11.01.2022
3725 Mist -38 1026 67 2100 2 20 04:30 11.01.2022
3726 Mist -40 1027 67 2100 1 10 00:28 11.01.2022
3727 Mist -41 1027 66 1000 1 30 23:40 10.01.2022
3728 Fog -41 1027 66 900 1 360 22:42 10.01.2022
3729 Fog -41 1028 66 900 1 360 22:18 10.01.2022
3730 Fog -42 1028 66 900 1 10 21:42 10.01.2022
3731 Fog -42 1028 66 900 2 10 21:18 10.01.2022
3732 Fog -41 1028 65 800 1.79 10 20:55 10.01.2022
3733 Fog -41 1029 65 900 0.89 10 20:23 10.01.2022
3734 Fog -41 1029 65 600 0.89 360 19:39 10.01.2022
3735 Fog -41 1029 65 600 0.89 360 19:19 10.01.2022
3736 Fog -41 1029 65 750 0.89 20 18:47 10.01.2022
3737 Fog -41 1030 65 550 0.89 20 16:51 10.01.2022
3738 Fog -41 1030 65 600 1.79 350 16:33 10.01.2022
3739 Fog -41 1031 65 400 0.89 10 14:50 10.01.2022
3740 Fog -41 1033 65 400 1.79 10 13:35 10.01.2022
3741 Fog -41 1033 65 450 0 0 11:57 10.01.2022
3742 Fog -41 1034 65 500 0.89 40 11:24 10.01.2022
3743 Fog -41 1035 65 550 0 0 09:40 10.01.2022
3744 Fog -39 1036 65 600 0 0 05:52 10.01.2022
3745 Fog -39 1036 65 350 0 0 04:48 10.01.2022
3746 Fog -41 1037 65 700 0 0 01:22 10.01.2022
3747 Fog -41 1038 65 750 0 0 00:22 10.01.2022
3748 Fog -41 1038 65 550 0 0 23:28 09.01.2022
3749 Fog -41 1038 65 400 0 0 22:21 09.01.2022
3750 Fog -41 1038 65 650 0 0 21:42 09.01.2022
3751 Fog -41 1038 65 650 0 0 21:22 09.01.2022
3752 Fog -41 1038 65 550 0 0 20:49 09.01.2022
3753 Fog -41 1038 65 650 0 0 20:29 09.01.2022
3754 Fog -41 1038 65 450 0 0 19:44 09.01.2022
3755 Fog -41 1038 65 450 0 0 19:22 09.01.2022
3756 Fog -41 1038 65 600 0 0 18:49 09.01.2022
3757 Fog -40 1038 67 750 0 0 18:30 09.01.2022
3758 Fog -40 1038 67 1200 1 310 17:30 09.01.2022
3759 Mist -40 1038 67 1500 1 300 16:51 09.01.2022
3760 Clear -38 1039 67 10000 1 300 15:52 09.01.2022
3761 Clear -38 1039 67 10000 1 300 15:33 09.01.2022
3762 Clear -37 1039 67 10000 1 290 14:39 09.01.2022
3763 Clear -37 1039 74 10000 1 300 13:50 09.01.2022
3764 Clear -34 1039 68 10000 1 310 12:31 09.01.2022
3765 Clouds -43 1043 100 10000 0.84 300 11:47 09.01.2022
3766 Clear -33 1038 68 10000 1 290 09:59 09.01.2022
3767 Clear -33 1038 68 10000 1 290 09:41 09.01.2022
3768 Clear -34 1038 68 10000 1 270 08:30 09.01.2022
3769 Snow -37 1036 67 10000 0 0 02:31 09.01.2022
3770 Mist -38 1036 66 5000 0 0 01:20 09.01.2022
3771 Snow -36 1035 75 5000 0 0 23:38 08.01.2022
3772 Snow -36 1035 73 2400 0 0 22:59 08.01.2022
3773 Snow -36 1034 66 5000 0 0 21:33 08.01.2022
3774 Mist -37 1034 73 2400 0 0 20:45 08.01.2022
3775 Mist -37 1033 66 2000 0 0 20:24 08.01.2022
3776 Mist -37 1033 66 1000 0 0 19:58 08.01.2022
3777 Fog -41 1032 66 200 0 0 18:21 08.01.2022
3778 Fog -40 1032 67 700 0 0 17:21 08.01.2022
3779 Fog -40 1031 72 300 0 0 15:47 08.01.2022
3780 Fog -40 1031 65 250 0 0 14:41 08.01.2022
3781 Fog -41 1030 65 150 0 0 12:44 08.01.2022
3782 Fog -41 1030 65 150 0 0 11:24 08.01.2022
3783 Fog -41 1029 65 150 0 0 10:25 08.01.2022
3784 Fog -41 1028 65 150 0 0 09:47 08.01.2022
3785 Fog -41 1027 58 400 0 0 07:19 08.01.2022
3786 Fog -42 1026 64 300 0 0 02:45 08.01.2022
3787 Fog -42 1026 64 500 0 0 00:41 08.01.2022
3788 Fog -42 1027 64 400 0 0 22:47 07.01.2022
3789 Fog -41 1027 65 350 0.89 330 20:56 07.01.2022
3790 Fog -41 1027 65 450 0 0 19:56 07.01.2022
3791 Fog -41 1027 65 450 0 0 19:56 07.01.2022
3792 Fog -41 1028 65 400 0 0 18:58 07.01.2022
3793 Fog -41 1028 65 400 0 0 18:38 07.01.2022
3794 Fog -41 1028 65 350 0 0 17:25 07.01.2022
3795 Fog -40 1029 65 500 0 0 16:30 07.01.2022
3796 Mist -39 1030 67 2100 0 0 13:53 07.01.2022
3797 Mist -39 1030 67 1500 0 0 13:22 07.01.2022
3798 Mist -38 1030 66 1500 0 0 12:49 07.01.2022
3799 Fog -39 1031 65 400 0 0 09:37 07.01.2022
3800 Fog -42 1033 64 900 0.89 190 02:55 07.01.2022
3801 Fog -43 1033 64 200 0 0 01:54 07.01.2022
3802 Fog -44 1034 64 250 0 0 01:28 07.01.2022
3803 Fog -44 1034 64 300 0 0 00:58 07.01.2022
3804 Fog -45 1033 64 400 0 0 22:54 06.01.2022
3805 Fog -45 1034 64 250 0 0 21:28 06.01.2022
3806 Fog -45 1034 57 350 0.89 170 20:21 06.01.2022
3807 Fog -45 1034 64 550 0.89 140 19:44 06.01.2022
3808 Fog -46 1034 63 800 0 0 17:54 06.01.2022
3809 Fog -46 1034 56 1000 0 0 17:34 06.01.2022
3810 Fog -47 1034 63 900 0 0 16:42 06.01.2022
3811 Fog -47 1034 63 500 0 0 15:46 06.01.2022
3812 Fog -47 1034 63 350 0 0 15:25 06.01.2022
3813 Fog -47 1034 63 900 0.89 360 14:45 06.01.2022
3814 Fog -47 1035 56 700 0.89 360 14:18 06.01.2022
3815 Fog -47 1035 56 550 0.89 10 12:50 06.01.2022
3816 Fog -47 1035 63 550 0.89 350 11:43 06.01.2022
3817 Fog -47 1035 63 600 0.89 350 11:22 06.01.2022
3818 Fog -47 1035 63 500 0.89 350 08:51 06.01.2022
3819 Fog -46 1034 63 200 0.89 350 00:53 06.01.2022
3820 Fog -46 1033 63 600 0.89 70 23:37 05.01.2022
3821 Fog -46 1033 63 450 0 0 22:57 05.01.2022
3822 Fog -46 1033 63 500 0 0 22:32 05.01.2022
3823 Fog -46 1033 63 800 0.89 330 21:48 05.01.2022
3824 Fog -46 1032 63 700 0.89 320 20:57 05.01.2022
3825 Fog -47 1032 63 700 0.89 350 20:18 05.01.2022
3826 Fog -46 1031 63 500 0.89 300 18:44 05.01.2022
3827 Fog -46 1032 63 700 0.89 320 17:26 05.01.2022
3828 Fog -46 1032 63 600 0.89 320 16:50 05.01.2022
3829 Fog -46 1032 63 500 0.89 330 15:26 05.01.2022
3830 Fog -46 1032 63 500 0.89 320 13:51 05.01.2022
3831 Fog -46 1032 63 600 0 0 13:22 05.01.2022
3832 Mist -44 1033 64 3200 0.89 310 10:34 05.01.2022
3833 Mist -43 1032 64 3200 0 0 07:47 05.01.2022
3834 Mist -43 1032 64 3200 0 0 07:47 05.01.2022
3835 Mist -43 1032 66 2000 1 310 06:25 05.01.2022
3836 Snow -43 1030 66 1300 0 0 00:58 05.01.2022
3837 Fog -43 1029 66 1500 1 330 23:28 04.01.2022
3838 Fog -43 1029 66 1500 1 330 23:28 04.01.2022
3839 Fog -43 1029 66 1000 1 330 22:46 04.01.2022
3840 Fog -44 1029 66 2100 1 40 21:24 04.01.2022
3841 Mist -43 1027 66 1500 2 20 19:20 04.01.2022
3842 Mist -44 1027 66 2100 2 20 17:52 04.01.2022
3843 Mist -43 1027 66 2400 2 20 16:44 04.01.2022
3844 Mist -43 1027 66 2400 2 20 16:24 04.01.2022
3845 Mist -43 1026 66 2400 3 30 14:54 04.01.2022
3846 Mist -43 1026 66 2100 3 30 14:34 04.01.2022
3847 Mist -44 1026 66 1800 2 30 13:27 04.01.2022
3848 Mist -45 1025 65 1600 3 20 10:41 04.01.2022
3849 Mist -45 1025 65 1600 3 10 09:47 04.01.2022
3850 Mist -46 1025 65 1800 3 30 08:32 04.01.2022
3851 Fog -47 1024 63 1200 0.89 30 02:32 04.01.2022
3852 Fog -46 1024 63 800 0.89 20 00:41 04.01.2022
3853 Fog -45 1024 57 750 0.89 10 23:26 03.01.2022
3854 Fog -44 1023 64 500 0.89 360 21:52 03.01.2022
3855 Fog -44 1023 64 400 0.89 10 21:33 03.01.2022
3856 Fog -44 1023 64 300 0.89 10 20:22 03.01.2022
3857 Fog -42 1022 64 200 0 0 18:54 03.01.2022
3858 Fog -43 1022 64 200 0 0 18:28 03.01.2022
3859 Fog -43 1021 64 650 0 0 16:58 03.01.2022
3860 Mist -41 1020 65 5000 0 0 15:39 03.01.2022
3861 Clear -37 1020 66 10000 0 0 14:30 03.01.2022
3862 Clear -38 1020 66 10000 0 0 12:48 03.01.2022
3863 Clear -37 1019 66 10000 0.89 250 11:38 03.01.2022
3864 Clear -36 1019 66 10000 0.89 240 10:36 03.01.2022
3865 Mist -36 1019 66 5000 0.89 240 08:48 03.01.2022
3866 Mist -39 1019 73 3200 0 0 07:36 03.01.2022
3867 Fog -39 1019 65 800 0 0 23:56 02.01.2022
3868 Fog -39 1019 65 800 0 0 23:22 02.01.2022
3869 Fog -40 1019 65 750 0.89 130 22:55 02.01.2022
3870 Fog -42 1018 64 500 0 0 21:46 02.01.2022
3871 Fog -41 1018 65 350 0 0 20:38 02.01.2022
3872 Fog -41 1018 65 350 0 0 20:18 02.01.2022
3873 Fog -40 1018 65 150 0 0 19:30 02.01.2022
3874 Fog -40 1018 67 150 1 240 18:46 02.01.2022
3875 Fog -40 1018 67 150 1 240 18:46 02.01.2022
3876 Fog -40 1018 67 150 0 0 17:54 02.01.2022
3877 Fog -40 1018 67 150 0 0 17:36 02.01.2022
3878 Fog -40 1018 67 150 0 0 17:18 02.01.2022
3879 Fog -40 1018 67 150 0 0 16:26 02.01.2022
3880 Fog -40 1018 65 400 0 0 14:32 02.01.2022
3881 Fog -40 1018 65 550 0 0 12:50 02.01.2022
3882 Fog -40 1018 65 150 0 0 12:22 02.01.2022
3883 Fog -41 1018 65 450 0 0 11:32 02.01.2022
3884 Fog -41 1018 65 500 0 0 10:46 02.01.2022
3885 Fog -41 1019 65 700 0.89 190 09:45 02.01.2022
3886 Fog -42 1019 66 650 1 160 05:50 02.01.2022
3887 Fog -44 1022 66 800 0 0 01:48 02.01.2022
3888 Fog -43 1022 66 600 0 0 23:40 01.01.2022
3889 Fog -43 1023 66 500 0 0 22:57 01.01.2022
3890 Fog -43 1023 64 500 0 0 22:23 01.01.2022
3891 Fog -43 1023 64 550 0 0 21:44 01.01.2022
3892 Clouds -39 1027 97 10000 0.63 103 20:55 01.01.2022
3893 Fog -44 1024 66 800 0 0 19:58 01.01.2022
3894 Fog -44 1024 66 800 0 0 19:26 01.01.2022
3895 Fog -45 1025 64 450 0 0 17:59 01.01.2022
3896 Fog -44 1025 57 700 0 0 16:43 01.01.2022
3897 Fog -44 1025 57 700 0 0 16:20 01.01.2022
3898 Fog -44 1025 57 800 0 0 15:27 01.01.2022
3899 Fog -45 1026 64 600 0 0 13:59 01.01.2022
3900 Fog -45 1026 64 350 0 0 12:50 01.01.2022
3901 Fog -45 1026 64 1300 0 0 11:58 01.01.2022
3902 Mist -45 1026 64 1500 0 0 11:23 01.01.2022
3903 Mist -45 1026 64 1800 0 0 10:40 01.01.2022
3904 Fog -45 1026 64 900 0 0 09:46 01.01.2022
3905 Fog -45 1025 64 600 0 0 08:26 01.01.2022
3906 Fog -44 1025 57 900 0 0 07:54 01.01.2022
3907 Mist -44 1025 64 1000 0 0 07:34 01.01.2022
3908 Mist -44 1026 64 1300 0 0 06:41 01.01.2022
3909 Fog -44 1025 64 1100 0 0 04:38 01.01.2022
3910 Fog -44 1026 57 700 0.89 20 02:54 01.01.2022
3911 Fog -45 1025 64 800 0.89 10 23:44 31.12.2021
3912 Mist -44 1025 57 1500 0.89 30 21:53 31.12.2021
3913 Mist -44 1025 64 2100 0.89 30 20:39 31.12.2021
3914 Mist -44 1026 64 1200 0.89 20 19:31 31.12.2021
3915 Mist -44 1026 64 1200 0.89 20 19:31 31.12.2021
3916 Mist -44 1026 64 1200 0.89 20 19:31 31.12.2021
3917 Mist -45 1026 65 1000 1 20 18:44 31.12.2021
3918 Fog -45 1026 64 900 0.89 20 17:45 31.12.2021
3919 Fog -45 1026 64 800 0.89 20 17:19 31.12.2021
3920 Mist -44 1026 57 2400 0.89 20 16:40 31.12.2021
3921 Mist -45 1026 64 2400 0.89 20 15:57 31.12.2021
3922 Mist -45 1027 64 2400 0.89 30 15:29 31.12.2021
3923 Mist -45 1027 64 2400 0.89 30 15:29 31.12.2021
3924 Mist -45 1027 64 2100 0.89 20 14:57 31.12.2021
3925 Mist -45 1027 64 2100 0.89 20 14:31 31.12.2021
3926 Mist -45 1027 64 1700 0.89 20 13:37 31.12.2021
3927 Mist -45 1027 64 1500 0.89 20 12:49 31.12.2021
3928 Mist -46 1027 63 1500 0.89 20 11:52 31.12.2021
3929 Mist -45 1027 64 1500 0.89 20 11:33 31.12.2021
3930 Mist -45 1027 64 1300 0.89 30 10:38 31.12.2021
3931 Mist -45 1027 57 1300 0.89 40 10:20 31.12.2021
3932 Mist -46 1028 63 1300 0.89 20 09:33 31.12.2021
3933 Mist -46 1028 63 1400 0.89 20 08:47 31.12.2021
3934 Fog -46 1027 56 900 0.89 20 07:49 31.12.2021
3935 Fog -46 1028 63 900 0.89 20 00:47 31.12.2021
3936 Fog -45 1028 57 600 0.89 30 22:50 30.12.2021
3937 Fog -45 1028 64 500 0.89 20 22:26 30.12.2021
3938 Fog -45 1028 57 600 0.89 20 21:37 30.12.2021
3939 Fog -45 1028 57 800 0.89 40 20:49 30.12.2021
3940 Fog -45 1028 64 600 0.89 40 20:28 30.12.2021
3941 Fog -45 1028 64 550 0.89 40 19:48 30.12.2021
3942 Fog -45 1027 64 450 0.89 20 19:24 30.12.2021
3943 Fog -45 1027 65 450 1 360 18:21 30.12.2021
3944 Fog -44 1027 59 650 0 0 16:37 30.12.2021
3945 Fog -44 1027 59 500 1 40 15:53 30.12.2021
3946 Fog -44 1027 66 450 1 30 14:49 30.12.2021
3947 Fog -44 1027 66 450 1 20 14:30 30.12.2021
3948 Fog -44 1028 66 400 0 0 13:24 30.12.2021
3949 Mist -44 1028 66 1200 1 30 11:45 30.12.2021
3950 Fog -44 1027 66 900 1 50 10:27 30.12.2021
3951 Fog -44 1027 66 800 1 50 09:27 30.12.2021
3952 Mist -44 1027 64 1100 0 0 06:56 30.12.2021
3953 Fog -44 1027 66 500 0 0 04:42 30.12.2021
3954 Fog -44 1027 66 500 1 30 03:40 30.12.2021
3955 Fog -45 1027 65 400 0 0 02:19 30.12.2021
3956 Fog -45 1027 65 600 0 0 23:37 29.12.2021
3957 Fog -45 1027 65 700 1 20 22:33 29.12.2021
3958 Fog -44 1027 59 700 1 40 21:55 29.12.2021
3959 Fog -44 1027 66 550 1 350 20:56 29.12.2021
3960 Fog -44 1027 66 500 0 0 20:26 29.12.2021
3961 Fog -44 1027 66 600 1 360 19:31 29.12.2021
3962 Fog -43 1027 66 1000 0 0 18:35 29.12.2021
3963 Fog -42 1026 60 500 1 50 17:41 29.12.2021
3964 Fog -42 1026 60 500 1 50 17:20 29.12.2021
3965 Fog -42 1026 66 300 0 0 16:19 29.12.2021
3966 Fog -43 1027 66 400 0 0 14:59 29.12.2021
3967 Fog -43 1026 66 400 0 0 12:57 29.12.2021
3968 Fog -43 1026 59 400 0 0 12:32 29.12.2021
3969 Fog -44 1026 66 350 0 0 11:22 29.12.2021
3970 Fog -44 1026 66 400 0 0 09:24 29.12.2021
3971 Fog -46 1026 65 650 0 0 07:30 29.12.2021
3972 Fog -47 1025 65 450 0 0 06:32 29.12.2021
3973 Fog -47 1025 65 450 0 0 05:55 29.12.2021
3974 Fog -47 1025 65 350 0 0 04:57 29.12.2021
3975 Fog -47 1026 63 400 0 0 00:43 29.12.2021
3976 Fog -47 1026 56 600 0 0 23:58 28.12.2021
3977 Fog -48 1026 63 600 0 0 22:57 28.12.2021
3978 Fog -48 1026 63 450 0 0 22:25 28.12.2021
3979 Fog -48 1026 63 450 0 0 22:25 28.12.2021
3980 Fog -48 1026 56 300 0 0 21:54 28.12.2021
3981 Fog -48 1026 56 300 0 0 21:54 28.12.2021
3982 Fog -49 1026 64 300 0 0 21:34 28.12.2021
3983 Fog -49 1026 62 450 0 0 19:53 28.12.2021
3984 Fog -49 1026 62 450 0 0 18:54 28.12.2021
3985 Fog -49 1026 62 450 0 0 18:27 28.12.2021
3986 Fog -49 1026 62 400 0 0 17:34 28.12.2021
3987 Fog -49 1026 62 550 0 0 16:20 28.12.2021
3988 Fog -49 1026 62 1000 0 0 15:41 28.12.2021
3989 Fog -49 1026 62 900 0 0 14:56 28.12.2021
3990 Fog -49 1026 62 750 0 0 14:38 28.12.2021
3991 Fog -49 1026 62 750 0 0 14:38 28.12.2021
3992 Fog -49 1026 62 750 0 0 14:19 28.12.2021
3993 Fog -49 1026 62 900 0.89 20 13:37 28.12.2021
3994 Fog -49 1026 62 300 0.89 340 12:56 28.12.2021
3995 Fog -49 1026 62 300 0.89 340 12:21 28.12.2021
3996 Fog -49 1026 62 550 0.89 40 10:47 28.12.2021
3997 Fog -48 1025 63 450 0.89 30 07:39 28.12.2021
3998 Fog -48 1025 63 900 0.89 40 03:37 28.12.2021
3999 Fog -48 1024 63 650 0 0 23:41 27.12.2021
4000 Fog -48 1024 63 300 0 0 22:27 27.12.2021
4001 Fog -48 1024 63 350 0 0 21:31 27.12.2021
4002 Fog -48 1024 63 350 0 0 20:40 27.12.2021
4003 Fog -48 1024 63 300 0 0 19:55 27.12.2021
4004 Fog -48 1024 63 200 0 0 19:37 27.12.2021
4005 Fog -47 1024 56 350 0 0 17:55 27.12.2021
4006 Fog -47 1024 56 350 0 0 17:55 27.12.2021
4007 Fog -47 1024 63 550 0 0 17:29 27.12.2021
4008 Fog -47 1025 56 550 0 0 16:27 27.12.2021
4009 Fog -47 1025 63 550 0 0 15:49 27.12.2021
4010 Fog -47 1025 58 800 0 0 14:26 27.12.2021
4011 Mist -47 1025 65 1100 1 20 13:32 27.12.2021
4012 Fog -47 1026 65 650 1 360 11:34 27.12.2021
4013 Fog -46 1026 58 750 1 10 10:27 27.12.2021
4014 Fog -46 1026 65 600 1 360 09:38 27.12.2021
4015 Fog -45 1026 57 800 0.89 20 07:35 27.12.2021
4016 Fog -46 1026 65 650 0 0 06:30 27.12.2021
4017 Fog -46 1026 65 650 0 0 06:30 27.12.2021
4018 Fog -46 1027 63 200 0 0 01:59 27.12.2021
4019 Fog -44 1027 57 150 0 0 23:50 26.12.2021
4020 Fog -43 1027 64 400 0 0 23:32 26.12.2021
4021 Fog -43 1027 64 550 0.89 150 21:48 26.12.2021
4022 Fog -43 1028 64 450 0 0 20:31 26.12.2021
4023 Fog -44 1028 64 600 0 0 19:31 26.12.2021
4024 Fog -43 1028 64 750 0.89 190 18:23 26.12.2021
4025 Fog -43 1029 57 900 0.89 180 15:56 26.12.2021
4026 Fog -44 1030 64 900 0.89 190 13:52 26.12.2021
4027 Mist -44 1030 64 5000 0.89 220 13:32 26.12.2021
4028 Clear -44 1030 64 10000 0.89 230 12:38 26.12.2021
4029 Clear -45 1030 64 10000 0.89 240 11:58 26.12.2021
4030 Clear -45 1031 64 10000 0 0 09:52 26.12.2021
4031 Clear -45 1031 57 10000 0 0 09:18 26.12.2021
4032 Clear -45 1031 57 10000 0.89 300 08:39 26.12.2021
4033 Mist -46 1030 63 5000 0.89 290 06:47 26.12.2021
4034 Fog -49 1030 62 900 0.89 330 00:59 26.12.2021
4035 Fog -49 1030 62 550 0.89 320 23:51 25.12.2021
4036 Fog -49 1030 62 700 0.89 10 23:26 25.12.2021
4037 Fog -49 1030 62 550 0.89 20 22:23 25.12.2021
4038 Fog -49 1030 62 700 0 0 20:48 25.12.2021
4039 Fog -48 1031 56 800 0.89 20 19:22 25.12.2021
4040 Fog -48 1031 56 800 0.89 30 18:54 25.12.2021
4041 Fog -48 1031 56 800 0.89 10 17:28 25.12.2021
4042 Fog -48 1031 56 800 0.89 20 16:35 25.12.2021
4043 Fog -48 1032 56 750 0.89 10 14:38 25.12.2021
4044 Fog -48 1033 56 600 0.89 360 12:49 25.12.2021
4045 Fog -48 1033 63 800 0.89 20 11:45 25.12.2021
4046 Fog -48 1034 63 900 0.89 20 09:50 25.12.2021
4047 Mist -48 1034 63 1400 0.89 20 08:19 25.12.2021
4048 Mist -47 1036 56 1500 0.89 60 02:59 25.12.2021
4049 Mist -48 1037 63 2100 0 0 00:33 25.12.2021
4050 Mist -48 1038 63 1000 1 30 23:39 24.12.2021
4051 Mist -48 1039 63 1500 0.89 10 19:40 24.12.2021
4052 Mist -48 1039 63 1500 0.89 20 19:22 24.12.2021
4053 Mist -48 1040 63 2100 0.89 20 16:50 24.12.2021
4054 Mist -48 1040 63 2100 0.89 20 16:21 24.12.2021
4055 Mist -48 1040 63 2100 0.89 30 15:47 24.12.2021
4056 Mist -48 1040 63 1000 0.89 10 14:47 24.12.2021
4057 Mist -48 1040 63 1200 0.89 20 14:24 24.12.2021
4058 Mist -48 1041 63 1500 0.89 20 13:39 24.12.2021
4059 Mist -48 1041 63 3200 0.89 40 12:48 24.12.2021
4060 Mist -48 1041 63 1500 1.79 50 11:58 24.12.2021
4061 Mist -48 1041 63 1500 0.89 50 11:27 24.12.2021
4062 Mist -48 1041 63 1500 0.89 20 10:53 24.12.2021
4063 Mist -47 1041 56 1500 0.89 20 10:22 24.12.2021
4064 Mist -47 1042 63 1000 0.89 20 08:25 24.12.2021
4065 Mist -47 1042 63 1200 0.89 20 07:50 24.12.2021
4066 Fog -47 1042 63 450 0.89 360 03:21 24.12.2021
4067 Fog -46 1043 63 250 0 0 00:19 24.12.2021
4068 Fog -45 1043 64 300 0.89 320 23:23 23.12.2021
4069 Fog -44 1043 57 300 0.89 310 22:39 23.12.2021
4070 Fog -44 1043 57 500 0.89 300 22:20 23.12.2021
4071 Fog -45 1043 64 1200 0.89 300 21:33 23.12.2021
4072 Fog -44 1043 57 300 0.89 290 20:20 23.12.2021
4073 Fog -45 1043 64 400 0 0 18:53 23.12.2021
4074 Fog -44 1043 64 250 0 0 17:57 23.12.2021
4075 Mist -44 1043 64 1500 0.89 280 16:57 23.12.2021
4076 Mist -44 1043 64 1200 0.89 260 16:25 23.12.2021
4077 Fog -43 1043 64 500 1.79 250 15:32 23.12.2021
4078 Fog -44 1043 64 300 0.89 260 14:54 23.12.2021
4079 Fog -43 1043 64 300 1.79 240 14:36 23.12.2021
4080 Fog -43 1044 64 250 0.89 230 13:19 23.12.2021
4081 Fog -43 1044 64 300 0.89 240 10:54 23.12.2021
4082 Fog -43 1044 64 250 0.89 220 09:47 23.12.2021
4083 Fog -43 1044 64 250 0.89 230 09:19 23.12.2021
4084 Fog -44 1043 66 450 1 190 06:59 23.12.2021
4085 Fog -45 1043 65 350 1 190 04:35 23.12.2021
4086 Fog -47 1043 56 200 0 0 23:26 22.12.2021
4087 Fog -48 1043 63 200 0 0 22:48 22.12.2021
4088 Fog -47 1044 56 250 0 0 21:57 22.12.2021
4089 Fog -48 1044 63 250 0 0 21:29 22.12.2021
4090 Fog -48 1044 63 250 0 0 20:50 22.12.2021
4091 Fog -48 1044 63 200 0 0 20:30 22.12.2021
4092 Fog -48 1043 63 200 0 0 19:35 22.12.2021
4093 Fog -48 1044 63 200 0 0 18:18 22.12.2021
4094 Fog -48 1043 63 200 0 0 17:35 22.12.2021
4095 Fog -48 1044 63 200 0 0 15:46 22.12.2021
4096 Fog -48 1044 63 450 0 0 13:44 22.12.2021
4097 Fog -48 1044 63 450 0.89 40 12:41 22.12.2021
4098 Fog -48 1044 65 350 0 0 10:46 22.12.2021
4099 Fog -48 1044 65 450 0 0 09:40 22.12.2021
4100 Fog -47 1044 58 450 0 0 07:48 22.12.2021
4101 Fog -47 1043 65 400 0 0 05:51 22.12.2021
4102 Fog -47 1043 65 300 0 0 05:28 22.12.2021
4103 Fog -47 1043 65 300 0 0 04:54 22.12.2021
4104 Fog -47 1043 65 300 1 80 04:30 22.12.2021
4105 Fog -47 1042 65 350 0 0 03:34 22.12.2021
4106 Fog -48 1042 65 450 0 0 01:37 22.12.2021
4107 Fog -48 1041 65 500 0 0 23:33 21.12.2021
4108 Fog -48 1040 65 200 0 0 22:29 21.12.2021
4109 Fog -48 1040 65 300 0 0 21:51 21.12.2021
4110 Fog -48 1040 63 450 0 0 21:26 21.12.2021
4111 Fog -48 1040 63 650 0 0 20:23 21.12.2021
4112 Fog -48 1039 63 700 0 0 19:52 21.12.2021
4113 Fog -48 1039 63 700 0 0 19:26 21.12.2021
4114 Fog -48 1038 65 650 0 0 18:22 21.12.2021
4115 Fog -48 1038 65 700 1 60 17:51 21.12.2021
4116 Fog -48 1037 65 600 1 60 16:39 21.12.2021
4117 Fog -48 1037 65 750 1 50 15:33 21.12.2021
4118 Fog -48 1036 65 400 1 70 13:51 21.12.2021
4119 Fog -48 1036 65 400 0 0 13:32 21.12.2021
4120 Fog -48 1035 65 400 1 30 12:20 21.12.2021
4121 Fog -48 1034 63 350 0.89 10 10:37 21.12.2021
4122 Fog -48 1034 63 350 0.89 350 09:41 21.12.2021
4123 Fog -48 1033 63 250 0.89 10 08:39 21.12.2021
4124 Fog -47 1032 56 250 0.89 350 07:35 21.12.2021
4125 Fog -47 1032 65 300 1 10 06:56 21.12.2021
4126 Fog -48 1030 63 300 0.89 360 03:22 21.12.2021
4127 Fog -48 1028 56 200 0.89 10 01:18 21.12.2021
4128 Fog -48 1027 63 250 0.89 10 23:34 20.12.2021
4129 Fog -48 1026 63 350 0.89 360 22:35 20.12.2021
4130 Fog -48 1026 63 250 0.89 340 21:48 20.12.2021
4131 Fog -48 1026 63 250 0.89 350 21:24 20.12.2021
4132 Fog -48 1026 63 350 0.89 350 20:48 20.12.2021
4133 Fog -46 1025 63 300 0.89 360 19:55 20.12.2021
4134 Fog -46 1025 63 300 0.89 360 19:55 20.12.2021
4135 Fog -46 1025 63 300 0.89 360 19:55 20.12.2021
4136 Fog -46 1025 63 200 0 0 19:34 20.12.2021
4137 Fog -46 1025 56 150 0 0 18:55 20.12.2021
4138 Fog -47 1024 63 250 0 0 18:25 20.12.2021
4139 Fog -47 1024 63 200 0.89 290 17:46 20.12.2021
4140 Fog -46 1023 63 300 0.89 330 16:44 20.12.2021
4141 Fog -46 1023 63 300 0.89 330 15:52 20.12.2021
4142 Fog -46 1022 65 250 1 310 14:58 20.12.2021
4143 Fog -45 1022 65 150 1 340 13:24 20.12.2021
4144 Fog -46 1020 65 300 0 0 11:36 20.12.2021
4145 Fog -45 1019 65 350 0 0 09:56 20.12.2021
4146 Fog -45 1019 65 300 0 0 09:32 20.12.2021
4147 Fog -45 1018 65 200 0 0 08:43 20.12.2021
4148 Fog -45 1018 65 200 1 90 07:57 20.12.2021
4149 Fog -44 1017 66 150 0 0 07:31 20.12.2021
4150 Fog -42 1015 66 350 1 10 04:36 20.12.2021
4151 Clouds -33 1017 95 1221 2.24 285 00:19 20.12.2021
4152 Clouds -33 1016 95 1287 1.96 281 22:55 19.12.2021
4153 Clouds -33 1016 95 1193 1.56 278 21:55 19.12.2021
4154 Fog -43 1012 66 450 2 190 21:31 19.12.2021
4155 Clouds -33 1015 96 910 1.28 275 20:34 19.12.2021
4156 Clouds -34 1015 95 957 1.07 275 19:52 19.12.2021
4157 Fog -44 1012 66 200 0 0 19:32 19.12.2021
4158 Fog -45 1011 65 300 1 270 18:30 19.12.2021
4159 Fog -45 1011 65 350 1 290 17:53 19.12.2021
4160 Fog -45 1011 65 350 0 0 17:21 19.12.2021
4161 Fog -45 1011 65 550 0 0 16:27 19.12.2021
4162 Fog -45 1011 65 800 1 270 15:50 19.12.2021
4163 Fog -45 1010 65 750 2 300 15:23 19.12.2021
4164 Fog -45 1010 65 700 2 310 14:44 19.12.2021
4165 Fog -46 1010 65 900 2 310 13:26 19.12.2021
4166 Fog -46 1010 65 800 3 320 12:47 19.12.2021
4167 Fog -46 1010 65 800 3 320 12:28 19.12.2021
4168 Fog -45 1010 65 350 0 0 11:26 19.12.2021
4169 Fog -45 1009 65 450 0 0 10:28 19.12.2021
4170 Fog -46 1009 65 500 0 0 09:48 19.12.2021
4171 Fog -47 1009 65 500 0 0 08:45 19.12.2021
4172 Clouds -37 1012 97 2130 1.37 10 04:45 19.12.2021
4173 Fog -47 1008 65 600 1 340 01:34 19.12.2021
4174 Fog -47 1008 65 300 1 350 00:53 19.12.2021
4175 Fog -47 1009 65 350 2 350 22:50 18.12.2021
4176 Fog -47 1009 65 500 1 20 22:20 18.12.2021
4177 Fog -47 1009 65 500 1 20 22:20 18.12.2021
4178 Fog -47 1009 65 600 1 340 21:41 18.12.2021
4179 Fog -47 1009 65 600 1 340 21:22 18.12.2021
4180 Fog -46 1008 65 500 2 350 20:20 18.12.2021
4181 Fog -46 1008 65 500 2 20 19:25 18.12.2021
4182 Fog -45 1009 65 500 2 10 18:22 18.12.2021
4183 Fog -45 1009 65 500 2 10 17:48 18.12.2021
4184 Fog -45 1009 65 800 2 30 16:26 18.12.2021
4185 Fog -44 1009 66 900 2 20 15:48 18.12.2021
4186 Mist -44 1009 66 1500 2 30 14:51 18.12.2021
4187 Snow -44 1009 66 3200 3 40 13:29 18.12.2021
4188 Snow -44 1009 66 3200 3 40 13:29 18.12.2021
4189 Mist -43 1009 66 1000 2 360 11:47 18.12.2021
4190 Clouds -33 1012 99 2550 1.41 40 09:52 18.12.2021
4191 Snow -42 1010 66 5000 2 50 08:48 18.12.2021
4192 Snow -41 1010 66 3200 2 40 08:27 18.12.2021
4193 Snow -41 1010 66 3200 2 40 06:27 18.12.2021
4194 Clouds -32 1013 98 1899 1.15 50 00:34 18.12.2021
4195 Clouds -32 1013 97 1417 1.21 50 23:46 17.12.2021
4196 Snow -41 1011 66 3200 2 30 22:18 17.12.2021
4197 Mist -42 1011 66 2100 2 360 21:23 17.12.2021
4198 Mist -42 1011 66 1700 2 10 20:42 17.12.2021
4199 Mist -42 1011 66 2100 2 10 19:45 17.12.2021
4200 Snow -41 1011 66 5000 3 30 18:39 17.12.2021
4201 Snow -41 1011 66 5000 2 20 17:40 17.12.2021
4202 Mist -41 1012 66 5000 3 40 16:50 17.12.2021
4203 Mist -41 1012 66 5000 3 40 16:25 17.12.2021
4204 Snow -41 1011 66 3200 2 30 15:25 17.12.2021
4205 Snow -40 1012 67 3200 3 40 14:41 17.12.2021
4206 Snow -40 1011 67 3200 3 30 13:22 17.12.2021
4207 Snow -39 1011 67 3200 2 20 12:21 17.12.2021
4208 Snow -39 1011 67 3200 2 20 12:21 17.12.2021
4209 Snow -38 1011 67 3200 3 10 10:38 17.12.2021
4210 Snow -38 1011 67 3200 3 10 09:44 17.12.2021
4211 Mist -39 1011 74 3200 2 20 08:31 17.12.2021
4212 Mist -39 1011 74 3200 3 10 07:18 17.12.2021
4213 Snow -39 1011 67 2400 2 30 04:40 17.12.2021
4214 Snow -40 1012 74 3200 2 40 23:58 16.12.2021
4215 Mist -39 1012 67 3200 1 360 22:24 16.12.2021
4216 Snow -39 1012 67 3200 1 360 22:24 16.12.2021
4217 Snow -39 1012 67 3200 1 360 22:23 16.12.2021
4218 Mist -39 1012 67 3200 1 360 22:23 16.12.2021
4219 Snow -40 1012 74 3200 1 10 21:45 16.12.2021
4220 Snow -40 1012 67 3200 1 50 20:57 16.12.2021
4221 Mist -40 1012 67 2000 2 80 20:27 16.12.2021
4222 Fog -40 1013 67 650 1 70 19:33 16.12.2021
4223 Fog -41 1013 66 800 1 60 18:37 16.12.2021
4224 Fog -41 1013 66 600 0 0 17:49 16.12.2021
4225 Fog -42 1014 66 500 1 330 16:55 16.12.2021
4226 Mist -42 1014 66 1100 1 20 16:20 16.12.2021
4227 Fog -43 1015 66 300 1 70 14:32 16.12.2021
4228 Mist -42 1016 66 1400 1 40 12:34 16.12.2021
4229 Fog -42 1016 73 300 1 90 11:19 16.12.2021
4230 Fog -42 1016 73 300 1 90 11:19 16.12.2021
4231 Fog -41 1016 66 300 1 10 10:46 16.12.2021
4232 Fog -42 1017 66 400 0 0 09:52 16.12.2021
4233 Clouds -32 1020 100 1338 0.84 82 07:19 16.12.2021
4234 Clouds -31 1020 98 1680 0.47 69 06:19 16.12.2021
4235 Fog -41 1018 66 600 1 350 00:44 16.12.2021
4236 Fog -40 1018 67 500 1 360 23:21 15.12.2021
4237 Fog -40 1018 67 600 1 350 22:26 15.12.2021
4238 Mist -39 1018 67 5000 1 60 21:46 15.12.2021
4239 Mist -39 1018 67 5000 1 60 21:26 15.12.2021
4240 Snow -38 1018 67 5000 1 50 19:55 15.12.2021
4241 Snow -38 1018 67 10000 1 40 19:22 15.12.2021
4242 Snow -37 1018 67 5000 1 50 18:26 15.12.2021
4243 Snow -37 1018 67 5000 1 50 17:49 15.12.2021
4244 Snow -37 1018 67 10000 1 70 17:27 15.12.2021
4245 Snow -37 1018 67 10000 1 90 16:26 15.12.2021
4246 Snow -37 1018 67 5000 1 70 15:45 15.12.2021
4247 Snow -37 1018 67 5000 1 70 15:27 15.12.2021
4248 Snow -37 1018 74 5000 2 50 13:59 15.12.2021
4249 Snow -37 1018 74 10000 2 40 11:57 15.12.2021
4250 Snow -35 1018 61 10000 3 300 10:24 15.12.2021
4251 Snow -36 1018 68 10000 3 300 08:48 15.12.2021
4252 Snow -35 1017 61 10000 4 310 05:59 15.12.2021
4253 Mist -37 1017 67 3200 1 30 00:47 15.12.2021
4254 Snow -38 1017 74 1100 0 0 23:41 14.12.2021
4255 Snow -37 1016 67 1100 1 320 22:48 14.12.2021
4256 Mist -38 1016 67 5000 0 0 21:51 14.12.2021
4257 Mist -38 1016 67 5000 0 0 20:27 14.12.2021
4258 Mist -37 1016 67 5000 1 230 19:40 14.12.2021
4259 Mist -38 1016 67 5000 1 240 18:42 14.12.2021
4260 Clear -37 1016 67 10000 1 220 17:58 14.12.2021
4261 Clear -38 1016 67 10000 2 220 17:27 14.12.2021
4262 Clear -37 1016 67 10000 1 280 16:38 14.12.2021
4263 Clear -37 1016 67 10000 2 290 14:52 14.12.2021
4264 Clear -36 1016 66 10000 3.13 290 13:31 14.12.2021
4265 Clear -36 1017 66 10000 1.79 290 11:57 14.12.2021
4266 Clear -36 1016 66 10000 1.79 300 11:23 14.12.2021
4267 Clear -36 1016 66 10000 1.79 300 09:56 14.12.2021
4268 Clear -36 1016 66 10000 3.13 310 09:35 14.12.2021
4269 Clear -36 1015 66 10000 3.13 300 08:23 14.12.2021
4270 Clear -36 1015 73 10000 1.79 300 07:43 14.12.2021
4271 Clear -35 1014 66 10000 1.79 310 02:25 14.12.2021
4272 Clear -35 1014 75 10000 1 330 22:55 13.12.2021
4273 Clear -35 1013 75 10000 1 300 21:52 13.12.2021
4274 Clear -36 1013 75 10000 1 310 20:59 13.12.2021
4275 Mist -38 1013 67 5000 1 320 20:38 13.12.2021
4276 Mist -38 1013 67 5000 1 340 19:52 13.12.2021
4277 Mist -36 1013 75 5000 1 270 17:56 13.12.2021
4278 Clear -37 1013 67 10000 1 190 17:24 13.12.2021
4279 Snow -37 1013 67 10000 1 180 15:50 13.12.2021
4280 Snow -37 1013 74 10000 1 220 15:19 13.12.2021
4281 Snow -34 1013 68 5000 1 160 13:39 13.12.2021
4282 Snow -34 1013 67 5000 0.89 180 12:46 13.12.2021
4283 Snow -34 1013 74 5000 0.89 200 11:54 13.12.2021
4284 Mist -33 1013 74 5000 0.89 270 11:35 13.12.2021
4285 Mist -33 1014 67 5000 0.89 320 10:43 13.12.2021
4286 Mist -36 1014 68 3200 1 210 09:29 13.12.2021
4287 Mist -37 1014 74 3200 0 0 07:46 13.12.2021
4288 Mist -37 1014 74 5000 1 50 05:35 13.12.2021
4289 Mist -37 1016 74 3200 1 30 03:26 13.12.2021
4290 Mist -37 1018 67 2400 2 20 22:23 12.12.2021
4291 Mist -38 1019 74 2400 1 40 21:38 12.12.2021
4292 Mist -38 1020 67 2400 2 30 19:47 12.12.2021
4293 Fog -39 1021 67 500 1 360 18:36 12.12.2021
4294 Fog -39 1021 67 500 1 360 18:36 12.12.2021
4295 Fog -39 1022 67 500 2 360 17:31 12.12.2021
4296 Fog -40 1022 67 400 1 20 16:27 12.12.2021
4297 Fog -40 1023 67 400 2 20 15:45 12.12.2021
4298 Fog -40 1023 67 400 1 40 15:25 12.12.2021
4299 Fog -41 1024 66 400 1 360 14:34 12.12.2021
4300 Fog -41 1024 74 400 1 350 13:22 12.12.2021
4301 Fog -40 1025 65 400 0.89 20 12:30 12.12.2021
4302 Fog -40 1025 65 400 0.89 360 11:44 12.12.2021
4303 Fog -40 1025 67 400 1 30 11:20 12.12.2021
4304 Fog -40 1026 74 600 1 360 10:22 12.12.2021
4305 Fog -40 1026 74 600 1 360 08:58 12.12.2021
4306 Mist -38 1027 67 2000 1 30 07:32 12.12.2021
4307 Mist -36 1027 68 3200 1 160 05:57 12.12.2021
4308 Mist -38 1028 74 1300 1 240 04:56 12.12.2021
4309 Clouds -28 1030 100 2142 0.11 231 03:27 12.12.2021
4310 Clouds -28 1030 100 1554 0.57 112 23:39 11.12.2021
4311 Snow -37 1028 74 10000 0 0 22:22 11.12.2021
4312 Snow -36 1028 68 10000 1 350 21:51 11.12.2021
4313 Snow -36 1028 68 10000 1 330 20:51 11.12.2021
4314 Snow -36 1028 75 10000 0 0 19:23 11.12.2021
4315 Snow -36 1028 75 10000 0 0 18:52 11.12.2021
4316 Snow -35 1028 68 10000 0 0 18:21 11.12.2021
4317 Mist -35 1028 75 5000 1 260 17:21 11.12.2021
4318 Mist -36 1028 75 5000 1 270 15:53 11.12.2021
4319 Clear -35 1028 68 10000 1 320 15:27 11.12.2021
4320 Snow -33 1028 68 10000 2 340 12:57 11.12.2021
4321 Clear -34 1028 75 10000 2 320 11:25 11.12.2021
4322 Clear -33 1027 68 10000 2 340 09:46 11.12.2021
4323 Clear -33 1027 68 10000 1 340 08:23 11.12.2021
4324 Clear -31 1027 76 10000 2 10 02:23 11.12.2021
4325 Clear -31 1027 69 10000 1 10 00:36 11.12.2021
4326 Snow -31 1026 76 10000 2 360 23:21 10.12.2021
4327 Snow -31 1026 76 10000 2 20 21:56 10.12.2021
4328 Snow -31 1026 76 10000 2 20 21:28 10.12.2021
4329 Snow -32 1026 75 10000 2 360 19:21 10.12.2021
4330 Snow -31 1026 76 10000 2 350 18:19 10.12.2021
4331 Clear -32 1026 75 10000 1 10 16:56 10.12.2021
4332 Clear -32 1026 75 10000 2 360 16:28 10.12.2021
4333 Clouds -23 1028 100 1095 0.95 58 15:41 10.12.2021
4334 Clouds -23 1028 100 795 0.82 70 15:21 10.12.2021
4335 Clear -32 1025 75 10000 2 340 13:52 10.12.2021
4336 Clear -31 1025 69 10000 2 10 13:26 10.12.2021
4337 Snow -31 1025 76 10000 1 360 12:39 10.12.2021
4338 Snow -30 1025 69 5000 1 230 11:29 10.12.2021
4339 Snow -29 1025 76 3200 1 150 10:37 10.12.2021
4340 Clear -27 1024 75 10000 0.89 200 08:57 10.12.2021
4341 Snow -23 1023 84 5000 1 180 06:56 10.12.2021
4342 Clouds -25 1023 77 10000 2 300 02:48 10.12.2021
4343 Clouds -25 1023 77 10000 2 300 02:48 10.12.2021
4344 Snow -24 1023 77 10000 2 240 00:38 10.12.2021
4345 Clouds -26 1022 76 10000 1 240 23:22 09.12.2021
4346 Clear -26 1022 76 10000 2 240 22:28 09.12.2021
4347 Clear -25 1022 77 10000 1 230 21:59 09.12.2021
4348 Clear -25 1022 77 10000 3 210 21:19 09.12.2021
4349 Clear -26 1021 76 10000 2 230 20:28 09.12.2021
4350 Clear -26 1021 76 10000 3 200 19:22 09.12.2021
4351 Clear -27 1021 75 10000 1.79 160 18:49 09.12.2021
4352 Clear -26 1021 76 10000 2 220 17:57 09.12.2021
4353 Snow -25 1021 77 10000 2 190 17:27 09.12.2021
4354 Snow -25 1021 77 10000 2 200 16:56 09.12.2021
4355 Snow -26 1020 76 10000 2 200 15:57 09.12.2021
4356 Snow -27 1020 76 10000 2 200 14:50 09.12.2021
4357 Snow -27 1019 76 10000 2 230 13:39 09.12.2021
4358 Snow -27 1019 69 10000 2 240 12:47 09.12.2021
4359 Clouds -28 1018 68 10000 3.13 270 11:24 09.12.2021
4360 Snow -29 1017 68 10000 0.89 280 09:44 09.12.2021
4361 Snow -29 1015 68 10000 0.89 320 06:51 09.12.2021
4362 Clear -31 1013 74 10000 3.13 360 03:46 09.12.2021
4363 Snow -31 1013 74 10000 3.13 20 23:46 08.12.2021
4364 Clear -31 1013 74 10000 4.02 20 23:26 08.12.2021
4365 Clear -31 1013 74 10000 3.13 10 22:50 08.12.2021
4366 Clear -32 1013 74 10000 3.13 10 21:49 08.12.2021
4367 Snow -32 1013 74 10000 3.13 20 21:30 08.12.2021
4368 Snow -31 1013 67 10000 3.13 20 20:19 08.12.2021
4369 Snow -31 1013 67 10000 3.13 20 19:39 08.12.2021
4370 Snow -32 1014 74 10000 4.02 20 18:53 08.12.2021
4371 Snow -31 1014 67 10000 4.02 30 18:21 08.12.2021
4372 Clouds -31 1014 67 10000 4.02 40 15:59 08.12.2021
4373 Clouds -32 1014 74 10000 3.13 40 15:31 08.12.2021
4374 Clouds -31 1014 67 10000 1.79 40 14:52 08.12.2021
4375 Snow -31 1015 69 10000 3 40 13:21 08.12.2021
4376 Clouds -34 1015 74 10000 4.02 30 10:36 08.12.2021
4377 Clear -35 1015 66 10000 3.13 10 09:32 08.12.2021
4378 Mist -36 1014 68 5000 3 10 07:37 08.12.2021
4379 Mist -36 1015 66 3200 1.79 10 04:58 08.12.2021
4380 Fog -42 1016 72 800 0.89 30 23:56 07.12.2021
4381 Fog -43 1017 64 400 0.89 20 22:48 07.12.2021
4382 Fog -43 1017 64 200 0.89 10 21:24 07.12.2021
4383 Fog -43 1017 64 250 0.89 320 20:25 07.12.2021
4384 Fog -41 1017 65 300 0.89 340 18:57 07.12.2021
4385 Fog -41 1017 65 350 0 0 18:19 07.12.2021
4386 Fog -41 1017 65 350 0.89 320 17:20 07.12.2021
4387 Fog -40 1017 72 400 0.89 290 16:37 07.12.2021
4388 Fog -40 1016 65 450 0 0 15:59 07.12.2021
4389 Fog -40 1016 65 600 0 0 14:37 07.12.2021
4390 Fog -41 1016 65 300 0 0 13:29 07.12.2021
4391 Fog -42 1015 64 300 0 0 12:22 07.12.2021
4392 Mist -41 1015 72 1400 0.89 30 10:48 07.12.2021
4393 Mist -39 1014 65 5000 0.89 100 09:20 07.12.2021
4394 Clear -37 1012 73 10000 0.89 160 06:40 07.12.2021
4395 Clear -36 1012 68 10000 1 210 05:47 07.12.2021
4396 Clear -37 1010 67 10000 2 10 02:35 07.12.2021
4397 Snow -36 1010 75 5000 2 10 23:21 06.12.2021
4398 Snow -36 1010 75 5000 2 30 22:40 06.12.2021
4399 Snow -36 1010 75 5000 3 40 21:59 06.12.2021
4400 Snow -36 1010 75 5000 1 50 21:27 06.12.2021
4401 Snow -36 1011 75 10000 1 100 20:32 06.12.2021
4402 Snow -35 1012 66 5000 0 0 19:24 06.12.2021
4403 Snow -36 1013 75 10000 0 0 18:34 06.12.2021
4404 Snow -36 1013 75 10000 0 0 17:53 06.12.2021
4405 Snow -36 1013 68 10000 0 0 17:33 06.12.2021
4406 Mist -36 1013 75 5000 1 340 15:51 06.12.2021
4407 Mist -35 1013 68 5000 1 300 14:35 06.12.2021
4408 Mist -35 1013 75 5000 1 330 13:23 06.12.2021
4409 Snow -33 1013 68 5000 1 330 12:37 06.12.2021
4410 Clear -34 1013 75 10000 1 10 09:56 06.12.2021
4411 Snow -33 1012 74 10000 0.89 330 07:38 06.12.2021
4412 Mist -32 1010 75 5000 0 0 02:20 06.12.2021
4413 Clear -31 1008 76 10000 2 180 22:25 05.12.2021
4414 Clear -30 1008 76 10000 1 240 21:25 05.12.2021
4415 Clear -31 1008 76 10000 1 200 20:43 05.12.2021
4416 Clear -31 1007 76 10000 2 170 20:18 05.12.2021
4417 Clear -31 1006 76 10000 2 160 19:23 05.12.2021
4418 Clear -31 1005 76 10000 0 0 18:28 05.12.2021
4419 Clear -30 1005 69 10000 2 20 17:49 05.12.2021
4420 Clear -31 1004 69 10000 1 350 17:18 05.12.2021
4421 Clear -31 1003 69 10000 3 310 16:28 05.12.2021
4422 Clear -31 1003 69 10000 3 310 15:59 05.12.2021
4423 Snow -31 1002 69 10000 2 320 14:48 05.12.2021
4424 Clear -31 1002 76 10000 1 310 14:29 05.12.2021
4425 Clear -31 1000 76 10000 1 340 13:33 05.12.2021
4426 Clear -30 1000 69 10000 2 350 12:43 05.12.2021
4427 Clear -30 999 76 10000 2 20 12:25 05.12.2021
4428 Snow -30 999 76 10000 2 10 11:43 05.12.2021
4429 Snow -29 998 76 10000 2 10 10:25 05.12.2021
4430 Clear -29 998 69 10000 2 30 09:41 05.12.2021
4431 Snow -29 996 69 10000 2 40 05:30 05.12.2021
4432 Snow -30 996 75 10000 0.89 90 01:24 05.12.2021
4433 Snow -30 996 75 10000 1.79 70 22:45 04.12.2021
4434 Clear -31 996 74 10000 1.79 40 21:38 04.12.2021
4435 Clear -32 996 75 10000 2 30 20:47 04.12.2021
4436 Snow -30 996 69 5000 2 50 19:54 04.12.2021
4437 Snow -30 996 76 3200 2 50 19:30 04.12.2021
4438 Snow -30 996 76 3200 3 60 17:53 04.12.2021
4439 Snow -30 996 76 2400 3 70 17:35 04.12.2021
4440 Snow -30 996 69 2400 3 70 16:47 04.12.2021
4441 Snow -30 996 69 2400 3 70 16:28 04.12.2021
4442 Snow -32 999 68 10000 4 70 13:30 04.12.2021
4443 Snow -33 1001 68 10000 4 80 11:41 04.12.2021
4444 Clear -33 1001 68 10000 4 80 11:19 04.12.2021
4445 Clear -34 1003 75 10000 3 70 09:57 04.12.2021
4446 Clear -36 1004 68 10000 3 40 08:42 04.12.2021
4447 Mist -39 1007 67 1800 3 20 05:30 04.12.2021
4448 Mist -39 1008 67 1400 3 20 04:40 04.12.2021
4449 Fog -42 1012 64 750 3.13 10 23:49 03.12.2021
4450 Fog -42 1013 72 800 1.79 20 22:55 03.12.2021
4451 Fog -41 1013 65 750 1.79 20 21:58 03.12.2021
4452 Fog -41 1014 65 650 1.79 10 21:24 03.12.2021
4453 Fog -41 1014 72 550 1.79 10 20:43 03.12.2021
4454 Mist -38 1014 66 1500 0.89 350 19:36 03.12.2021
4455 Clear -38 1015 73 10000 0.89 360 18:26 03.12.2021
4456 Clear -37 1015 66 10000 2 250 17:42 03.12.2021
4457 Clear -34 1015 67 10000 3.13 270 13:48 03.12.2021
4458 Clear -34 1014 74 10000 1.79 220 12:52 03.12.2021
4459 Clear -33 1014 67 10000 1.79 240 11:24 03.12.2021
4460 Clear -32 1013 67 10000 3.13 270 09:55 03.12.2021
4461 Clear -32 1012 67 10000 0.89 300 08:23 03.12.2021
4462 Clear -31 1011 61 10000 3.13 300 07:37 03.12.2021
4463 Clear -31 1007 61 10000 4.02 310 01:56 03.12.2021
4464 Clear -31 1006 67 10000 4.02 310 00:47 03.12.2021
4465 Clear -31 1006 67 10000 4.02 310 23:44 02.12.2021
4466 Clouds -30 1004 68 10000 5.81 320 21:42 02.12.2021
4467 Clear -30 1004 68 10000 5.81 320 20:57 02.12.2021
4468 Clear -30 1004 68 10000 5.81 320 20:37 02.12.2021
4469 Clear -29 1004 68 10000 3.13 310 19:25 02.12.2021
4470 Clear -29 1003 68 10000 4.02 310 17:43 02.12.2021
4471 Clear -29 1003 68 10000 3.13 310 15:42 02.12.2021
4472 Clear -28 1004 68 10000 4.02 320 14:59 02.12.2021
4473 Clear -29 1004 68 10000 4.02 300 13:58 02.12.2021
4474 Clear -29 1005 68 10000 3.13 310 12:52 02.12.2021
4475 Clear -29 1005 68 10000 3.13 320 12:18 02.12.2021
4476 Clear -31 1006 74 10000 1.79 330 09:34 02.12.2021
4477 Clear -34 1007 75 10000 1 10 08:52 02.12.2021
4478 Clear -33 1009 75 10000 3 310 04:54 02.12.2021
4479 Mist -37 1011 73 5000 0.89 350 00:53 02.12.2021
4480 Mist -36 1011 66 5000 1.79 360 23:28 01.12.2021
4481 Clear -36 1011 68 10000 2 20 22:23 01.12.2021
4482 Clear -34 1011 67 10000 3.13 10 20:39 01.12.2021
4483 Clear -34 1011 68 10000 3 10 19:57 01.12.2021
4484 Clear -34 1012 68 10000 3 10 19:28 01.12.2021
4485 Clear -35 1012 75 10000 4 20 17:50 01.12.2021
4486 Clear -34 1012 68 10000 4 20 16:50 01.12.2021
4487 Clear -34 1013 68 10000 3 20 14:54 01.12.2021
4488 Clear -34 1013 75 10000 4 10 13:46 01.12.2021
4489 Clouds -24 1015 98 1086 2.99 61 12:51 01.12.2021
4490 Snow -33 1013 68 10000 4 20 10:43 01.12.2021
4491 Clouds -22 1015 98 820 3.21 78 09:25 01.12.2021
4492 Clouds -22 1015 98 820 3.21 78 08:30 01.12.2021
4493 Clouds -22 1015 98 877 3.22 77 07:34 01.12.2021
4494 Clouds -22 1015 98 1146 3.1 75 06:59 01.12.2021
4495 Clouds -22 1017 97 1064 1.69 78 03:47 01.12.2021
4496 Clouds -23 1018 99 888 1.22 75 01:59 01.12.2021
4497 Snow -33 1016 68 10000 2 360 23:55 30.11.2021
4498 Snow -33 1016 75 10000 2 10 23:26 30.11.2021
4499 Snow -33 1017 75 10000 2 360 21:40 30.11.2021
4500 Snow -33 1017 75 10000 1 10 20:46 30.11.2021
4501 Snow -33 1018 75 5000 1 360 20:19 30.11.2021
4502 Snow -33 1018 75 5000 1 50 19:38 30.11.2021
4503 Clouds -23 1020 100 1151 0.93 161 18:38 30.11.2021
4504 Clouds -23 1021 100 927 1.16 159 16:50 30.11.2021
4505 Clouds -23 1021 100 759 1.09 162 15:44 30.11.2021
4506 Clouds -23 1021 99 1189 1.19 171 14:23 30.11.2021
4507 Snow -33 1019 75 5000 0 0 13:28 30.11.2021
4508 Snow -33 1019 75 5000 0 0 12:52 30.11.2021
4509 Mist -33 1019 75 5000 1 350 11:50 30.11.2021
4510 Mist -33 1019 75 5000 1 360 11:25 30.11.2021
4511 Snow -33 1019 75 5000 1 10 10:34 30.11.2021
4512 Clear -33 1019 75 10000 1 10 08:53 30.11.2021
4513 Clear -33 1019 75 10000 1 20 08:31 30.11.2021
4514 Clear -33 1019 75 10000 1 20 07:48 30.11.2021
4515 Mist -30 1018 76 5000 0 0 04:59 30.11.2021
4516 Clouds -32 1018 75 10000 1 20 01:45 30.11.2021
4517 Clear -31 1018 76 10000 0 0 00:33 30.11.2021
4518 Clear -31 1018 76 10000 1 70 23:25 29.11.2021
4519 Clear -31 1017 76 10000 1 30 22:58 29.11.2021
4520 Clear -31 1017 76 10000 2 40 22:34 29.11.2021
4521 Clear -31 1017 76 10000 1 40 21:44 29.11.2021
4522 Clear -31 1017 76 10000 1 40 21:18 29.11.2021
4523 Clear -31 1017 76 10000 1 10 20:41 29.11.2021
4524 Clear -30 1017 69 10000 0 0 19:56 29.11.2021
4525 Clear -30 1017 76 10000 1 360 19:37 29.11.2021
4526 Snow -30 1017 76 10000 2 20 18:52 29.11.2021
4527 Clouds -23 1020 100 1856 0.58 273 18:26 29.11.2021
4528 Clouds -23 1020 100 1255 0.66 268 17:21 29.11.2021
4529 Clouds -23 1020 100 1255 0.66 268 16:32 29.11.2021
4530 Clouds -23 1020 99 808 0.74 281 15:52 29.11.2021
4531 Clouds -23 1020 99 1172 0.72 268 14:43 29.11.2021
4532 Clouds -23 1020 99 1273 0.75 258 13:47 29.11.2021
4533 Clouds -23 1021 99 1127 0.89 272 12:44 29.11.2021
4534 Clouds -25 1021 100 1405 0.95 275 11:43 29.11.2021
4535 Clouds -25 1021 100 1593 1.01 268 10:59 29.11.2021
4536 Snow -22 1018 77 10000 0 0 09:50 29.11.2021
4537 Clear -22 1018 84 10000 1 110 06:22 29.11.2021
4538 Clouds -20 1018 77 10000 0 0 04:53 29.11.2021
4539 Clouds -20 1019 77 10000 2 270 00:44 29.11.2021
4540 Clouds -20 1020 77 10000 2 240 23:45 28.11.2021
4541 Clouds -20 1020 77 10000 2 260 23:25 28.11.2021
4542 Clouds -19 1020 78 10000 3 260 21:53 28.11.2021
4543 Snow -20 1020 84 10000 2 240 21:26 28.11.2021
4544 Snow -20 1020 77 10000 2 260 20:35 28.11.2021
4545 Snow -21 1021 77 10000 2 240 19:29 28.11.2021
4546 Snow -22 1021 77 10000 2 260 18:38 28.11.2021
4547 Snow -22 1021 77 10000 3 270 17:56 28.11.2021
4548 Snow -22 1021 77 10000 3 250 17:32 28.11.2021
4549 Snow -22 1021 77 10000 3 240 16:44 28.11.2021
4550 Snow -22 1021 77 10000 2 240 16:22 28.11.2021
4551 Snow -21 1021 84 10000 2 220 15:43 28.11.2021
4552 Snow -21 1021 77 10000 2 220 14:49 28.11.2021
4553 Clear -23 1022 77 10000 2 240 13:49 28.11.2021
4554 Clear -23 1022 84 10000 1 90 12:54 28.11.2021
4555 Clear -23 1022 77 10000 1 130 11:19 28.11.2021
4556 Clear -21 1022 77 10000 1 280 10:22 28.11.2021
4557 Clear -20 1022 71 10000 2 270 09:40 28.11.2021
4558 Clear -19 1022 78 10000 2 290 08:20 28.11.2021
4559 Clear -17 1022 78 10000 4 250 00:40 28.11.2021
4560 Clear -16 1021 78 10000 3 300 21:45 27.11.2021
4561 Clear -16 1021 72 10000 2 290 19:50 27.11.2021
4562 Snow -16 1020 72 10000 3 290 18:20 27.11.2021
4563 Clouds -14 1018 66 10000 7 300 15:59 27.11.2021
4564 Clouds -13 1017 66 10000 4 280 14:35 27.11.2021
4565 Clouds -13 1016 72 10000 5 290 13:20 27.11.2021
4566 Clear -18 1014 85 10000 2 240 10:57 27.11.2021
4567 Clear -21 1014 84 10000 2 230 09:54 27.11.2021
4568 Clear -19 1013 84 10000 2 200 08:45 27.11.2021
4569 Clear -18 1011 78 10000 2 190 06:35 27.11.2021
4570 Snow -20 1009 77 3200 1 330 03:52 27.11.2021
4571 Clear -22 1009 77 10000 2 60 00:19 27.11.2021
4572 Clear -26 1011 76 10000 2 30 22:41 26.11.2021
4573 Clear -26 1011 76 10000 2 30 22:19 26.11.2021
4574 Clear -27 1012 76 10000 2 10 21:22 26.11.2021
4575 Clear -27 1013 76 10000 2 50 20:40 26.11.2021
4576 Clear -26 1014 76 10000 3 50 19:55 26.11.2021
4577 Clear -25 1015 77 10000 2 60 18:45 26.11.2021
4578 Snow -25 1016 84 10000 2 20 17:27 26.11.2021
4579 Snow -25 1016 77 10000 2 20 16:50 26.11.2021
4580 Snow -27 1017 76 10000 2 30 14:57 26.11.2021
4581 Clear -29 1018 76 10000 2 20 13:35 26.11.2021
4582 Clear -28 1019 76 10000 1 40 10:44 26.11.2021
4583 Clear -29 1020 76 10000 1 350 09:53 26.11.2021
4584 Clear -28 1020 76 10000 1 20 08:50 26.11.2021
4585 Clear -28 1020 83 10000 1 20 08:20 26.11.2021
4586 Clear -26 1020 76 10000 1 20 06:37 26.11.2021
4587 Clear -26 1020 76 10000 1 20 06:37 26.11.2021
4588 Clear -26 1020 76 10000 1 20 06:19 26.11.2021
4589 Clouds -26 1020 76 10000 2 360 03:41 26.11.2021
4590 Clouds -25 1021 70 10000 2 20 00:47 26.11.2021
4591 Snow -26 1021 76 10000 2 40 22:36 25.11.2021
4592 Snow -26 1022 76 10000 2 10 20:53 25.11.2021
4593 Snow -26 1022 76 10000 2 30 19:35 25.11.2021
4594 Clouds -26 1022 76 10000 2 30 18:35 25.11.2021
4595 Clouds -27 1022 76 10000 1 30 17:28 25.11.2021
4596 Clouds -28 1022 76 10000 2 30 16:56 25.11.2021
4597 Clouds -28 1023 76 10000 2 30 16:25 25.11.2021
4598 Snow -29 1023 76 10000 2 30 14:52 25.11.2021
4599 Snow -30 1024 76 10000 2 20 13:21 25.11.2021
4600 Clouds -31 1024 76 10000 2 40 12:19 25.11.2021
4601 Clear -33 1025 68 10000 1 30 10:50 25.11.2021
4602 Clear -33 1025 75 10000 1 360 08:30 25.11.2021
4603 Clear -31 1026 76 10000 1 170 03:42 25.11.2021
4604 Clear -32 1026 75 10000 0 0 02:44 25.11.2021
4605 Clear -33 1027 68 10000 1 350 22:43 24.11.2021
4606 Clear -33 1027 75 10000 2 330 22:20 24.11.2021
4607 Clear -33 1027 68 10000 1 280 21:26 24.11.2021
4608 Clear -33 1028 68 10000 1 290 20:28 24.11.2021
4609 Clear -33 1028 75 10000 1 310 19:46 24.11.2021
4610 Clear -32 1028 68 10000 1 320 18:30 24.11.2021
4611 Clear -31 1028 76 10000 1 330 16:53 24.11.2021
4612 Clear -30 1029 69 10000 1 330 15:22 24.11.2021
4613 Clear -30 1029 76 10000 2 330 14:42 24.11.2021
4614 Clear -30 1029 76 10000 2 330 14:19 24.11.2021
4615 Clear -29 1030 69 10000 1 330 11:50 24.11.2021
4616 Clear -28 1030 76 10000 2 350 11:20 24.11.2021
4617 Clear -28 1030 76 10000 1 310 10:39 24.11.2021
4618 Clear -28 1030 76 10000 0 0 09:40 24.11.2021
4619 Clear -28 1030 76 10000 1 260 07:43 24.11.2021
4620 Clear -27 1030 69 10000 1 20 06:51 24.11.2021
4621 Clear -26 1030 70 10000 2 320 03:50 24.11.2021
4622 Clear -27 1031 76 10000 1 310 23:44 23.11.2021
4623 Snow -26 1031 70 10000 2 350 22:39 23.11.2021
4624 Snow -26 1031 76 10000 1 360 21:46 23.11.2021
4625 Clear -26 1031 76 10000 1 10 20:48 23.11.2021
4626 Clear -26 1032 70 10000 0 0 19:37 23.11.2021
4627 Clear -27 1032 76 10000 0 0 18:39 23.11.2021
4628 Clear -27 1032 76 10000 0 0 17:57 23.11.2021
4629 Clear -27 1033 69 10000 0 0 16:55 23.11.2021
4630 Clear -28 1033 76 10000 0 0 15:57 23.11.2021
4631 Clear -28 1033 76 10000 1 190 15:19 23.11.2021
4632 Clear -29 1034 76 10000 0 0 13:46 23.11.2021
4633 Clear -31 1034 76 10000 1 40 11:40 23.11.2021
4634 Clear -32 1034 68 10000 0 0 09:59 23.11.2021
4635 Clear -33 1034 75 10000 0 0 08:44 23.11.2021
4636 Mist -34 1035 75 5000 0 0 05:57 23.11.2021
4637 Mist -36 1035 75 5000 1 20 03:42 23.11.2021
4638 Fog -37 1036 67 1600 1 360 00:54 23.11.2021
4639 Fog -38 1037 67 800 1 10 23:20 22.11.2021
4640 Fog -38 1037 67 1400 1 30 22:32 22.11.2021
4641 Fog -39 1037 74 1400 1 360 21:48 22.11.2021
4642 Fog -39 1037 67 900 1 340 21:29 22.11.2021
4643 Fog -39 1037 67 900 1 360 20:50 22.11.2021
4644 Fog -39 1037 67 900 2 360 19:31 22.11.2021
4645 Fog -39 1037 67 650 1 360 18:58 22.11.2021
4646 Fog -39 1037 67 800 2 360 18:35 22.11.2021
4647 Fog -39 1037 67 900 2 10 17:18 22.11.2021
4648 Fog -39 1038 74 900 2 360 15:43 22.11.2021
4649 Mist -38 1038 67 2400 2 360 13:57 22.11.2021
4650 Mist -37 1038 67 5000 2 360 11:41 22.11.2021
4651 Mist -37 1038 67 5000 2 360 10:38 22.11.2021
4652 Clouds -35 1040 100 10000 1.53 3 09:24 22.11.2021
4653 Mist -37 1038 67 5000 1 360 08:36 22.11.2021
4654 Fog -38 1038 74 900 1 30 04:33 22.11.2021
4655 Fog -40 1038 74 900 1 350 23:24 21.11.2021
4656 Fog -40 1038 74 900 1 360 22:48 21.11.2021
4657 Fog -39 1037 67 700 2 320 21:48 21.11.2021
4658 Fog -39 1038 67 800 2 350 20:41 21.11.2021
4659 Mist -39 1038 67 1100 1 360 19:46 21.11.2021
4660 Mist -38 1038 67 1100 1 330 18:18 21.11.2021
4661 Clear -37 1038 67 10000 1 330 17:38 21.11.2021
4662 Clear -37 1038 74 10000 1 340 15:28 21.11.2021
4663 Clear -36 1038 75 10000 1 350 14:45 21.11.2021
4664 Snow -35 1038 68 10000 1 350 13:46 21.11.2021
4665 Snow -35 1038 75 10000 1 320 12:35 21.11.2021
4666 Snow -35 1038 68 10000 1 340 11:42 21.11.2021
4667 Snow -35 1038 68 10000 1 340 11:23 21.11.2021
4668 Clear -35 1038 75 10000 1 30 10:18 21.11.2021
4669 Clear -33 1038 75 10000 1 130 08:42 21.11.2021
4670 Clear -33 1038 75 10000 1 130 08:23 21.11.2021
4671 Clear -33 1038 68 10000 1 190 07:47 21.11.2021
4672 Clear -31 1038 69 10000 1 190 05:53 21.11.2021
4673 Clear -31 1038 69 10000 0 0 05:25 21.11.2021
4674 Clear -34 1038 68 10000 0 0 03:19 21.11.2021
4675 Clear -35 1038 68 10000 1 320 02:51 21.11.2021
4676 Clear -37 1038 74 10000 1 330 00:59 21.11.2021
4677 Clear -35 1038 68 10000 1 290 23:47 20.11.2021
4678 Clear -36 1038 75 10000 2 330 21:41 20.11.2021
4679 Clear -36 1038 75 10000 2 330 21:23 20.11.2021
4680 Clear -34 1038 68 10000 2 300 18:46 20.11.2021
4681 Clear -34 1038 68 10000 1 320 18:26 20.11.2021
4682 Clear -34 1037 75 10000 1 330 17:57 20.11.2021
4683 Clear -34 1037 75 10000 1 290 16:57 20.11.2021
4684 Clear -35 1037 75 10000 1 310 14:47 20.11.2021
4685 Clear -35 1037 75 10000 1 320 14:25 20.11.2021
4686 Clear -34 1037 75 10000 2 310 12:23 20.11.2021
4687 Clear -34 1037 75 10000 1 320 10:52 20.11.2021
4688 Clear -33 1036 68 10000 1 310 09:51 20.11.2021
4689 Clear -31 1036 69 10000 1 60 07:37 20.11.2021
4690 Clear -30 1035 69 10000 0 0 05:28 20.11.2021
4691 Clear -30 1035 76 10000 0 0 04:50 20.11.2021
4692 Snow -33 1035 75 5000 1 10 01:58 20.11.2021
4693 Snow -32 1034 75 5000 1 310 00:40 20.11.2021
4694 Snow -32 1034 75 10000 1 350 23:43 19.11.2021
4695 Snow -32 1034 68 10000 1 30 22:39 19.11.2021
4696 Snow -33 1033 68 10000 1 350 20:59 19.11.2021
4697 Snow -33 1033 75 10000 1 350 20:37 19.11.2021
4698 Snow -33 1033 75 10000 1 350 19:56 19.11.2021
4699 Snow -33 1032 75 10000 2 360 18:55 19.11.2021
4700 Snow -33 1032 75 10000 1 350 18:24 19.11.2021
4701 Clear -33 1032 75 10000 1 340 17:36 19.11.2021
4702 Clear -33 1032 68 10000 1 350 15:58 19.11.2021
4703 Snow -33 1031 68 10000 2 350 13:56 19.11.2021
4704 Clouds -33 1030 75 10000 2 350 10:30 19.11.2021
4705 Clouds -32 1030 75 10000 1 340 09:48 19.11.2021
4706 Clouds -32 1029 75 10000 2 10 08:26 19.11.2021
4707 Clear -30 1027 76 10000 1 50 04:54 19.11.2021
4708 Snow -30 1027 76 5000 1 30 02:43 19.11.2021
4709 Snow -28 1026 76 10000 2 40 23:52 18.11.2021
4710 Snow -27 1025 76 10000 1 60 22:35 18.11.2021
4711 Snow -27 1025 76 10000 1 60 20:56 18.11.2021
4712 Snow -27 1025 76 10000 1 70 20:32 18.11.2021
4713 Snow -27 1025 76 10000 2 90 19:58 18.11.2021
4714 Snow -27 1025 76 10000 1 50 19:35 18.11.2021
4715 Snow -28 1024 76 5000 1 30 18:34 18.11.2021
4716 Snow -28 1024 76 5000 1 10 17:51 18.11.2021
4717 Snow -29 1024 76 5000 1 30 16:45 18.11.2021
4718 Snow -30 1024 76 10000 1 10 15:51 18.11.2021
4719 Clear -31 1023 76 10000 1 360 14:18 18.11.2021
4720 Clouds -30 1023 76 10000 1 350 12:34 18.11.2021
4721 Snow -31 1022 76 10000 1 350 11:43 18.11.2021
4722 Clouds -30 1022 76 10000 0 0 11:25 18.11.2021
4723 Clouds -30 1022 76 10000 1 40 10:19 18.11.2021
4724 Mist -27 1021 76 5000 2 20 07:39 18.11.2021
4725 Clear -26 1021 76 10000 2 170 06:20 18.11.2021
4726 Mist -25 1020 77 5000 1 200 05:40 18.11.2021
4727 Clouds -27 1020 76 10000 1 300 01:25 18.11.2021
4728 Clear -29 1020 76 10000 1 260 23:27 17.11.2021
4729 Snow -29 1020 76 10000 1 250 22:39 17.11.2021
4730 Snow -30 1020 76 10000 1 260 21:55 17.11.2021
4731 Snow -31 1020 76 10000 1 250 21:35 17.11.2021
4732 Clear -32 1020 75 10000 1 340 19:30 17.11.2021
4733 Snow -28 1020 76 10000 1 160 17:31 17.11.2021
4734 Snow -28 1019 76 10000 0 0 15:54 17.11.2021
4735 Clear -31 1019 76 10000 1 340 12:56 17.11.2021
4736 Clear -31 1019 76 10000 1 360 12:36 17.11.2021
4737 Clear -32 1019 75 10000 1 320 10:52 17.11.2021
4738 Clear -31 1018 76 10000 1 240 09:37 17.11.2021
4739 Clear -29 1018 76 10000 0 0 07:46 17.11.2021
4740 Clear -27 1018 69 10000 1 110 06:53 17.11.2021
4741 Clear -31 1018 76 10000 1 340 02:47 17.11.2021
4742 Clear -32 1018 68 10000 1 340 23:58 16.11.2021
4743 Clear -32 1017 75 10000 2 330 22:25 16.11.2021
4744 Clear -30 1017 76 10000 2 340 20:19 16.11.2021
4745 Clear -30 1017 76 10000 2 350 19:39 16.11.2021
4746 Clear -29 1017 76 10000 1 360 18:43 16.11.2021
4747 Clouds -27 1016 76 10000 1 360 17:56 16.11.2021
4748 Clouds -27 1016 76 10000 2 360 17:18 16.11.2021
4749 Snow -26 1016 76 10000 1 20 16:20 16.11.2021
4750 Snow -26 1016 76 10000 2 20 15:43 16.11.2021
4751 Snow -25 1016 77 10000 2 50 13:46 16.11.2021
4752 Clouds -26 1015 76 10000 2 40 10:27 16.11.2021
4753 Clear -26 1015 76 10000 1 60 09:41 16.11.2021
4754 Snow -26 1014 76 10000 1 30 07:53 16.11.2021
4755 Clouds -26 1014 76 10000 1 30 07:28 16.11.2021
4756 Clear -31 1014 76 10000 1 330 23:53 15.11.2021
4757 Clear -33 1014 68 10000 1 310 22:41 15.11.2021
4758 Clear -33 1014 68 10000 1 310 22:20 15.11.2021
4759 Clear -33 1014 68 10000 2 330 21:32 15.11.2021
4760 Clear -33 1014 68 10000 2 330 20:59 15.11.2021
4761 Clear -33 1014 75 10000 2 330 19:26 15.11.2021
4762 Clear -32 1014 68 10000 1 320 17:35 15.11.2021
4763 Clear -31 1014 76 10000 1 330 15:55 15.11.2021
4764 Clear -31 1014 69 10000 1 340 15:36 15.11.2021
4765 Clear -31 1014 76 10000 1 340 14:39 15.11.2021
4766 Clear -29 1014 76 10000 2 360 12:39 15.11.2021
4767 Clear -28 1014 76 10000 2 350 10:33 15.11.2021
4768 Clear -27 1014 76 10000 2 10 09:23 15.11.2021
4769 Clear -25 1014 70 10000 1 360 07:23 15.11.2021
4770 Mist -26 1015 76 5000 1 20 02:34 15.11.2021
4771 Snow -26 1016 76 10000 0 0 22:45 14.11.2021
4772 Snow -27 1016 76 10000 0 0 22:27 14.11.2021
4773 Clear -30 1016 76 10000 1 310 19:36 14.11.2021
4774 Clear -30 1016 76 10000 1 310 19:18 14.11.2021
4775 Clear -31 1016 76 10000 1 310 18:54 14.11.2021
4776 Clear -31 1016 76 10000 2 300 18:36 14.11.2021
4777 Clear -31 1016 76 10000 2 300 18:18 14.11.2021
4778 Clear -31 1016 76 10000 2 320 17:54 14.11.2021
4779 Clear -30 1016 76 10000 2 320 17:36 14.11.2021
4780 Clear -30 1016 76 10000 2 320 17:18 14.11.2021
4781 Snow -29 1016 76 10000 1 330 16:42 14.11.2021
4782 Snow -29 1016 76 10000 1 330 16:19 14.11.2021
4783 Clear -30 1016 76 10000 1 300 15:21 14.11.2021
4784 Clear -30 1016 76 10000 1 290 14:45 14.11.2021
4785 Clear -30 1016 76 10000 0 0 14:22 14.11.2021
4786 Clear -30 1016 76 10000 1 320 13:52 14.11.2021
4787 Clear -29 1016 76 10000 1 310 13:28 14.11.2021
4788 Clear -28 1016 76 10000 1 300 12:23 14.11.2021
4789 Clear -27 1016 76 10000 2 240 11:34 14.11.2021
4790 Clear -27 1015 76 10000 2 250 10:40 14.11.2021
4791 Clear -25 1015 77 10000 3 250 09:42 14.11.2021
4792 Clear -26 1015 76 10000 2 240 08:52 14.11.2021
4793 Clear -24 1014 70 10000 3 270 06:51 14.11.2021
4794 Clear -28 1013 76 10000 2 250 23:27 13.11.2021
4795 Clear -29 1013 76 10000 0 0 22:21 13.11.2021
4796 Clear -28 1013 76 10000 2 230 21:49 13.11.2021
4797 Clear -27 1012 76 10000 2 230 20:59 13.11.2021
4798 Clear -29 1012 69 10000 2 280 19:33 13.11.2021
4799 Clear -30 1012 69 10000 2 280 18:33 13.11.2021
4800 Clear -31 1011 76 10000 2 290 17:46 13.11.2021
4801 Clear -30 1011 76 10000 2 290 16:30 13.11.2021
4802 Clear -30 1011 76 10000 2 280 14:55 13.11.2021
4803 Clear -29 1011 76 10000 2 280 14:18 13.11.2021
4804 Clear -29 1010 76 10000 1 320 12:52 13.11.2021
4805 Clear -29 1010 76 10000 1 320 11:58 13.11.2021
4806 Clear -28 1010 76 10000 1 300 11:26 13.11.2021
4807 Clear -27 1009 76 10000 1 290 10:43 13.11.2021
4808 Clear -25 1009 77 10000 2 280 09:50 13.11.2021
4809 Clear -27 1008 83 10000 1 270 09:32 13.11.2021
4810 Clear -25 1008 77 10000 1 290 08:56 13.11.2021
4811 Clear -23 1008 77 10000 1 290 08:20 13.11.2021
4812 Clear -21 1006 77 10000 2 310 04:43 13.11.2021
4813 Clear -21 1006 77 10000 0 0 04:23 13.11.2021
4814 Clear -24 1004 77 10000 2 320 00:38 13.11.2021
4815 Clear -24 1004 84 10000 2 320 22:44 12.11.2021
4816 Clear -23 1003 77 10000 3 320 21:32 12.11.2021
4817 Clear -23 1003 84 10000 2 320 19:45 12.11.2021
4818 Clear -23 1002 84 10000 2 330 19:27 12.11.2021
4819 Clear -23 1002 84 10000 2 320 18:21 12.11.2021
4820 Clear -24 1001 77 10000 2 320 16:23 12.11.2021
4821 Clear -26 1001 84 10000 1 300 15:32 12.11.2021
4822 Clear -27 1001 76 10000 1 300 11:33 12.11.2021
4823 Clear -26 1001 76 10000 1 320 10:50 12.11.2021
4824 Clear -27 1001 76 10000 0 0 09:37 12.11.2021
4825 Clear -26 1001 76 10000 1 210 08:38 12.11.2021
4826 Mist -27 1002 76 1700 1 320 02:28 12.11.2021
4827 Snow -26 1002 76 5000 1 340 23:41 11.11.2021
4828 Snow -26 1003 76 5000 1 350 22:30 11.11.2021
4829 Mist -26 1003 76 5000 1 320 21:27 11.11.2021
4830 Snow -25 1003 77 3200 1 310 20:40 11.11.2021
4831 Fog -25 1004 77 800 1 310 18:56 11.11.2021
4832 Fog -25 1005 77 250 1 330 17:43 11.11.2021
4833 Fog -27 1005 76 900 1 330 16:54 11.11.2021
4834 Fog -24 1006 77 150 2 310 14:51 11.11.2021
4835 Mist -23 1007 84 5000 1 280 14:28 11.11.2021
4836 Clear -25 1007 84 10000 0 0 13:39 11.11.2021
4837 Clear -23 1007 77 10000 2 320 12:48 11.11.2021
4838 Clear -21 1010 77 10000 2 320 10:44 11.11.2021
4839 Clear -19 1011 84 10000 2 280 09:36 11.11.2021
4840 Clear -15 1011 78 10000 2 290 07:59 11.11.2021
4841 Clear -14 1014 78 10000 1 230 04:45 11.11.2021
4842 Clear -17 1017 85 10000 1 290 23:45 10.11.2021
4843 Clear -15 1017 85 10000 2 320 22:24 10.11.2021
4844 Clear -14 1017 85 10000 3 330 21:31 10.11.2021
4845 Clear -13 1018 85 10000 3 330 20:47 10.11.2021
4846 Clear -12 1018 85 10000 6 320 19:47 10.11.2021
4847 Clouds -12 1017 85 10000 5 320 19:27 10.11.2021
4848 Snow -7 1017 79 10000 5 320 16:38 10.11.2021
4849 Snow -6 1016 79 10000 5 310 15:44 10.11.2021
4850 Snow -3 1015 80 10000 5 340 13:52 10.11.2021
4851 Snow -3 1015 86 10000 4 340 13:26 10.11.2021
4852 Snow -2 1014 93 10000 1 220 11:36 10.11.2021
4853 Clouds -2 1012 86 10000 2 210 08:51 10.11.2021
4854 Clouds -2 1012 86 10000 2 220 08:33 10.11.2021
4855 Clouds -2 1011 86 10000 2 220 06:40 10.11.2021
4856 Clouds -2 1011 86 10000 3 210 05:51 10.11.2021
4857 Clouds -3 1008 86 10000 3 220 01:24 10.11.2021
4858 Snow -3 1006 86 10000 4 190 21:55 09.11.2021
4859 Snow -3 1006 93 10000 3 200 20:32 09.11.2021
4860 Snow -3 1006 93 10000 3 200 20:32 09.11.2021
4861 Snow -3 1006 93 10000 3 190 19:26 09.11.2021
4862 Snow -3 1006 93 10000 3 200 18:38 09.11.2021
4863 Snow -3 1006 93 2400 4 190 16:26 09.11.2021
4864 Snow -3 1006 93 2400 3 180 14:58 09.11.2021
4865 Snow -3 1007 93 2400 3 190 13:21 09.11.2021
4866 Snow -3 1007 93 2400 4 190 11:59 09.11.2021
4867 Snow -3 1007 93 3200 3 190 10:46 09.11.2021
4868 Snow -3 1007 86 3200 3 180 09:42 09.11.2021
4869 Snow -7 1007 86 10000 0 0 08:37 09.11.2021
4870 Snow -9 1008 86 5000 1 10 05:58 09.11.2021
4871 Snow -10 1009 85 5000 2 20 02:28 09.11.2021
4872 Snow -11 1009 85 10000 2 10 01:48 09.11.2021
4873 Snow -11 1009 85 10000 2 360 00:19 09.11.2021
4874 Snow -11 1009 85 10000 2 360 23:20 08.11.2021
4875 Snow -11 1009 85 10000 2 360 22:32 08.11.2021
4876 Snow -11 1009 85 10000 2 360 21:20 08.11.2021
4877 Snow -11 1009 92 10000 2 360 19:56 08.11.2021
4878 Snow -11 1009 92 10000 2 360 18:57 08.11.2021
4879 Snow -10 1009 92 3200 1 10 17:23 08.11.2021
4880 Snow -8 1010 86 2400 2 150 15:31 08.11.2021
4881 Snow -8 1010 86 10000 2 170 14:53 08.11.2021
4882 Snow -9 1010 92 3200 2 160 13:56 08.11.2021
4883 Snow -9 1010 86 3200 2 160 12:44 08.11.2021
4884 Clear -9 1010 86 10000 2 140 11:28 08.11.2021
4885 Clear -9 1010 86 10000 3 150 10:00 08.11.2021
4886 Clear -9 1010 86 10000 3 150 08:56 08.11.2021
4887 Clouds -8 1010 79 10000 4 180 07:38 08.11.2021
4888 Clouds -8 1011 79 10000 3 180 06:50 08.11.2021
4889 Clouds -11 1012 92 10000 2 200 03:34 08.11.2021
4890 Clouds -14 1014 85 10000 1 200 23:51 07.11.2021
4891 Snow -15 1014 85 10000 1 200 22:30 07.11.2021
4892 Snow -15 1015 85 10000 1 210 21:22 07.11.2021
4893 Snow -17 1016 78 3200 0 0 19:55 07.11.2021
4894 Snow -19 1016 84 3200 0 0 18:26 07.11.2021
4895 Snow -20 1017 84 5000 0 0 17:38 07.11.2021
4896 Mist -22 1017 84 2000 1 340 15:55 07.11.2021
4897 Fog -22 1017 84 300 1 360 14:42 07.11.2021
4898 Fog -21 1017 84 300 1 340 13:55 07.11.2021
4899 Clear -21 1017 84 10000 1 40 11:54 07.11.2021
4900 Snow -19 1017 84 10000 1 230 10:22 07.11.2021
4901 Snow -14 1017 85 10000 1 270 08:48 07.11.2021
4902 Clear -19 1016 78 10000 1 320 02:49 07.11.2021
4903 Snow -22 1015 84 10000 1 340 23:42 06.11.2021
4904 Snow -20 1015 84 10000 0 0 22:52 06.11.2021
4905 Snow -20 1015 84 10000 1 250 21:43 06.11.2021
4906 Clear -22 1015 77 10000 1 240 20:52 06.11.2021
4907 Clear -22 1014 84 10000 2 320 19:39 06.11.2021
4908 Clear -21 1014 84 10000 2 310 17:25 06.11.2021
4909 Clear -20 1013 84 10000 2 320 15:46 06.11.2021
4910 Snow -18 1012 92 10000 1 330 13:39 06.11.2021
4911 Snow -18 1012 92 10000 1 330 13:39 06.11.2021
4912 Clouds -17 1011 85 10000 2 240 12:38 06.11.2021
4913 Snow -15 1010 85 10000 3 210 09:49 06.11.2021
4914 Clouds -15 1010 78 10000 3 210 08:33 06.11.2021
4915 Clear -16 1010 78 10000 4 210 03:22 06.11.2021
4916 Clouds -18 1011 78 10000 4 210 23:40 05.11.2021
4917 Clouds -18 1011 78 10000 4 210 22:52 05.11.2021
4918 Snow -17 1011 71 10000 4 220 21:55 05.11.2021
4919 Snow -16 1012 72 5000 4 230 20:21 05.11.2021
4920 Snow -16 1012 72 5000 4 230 19:50 05.11.2021
4921 Snow -16 1011 78 5000 4 250 18:42 05.11.2021
4922 Snow -16 1011 78 3200 4 260 17:42 05.11.2021
4923 Snow -16 1011 78 3200 4 260 16:35 05.11.2021
4924 Snow -16 1011 72 10000 5 280 14:18 05.11.2021
4925 Clouds -15 1011 72 10000 6 280 11:45 05.11.2021
4926 Snow -15 1010 78 5000 4 280 09:22 05.11.2021
4927 Snow -15 1009 78 5000 5 290 07:46 05.11.2021
4928 Snow -11 1007 92 2100 6 300 05:36 05.11.2021
4929 Clouds -10 1006 85 10000 1 350 02:28 05.11.2021
4930 Clouds -11 1006 92 10000 1 360 01:59 05.11.2021
4931 Clear -13 1007 85 10000 1 10 23:45 04.11.2021
4932 Mist -13 1008 85 3200 1 360 22:21 04.11.2021
4933 Mist -13 1008 92 3200 1 360 21:54 04.11.2021
4934 Mist -13 1008 85 3200 1 340 21:22 04.11.2021
4935 Clear -13 1009 85 10000 1 10 20:25 04.11.2021
4936 Clear -13 1009 85 10000 1 360 19:49 04.11.2021
4937 Clear -13 1009 85 10000 1 20 19:22 04.11.2021
4938 Mist -13 1010 92 5000 1 360 18:22 04.11.2021
4939 Mist -12 1011 92 5000 2 10 17:26 04.11.2021
4940 Mist -11 1012 85 3200 1 10 15:36 04.11.2021
4941 Mist -11 1012 92 3200 2 360 13:45 04.11.2021
4942 Mist -12 1013 92 3200 1 360 10:22 04.11.2021
4943 Clear -10 1013 92 10000 1 150 08:31 04.11.2021
4944 Clear -6 1012 86 10000 1 200 07:36 04.11.2021
4945 Clear -5 1012 80 10000 2 200 06:40 04.11.2021
4946 Clouds -10 1010 92 10000 1 320 22:59 03.11.2021
4947 Clouds -10 1010 92 10000 1 330 22:19 03.11.2021
4948 Clouds -9 1009 92 10000 1 360 21:36 03.11.2021
4949 Snow -7 1010 86 10000 1 20 20:39 03.11.2021
4950 Snow -7 1010 86 10000 1 20 20:21 03.11.2021
4951 Snow -7 1010 86 10000 2 360 19:28 03.11.2021
4952 Snow -8 1010 86 10000 2 20 18:26 03.11.2021
4953 Snow -9 1011 92 10000 2 10 17:41 03.11.2021
4954 Clouds -9 1011 86 10000 2 10 16:46 03.11.2021
4955 Clouds -10 1011 85 10000 2 40 15:49 03.11.2021
4956 Clouds -11 1011 85 10000 2 10 15:29 03.11.2021
4957 Clouds -11 1012 79 10000 1 360 13:18 03.11.2021
4958 Clear -11 1012 85 10000 2 10 11:34 03.11.2021
4959 Clear -12 1012 85 10000 1 360 10:50 03.11.2021
4960 Clear -9 1011 67 10000 2 60 09:40 03.11.2021
4961 Clouds -9 1011 73 10000 1 80 08:49 03.11.2021
4962 Clouds -7 1011 73 10000 2 40 07:40 03.11.2021
4963 Clouds -4 1011 63 10000 0 0 06:30 03.11.2021
4964 Clouds -5 1011 74 10000 1 340 04:22 03.11.2021
4965 Clear -8 1009 93 10000 2 330 00:55 03.11.2021
4966 Clear -6 1008 93 10000 3 280 22:52 02.11.2021
4967 Clouds -4 1007 93 10000 3 260 21:47 02.11.2021
4968 Snow -3 1007 86 10000 2 220 20:35 02.11.2021
4969 Snow -3 1006 86 10000 1 200 19:56 02.11.2021
4970 Clouds -4 1007 93 10000 2 240 19:26 02.11.2021
4971 Clear -4 1006 86 10000 2 190 18:34 02.11.2021
4972 Clouds -4 1006 93 10000 2 230 17:44 02.11.2021
4973 Clouds -4 1006 86 10000 2 240 16:34 02.11.2021
4974 Clouds -4 1006 86 10000 3 250 15:49 02.11.2021
4975 Clouds -4 1005 86 10000 3 250 14:51 02.11.2021
4976 Clouds -4 1005 86 10000 2 230 13:29 02.11.2021
4977 Snow -5 1005 86 10000 2 240 12:46 02.11.2021
4978 Snow -5 1005 86 10000 2 240 12:46 02.11.2021
4979 Clouds -4 1004 80 10000 1 190 11:38 02.11.2021
4980 Clouds -4 1004 80 10000 2 160 10:55 02.11.2021
4981 Clouds -4 1004 80 10000 2 140 10:32 02.11.2021
4982 Clouds -5 1004 86 10000 2 120 09:40 02.11.2021
4983 Clouds -4 1004 80 10000 3 130 07:45 02.11.2021
4984 Clear -4 1006 86 10000 3 130 04:58 02.11.2021
4985 Clear -4 1008 80 10000 2 130 03:20 02.11.2021
4986 Clear -10 1011 92 10000 2 10 23:39 01.11.2021
4987 Snow -10 1012 92 10000 3 10 21:29 01.11.2021
4988 Snow -10 1013 85 5000 3 10 20:42 01.11.2021
4989 Snow -11 1013 92 10000 3 10 19:58 01.11.2021
4990 Snow -11 1014 92 10000 3 10 19:38 01.11.2021
4991 Snow -10 1014 85 10000 2 20 18:23 01.11.2021
4992 Snow -11 1015 92 10000 2 10 17:36 01.11.2021
4993 Snow -11 1015 85 3200 2 20 16:51 01.11.2021
4994 Snow -12 1016 92 3200 2 10 15:57 01.11.2021
4995 Snow -12 1016 85 5000 3 10 15:27 01.11.2021
4996 Snow -12 1017 85 10000 2 20 14:45 01.11.2021
4997 Clouds -12 1017 85 10000 2 20 14:23 01.11.2021
4998 Clouds -12 1017 85 10000 1 10 13:50 01.11.2021
4999 Clouds -12 1018 85 10000 2 10 12:34 01.11.2021
5000 Clouds -11 1018 85 10000 1 360 11:27 01.11.2021
5001 Clouds -10 1018 85 10000 2 90 09:47 01.11.2021
5002 Clouds -10 1018 85 10000 1 60 08:18 01.11.2021
5003 Clouds -10 1018 85 10000 2 60 07:45 01.11.2021
5004 Clouds -10 1017 79 10000 2 360 03:49 01.11.2021
5005 Snow -10 1017 85 5000 1 50 01:43 01.11.2021
5006 Snow -11 1017 92 5000 2 110 22:42 31.10.2021
5007 Snow -10 1017 85 3200 2 130 20:50 31.10.2021
5008 Snow -11 1018 92 3200 2 140 19:22 31.10.2021
5009 Snow -11 1018 85 3200 3 140 18:41 31.10.2021
5010 Snow -11 1018 85 3200 3 130 17:52 31.10.2021
5011 Snow -11 1020 92 3200 3 140 15:51 31.10.2021
5012 Snow -11 1021 85 10000 3 130 14:24 31.10.2021
5013 Snow -11 1022 85 10000 3 140 12:50 31.10.2021
5014 Clear -11 1023 85 10000 4 150 11:41 31.10.2021
5015 Clear -11 1023 85 10000 3 160 10:44 31.10.2021
5016 Clear -15 1024 85 10000 1 140 09:22 31.10.2021
5017 Clear -17 1025 85 10000 1 360 08:29 31.10.2021
5018 Mist -21 1029 77 5000 1 20 01:37 31.10.2021
5019 Fog -20 1030 77 350 1 360 22:47 30.10.2021
5020 Fog -21 1030 84 200 1 330 21:35 30.10.2021
5021 Fog -21 1030 84 300 1 330 20:50 30.10.2021
5022 Fog -21 1030 84 600 1 330 18:48 30.10.2021
5023 Mist -22 1030 77 5000 1 310 17:25 30.10.2021
5024 Clear -21 1031 84 10000 1 330 15:21 30.10.2021
5025 Clear -18 1031 85 10000 2 300 13:40 30.10.2021
5026 Clear -18 1031 85 10000 2 300 13:40 30.10.2021
5027 Clear -18 1031 85 10000 2 300 13:21 30.10.2021
5028 Clear -18 1031 85 10000 1 300 12:51 30.10.2021
5029 Clear -16 1031 85 10000 2 280 11:44 30.10.2021
5030 Clear -15 1031 85 10000 1 270 10:32 30.10.2021
5031 Clouds -11 1030 73 10000 1 280 08:53 30.10.2021
5032 Clouds -10 1030 67 10000 1 260 07:25 30.10.2021
5033 Snow -12 1029 79 10000 3 310 05:39 30.10.2021
5034 Clear -15 1028 85 10000 3 300 00:56 30.10.2021
5035 Clear -13 1027 85 10000 4 290 22:50 29.10.2021
5036 Clear -12 1026 85 10000 4 300 22:30 29.10.2021
5037 Clear -11 1026 85 10000 2 310 20:46 29.10.2021
5038 Clear -10 1025 79 10000 3 300 20:18 29.10.2021
5039 Clouds -10 1024 92 10000 3 300 18:33 29.10.2021
5040 Clouds -8 1023 86 10000 3 290 16:54 29.10.2021
5041 Clouds -7 1023 86 10000 2 240 14:38 29.10.2021
5042 Clouds -6 1022 79 10000 4 260 11:56 29.10.2021
5043 Clouds -6 1022 73 10000 3 250 10:44 29.10.2021
5044 Clouds -5 1020 63 10000 3 280 08:38 29.10.2021
5045 Clear -6 1017 63 10000 4 240 00:37 29.10.2021
5046 Clear -5 1017 63 10000 5 260 23:25 28.10.2021
5047 Clear -4 1016 63 10000 5 260 22:18 28.10.2021
5048 Clear -4 1015 68 10000 4 260 20:54 28.10.2021
5049 Clear -4 1015 74 10000 4 250 19:51 28.10.2021
5050 Clear -3 1013 63 10000 4 280 18:26 28.10.2021
5051 Clear -3 1013 74 10000 3 300 17:19 28.10.2021
5052 Clear -3 1012 74 10000 3 270 16:19 28.10.2021
5053 Clear -1 1010 69 10000 6 260 14:25 28.10.2021
5054 Clear -1 1010 69 10000 4 260 13:29 28.10.2021
5055 Clear -1 1009 80 10000 5 260 12:41 28.10.2021
5056 Clouds 0 1008 80 10000 5 260 10:57 28.10.2021
5057 Clouds 1 1007 75 10000 2 210 09:40 28.10.2021
5058 Rain 1 1007 75 10000 2 210 09:22 28.10.2021
5059 Rain 1 1007 75 10000 3 230 08:35 28.10.2021
5060 Clouds 2 1006 69 10000 4 230 07:40 28.10.2021
5061 Snow -3 1006 80 10000 4 190 00:33 28.10.2021
5062 Clouds -3 1007 80 10000 5 170 22:31 27.10.2021
5063 Clouds -4 1008 80 10000 3 190 21:34 27.10.2021
5064 Clouds -3 1009 74 10000 3 190 20:57 27.10.2021
5065 Clouds -4 1009 86 10000 3 170 20:38 27.10.2021
5066 Clouds -4 1009 80 10000 2 170 19:42 27.10.2021
5067 Clouds -4 1010 86 10000 1 180 18:54 27.10.2021
5068 Clouds -3 1012 74 10000 3 270 16:38 27.10.2021
5069 Clouds -3 1012 74 10000 3 270 16:20 27.10.2021
5070 Clouds -3 1012 74 10000 2 260 15:23 27.10.2021
5071 Clouds -2 1012 74 10000 3 300 12:57 27.10.2021
5072 Snow -2 1011 93 5000 4 330 10:59 27.10.2021
5073 Snow -1 1011 93 5000 5 310 10:36 27.10.2021
5074 Snow 0 1009 93 10000 4 300 08:58 27.10.2021
5075 Snow 0 1009 93 10000 2 180 07:38 27.10.2021
5076 Snow -1 1008 100 10000 1 190 05:37 27.10.2021
5077 Mist -5 1008 93 1500 1 350 01:18 27.10.2021
5078 Fog -4 1008 93 1100 1 20 00:33 27.10.2021
5079 Mist -4 1007 93 2000 1 20 23:52 26.10.2021
5080 Mist -4 1007 93 1400 1 300 22:43 26.10.2021
5081 Fog -5 1007 100 1000 1 30 22:20 26.10.2021
5082 Fog -4 1006 93 50 1 330 20:59 26.10.2021
5083 Fog -5 1006 93 100 1 200 19:34 26.10.2021
5084 Fog -5 1005 93 200 0 0 18:54 26.10.2021
5085 Clear -3 1005 100 10000 1 240 17:36 26.10.2021
5086 Clouds 0 1005 100 10000 1 240 15:40 26.10.2021
5087 Clouds 0 1005 100 10000 0 0 12:33 26.10.2021
5088 Clouds 1 1004 93 10000 2 260 10:48 26.10.2021
5089 Clouds 2 1003 87 10000 2 290 08:24 26.10.2021
5090 Clouds 2 1003 93 10000 1 330 07:21 26.10.2021
5091 Snow -1 1003 100 5000 0 0 00:19 26.10.2021
5092 Snow -1 1003 100 5000 1 170 23:28 25.10.2021
5093 Snow -1 1003 100 5000 1 210 22:28 25.10.2021
5094 Snow -1 1003 100 5000 1 200 21:42 25.10.2021
5095 Snow -1 1002 100 5000 1 200 20:26 25.10.2021
5096 Snow -1 1002 93 10000 1 210 19:43 25.10.2021
5097 Snow -1 1002 93 10000 2 190 19:22 25.10.2021
5098 Snow -1 1002 100 10000 2 180 18:35 25.10.2021
5099 Clouds -1 1002 100 10000 2 170 16:43 25.10.2021
5100 Clouds -1 1002 93 10000 1 170 14:48 25.10.2021
5101 Clouds 0 1001 93 10000 2 200 12:31 25.10.2021
5102 Clouds 1 1001 86 10000 2 220 10:46 25.10.2021
5103 Clouds 1 1001 86 10000 2 220 10:46 25.10.2021
5104 Clouds 1 1000 93 10000 2 240 08:58 25.10.2021
5105 Clouds 2 999 87 10000 3 230 06:28 25.10.2021
5106 Clouds 2 999 87 10000 3 230 06:28 25.10.2021
5107 Snow 1 1000 93 3200 2 200 03:18 25.10.2021
5108 Snow 0 1000 93 5000 2 200 00:51 25.10.2021
5109 Snow 0 1001 93 10000 2 200 00:33 25.10.2021
5110 Snow 0 1001 93 10000 2 210 23:33 24.10.2021
5111 Snow 0 1001 93 10000 3 210 22:38 24.10.2021
5112 Snow 0 1001 93 10000 3 210 22:19 24.10.2021
5113 Snow 0 1002 93 10000 3 210 20:57 24.10.2021
5114 Snow 0 1002 93 10000 2 210 20:32 24.10.2021
5115 Snow 0 1003 93 10000 2 220 19:39 24.10.2021
5116 Clouds 0 1003 80 10000 3 230 18:29 24.10.2021
5117 Clouds 1 1004 80 10000 3 240 17:44 24.10.2021
5118 Clouds 1 1004 80 10000 3 240 15:56 24.10.2021
5119 Clouds 0 1005 93 10000 3 240 14:41 24.10.2021
5120 Clear 0 1005 86 10000 3 250 12:58 24.10.2021
5121 Clear 0 1005 86 10000 3 280 11:45 24.10.2021
5122 Clouds 1 1005 86 10000 4 290 11:25 24.10.2021
5123 Clouds 2 1004 87 10000 4 300 10:27 24.10.2021
5124 Clouds 2 1003 93 10000 3 290 07:51 24.10.2021
5125 Snow -4 1006 93 5000 2 170 01:25 24.10.2021
5126 Snow -5 1007 93 10000 2 160 23:49 23.10.2021
5127 Snow -6 1008 93 10000 2 200 22:29 23.10.2021
5128 Clouds -6 1009 93 10000 2 170 20:37 23.10.2021
5129 Clouds -9 1010 100 10000 0 0 18:59 23.10.2021
5130 Clouds -10 1010 100 10000 1 10 18:30 23.10.2021
5131 Clear -10 1010 92 10000 2 360 17:43 23.10.2021
5132 Clear -10 1010 100 10000 2 20 16:35 23.10.2021
5133 Clouds -5 1009 86 10000 2 30 14:35 23.10.2021
5134 Clouds 2 1002 80 10000 4 320 09:45 23.10.2021
5135 Clouds -1 1006 69 10000 1 270 00:25 23.10.2021
5136 Clouds -1 1006 69 10000 3 310 23:22 22.10.2021
5137 Clouds 0 1006 64 10000 4 310 20:50 22.10.2021
5138 Clouds 0 1005 64 10000 4 310 18:45 22.10.2021
5139 Clouds 0 1005 64 10000 4 320 17:44 22.10.2021
5140 Clouds 0 1004 64 10000 4 310 15:50 22.10.2021
5141 Clouds 1 1004 64 10000 4 310 14:23 22.10.2021
5142 Clouds 2 1004 60 10000 4 310 12:38 22.10.2021
5143 Clouds 2 1003 64 10000 2 330 10:48 22.10.2021
5144 Clouds 2 1003 69 10000 1 40 09:56 22.10.2021
5145 Clouds 2 1003 69 10000 0 0 09:30 22.10.2021
5146 Clouds 3 1002 70 10000 2 310 07:25 22.10.2021
5147 Rain 3 1001 87 10000 5 320 03:48 22.10.2021
5148 Rain 2 999 93 10000 4 320 00:24 22.10.2021
5149 Rain 2 999 93 10000 4 280 23:40 21.10.2021
5150 Snow 1 999 93 10000 3 250 22:21 21.10.2021
5151 Snow 0 1000 100 10000 3 220 20:55 21.10.2021
5152 Snow 0 1001 100 10000 3 210 20:20 21.10.2021
5153 Snow 0 1002 93 10000 4 230 19:30 21.10.2021
5154 Snow 0 1002 93 10000 4 230 19:30 21.10.2021
5155 Snow 0 1002 93 10000 5 220 18:52 21.10.2021
5156 Snow 0 1003 93 10000 5 230 18:22 21.10.2021
5157 Snow 0 1004 93 5000 3 220 17:42 21.10.2021
5158 Snow 0 1005 93 10000 4 220 16:20 21.10.2021
5159 Clouds 0 1006 86 10000 3 220 15:21 21.10.2021
5160 Clouds 0 1007 86 10000 3 220 14:49 21.10.2021
5161 Clouds 0 1008 86 10000 3 230 13:26 21.10.2021
5162 Clouds -3 1010 93 10000 1 260 11:27 21.10.2021
5163 Clouds -2 1010 86 10000 1 210 08:59 21.10.2021
5164 Clouds -3 1011 86 10000 2 190 07:31 21.10.2021
5165 Clouds -5 1011 86 10000 2 170 05:33 21.10.2021
5166 Clouds -9 1011 86 10000 2 10 23:45 20.10.2021
5167 Clouds -9 1010 86 10000 2 30 22:21 20.10.2021
5168 Snow -9 1009 86 10000 1 30 21:43 20.10.2021
5169 Snow -9 1009 86 10000 2 20 20:56 20.10.2021
5170 Snow -9 1009 86 10000 2 10 20:35 20.10.2021
5171 Snow -8 1008 86 10000 2 30 19:59 20.10.2021
5172 Clouds -8 1008 86 10000 3 30 18:59 20.10.2021
5173 Clouds -8 1008 86 10000 3 30 17:54 20.10.2021
5174 Snow -6 1007 93 10000 3 20 15:47 20.10.2021
5175 Snow -3 1006 93 10000 3 20 12:33 20.10.2021
5176 Snow 1 1006 93 10000 2 230 09:19 20.10.2021
5177 Snow 0 1007 86 10000 1 190 05:24 20.10.2021
5178 Snow -6 1009 93 10000 2 190 00:53 20.10.2021
5179 Snow -6 1009 93 10000 2 190 00:26 20.10.2021
5180 Snow -7 1011 86 2100 3 190 21:47 19.10.2021
5181 Snow -7 1011 86 10000 3 190 21:27 19.10.2021
5182 Snow -8 1011 93 10000 3 180 20:25 19.10.2021
5183 Snow -8 1012 93 10000 2 190 19:45 19.10.2021
5184 Snow -8 1012 86 10000 2 190 19:21 19.10.2021
5185 Snow -8 1013 86 10000 2 180 18:23 19.10.2021
5186 Clear -13 1013 85 10000 1 310 16:24 19.10.2021
5187 Clear -13 1014 85 10000 1 300 15:20 19.10.2021
5188 Clear -12 1014 85 10000 1 310 14:27 19.10.2021
5189 Clear -11 1014 85 10000 1 310 13:43 19.10.2021
5190 Clear -9 1014 73 10000 2 340 11:37 19.10.2021
5191 Clear -9 1014 79 10000 2 340 10:39 19.10.2021
5192 Clear -6 1013 68 10000 2 10 08:59 19.10.2021
5193 Clear -6 1013 63 10000 2 40 07:56 19.10.2021
5194 Clear -11 1011 85 10000 1 100 00:27 19.10.2021
5195 Clear -11 1010 79 10000 2 110 23:56 18.10.2021
5196 Clear -11 1010 85 10000 2 110 23:21 18.10.2021
5197 Clear -11 1010 85 10000 2 110 22:55 18.10.2021
5198 Clear -11 1010 85 10000 3 120 21:58 18.10.2021
5199 Clear -10 1010 85 10000 2 130 20:46 18.10.2021
5200 Clear -9 1010 79 10000 2 140 20:20 18.10.2021
5201 Clear -9 1010 79 10000 2 150 19:31 18.10.2021
5202 Clear -9 1010 79 10000 2 150 18:58 18.10.2021
5203 Clear -7 1011 73 10000 2 180 16:30 18.10.2021
5204 Clear -7 1012 63 10000 2 190 14:41 18.10.2021
5205 Clear -6 1014 58 10000 3 260 11:47 18.10.2021
5206 Clear -6 1014 58 10000 2 270 09:47 18.10.2021
5207 Snow -6 1015 68 10000 4 270 07:31 18.10.2021
5208 Snow -8 1018 79 10000 3 290 23:54 17.10.2021
5209 Clouds -8 1019 79 10000 2 280 22:27 17.10.2021
5210 Clouds -8 1019 79 10000 2 280 21:44 17.10.2021
5211 Clouds -8 1019 86 10000 3 300 20:49 17.10.2021
5212 Clouds -8 1019 86 10000 2 320 19:59 17.10.2021
5213 Clouds -8 1019 86 10000 2 320 19:38 17.10.2021
5214 Clouds -11 1021 96 10000 1.36 278 18:28 17.10.2021
5215 Clouds -11 1021 96 10000 1.36 278 18:28 17.10.2021
5216 Clouds -9 1020 92 10000 1 270 16:38 17.10.2021
5217 Clouds -9 1020 92 10000 1 320 14:39 17.10.2021
5218 Clouds -9 1020 92 10000 1 320 14:20 17.10.2021
5219 Clouds -9 1020 86 10000 1 260 13:33 17.10.2021
5220 Clouds -9 1021 92 10000 1 360 11:31 17.10.2021
5221 Clouds -7 1020 79 10000 1 320 10:19 17.10.2021
5222 Clouds -7 1020 79 10000 1 20 08:47 17.10.2021
5223 Clouds -9 1020 86 10000 1 110 03:21 17.10.2021
5224 Clouds -10 1019 92 10000 2 120 00:31 17.10.2021
5225 Clear -9 1019 86 10000 3 140 22:54 16.10.2021
5226 Clear -9 1019 86 10000 2 130 20:55 16.10.2021
5227 Clear -9 1019 86 10000 1 130 20:29 16.10.2021
5228 Clear -9 1019 86 10000 2 140 19:41 16.10.2021
5229 Clear -9 1019 86 10000 2 140 19:20 16.10.2021
5230 Clear -9 1019 86 10000 2 130 18:45 16.10.2021
5231 Clear -9 1019 86 10000 2 140 18:23 16.10.2021
5232 Clouds -9 1019 86 10000 1 130 17:33 16.10.2021
5233 Clouds -8 1019 79 10000 1 170 16:28 16.10.2021
5234 Clouds -8 1020 86 10000 1 140 13:26 16.10.2021
5235 Clear -8 1020 79 10000 1 150 11:25 16.10.2021
5236 Clear -7 1020 73 10000 1 170 09:35 16.10.2021
5237 Snow -8 1023 79 10000 3 280 04:33 16.10.2021
5238 Snow -9 1023 79 10000 2 310 01:22 16.10.2021
5239 Snow -10 1024 85 10000 3 310 23:27 15.10.2021
5240 Snow -9 1024 86 10000 3 300 22:21 15.10.2021
5241 Clouds -9 1025 86 10000 3 340 21:41 15.10.2021
5242 Clouds -9 1025 86 10000 3 330 20:54 15.10.2021
5243 Clouds -9 1025 86 10000 3 330 20:35 15.10.2021
5244 Clouds -8 1025 86 10000 4 340 19:20 15.10.2021
5245 Clouds -8 1025 79 10000 3 330 18:22 15.10.2021
5246 Clouds -8 1026 79 10000 3 320 16:19 15.10.2021
5247 Clouds -8 1026 79 10000 1 310 14:26 15.10.2021
5248 Clouds -7 1026 79 10000 3 320 12:26 15.10.2021
5249 Clouds -6 1027 73 10000 2 310 11:20 15.10.2021
5250 Clouds -5 1026 68 10000 4 320 10:32 15.10.2021
5251 Snow -5 1026 74 10000 3 360 08:21 15.10.2021
5252 Snow -5 1026 68 10000 2 310 05:30 15.10.2021
5253 Clouds -6 1026 86 10000 2 310 00:25 15.10.2021
5254 Clouds -6 1027 86 10000 2 290 23:34 14.10.2021
5255 Clouds -6 1027 86 10000 2 290 22:39 14.10.2021
5256 Snow -6 1027 86 10000 2 290 21:40 14.10.2021
5257 Snow -6 1027 86 10000 3 300 20:22 14.10.2021
5258 Snow -6 1027 86 10000 2 300 19:49 14.10.2021
5259 Snow -6 1027 86 10000 3 290 18:44 14.10.2021
5260 Clouds -6 1027 79 10000 2 300 17:24 14.10.2021
5261 Clouds -6 1027 79 10000 2 310 16:33 14.10.2021
5262 Clouds -5 1027 74 10000 2 320 15:20 14.10.2021
5263 Clouds -5 1028 74 10000 2 310 14:30 14.10.2021
5264 Clouds -5 1028 74 10000 2 310 14:30 14.10.2021
5265 Clouds -5 1028 74 10000 3 350 13:35 14.10.2021
5266 Clouds -5 1027 74 10000 3 360 11:35 14.10.2021
5267 Clouds -4 1027 68 10000 3 320 09:33 14.10.2021
5268 Clouds -3 1027 60 10000 3.11 297 06:27 14.10.2021
5269 Clouds -8 1028 93 10000 1.68 270 00:49 14.10.2021
5270 Snow -5 1026 86 10000 2 310 22:46 13.10.2021
5271 Snow -5 1026 86 10000 1 320 21:37 13.10.2021
5272 Snow -5 1026 86 10000 2 320 20:46 13.10.2021
5273 Snow -5 1026 86 10000 3 310 19:41 13.10.2021
5274 Snow -5 1026 86 10000 3 320 18:48 13.10.2021
5275 Snow -5 1025 93 10000 2 320 17:28 13.10.2021
5276 Snow -4 1025 86 5000 2 270 14:55 13.10.2021
5277 Clouds -5 1025 86 10000 2 260 14:34 13.10.2021
5278 Clouds -4 1024 74 10000 1 280 12:48 13.10.2021
5279 Clouds -4 1024 74 10000 1 290 11:51 13.10.2021
5280 Snow -4 1023 80 10000 2 310 10:21 13.10.2021
5281 Snow -4 1022 80 10000 3 20 07:54 13.10.2021
5282 Snow -3 1020 80 10000 3 320 05:40 13.10.2021
5283 Snow -4 1018 80 10000 3 290 02:23 13.10.2021
5284 Snow -5 1018 86 10000 3 260 23:51 12.10.2021
5285 Snow -5 1017 86 10000 3 240 23:27 12.10.2021
5286 Snow -5 1017 86 10000 2 240 22:41 12.10.2021
5287 Snow -6 1017 86 10000 3 240 20:55 12.10.2021
5288 Clear -7 1017 86 10000 3 230 20:32 12.10.2021
5289 Clear -7 1017 86 10000 3 240 19:50 12.10.2021
5290 Clouds -6 1016 79 10000 4 250 18:26 12.10.2021
5291 Clouds -5 1016 80 10000 5 260 17:35 12.10.2021
5292 Clouds -5 1016 80 10000 5 260 16:35 12.10.2021
5293 Clear -5 1015 74 10000 5 270 15:35 12.10.2021
5294 Clear -5 1015 68 10000 5 270 14:25 12.10.2021
5295 Clear -6 1015 73 10000 4 260 13:41 12.10.2021
5296 Clouds -5 1014 68 10000 3 280 11:36 12.10.2021
5297 Clouds -2 1012 50 10000 8 280 09:41 12.10.2021
5298 Snow -2 1012 64 10000 6 290 08:35 12.10.2021
5299 Clouds -1 1011 55 10000 8 270 06:46 12.10.2021
5300 Clouds -1 1010 64 10000 5 270 05:29 12.10.2021
5301 Clouds 0 1010 64 10000 6 280 04:29 12.10.2021
5302 Snow -1 1007 93 1800 3 310 23:59 11.10.2021
5303 Snow 0 1007 86 10000 4 310 23:37 11.10.2021
5304 Snow 0 1006 74 10000 4 280 22:55 11.10.2021
5305 Clouds -2 1006 80 10000 2 220 21:32 11.10.2021
5306 Clouds -1 1006 80 10000 3 250 20:31 11.10.2021
5307 Clouds -1 1005 74 10000 4 260 19:36 11.10.2021
5308 Clouds -2 1005 86 10000 3 230 18:24 11.10.2021
5309 Clouds 0 1005 80 10000 2 250 16:41 11.10.2021
5310 Clouds 0 1005 80 10000 2 250 16:21 11.10.2021
5311 Clouds 1 1005 75 10000 3 250 15:45 11.10.2021
5312 Clouds 0 1005 86 10000 4 230 14:54 11.10.2021
5313 Clouds 0 1005 86 10000 2 230 14:22 11.10.2021
5314 Clouds 1 1005 75 10000 4 280 13:36 11.10.2021
5315 Clouds 1 1004 86 10000 3 240 11:25 11.10.2021
5316 Clouds 2 1003 87 10000 4 250 09:47 11.10.2021
5317 Rain 3 1002 87 10000 5 250 08:40 11.10.2021
5318 Clouds 2 999 93 10000 4 250 01:47 11.10.2021
5319 Clouds 2 999 93 10000 5 260 01:20 11.10.2021
5320 Clouds 2 999 93 10000 3 230 00:42 11.10.2021
5321 Rain 2 998 93 10000 4 220 22:42 10.10.2021
5322 Rain 2 998 93 10000 3 220 21:50 10.10.2021
5323 Rain 3 998 87 10000 3 200 21:26 10.10.2021
5324 Rain 3 998 87 10000 4 180 20:40 10.10.2021
5325 Rain 3 998 87 10000 4 180 20:20 10.10.2021
5326 Rain 3 998 87 10000 4 180 19:49 10.10.2021
5327 Rain 3 999 87 10000 4 190 19:30 10.10.2021
5328 Clouds 3 999 87 10000 3 180 18:23 10.10.2021
5329 Clouds 3 999 70 10000 0 0 15:54 10.10.2021
5330 Clouds 4 1000 65 10000 2 230 15:35 10.10.2021
5331 Rain 5 1000 56 10000 2 200 13:41 10.10.2021
5332 Clouds 4 1000 60 10000 1 170 12:44 10.10.2021
5333 Clouds 5 1000 56 10000 3 190 11:59 10.10.2021
5334 Clear 6 1000 52 10000 4 180 10:31 10.10.2021
5335 Clear 7 1000 49 10000 4 200 09:19 10.10.2021
5336 Clear 8 1000 46 10000 4 190 08:51 10.10.2021
5337 Clear 5 1003 65 10000 5 210 04:57 10.10.2021
5338 Clear 3 1005 75 10000 3 190 02:20 10.10.2021
5339 Clear 1 1005 86 10000 2 200 00:50 10.10.2021
5340 Clear 1 1005 86 10000 2 210 23:46 09.10.2021
5341 Clouds 2 1006 87 10000 3 200 22:20 09.10.2021
5342 Clouds 2 1007 87 10000 2 210 21:30 09.10.2021
5343 Clouds 2 1007 87 10000 2 200 20:42 09.10.2021
5344 Clouds 2 1007 87 10000 2 220 19:41 09.10.2021
5345 Clouds 2 1008 87 10000 2 210 18:51 09.10.2021
5346 Clouds 2 1008 87 10000 3 220 18:27 09.10.2021
5347 Clouds 2 1008 87 10000 2 210 16:26 09.10.2021
5348 Clouds 2 1009 87 10000 3 210 14:48 09.10.2021
5349 Clouds 2 1009 87 10000 2 210 13:40 09.10.2021
5350 Clouds 2 1009 87 10000 2 220 12:35 09.10.2021
5351 Clouds 2 1009 87 10000 2 220 12:35 09.10.2021
5352 Clouds 2 1009 87 10000 2 230 11:26 09.10.2021
5353 Clouds 3 1009 81 10000 3 230 10:21 09.10.2021
5354 Clouds 3 1008 81 10000 4 250 09:29 09.10.2021
5355 Clouds 3 1008 81 10000 4 250 08:20 09.10.2021
5356 Clouds 3 1008 87 10000 4 260 06:47 09.10.2021
5357 Clouds 3 1008 87 10000 3 240 05:20 09.10.2021
5358 Rain 2 1009 87 10000 3 220 02:47 09.10.2021
5359 Snow 0 1009 93 5000 3 190 00:43 09.10.2021
5360 Snow 0 1010 86 10000 2 210 23:35 08.10.2021
5361 Clouds 0 1010 80 10000 3 220 22:47 08.10.2021
5362 Clouds 0 1010 74 10000 3 210 21:47 08.10.2021
5363 Clouds -1 1010 74 10000 2 180 20:31 08.10.2021
5364 Clouds 0 1010 69 10000 1 280 18:23 08.10.2021
5365 Clouds 0 1010 69 10000 3 280 17:18 08.10.2021
5366 Clouds 0 1010 69 10000 2 290 16:44 08.10.2021
5367 Clouds 0 1009 69 10000 2 330 16:22 08.10.2021
5368 Clouds 1 1008 69 10000 4 310 13:48 08.10.2021
5369 Clouds 2 1007 80 10000 5 300 11:56 08.10.2021
5370 Clouds 2 1006 80 10000 2 300 10:50 08.10.2021
5371 Clouds 2 1006 80 10000 3 300 10:25 08.10.2021
5372 Clouds 2 1003 87 10000 2 290 06:49 08.10.2021
5373 Snow -1 1001 93 5000 2 90 23:28 07.10.2021
5374 Snow -1 1001 93 10000 2 160 22:56 07.10.2021
5375 Snow 0 1002 80 10000 3 180 21:30 07.10.2021
5376 Snow 0 1002 80 10000 4 190 20:43 07.10.2021
5377 Clear -1 1002 80 10000 3 180 19:39 07.10.2021
5378 Clear 0 1002 69 10000 3 190 18:59 07.10.2021
5379 Clear 0 1003 69 10000 3 190 17:35 07.10.2021
5380 Clear 0 1003 69 10000 2 180 16:42 07.10.2021
5381 Clear -1 1004 74 10000 2 170 14:57 07.10.2021
5382 Clear -1 1004 80 10000 3 170 13:44 07.10.2021
5383 Clear -1 1004 80 10000 3 180 13:20 07.10.2021
5384 Clouds 1 1005 64 10000 3 180 11:48 07.10.2021
5385 Clouds 2 1005 64 10000 4 170 10:48 07.10.2021
5386 Clouds 2 1005 64 10000 4 170 10:48 07.10.2021
5387 Clouds 2 1005 51 10000 3 210 09:51 07.10.2021
5388 Clouds 2 1005 51 10000 3 210 08:55 07.10.2021
5389 Clouds 4 1005 48 10000 4 210 08:20 07.10.2021
5390 Clouds 3 1006 56 10000 4 220 07:39 07.10.2021
5391 Clouds 3 1006 65 10000 4 240 06:47 07.10.2021
5392 Clouds 0 1008 80 10000 3 200 00:59 07.10.2021
5393 Clouds -1 1008 93 10000 3 200 23:30 06.10.2021
5394 Snow 0 1008 80 10000 3 190 22:40 06.10.2021
5395 Rain 1 1009 69 10000 3 190 21:40 06.10.2021
5396 Clear 0 1009 74 10000 2 190 20:33 06.10.2021
5397 Clear 0 1009 80 10000 3 160 19:26 06.10.2021
5398 Clear 1 1010 69 10000 3 170 17:56 06.10.2021
5399 Clear 3 1011 56 10000 4 190 16:40 06.10.2021
5400 Clear 2 1012 60 10000 4 200 15:18 06.10.2021
5401 Clear 1 1012 69 10000 4 200 13:31 06.10.2021
5402 Clear 0 1013 74 10000 4 210 12:47 06.10.2021
5403 Clear 1 1013 69 10000 3 210 12:28 06.10.2021
5404 Clear 3 1013 60 10000 4 200 11:38 06.10.2021
5405 Clear 5 1014 52 10000 4 220 09:45 06.10.2021
5406 Clear 5 1014 52 10000 6 230 09:26 06.10.2021
5407 Clear 5 1014 52 10000 5 240 08:39 06.10.2021
5408 Clear 4 1015 56 10000 5 250 06:18 06.10.2021
5409 Clear 4 1016 52 10000 4 270 04:24 06.10.2021
5410 Clear 4 1016 52 10000 4 270 04:24 06.10.2021
5411 Clear 0 1018 74 10000 2 190 00:24 06.10.2021
5412 Clear 0 1018 74 10000 2 180 23:51 05.10.2021
5413 Clear 0 1018 74 10000 2 180 23:51 05.10.2021
5414 Clear -1 1019 80 10000 2 200 23:31 05.10.2021
5415 Clear -1 1019 80 10000 1 170 22:36 05.10.2021
5416 Clear -1 1019 80 10000 2 190 21:57 05.10.2021
5417 Clear -1 1019 80 10000 2 190 21:57 05.10.2021
5418 Clear -1 1019 80 10000 1 260 21:29 05.10.2021
5419 Clear -1 1020 80 10000 2 310 20:33 05.10.2021
5420 Clear -1 1020 80 10000 3 310 19:51 05.10.2021
5421 Clear -1 1020 80 10000 2 330 19:25 05.10.2021
5422 Clear 1 1020 69 10000 4 280 18:21 05.10.2021
5423 Clouds 2 1020 69 10000 4 250 15:39 05.10.2021
5424 Clouds 2 1021 69 10000 5 260 13:55 05.10.2021
5425 Clouds 2 1021 69 10000 5 260 13:26 05.10.2021
5426 Clouds 2 1021 75 10000 3 230 12:35 05.10.2021
5427 Snow 2 1022 75 10000 3 250 11:41 05.10.2021
5428 Clouds 2 1022 75 10000 3 230 10:38 05.10.2021
5429 Clear 2 1022 69 10000 3 200 08:36 05.10.2021
5430 Clear -2 1024 80 10000 3 210 01:47 05.10.2021
5431 Clear -3 1024 86 10000 3 210 22:57 04.10.2021
5432 Clear -2 1024 80 10000 4 250 21:42 04.10.2021
5433 Clear -3 1024 86 10000 3 260 18:54 04.10.2021
5434 Clear -3 1024 86 10000 3 280 17:32 04.10.2021
5435 Clear -5 1024 93 10000 2 300 15:50 04.10.2021
5436 Clear -5 1024 93 10000 1 300 15:24 04.10.2021
5437 Clear -4 1024 93 10000 1 300 14:34 04.10.2021
5438 Clear -2 1024 93 10000 2 160 13:47 04.10.2021
5439 Clear -1 1024 93 10000 2 170 12:51 04.10.2021
5440 Clear 0 1024 86 10000 2 160 11:34 04.10.2021
5441 Clear 0 1024 80 10000 2 160 10:47 04.10.2021
5442 Clear 1 1024 75 10000 2 150 09:45 04.10.2021
5443 Clouds 1 1024 75 10000 1 70 08:30 04.10.2021
5444 Clouds 0 1024 80 10000 2 300 06:51 04.10.2021
5445 Clouds -5 1023 93 10000 3 310 23:41 03.10.2021
5446 Clouds -5 1022 93 10000 2 320 22:30 03.10.2021
5447 Clouds -6 1022 93 10000 4 290 21:35 03.10.2021
5448 Clouds -5 1022 93 10000 3 310 20:50 03.10.2021
5449 Clear -6 1021 93 10000 3 310 19:50 03.10.2021
5450 Clear -2 1021 86 10000 3 230 18:30 03.10.2021
5451 Clear -4 1021 93 10000 1 330 17:39 03.10.2021
5452 Clear -4 1021 93 10000 1 280 15:30 03.10.2021
5453 Clear -2 1020 93 10000 2 220 14:31 03.10.2021
5454 Clear -1 1020 93 10000 2 170 13:36 03.10.2021
5455 Clear -1 1020 86 10000 1 180 12:50 03.10.2021
5456 Clouds 0 1020 86 10000 2 170 11:40 03.10.2021
5457 Clouds 1 1020 75 10000 1 140 10:21 03.10.2021
5458 Clouds 0 1018 80 10000 1 310 06:42 03.10.2021
5459 Clouds -1 1016 93 10000 1 310 23:50 02.10.2021
5460 Clouds -2 1015 93 10000 1 340 22:18 02.10.2021
5461 Clouds -1 1014 86 10000 1 100 20:34 02.10.2021
5462 Clouds -1 1013 86 10000 2 100 18:57 02.10.2021
5463 Clouds -1 1013 86 10000 2 90 18:20 02.10.2021
5464 Clouds -1 1012 93 10000 2 340 17:38 02.10.2021
5465 Clouds -1 1012 93 10000 1 350 16:39 02.10.2021
5466 Clouds -1 1011 93 10000 3 350 14:35 02.10.2021
5467 Clouds 3 1006 93 10000 4 350 15:37 30.09.2021
5468 Clouds 4 1006 87 10000 3 360 14:29 30.09.2021
5469 Clouds 4 1007 93 10000 6 10 11:59 30.09.2021
5470 Clouds 4 1006 93 10000 5 10 11:23 30.09.2021
5471 Rain 5 1006 93 10000 5 20 10:25 30.09.2021
5472 Rain 5 1006 93 10000 5 20 10:25 30.09.2021
5473 Snow 5 1006 93 10000 5 10 08:32 30.09.2021
5474 Rain 5 1006 93 10000 3 30 07:45 30.09.2021
5475 Rain 4 1006 93 10000 5 20 05:25 30.09.2021
5476 Rain 2 1006 87 10000 4 20 02:33 30.09.2021
5477 Snow 0 1006 93 5000 5 10 00:33 30.09.2021
5478 Snow 1 1006 64 5000 5 30 22:41 29.09.2021
5479 Rain 3 1006 44 10000 6 20 21:42 29.09.2021
5480 Rain 2 1007 48 10000 6 20 20:31 29.09.2021
5481 Rain 2 1007 48 10000 6 10 19:59 29.09.2021
5482 Rain 3 1007 44 10000 6 20 19:18 29.09.2021
5483 Clouds 3 1007 48 10000 6 10 18:18 29.09.2021
5484 Clouds 3 1008 48 10000 4 10 16:55 29.09.2021
5485 Clear 4 1008 41 10000 5 30 16:25 29.09.2021
5486 Clear 3 1009 48 10000 4 10 14:42 29.09.2021
5487 Clear 3 1009 48 10000 4 10 14:20 29.09.2021
5488 Clear 2 1009 48 10000 4 350 13:33 29.09.2021
5489 Clear 3 1009 44 10000 4 360 12:38 29.09.2021
5490 Clear 5 1010 38 10000 4 20 11:18 29.09.2021
5491 Clear 8 1009 31 10000 5 30 10:27 29.09.2021
5492 Clear 8 1009 29 10000 7 30 09:40 29.09.2021
5493 Clear 8 1010 31 10000 7 10 07:48 29.09.2021
5494 Clear 7 1011 36 10000 7 10 05:52 29.09.2021
5495 Clear -2 1012 74 10000 3 340 23:47 28.09.2021
5496 Clear -1 1012 69 10000 4 340 22:25 28.09.2021
5497 Clear -1 1012 69 10000 4 330 21:45 28.09.2021
5498 Clear -1 1011 69 10000 3 330 20:48 28.09.2021
5499 Clear -1 1011 69 10000 4 340 19:48 28.09.2021
5500 Clear -1 1011 69 10000 3 340 19:25 28.09.2021
5501 Clear 0 1011 69 10000 4 340 18:40 28.09.2021
5502 Clear -1 1010 80 10000 2 290 16:43 28.09.2021
5503 Clear 2 1009 64 10000 3 350 14:53 28.09.2021
5504 Clear 1 1008 69 10000 1 330 13:25 28.09.2021
5505 Clear 4 1007 60 10000 3 10 12:24 28.09.2021
5506 Clear 4 1007 60 10000 3 10 12:24 28.09.2021
5507 Clear 5 1006 56 10000 3 360 11:47 28.09.2021
5508 Clear 7 1006 49 10000 3 10 11:25 28.09.2021
5509 Clear 10 1005 40 10000 5 20 10:26 28.09.2021
5510 Clear 11 1005 35 10000 6 20 09:25 28.09.2021
5511 Clear 11 1004 35 10000 7 20 08:43 28.09.2021
5512 Clear 11 1004 35 10000 7 10 07:49 28.09.2021
5513 Clear 10 1004 40 10000 8 20 06:23 28.09.2021
5514 Clear 3 1005 70 10000 6 10 01:30 28.09.2021
5515 Clear 2 1006 75 10000 6 10 00:28 28.09.2021
5516 Clear 1 1006 80 10000 6 10 23:48 27.09.2021
5517 Clear 1 1006 75 10000 5 10 23:23 27.09.2021
5518 Clear 2 1007 75 10000 5 10 22:20 27.09.2021
5519 Clear 2 1007 75 10000 5 10 22:20 27.09.2021
5520 Clear 2 1007 75 10000 5 10 20:54 27.09.2021
5521 Clear 2 1007 75 10000 5 10 20:24 27.09.2021
5522 Clear 2 1008 75 10000 6 10 19:36 27.09.2021
5523 Clear 1 1009 80 10000 3 350 18:52 27.09.2021
5524 Clear 1 1009 80 10000 3 350 18:52 27.09.2021
5525 Clear 1 1009 80 10000 4 360 17:37 27.09.2021
5526 Clear 2 1009 80 10000 3 350 16:56 27.09.2021
5527 Clear 2 1010 80 10000 4 360 16:33 27.09.2021
5528 Clear 2 1010 80 10000 2 350 15:36 27.09.2021
5529 Clear 4 1011 70 10000 4 10 13:49 27.09.2021
5530 Clear 4 1011 70 10000 4 10 12:22 27.09.2021
5531 Clear 8 1012 57 10000 4 40 10:48 27.09.2021
5532 Clear 9 1012 53 10000 5 50 09:40 27.09.2021
5533 Clear 9 1013 53 10000 5 50 07:44 27.09.2021
5534 Clouds 5 1017 81 10000 3 60 03:31 27.09.2021
5535 Clouds 1 1019 93 10000 3 60 23:49 26.09.2021
5536 Clear 1 1020 93 10000 3 70 21:57 26.09.2021
5537 Clear 1 1020 93 10000 4 80 21:27 26.09.2021
5538 Clouds 2 1020 93 10000 4 70 20:25 26.09.2021
5539 Clear 3 1020 87 10000 4 70 19:54 26.09.2021
5540 Clear 3 1021 87 10000 3 70 19:25 26.09.2021
5541 Clear 3 1021 87 10000 3 70 19:25 26.09.2021
5542 Clear 1 1021 86 10000 1 10 18:41 26.09.2021
5543 Clear -2 1021 93 10000 2 320 17:38 26.09.2021
5544 Clear -2 1021 93 10000 2 320 17:20 26.09.2021
5545 Clear -2 1022 93 10000 2 320 16:23 26.09.2021
5546 Clear -1 1022 93 10000 2 340 15:27 26.09.2021
5547 Clear 2 1023 80 10000 2 80 14:22 26.09.2021
5548 Clear 3 1023 75 10000 3 70 13:42 26.09.2021
5549 Clear 3 1023 75 10000 3 60 12:31 26.09.2021
5550 Clouds 1 1023 86 10000 2 40 11:56 26.09.2021
5551 Clouds 3 1023 75 10000 3 20 11:26 26.09.2021
5552 Clouds 5 1024 65 10000 3 10 09:51 26.09.2021
5553 Clouds 5 1024 65 10000 2 60 08:41 26.09.2021
5554 Clouds 3 1026 75 10000 2 290 01:18 26.09.2021
5555 Clouds 3 1026 75 10000 2 260 00:18 26.09.2021
5556 Clouds 2 1026 80 10000 2 260 22:39 25.09.2021
5557 Clouds 2 1026 80 10000 2 260 22:19 25.09.2021
5558 Clouds 3 1026 75 10000 3 280 21:46 25.09.2021
5559 Clouds 2 1026 80 10000 3 290 20:52 25.09.2021
5560 Clear 2 1026 80 10000 3 290 19:41 25.09.2021
5561 Clear 3 1025 75 10000 3 290 18:28 25.09.2021
5562 Clear 3 1025 75 10000 2 270 17:45 25.09.2021
5563 Clouds 5 1025 70 10000 2 240 14:39 25.09.2021
5564 Clouds 5 1025 70 10000 2 260 13:55 25.09.2021
5565 Clouds 5 1025 70 10000 2 260 12:46 25.09.2021
5566 Clouds 5 1025 70 10000 2 260 12:46 25.09.2021
5567 Clouds 6 1025 70 10000 4 320 11:27 25.09.2021
5568 Clouds 6 1024 65 10000 1 340 10:20 25.09.2021
5569 Clouds 7 1024 57 10000 4 310 09:22 25.09.2021
5570 Clouds 7 1024 61 10000 4 270 07:49 25.09.2021
5571 Clouds 5 1022 75 10000 5 230 00:56 25.09.2021
5572 Clouds 5 1022 81 10000 5 230 23:25 24.09.2021
5573 Clouds 5 1022 75 10000 4 220 21:34 24.09.2021
5574 Clouds 5 1021 75 10000 6 250 20:32 24.09.2021
5575 Clouds 6 1021 75 10000 5 250 19:32 24.09.2021
5576 Clouds 7 1020 76 10000 4 230 18:29 24.09.2021
5577 Clouds 7 1020 76 10000 3 240 17:53 24.09.2021
5578 Clouds 6 1020 81 10000 2 230 17:34 24.09.2021
5579 Clouds 8 1020 81 10000 4 230 15:59 24.09.2021
5580 Clouds 8 1019 81 10000 3 230 13:28 24.09.2021
5581 Rain 7 1019 87 10000 2 200 12:44 24.09.2021
5582 Clouds 8 1018 71 10000 2 180 12:25 24.09.2021
5583 Rain 8 1018 76 10000 1 110 10:56 24.09.2021
5584 Clouds 8 1018 71 10000 1 180 09:57 24.09.2021
5585 Clouds 7 1018 76 10000 2 160 08:24 24.09.2021
5586 Clouds 7 1018 70 10000 2 130 07:31 24.09.2021
5587 Clouds 7 1018 70 10000 1 210 06:23 24.09.2021
5588 Clouds 5 1018 81 10000 0 0 04:52 24.09.2021
5589 Clear 1 1021 93 10000 3 340 22:44 23.09.2021
5590 Clear 1 1022 93 10000 2 320 21:59 23.09.2021
5591 Clear 1 1022 93 10000 2 320 21:37 23.09.2021
5592 Rain 1 1022 93 10000 2 350 20:32 23.09.2021
5593 Clear 1 1022 100 10000 2 350 18:55 23.09.2021
5594 Clear 0 1023 100 10000 2 330 16:47 23.09.2021
5595 Clear 3 1023 87 10000 2 320 15:19 23.09.2021
5596 Clear 3 1023 87 10000 3 340 14:58 23.09.2021
5597 Clear 5 1023 87 10000 2 20 13:36 23.09.2021
5598 Clear 5 1023 87 10000 2 20 13:18 23.09.2021
5599 Clear 5 1024 87 10000 1 10 12:45 23.09.2021
5600 Clear 5 1024 87 10000 2 360 12:21 23.09.2021
5601 Clear 8 1023 71 10000 2 60 10:41 23.09.2021
5602 Clear 8 1023 71 10000 2 60 10:19 23.09.2021
5603 Clear 9 1023 66 10000 3 40 09:47 23.09.2021
5604 Clear 7 1023 70 10000 2 90 06:25 23.09.2021
5605 Fog 1 1021 93 10000 2 100 00:25 23.09.2021
5606 Fog 1 1020 93 10000 2 90 22:54 22.09.2021
5607 Clear 1 1020 93 10000 2 90 22:20 22.09.2021
5608 Clear 1 1019 93 10000 3 90 21:44 22.09.2021
5609 Clear 1 1019 93 10000 2 100 20:58 22.09.2021
5610 Clear 0 1019 93 10000 1 80 19:53 22.09.2021
5611 Clear 1 1019 93 10000 2 110 19:27 22.09.2021
5612 Clear 2 1019 87 10000 2 100 18:34 22.09.2021
5613 Clouds 3 1019 82 10000 2.06 116 17:33 22.09.2021
5614 Clear 3 1019 81 10000 2.01 120 15:52 22.09.2021
5615 Clear 6 1018 75 10000 4 110 14:29 22.09.2021
5616 Clear 8 1017 66 10000 4 110 13:24 22.09.2021
5617 Clear 11 1016 54 10000 3 120 11:20 22.09.2021
5618 Clear 14 1016 44 10000 5 110 09:32 22.09.2021
5619 Clear 14 1016 41 10000 4 100 08:45 22.09.2021
5620 Clear 14 1017 44 10000 5 100 07:35 22.09.2021
5621 Clear 14 1017 44 10000 4 100 06:54 22.09.2021
5622 Clear 12 1017 50 10000 4 130 05:49 22.09.2021
5623 Clear 11 1018 54 10000 4 140 04:54 22.09.2021
5624 Clear 8 1018 61 10000 2 140 03:33 22.09.2021
5625 Fog -2 1018 93 10000 1 360 00:18 22.09.2021
5626 Clear -3 1018 100 10000 1 340 22:27 21.09.2021
5627 Clear 0 1019 89 10000 1.53 113 20:58 21.09.2021
5628 Clear 0 1019 89 10000 1.6 120 19:38 21.09.2021
5629 Clear -1 1018 93 10000 2 340 19:19 21.09.2021
5630 Clear -1 1017 93 10000 2 320 16:58 21.09.2021
5631 Clear 0 1017 86 10000 1 320 15:57 21.09.2021
5632 Clear 0 1017 93 10000 1 320 15:24 21.09.2021
5633 Clear 3 1017 93 10000 2 130 14:43 21.09.2021
5634 Clear 1 1017 93 10000 1 110 13:40 21.09.2021
5635 Clear 1 1017 93 10000 1 100 12:45 21.09.2021
5636 Clear 10 1017 53 10000 1 70 10:51 21.09.2021
5637 Clear 10 1017 53 10000 1 130 09:53 21.09.2021
5638 Clear 9 1017 57 10000 2 110 07:44 21.09.2021
5639 Clear 7 1017 65 10000 3 110 05:42 21.09.2021
5640 Clouds 1 1017 86 10000 1 280 23:52 20.09.2021
5641 Clouds 1 1016 86 10000 2 300 21:53 20.09.2021
5642 Clouds 2 1016 80 10000 1 300 21:32 20.09.2021
5643 Clouds 1 1016 86 10000 2 330 20:26 20.09.2021
5644 Clouds 1 1015 86 10000 2 280 19:20 20.09.2021
5645 Clouds 2 1015 87 10000 1 290 17:31 20.09.2021
5646 Clouds 3 1014 75 10000 2 300 16:26 20.09.2021
5647 Clouds 3 1014 75 10000 2 300 15:47 20.09.2021
5648 Clouds 3 1014 75 10000 3 320 14:59 20.09.2021
5649 Clouds 4 1014 70 10000 3 290 13:36 20.09.2021
5650 Clouds 4 1013 70 10000 3 300 12:34 20.09.2021
5651 Clouds 5 1012 70 10000 4 290 10:57 20.09.2021
5652 Clouds 6 1011 61 10000 5 260 09:53 20.09.2021
5653 Clouds 6 1011 61 10000 4 280 09:34 20.09.2021
5654 Clouds 6 1011 65 10000 4 270 08:56 20.09.2021
5655 Clear 6 1010 65 10000 5 270 06:36 20.09.2021
5656 Clouds 2 1006 75 10000 5 300 23:44 19.09.2021
5657 Clouds 2 1005 69 10000 5 280 21:56 19.09.2021
5658 Clouds 2 1005 69 10000 5 280 21:33 19.09.2021
5659 Clouds 2 1005 69 10000 5 280 20:32 19.09.2021
5660 Clouds 2 1005 69 10000 5 270 19:18 19.09.2021
5661 Clouds 2 1005 64 10000 6 270 18:21 19.09.2021
5662 Clouds 2 1005 64 10000 6 280 17:22 19.09.2021
5663 Clouds 3 1005 60 10000 7 280 15:45 19.09.2021
5664 Clouds 3 1005 60 10000 8 290 14:50 19.09.2021
5665 Clouds 4 1005 60 10000 7 300 14:29 19.09.2021
5666 Clouds 5 1005 60 10000 6 280 13:19 19.09.2021
5667 Clouds 5 1005 60 10000 7 280 12:45 19.09.2021
5668 Clouds 7 1004 49 10000 7 290 11:27 19.09.2021
5669 Clouds 7 1004 49 10000 8 290 10:21 19.09.2021
5670 Clouds 8 1004 53 10000 9 280 09:26 19.09.2021
5671 Clouds 7 1003 57 10000 7 290 07:29 19.09.2021
5672 Clouds 4 1004 70 10000 8 300 02:24 19.09.2021
5673 Clouds 4 1004 75 10000 7 290 23:34 18.09.2021
5674 Clouds 4 1004 75 10000 6 290 21:58 18.09.2021
5675 Clouds 4 1004 75 10000 6 290 20:48 18.09.2021
5676 Clouds 4 1004 81 10000 5 290 20:26 18.09.2021
5677 Clouds 4 1004 81 10000 5 280 19:38 18.09.2021
5678 Clouds 4 1004 81 10000 5 280 19:20 18.09.2021
5679 Clouds 5 1004 75 10000 5 290 18:31 18.09.2021
5680 Rain 4 1004 87 10000 4 290 17:25 18.09.2021
5681 Rain 5 1005 81 10000 5 300 15:48 18.09.2021
5682 Rain 6 1004 87 10000 4 310 13:46 18.09.2021
5683 Rain 6 1004 87 10000 3 300 13:27 18.09.2021
5684 Rain 5 1004 93 10000 3 300 12:48 18.09.2021
5685 Rain 5 1003 93 10000 6 310 11:37 18.09.2021
5686 Rain 5 1003 93 10000 7 310 10:31 18.09.2021
5687 Rain 6 1002 87 10000 8 310 09:26 18.09.2021
5688 Rain 6 1002 87 10000 8 310 08:31 18.09.2021
5689 Clouds 6 1000 94 10000 6.63 321 00:59 18.09.2021
5690 Clouds 6 1000 94 10000 6.63 321 00:41 18.09.2021
5691 Clouds 7 999 96 10000 6.06 325 23:44 17.09.2021
5692 Clouds 8 998 97 10000 5.36 326 22:33 17.09.2021
5693 Rain 8 997 93 10000 4 300 21:48 17.09.2021
5694 Rain 7 997 100 10000 3 290 20:25 17.09.2021
5695 Rain 7 998 93 5000 2 310 18:51 17.09.2021
5696 Rain 7 998 93 10000 2 290 16:50 17.09.2021
5697 Rain 7 998 93 10000 0 0 15:50 17.09.2021
5698 Clouds 8 998 87 10000 3 170 12:36 17.09.2021
5699 Clouds 9 997 87 10000 4 180 10:41 17.09.2021
5700 Clouds 9 996 93 10000 5 170 08:19 17.09.2021
5701 Clouds 12 995 94 10000 2 50 06:44 17.09.2021
5702 Rain 9 994 93 10000 3 350 00:49 17.09.2021
5703 Clouds 9 995 100 10000 3 340 22:50 16.09.2021
5704 Rain 9 995 100 10000 4 350 22:24 16.09.2021
5705 Rain 9 995 100 10000 3 330 21:40 16.09.2021
5706 Rain 9 996 100 10000 3 320 20:50 16.09.2021
5707 Rain 9 997 93 10000 3 360 19:41 16.09.2021
5708 Rain 9 997 93 10000 4 320 18:19 16.09.2021
5709 Rain 9 998 93 10000 4 310 17:22 16.09.2021
5710 Rain 9 999 93 10000 3 300 14:53 16.09.2021
5711 Clouds 9 1000 100 10000 3 310 13:48 16.09.2021
5712 Clouds 10 1000 100 10000 3 290 12:47 16.09.2021
5713 Clouds 11 1000 93 10000 2 310 12:27 16.09.2021
5714 Rain 11 1001 93 10000 2 300 11:25 16.09.2021
5715 Rain 11 1000 93 5000 3 340 10:31 16.09.2021
5716 Rain 11 1000 93 5000 3 340 10:30 16.09.2021
5717 Rain 11 1000 93 5000 3 340 10:30 16.09.2021
5718 Rain 11 1001 93 10000 0 0 09:53 16.09.2021
5719 Rain 11 1002 93 10000 1 330 08:32 16.09.2021
5720 Rain 11 1002 93 10000 0 0 07:22 16.09.2021
5721 Rain 11 1003 93 10000 2 70 06:39 16.09.2021
5722 Rain 10 1004 93 10000 0 0 04:31 16.09.2021
5723 Rain 10 1005 100 10000 2 160 00:59 16.09.2021
5724 Rain 10 1005 93 10000 2 140 23:32 15.09.2021
5725 Rain 10 1006 93 10000 2 150 22:46 15.09.2021
5726 Rain 10 1006 93 10000 2 110 21:41 15.09.2021
5727 Rain 10 1006 93 10000 2 110 21:23 15.09.2021
5728 Rain 10 1007 87 10000 2 90 19:35 15.09.2021
5729 Rain 11 1007 82 10000 3 110 18:59 15.09.2021
5730 Clear 12 1007 66 10000 1 160 17:48 15.09.2021
5731 Clear 13 1008 67 10000 1 100 16:44 15.09.2021
5732 Clear 13 1008 67 10000 3 100 15:30 15.09.2021
5733 Clear 14 1009 62 10000 4 90 14:44 15.09.2021
5734 Clear 14 1009 62 10000 4 90 13:51 15.09.2021
5735 Clear 14 1009 62 10000 3 90 13:29 15.09.2021
5736 Clear 14 1009 67 10000 3 60 12:34 15.09.2021
5737 Clear 14 1009 67 10000 2 60 11:51 15.09.2021
5738 Clear 15 1009 63 10000 2 60 11:18 15.09.2021
5739 Clear 17 1009 51 10000 2 80 10:35 15.09.2021
5740 Clear 19 1010 42 10000 2 60 09:26 15.09.2021
5741 Clear 18 1011 48 10000 2 90 07:37 15.09.2021
5742 Clear 14 1013 67 10000 2 140 04:24 15.09.2021
5743 Clouds 9 1014 93 10000 0 0 22:56 14.09.2021
5744 Rain 9 1014 93 10000 2 160 21:38 14.09.2021
5745 Clouds 9 1015 93 10000 1 150 20:27 14.09.2021
5746 Clouds 9 1015 93 10000 0 0 19:41 14.09.2021
5747 Clouds 10 1015 81 10000 3 220 17:34 14.09.2021
5748 Clouds 11 1015 76 10000 1 180 16:56 14.09.2021
5749 Clouds 11 1015 82 10000 3 210 15:28 14.09.2021
5750 Clouds 11 1016 87 10000 2 230 14:31 14.09.2021
5751 Clear 13 1016 82 10000 2 170 11:51 14.09.2021
5752 Clouds 14 1016 77 10000 3 170 10:53 14.09.2021
5753 Clouds 14 1016 82 10000 3 150 09:50 14.09.2021
5754 Clouds 13 1016 88 10000 2 210 08:39 14.09.2021
5755 Rain 13 1017 88 10000 3 200 06:22 14.09.2021
5756 Clear 5 1016 81 10000 2 260 23:54 13.09.2021
5757 Clear 5 1016 81 10000 1 320 22:30 13.09.2021
5758 Clear 5 1016 81 10000 1 260 21:59 13.09.2021
5759 Clear 6 1016 81 10000 2 200 21:40 13.09.2021
5760 Clear 6 1016 81 10000 3 200 20:47 13.09.2021
5761 Clear 5 1015 81 10000 1 290 18:45 13.09.2021
5762 Clear 5 1015 81 10000 1 290 18:45 13.09.2021
5763 Clear 6 1015 75 10000 1 320 17:42 13.09.2021
5764 Clear 6 1015 75 10000 1 300 16:50 13.09.2021
5765 Clear 7 1015 76 10000 1 240 15:22 13.09.2021
5766 Clear 15 1015 51 10000 2 70 11:55 13.09.2021
5767 Clear 19 1015 34 10000 2 60 10:58 13.09.2021
5768 Clear 19 1015 34 10000 2 60 10:58 13.09.2021
5769 Clear 22 1015 26 10000 1 80 09:35 13.09.2021
5770 Clear 14 1017 47 10000 1 80 04:38 13.09.2021
5771 Clear -1 1017 86 10000 2 300 22:59 12.09.2021
5772 Clear -1 1017 86 10000 2 310 22:25 12.09.2021
5773 Clear 0 1016 80 10000 2 310 21:34 12.09.2021
5774 Clear 0 1016 80 10000 2 310 20:28 12.09.2021
5775 Clear 1 1016 80 10000 2 310 19:49 12.09.2021
5776 Clear 1 1016 80 10000 2 310 19:19 12.09.2021
5777 Clear 1 1016 80 10000 2 310 19:19 12.09.2021
5778 Clear 2 1016 75 10000 2 300 18:19 12.09.2021
5779 Clear 4 1016 70 10000 2 310 16:30 12.09.2021
5780 Clear 7 1015 65 10000 2 320 14:52 12.09.2021
5781 Clear 8 1015 61 10000 1 350 12:48 12.09.2021
5782 Clear 18 1015 34 10000 2 20 11:31 12.09.2021
5783 Clear 21 1015 21 10000 1 80 08:59 12.09.2021
5784 Clear 22 1015 20 10000 1 120 08:37 12.09.2021
5785 Clear 6 1017 65 10000 1 320 01:49 12.09.2021
5786 Clear -2 1017 86 10000 2 300 23:19 11.09.2021
5787 Clear -1 1017 80 10000 3 300 21:41 11.09.2021
5788 Clear 0 1017 74 10000 2 310 20:18 11.09.2021
5789 Clear 1 1016 75 10000 2 320 18:35 11.09.2021
5790 Clear 2 1016 75 10000 2 300 17:29 11.09.2021
5791 Clear 4 1016 70 10000 3 290 15:39 11.09.2021
5792 Clear 7 1016 65 10000 2 300 13:30 11.09.2021
5793 Clear 14 1015 38 10000 2 330 12:30 11.09.2021
5794 Clear 15 1015 41 10000 2 350 11:18 11.09.2021
5795 Clear 18 1016 24 10000 1 20 09:31 11.09.2021
5796 Clear 18 1016 24 10000 1 10 07:44 11.09.2021
5797 Clear 18 1017 24 10000 1 90 06:31 11.09.2021
5798 Clear -2 1018 86 10000 2 290 22:48 10.09.2021
5799 Clear -2 1018 86 10000 3 300 22:22 10.09.2021
5800 Clear -2 1018 86 10000 3 300 21:46 10.09.2021
5801 Clear 0 1018 74 10000 3 300 19:41 10.09.2021
5802 Clear 0 1018 80 10000 2 300 18:20 10.09.2021
5803 Clear 2 1018 75 10000 3 290 16:34 10.09.2021
5804 Clear 7 1018 61 10000 3 320 13:54 10.09.2021
5805 Clear 14 1018 38 10000 3 20 11:46 10.09.2021
5806 Clear 18 1019 25 10000 1 10 08:29 10.09.2021
5807 Clear 18 1019 25 10000 1 10 07:45 10.09.2021
5808 Clear -1 1021 74 10000 2 290 00:42 10.09.2021
5809 Clear -3 1021 86 10000 3 290 22:18 09.09.2021
5810 Clear -2 1021 80 10000 2 290 20:48 09.09.2021
5811 Clear -2 1020 80 10000 2 300 20:30 09.09.2021
5812 Clear -1 1020 80 10000 2 310 18:55 09.09.2021
5813 Clear 0 1020 74 10000 2 310 17:54 09.09.2021
5814 Clear 1 1019 75 10000 2 300 16:40 09.09.2021
5815 Clear 3 1019 65 10000 2 310 15:26 09.09.2021
5816 Clear 11 1018 40 10000 3 360 12:34 09.09.2021
5817 Clear 14 1018 30 10000 3 10 11:33 09.09.2021
5818 Clear 16 1018 23 10000 3 10 09:39 09.09.2021
5819 Clear 16 1018 25 10000 3 20 07:57 09.09.2021
5820 Clear 15 1018 25 10000 3 10 06:20 09.09.2021
5821 Clear 8 1019 53 10000 3 20 01:31 09.09.2021
5822 Clear 8 1019 53 10000 3 20 01:31 09.09.2021
5823 Clear 8 1019 53 10000 3 20 01:31 09.09.2021
5824 Clear 5 1017 70 10000 3 360 21:50 08.09.2021
5825 Clear 5 1017 81 10000 3 360 20:57 08.09.2021
5826 Clear 6 1017 81 10000 3 350 19:47 08.09.2021
5827 Clear 7 1016 76 10000 2 350 18:49 08.09.2021
5828 Clear 9 1016 71 10000 3 360 18:25 08.09.2021
5829 Clear 10 1015 66 10000 3 10 17:52 08.09.2021
5830 Clear 10 1014 76 10000 3 350 16:24 08.09.2021
5831 Clear 11 1013 71 10000 2 320 13:46 08.09.2021
5832 Clear 15 1013 55 10000 2 330 12:42 08.09.2021
5833 Clear 15 1013 55 10000 2 330 12:23 08.09.2021
5834 Clear 18 1012 42 10000 2 10 11:26 08.09.2021
5835 Clear 20 1012 32 10000 2 60 10:31 08.09.2021
5836 Clear 20 1012 32 10000 2 40 09:57 08.09.2021
5837 Clear 20 1013 28 10000 2 90 07:47 08.09.2021
5838 Clear 20 1013 30 10000 2 100 07:29 08.09.2021
5839 Clear 0 1013 80 10000 3 290 23:41 07.09.2021
5840 Clear 0 1013 80 10000 3 290 23:41 07.09.2021
5841 Clear 1 1012 80 10000 3 290 22:19 07.09.2021
5842 Clear 1 1013 80 10000 3 290 20:50 07.09.2021
5843 Clear 1 1013 80 10000 3 300 19:40 07.09.2021
5844 Clear 2 1013 80 10000 2 290 18:37 07.09.2021
5845 Clear 3 1013 81 10000 2 290 17:38 07.09.2021
5846 Clear 5 1013 75 10000 3 300 15:57 07.09.2021
5847 Clear 6 1013 70 10000 3 300 14:54 07.09.2021
5848 Clear 8 1013 66 10000 2 300 13:52 07.09.2021
5849 Clear 14 1013 51 10000 1 40 12:23 07.09.2021
5850 Clear 19 1013 27 10000 1 360 10:59 07.09.2021
5851 Clear 19 1013 27 10000 1 360 10:59 07.09.2021
5852 Clear 19 1013 27 10000 1 40 10:20 07.09.2021
5853 Clear 19 1014 34 10000 1 60 07:48 07.09.2021
5854 Clear 18 1015 32 10000 1 90 06:42 07.09.2021
5855 Clear 10 1017 66 10000 1 60 02:43 07.09.2021
5856 Clear 9 1017 66 10000 1 10 02:23 07.09.2021
5857 Clear 2 1018 87 10000 2 300 00:21 07.09.2021
5858 Clear -1 1018 93 10000 2 280 23:31 06.09.2021
5859 Clear -1 1018 93 10000 2 310 22:53 06.09.2021
5860 Clear -1 1018 93 10000 2 310 22:24 06.09.2021
5861 Clear 0 1019 93 10000 2 300 20:37 06.09.2021
5862 Clear 0 1019 93 10000 2 310 19:22 06.09.2021
5863 Clear 1 1019 93 10000 2 310 18:36 06.09.2021
5864 Clear 2 1020 87 10000 2 310 17:54 06.09.2021
5865 Clear 3 1020 87 10000 2 300 16:35 06.09.2021
5866 Clear 4 1021 87 10000 2 300 15:34 06.09.2021
5867 Clear 6 1021 81 10000 1 350 13:45 06.09.2021
5868 Clear 8 1021 76 10000 2 300 12:45 06.09.2021
5869 Clear 16 1022 39 10000 1 80 10:37 06.09.2021
5870 Clear 15 1024 44 10000 3 140 07:48 06.09.2021
5871 Clear 11 1027 62 10000 2 130 04:38 06.09.2021
5872 Clear 1 1029 93 10000 3 310 23:24 05.09.2021
5873 Clear 0 1029 93 10000 2 290 22:33 05.09.2021
5874 Clear 0 1029 93 10000 4 300 21:56 05.09.2021
5875 Clear 0 1029 93 10000 3 300 21:21 05.09.2021
5876 Clear 0 1029 93 10000 2 290 19:47 05.09.2021
5877 Clear 2 1030 93 10000 1 280 18:32 05.09.2021
5878 Clear 3 1030 93 10000 2 300 16:53 05.09.2021
5879 Clear 5 1030 87 10000 1 290 15:21 05.09.2021
5880 Clear 11 1030 62 10000 2 190 12:45 05.09.2021
5881 Clear 13 1030 54 10000 2 190 11:45 05.09.2021
5882 Clear 14 1030 54 10000 2 160 10:46 05.09.2021
5883 Clear 13 1030 54 10000 3 140 09:42 05.09.2021
5884 Clear 13 1030 54 10000 3 150 08:35 05.09.2021
5885 Clear 13 1031 58 10000 3 110 06:45 05.09.2021
5886 Clouds 2 1030 87 10000 4 300 00:42 05.09.2021
5887 Clouds 2 1030 87 10000 4 300 23:59 04.09.2021
5888 Clear 2 1030 87 10000 4 290 23:26 04.09.2021
5889 Clear 2 1029 87 10000 2 270 22:35 04.09.2021
5890 Clear 3 1029 81 10000 3 310 21:20 04.09.2021
5891 Clouds 5 1027 75 10000 4 290 19:40 04.09.2021
5892 Clouds 5 1027 75 10000 4 270 17:43 04.09.2021
5893 Clouds 6 1027 70 10000 3 280 15:52 04.09.2021
5894 Clear 9 1025 53 10000 5 300 11:54 04.09.2021
5895 Clear 11 1025 46 10000 6 300 10:55 04.09.2021
5896 Clear 13 1024 44 10000 5 290 08:46 04.09.2021
5897 Clouds 9 1022 66 10000 4 310 01:59 04.09.2021
5898 Clouds 8 1021 76 10000 5 310 00:23 04.09.2021
5899 Clouds 8 1021 81 10000 4 300 23:23 03.09.2021
5900 Clouds 8 1019 81 10000 5 290 21:43 03.09.2021
5901 Clouds 9 1019 81 10000 4 290 21:24 03.09.2021
5902 Clouds 9 1018 81 10000 5 290 20:34 03.09.2021
5903 Clouds 10 1018 81 10000 5 290 19:44 03.09.2021
5904 Clouds 10 1017 87 10000 4 270 18:37 03.09.2021
5905 Clouds 10 1017 87 10000 4 270 17:32 03.09.2021
5906 Clouds 11 1016 87 10000 4 260 15:46 03.09.2021
5907 Clouds 11 1016 87 10000 3 260 14:47 03.09.2021
5908 Rain 13 1014 71 10000 5 320 11:22 03.09.2021
5909 Rain 14 1013 77 10000 3 290 10:21 03.09.2021
5910 Clouds 16 1011 67 10000 5 290 08:22 03.09.2021
5911 Clouds 19 1009 55 10000 7 290 06:51 03.09.2021
5912 Clear 10 1006 71 10000 3 130 23:59 02.09.2021
5913 Clear 9 1007 81 10000 3 120 22:22 02.09.2021
5914 Clear 6 1007 87 10000 0 0 20:59 02.09.2021
5915 Clear 6 1008 93 10000 1 160 18:52 02.09.2021
5916 Clear 8 1008 87 10000 1 180 16:57 02.09.2021
5917 Clear 11 1009 76 10000 1 240 15:32 02.09.2021
5918 Clear 16 1009 55 10000 3 120 13:43 02.09.2021
5919 Clear 19 1009 48 10000 1 80 11:46 02.09.2021
5920 Clear 21 1009 43 10000 1 80 11:27 02.09.2021
5921 Clear 22 1009 35 10000 2 170 09:21 02.09.2021
5922 Clear 22 1011 33 10000 3 170 07:40 02.09.2021
5923 Clear 20 1011 40 10000 3 150 06:40 02.09.2021
5924 Clear 12 1013 62 10000 3 180 02:38 02.09.2021
5925 Clear 11 1012 66 10000 3 180 01:53 02.09.2021
5926 Clear 8 1012 81 10000 3 170 00:24 02.09.2021
5927 Clear 2 1012 93 10000 1 190 23:28 01.09.2021
5928 Clear 1 1012 93 10000 0 0 22:30 01.09.2021
5929 Clear 1 1012 93 10000 1 310 21:33 01.09.2021
5930 Clear 2 1012 93 10000 1 270 19:38 01.09.2021
5931 Clear 4 1012 93 10000 2 290 17:57 01.09.2021
5932 Clear 4 1012 93 10000 2 290 17:18 01.09.2021
5933 Clear 5 1012 87 10000 2 290 16:46 01.09.2021
5934 Clear 6 1012 93 10000 2 300 15:18 01.09.2021
5935 Clear 16 1012 51 10000 2 140 11:48 01.09.2021
5936 Clear 17 1013 45 10000 2 170 10:39 01.09.2021
5937 Clear 17 1013 42 10000 3 170 08:42 01.09.2021
5938 Clear 16 1013 44 10000 3 160 07:50 01.09.2021
5939 Clear 2 1015 87 10000 2 280 23:33 31.08.2021
5940 Clear 2 1015 87 10000 3 290 22:23 31.08.2021
5941 Clear 3 1015 87 10000 3 290 20:34 31.08.2021
5942 Clear 4 1015 81 10000 3 290 19:43 31.08.2021
5943 Clear 5 1014 81 10000 3 300 17:53 31.08.2021
5944 Clear 6 1014 75 10000 3 300 17:26 31.08.2021
5945 Clear 6 1014 81 10000 3 300 16:41 31.08.2021
5946 Clear 8 1014 71 10000 3 290 15:39 31.08.2021
5947 Clear 13 1014 50 10000 3 270 12:43 31.08.2021
5948 Clear 15 1014 44 10000 3 310 11:20 31.08.2021
5949 Clear 15 1013 44 10000 4 330 10:43 31.08.2021
5950 Clear 15 1013 44 10000 5 300 09:42 31.08.2021
5951 Clear 16 1013 39 10000 5 310 07:57 31.08.2021
5952 Clear 15 1013 44 10000 5 270 05:57 31.08.2021
5953 Clear 6 1012 87 10000 3 280 23:36 30.08.2021
5954 Clear 6 1012 87 10000 3 280 22:52 30.08.2021
5955 Clear 6 1011 93 10000 4 300 21:38 30.08.2021
5956 Clear 7 1011 93 10000 4 290 20:41 30.08.2021
5957 Clear 7 1010 93 10000 4 290 19:54 30.08.2021
5958 Clear 7 1010 93 10000 4 290 19:54 30.08.2021
5959 Clear 8 1010 87 10000 4 300 19:24 30.08.2021
5960 Clouds 10 1010 81 10000 3 300 17:51 30.08.2021
5961 Clouds 10 1010 81 10000 5 300 16:29 30.08.2021
5962 Clouds 10 1010 87 10000 7 320 15:45 30.08.2021
5963 Clouds 13 1009 76 10000 5 320 13:59 30.08.2021
5964 Rain 13 1008 82 10000 5 320 13:21 30.08.2021
5965 Rain 19 1006 63 10000 5 310 11:29 30.08.2021
5966 Clear 18 1006 45 10000 5 170 04:57 30.08.2021
5967 Clear 2 1008 93 10000 1 260 21:57 29.08.2021
5968 Clear 3 1008 93 10000 1 230 20:54 29.08.2021
5969 Clear 4 1008 93 10000 0 0 19:28 29.08.2021
5970 Clear 4 1008 100 10000 0 0 18:25 29.08.2021
5971 Clear 7 1009 87 10000 1 360 15:58 29.08.2021
5972 Clear 7 1009 87 10000 1 360 15:58 29.08.2021
5973 Clear 7 1009 93 10000 0 0 14:28 29.08.2021
5974 Clear 9 1009 81 10000 0 0 13:55 29.08.2021
5975 Clear 14 1009 58 10000 2 140 12:58 29.08.2021
5976 Clear 15 1009 55 10000 2 150 12:18 29.08.2021
5977 Clear 16 1010 51 10000 3 140 11:40 29.08.2021
5978 Clear 16 1010 48 10000 3 140 10:46 29.08.2021
5979 Clear 17 1010 39 10000 4 150 10:28 29.08.2021
5980 Clear 17 1010 39 10000 4 160 09:30 29.08.2021
5981 Clear 13 1013 58 10000 3 170 04:18 29.08.2021
5982 Mist 0 1014 93 5000 1 240 22:43 28.08.2021
5983 Clear 0 1014 100 10000 1 270 20:31 28.08.2021
5984 Clear 1 1014 93 10000 1 270 19:20 28.08.2021
5985 Clear 1 1014 100 10000 1 270 18:22 28.08.2021
5986 Clear 2 1014 93 10000 2 250 17:45 28.08.2021
5987 Clear 3 1014 93 10000 2 270 16:28 28.08.2021
5988 Clear 6 1013 87 10000 2 220 14:51 28.08.2021
5989 Clear 7 1013 81 10000 1 240 13:47 28.08.2021
5990 Clouds 10 1013 66 10000 2 280 12:47 28.08.2021
5991 Clouds 10 1013 66 10000 1 280 12:24 28.08.2021
5992 Clouds 11 1013 62 10000 3 310 10:45 28.08.2021
5993 Clouds 11 1013 62 10000 3 280 09:34 28.08.2021
5994 Clouds 10 1013 62 10000 4 290 07:26 28.08.2021
5995 Clouds 7 1010 76 10000 3 270 22:57 27.08.2021
5996 Clear 6 1010 75 10000 4 270 21:26 27.08.2021
5997 Clear 6 1010 75 10000 5 260 20:35 27.08.2021
5998 Clear 6 1010 75 10000 5 260 19:30 27.08.2021
5999 Clouds 7 1010 70 10000 4 250 18:38 27.08.2021
6000 Clouds 8 1010 66 10000 4 280 17:38 27.08.2021
6001 Clouds 8 1010 71 10000 5 280 16:28 27.08.2021
6002 Clouds 8 1009 71 10000 6 300 14:44 27.08.2021
6003 Clouds 10 1008 71 10000 6 310 12:55 27.08.2021
6004 Clouds 12 1007 66 10000 6 280 11:42 27.08.2021
6005 Clouds 13 1007 67 10000 6 290 10:48 27.08.2021
6006 Clouds 13 1007 71 10000 7 270 09:52 27.08.2021
6007 Clouds 14 1006 67 10000 6 270 08:55 27.08.2021
6008 Clouds 15 1006 58 10000 6 270 07:39 27.08.2021
6009 Rain 15 1005 63 10000 6 270 05:33 27.08.2021
6010 Clouds 13 1004 88 10000 4 270 00:39 27.08.2021
6011 Clouds 13 1004 88 10000 3 250 23:52 26.08.2021
6012 Clouds 13 1004 94 10000 3 230 22:23 26.08.2021
6013 Clouds 13 1004 94 10000 4 210 21:32 26.08.2021
6014 Rain 14 1004 94 10000 3 210 19:30 26.08.2021
6015 Rain 14 1005 94 10000 3 200 17:47 26.08.2021
6016 Rain 14 1005 94 10000 3 210 17:24 26.08.2021
6017 Rain 15 1005 88 10000 3 200 16:26 26.08.2021
6018 Rain 17 1006 72 10000 6 230 14:20 26.08.2021
6019 Clouds 18 1006 59 10000 4 200 13:20 26.08.2021
6020 Clouds 18 1006 63 10000 3 190 12:32 26.08.2021
6021 Clouds 19 1006 55 10000 3 200 11:22 26.08.2021
6022 Clear 22 1007 40 10000 5 240 08:35 26.08.2021
6023 Clear 22 1007 40 10000 5 230 07:52 26.08.2021
6024 Clear 12 1010 71 10000 2 220 23:25 25.08.2021
6025 Clear 11 1011 76 10000 4 260 22:37 25.08.2021
6026 Clear 11 1011 76 10000 4 260 22:18 25.08.2021
6027 Clear 12 1011 71 10000 5 240 20:57 25.08.2021
6028 Clouds 12 1011 66 10000 5 230 20:29 25.08.2021
6029 Clouds 13 1011 67 10000 4 240 18:46 25.08.2021
6030 Clouds 13 1011 67 10000 3 240 17:52 25.08.2021
6031 Clouds 14 1011 67 10000 3 270 15:51 25.08.2021
6032 Clouds 15 1011 63 10000 3 270 15:24 25.08.2021
6033 Clouds 16 1011 59 10000 4 250 14:43 25.08.2021
6034 Clouds 16 1010 59 10000 4 230 13:31 25.08.2021
6035 Clouds 16 1010 59 10000 4 230 13:31 25.08.2021
6036 Clouds 17 1010 55 10000 4 260 11:36 25.08.2021
6037 Clear 19 1010 48 10000 4 270 10:56 25.08.2021
6038 Clear 21 1009 43 10000 4 320 09:59 25.08.2021
6039 Clear 19 1009 55 10000 2 70 09:30 25.08.2021
6040 Clouds 19 1009 55 10000 1 280 08:33 25.08.2021
6041 Clouds 15 1009 72 10000 2 260 05:55 25.08.2021
6042 Rain 12 1008 87 10000 4 300 00:54 25.08.2021
6043 Rain 12 1007 94 10000 4 300 22:51 24.08.2021
6044 Rain 13 1007 94 10000 3 300 20:53 24.08.2021
6045 Rain 13 1007 88 10000 3 290 19:53 24.08.2021
6046 Clouds 13 1007 88 10000 3 300 18:51 24.08.2021
6047 Clouds 13 1007 88 10000 4 300 17:52 24.08.2021
6048 Clouds 13 1007 88 10000 3 300 17:20 24.08.2021
6049 Clouds 13 1007 88 10000 4 330 14:38 24.08.2021
6050 Rain 13 1007 88 10000 4 320 13:29 24.08.2021
6051 Rain 13 1007 88 10000 4 320 13:29 24.08.2021
6052 Rain 13 1007 94 10000 5 320 12:36 24.08.2021
6053 Rain 14 1007 88 10000 4 320 11:19 24.08.2021
6054 Rain 14 1007 88 10000 4 320 10:45 24.08.2021
6055 Clouds 15 1006 82 10000 4 320 09:23 24.08.2021
6056 Clouds 15 1006 82 10000 3 320 07:28 24.08.2021
6057 Clouds 14 1006 88 10000 5 330 05:37 24.08.2021
6058 Rain 13 1007 94 10000 3 310 00:59 24.08.2021
6059 Clouds 13 1006 94 10000 3 320 23:28 23.08.2021
6060 Rain 13 1007 94 10000 2 310 22:42 23.08.2021
6061 Rain 14 1007 88 10000 2 330 20:58 23.08.2021
6062 Clouds 13 1007 100 10000 1 330 19:30 23.08.2021
6063 Clouds 13 1007 100 10000 1 330 19:30 23.08.2021
6064 Clear 13 1007 100 10000 1 280 16:45 23.08.2021
6065 Clear 14 1008 94 10000 1 270 15:32 23.08.2021
6066 Clouds 14 1008 94 10000 0 0 13:47 23.08.2021
6067 Clouds 16 1008 82 10000 2 320 12:30 23.08.2021
6068 Clouds 16 1008 82 10000 3 320 10:46 23.08.2021
6069 Clouds 16 1007 88 10000 4 310 09:52 23.08.2021
6070 Clouds 17 1007 82 10000 3 300 08:34 23.08.2021
6071 Clouds 17 1007 82 10000 4 330 06:57 23.08.2021
6072 Clouds 17 1007 82 10000 4 310 06:38 23.08.2021
6073 Rain 16 1006 94 10000 4 310 00:59 23.08.2021
6074 Rain 17 1005 94 10000 2 310 23:38 22.08.2021
6075 Rain 17 1005 94 10000 2 340 22:40 22.08.2021
6076 Rain 17 1005 94 5000 3 340 20:23 22.08.2021
6077 Rain 17 1005 94 10000 3 330 19:57 22.08.2021
6078 Rain 17 1004 100 10000 4 350 17:41 22.08.2021
6079 Rain 18 1005 94 3200 3 300 15:48 22.08.2021
6080 Rain 18 1005 94 10000 3 340 14:53 22.08.2021
6081 Rain 18 1006 94 10000 3 340 13:37 22.08.2021
6082 Rain 18 1006 94 10000 3 340 13:19 22.08.2021
6083 Rain 19 1005 88 10000 5 350 12:29 22.08.2021
6084 Rain 20 1005 88 10000 4 330 11:43 22.08.2021
6085 Rain 21 1005 88 10000 4 310 10:53 22.08.2021
6086 Rain 25 1004 65 10000 1 300 08:41 22.08.2021
6087 Clear 25 1005 61 10000 1 110 04:59 22.08.2021
6088 Clear 18 1005 88 10000 0 0 00:32 22.08.2021
6089 Clouds 18 1004 88 10000 0 0 22:36 21.08.2021
6090 Clouds 18 1004 82 10000 1 260 21:34 21.08.2021
6091 Clouds 18 1004 82 10000 1 210 18:46 21.08.2021
6092 Clouds 19 1004 82 10000 0 0 17:59 21.08.2021
6093 Clouds 20 1004 83 10000 1 280 16:56 21.08.2021
6094 Clouds 20 1004 83 10000 1 130 16:29 21.08.2021
6095 Clouds 21 1004 73 10000 1 190 15:37 21.08.2021
6096 Clouds 23 1003 64 10000 2 160 14:54 21.08.2021
6097 Clouds 22 1003 78 10000 2 130 13:35 21.08.2021
6098 Clouds 24 1003 64 10000 2 150 12:39 21.08.2021
6099 Clear 29 1001 42 10000 4 180 09:32 21.08.2021
6100 Clear 27 1001 54 10000 5 160 06:20 21.08.2021
6101 Rain 17 1002 100 10000 2 20 23:50 20.08.2021
6102 Rain 17 1002 94 10000 1 10 21:54 20.08.2021
6103 Clouds 18 1003 82 10000 1 320 18:43 20.08.2021
6104 Clouds 18 1003 88 10000 3 340 16:29 20.08.2021
6105 Clouds 20 1003 77 10000 4 360 13:54 20.08.2021
6106 Rain 21 1003 73 10000 4 10 11:51 20.08.2021
6107 Rain 21 1003 73 10000 4 10 11:25 20.08.2021
6108 Clouds 22 1004 68 10000 4 20 09:45 20.08.2021
6109 Clear 22 1004 68 10000 4 40 08:54 20.08.2021
6110 Clear 23 1004 64 10000 4 50 08:35 20.08.2021
6111 Clear 19 1005 72 10000 3 10 04:36 20.08.2021
6112 Clear 18 1005 77 10000 4 30 04:18 20.08.2021
6113 Rain 15 1005 82 10000 2 360 23:26 19.08.2021
6114 Clouds 14 1005 88 10000 2 360 22:36 19.08.2021
6115 Clear 14 1005 88 10000 2 350 21:33 19.08.2021
6116 Clear 15 1005 82 10000 3 350 19:55 19.08.2021
6117 Clear 16 1005 77 10000 2 340 17:29 19.08.2021
6118 Clear 17 1006 77 10000 3 10 16:34 19.08.2021
6119 Clear 17 1006 72 10000 3 10 14:23 19.08.2021
6120 Clear 18 1006 68 10000 3 10 12:39 19.08.2021
6121 Clear 18 1006 68 10000 3 10 12:18 19.08.2021
6122 Clear 20 1006 56 10000 4 20 10:42 19.08.2021
6123 Clear 20 1006 56 10000 3 20 09:48 19.08.2021
6124 Clear 21 1006 52 10000 3 30 09:24 19.08.2021
6125 Clear 20 1006 56 10000 2 60 07:46 19.08.2021
6126 Clear 14 1007 88 10000 1 70 02:53 19.08.2021
6127 Clouds 14 1007 82 10000 1 70 01:58 19.08.2021
6128 Clouds 10 1007 93 10000 1 230 23:21 18.08.2021
6129 Clear 9 1007 93 10000 3 200 21:44 18.08.2021
6130 Clear 10 1007 100 10000 2 170 20:39 18.08.2021
6131 Clear 10 1006 93 10000 2 170 20:18 18.08.2021
6132 Clear 10 1007 100 10000 2 170 20:18 18.08.2021
6133 Clear 11 1006 93 10000 4 230 18:57 18.08.2021
6134 Clear 11 1006 93 10000 4 220 18:33 18.08.2021
6135 Clouds 12 1006 87 10000 3 200 16:40 18.08.2021
6136 Clouds 13 1006 82 10000 4 220 15:39 18.08.2021
6137 Clouds 13 1006 82 10000 5 220 15:21 18.08.2021
6138 Clouds 13 1006 82 10000 5 220 15:21 18.08.2021
6139 Clouds 14 1005 77 10000 5 230 12:44 18.08.2021
6140 Clouds 15 1005 77 10000 6 230 12:26 18.08.2021
6141 Clouds 16 1004 77 10000 6 230 11:22 18.08.2021
6142 Rain 14 1001 82 10000 8 230 07:49 18.08.2021
6143 Clouds 16 999 82 10000 4 170 00:48 18.08.2021
6144 Clouds 15 1000 88 10000 4 180 22:32 17.08.2021
6145 Clouds 16 1000 88 10000 5 200 21:43 17.08.2021
6146 Rain 16 1000 88 10000 5 200 20:45 17.08.2021
6147 Rain 16 1000 94 5000 4 120 19:20 17.08.2021
6148 Rain 17 1001 77 10000 2 120 17:33 17.08.2021
6149 Clear 17 1001 77 10000 3 80 16:50 17.08.2021
6150 Clear 16 1002 82 10000 2 20 15:41 17.08.2021
6151 Clear 16 1002 82 10000 2 10 14:42 17.08.2021
6152 Clear 19 1002 72 10000 3 20 12:36 17.08.2021
6153 Clear 21 1003 60 10000 2 40 09:27 17.08.2021
6154 Clear 20 1003 56 10000 3 30 08:21 17.08.2021
6155 Clear 19 1004 68 10000 3 70 06:41 17.08.2021
6156 Smoke 14 1006 88 5000 3 320 23:24 16.08.2021
6157 Smoke 15 1005 88 2400 4 320 22:52 16.08.2021
6158 Smoke 15 1005 88 2400 4 320 22:34 16.08.2021
6159 Smoke 16 1005 94 1500 3 350 21:37 16.08.2021
6160 Smoke 16 1005 94 900 3 330 20:50 16.08.2021
6161 Smoke 16 1005 94 900 3 330 20:50 16.08.2021
6162 Smoke 17 1005 94 550 3 340 19:26 16.08.2021
6163 Smoke 17 1005 94 500 2 330 18:25 16.08.2021
6164 Smoke 17 1005 94 350 2 340 17:52 16.08.2021
6165 Fog 17 1005 100 550 2 340 16:25 16.08.2021
6166 Thunderstorm 18 1005 94 600 2 330 14:58 16.08.2021
6167 Fog 18 1005 94 600 1 160 13:40 16.08.2021
6168 Fog 19 1005 88 800 2 80 12:56 16.08.2021
6169 Fog 19 1005 88 900 2 50 11:30 16.08.2021
6170 Fog 19 1006 88 700 4 360 08:58 16.08.2021
6171 Clouds 29 1004 44 10000 3.7 297 07:45 16.08.2021
6172 Rain 29 1005 46 10000 2.13 246 07:27 16.08.2021
6173 Clouds 27 1005 51 10000 2.5 198 05:51 16.08.2021
6174 Fog 15 1008 100 100 1 290 23:47 15.08.2021
6175 Fog 15 1008 94 250 1 330 21:21 15.08.2021
6176 Smoke 17 1007 94 550 1 340 19:25 15.08.2021
6177 Smoke 17 1007 94 500 1 340 18:38 15.08.2021
6178 Smoke 18 1007 94 550 1 50 17:42 15.08.2021
6179 Thunderstorm 18 1007 100 550 3 180 16:29 15.08.2021
6180 Thunderstorm 18 1007 100 900 2 10 15:32 15.08.2021
6181 Rain 19 1007 86 10000 0.4 291 14:31 15.08.2021
6182 Smoke 21 1006 83 2100 2 20 11:54 15.08.2021
6183 Smoke 25 1005 57 1100 3 140 09:41 15.08.2021
6184 Smoke 21 1006 73 600 2 90 06:31 15.08.2021
6185 Smoke 14 1006 94 600 1 290 00:44 15.08.2021
6186 Smoke 14 1006 88 550 1 300 23:45 14.08.2021
6187 Smoke 14 1006 94 500 2 320 21:21 14.08.2021
6188 Smoke 14 1006 94 550 2 300 19:44 14.08.2021
6189 Smoke 14 1006 94 550 2 300 19:25 14.08.2021
6190 Smoke 18 1006 82 600 3 340 17:32 14.08.2021
6191 Smoke 19 1006 77 650 3 340 16:35 14.08.2021
6192 Smoke 20 1006 73 600 3 360 14:58 14.08.2021
6193 Smoke 24 1005 60 2400 3 20 12:49 14.08.2021
6194 Smoke 29 1005 39 2400 4 170 10:55 14.08.2021
6195 Smoke 30 1005 37 2400 4 160 08:28 14.08.2021
6196 Smoke 15 1009 94 750 1 80 23:55 13.08.2021
6197 Smoke 14 1009 94 650 0 0 23:26 13.08.2021
6198 Smoke 15 1009 88 700 1 30 21:47 13.08.2021
6199 Smoke 15 1010 88 700 0 0 19:29 13.08.2021
6200 Smoke 15 1010 88 500 1 330 18:35 13.08.2021
6201 Smoke 15 1010 88 650 2 300 16:49 13.08.2021
6202 Smoke 15 1010 100 600 0 0 15:41 13.08.2021
6203 Smoke 23 1011 56 1100 2 190 11:21 13.08.2021
6204 Smoke 24 1011 53 1800 2 180 10:39 13.08.2021
6205 Smoke 24 1011 53 1300 2 130 08:39 13.08.2021
6206 Smoke 24 1012 53 1100 2 140 07:48 13.08.2021
6207 Smoke 23 1012 64 450 2 130 05:36 13.08.2021
6208 Smoke 14 1013 94 300 2 300 00:18 13.08.2021
6209 Smoke 15 1013 88 550 3 290 21:43 12.08.2021
6210 Smoke 15 1013 88 650 3 290 20:27 12.08.2021
6211 Smoke 15 1013 88 700 3 290 19:49 12.08.2021
6212 Smoke 16 1012 82 800 2 300 17:56 12.08.2021
6213 Smoke 17 1012 82 800 2 290 16:50 12.08.2021
6214 Smoke 17 1012 82 800 2 290 16:50 12.08.2021
6215 Smoke 18 1012 77 650 3 320 15:35 12.08.2021
6216 Smoke 19 1012 77 600 1 340 13:51 12.08.2021
6217 Smoke 23 1012 53 300 2 340 11:37 12.08.2021
6218 Smoke 25 1011 44 150 4 340 08:57 12.08.2021
6219 Smoke 25 1011 53 700 1 60 07:21 12.08.2021
6220 Smoke 16 1012 82 550 2 290 23:21 11.08.2021
6221 Smoke 15 1012 88 600 2 310 21:44 11.08.2021
6222 Smoke 16 1012 88 600 2 330 18:55 11.08.2021
6223 Smoke 16 1012 82 550 1 350 18:24 11.08.2021
6224 Smoke 21 1012 68 750 3 340 15:22 11.08.2021
6225 Smoke 21 1012 68 750 3 350 14:54 11.08.2021
6226 Smoke 24 1012 60 900 3 350 12:47 11.08.2021
6227 Smoke 25 1012 57 1000 2 340 12:29 11.08.2021
6228 Smoke 26 1012 50 1600 2 360 11:40 11.08.2021
6229 Smoke 26 1012 50 1600 2 360 11:21 11.08.2021
6230 Smoke 27 1013 54 3200 1 70 08:53 11.08.2021
6231 Smoke 27 1013 54 3200 1 70 08:53 11.08.2021
6232 Smoke 23 1014 56 3200 1 180 04:58 11.08.2021
6233 Clear 13 1014 71 10000 0 0 22:33 10.08.2021
6234 Clear 12 1014 76 10000 0 0 21:44 10.08.2021
6235 Clear 13 1014 71 10000 0 0 20:51 10.08.2021
6236 Clear 14 1013 72 10000 0 0 19:27 10.08.2021
6237 Clear 15 1013 67 10000 0 0 17:33 10.08.2021
6238 Clear 18 1013 63 10000 0 0 15:37 10.08.2021
6239 Clear 18 1013 68 10000 0 0 14:40 10.08.2021
6240 Clear 30 1012 28 10000 1 140 10:54 10.08.2021
6241 Clear 30 1013 25 10000 2 190 09:33 10.08.2021
6242 Clear 28 1014 30 10000 2 180 05:27 10.08.2021
6243 Clear 16 1015 59 10000 1 60 00:45 10.08.2021
6244 Clear 9 1015 71 10000 2 310 23:34 09.08.2021
6245 Clear 7 1015 76 10000 1 310 21:53 09.08.2021
6246 Clear 7 1015 76 10000 2 310 21:28 09.08.2021
6247 Clear 10 1014 66 10000 1 320 18:48 09.08.2021
6248 Smoke 12 1013 71 5000 1 310 16:57 09.08.2021
6249 Clear 15 1013 72 10000 1 170 14:42 09.08.2021
6250 Clear 22 1013 43 10000 1 160 13:31 09.08.2021
6251 Clear 24 1013 29 10000 1 140 11:54 09.08.2021
6252 Clear 28 1012 21 10000 1 130 09:45 09.08.2021
6253 Clear 28 1013 24 10000 1 110 08:25 09.08.2021
6254 Clear 11 1016 66 10000 1 50 21:33 08.08.2021
6255 Clear 11 1016 66 10000 1 360 20:55 08.08.2021
6256 Clear 16 1016 48 10000 1 190 18:25 08.08.2021
6257 Clear 19 1016 37 10000 3 140 16:39 08.08.2021
6258 Clear 20 1016 37 10000 3 130 15:30 08.08.2021
6259 Clear 24 1015 29 10000 3 130 12:48 08.08.2021
6260 Clear 26 1015 31 10000 3 160 10:43 08.08.2021
6261 Clear 25 1017 33 10000 4 150 06:42 08.08.2021
6262 Clear 23 1018 38 10000 4 140 05:34 08.08.2021
6263 Clear 17 1019 51 10000 5 130 00:28 08.08.2021
6264 Clear 15 1018 58 10000 4 120 22:18 07.08.2021
6265 Clear 15 1018 58 10000 4 130 21:38 07.08.2021
6266 Clear 17 1018 55 10000 3 130 18:42 07.08.2021
6267 Clear 18 1018 48 10000 3 140 17:18 07.08.2021
6268 Clear 19 1017 45 10000 4 150 16:24 07.08.2021
6269 Clear 22 1016 37 10000 5 140 13:59 07.08.2021
6270 Clear 24 1015 33 10000 7 130 12:23 07.08.2021
6271 Clear 26 1014 27 10000 7 130 09:43 07.08.2021
6272 Clear 25 1014 29 10000 6 130 04:56 07.08.2021
6273 Clear 18 1012 52 10000 3 120 23:50 06.08.2021
6274 Clear 17 1010 51 10000 2 100 20:45 06.08.2021
6275 Clear 18 1010 48 10000 2 110 20:25 06.08.2021
6276 Clear 15 1009 58 10000 0 0 19:49 06.08.2021
6277 Clear 15 1009 58 10000 2 50 17:51 06.08.2021
6278 Clear 23 1006 27 10000 4 140 13:37 06.08.2021
6279 Clear 27 1003 29 10000 3 130 09:57 06.08.2021
6280 Smoke 26 1003 36 5000 4 70 08:39 06.08.2021
6281 Clear 13 1004 54 10000 3 10 00:37 06.08.2021
6282 Smoke 13 1004 54 5000 3 360 23:19 05.08.2021
6283 Smoke 14 1004 51 5000 3 360 21:31 05.08.2021
6284 Smoke 14 1004 51 5000 2 360 19:53 05.08.2021
6285 Smoke 14 1003 51 5000 2 340 18:26 05.08.2021
6286 Smoke 16 1003 59 3200 1 10 15:44 05.08.2021
6287 Smoke 22 1002 30 5000 3 10 12:52 05.08.2021
6288 Smoke 25 1003 29 5000 3 20 09:56 05.08.2021
6289 Smoke 24 1003 33 5000 3 30 08:19 05.08.2021
6290 Smoke 19 1005 52 5000 4 30 02:51 05.08.2021
6291 Clear 11 1006 76 10000 2 340 22:41 04.08.2021
6292 Clear 11 1006 76 10000 3 320 21:26 04.08.2021
6293 Clear 13 1006 71 10000 2 320 19:37 04.08.2021
6294 Clear 15 1005 67 10000 3 310 17:23 04.08.2021
6295 Clear 18 1006 68 10000 1 300 14:46 04.08.2021
6296 Clear 28 1005 30 10000 1 20 12:23 04.08.2021
6297 Clear 27 1007 34 10000 1 130 07:38 04.08.2021
6298 Clear 12 1010 94 10000 1 90 21:18 03.08.2021
6299 Clear 12 1010 100 10000 0 0 20:29 03.08.2021
6300 Clear 12 1010 87 10000 1 20 18:42 03.08.2021
6301 Clear 14 1010 88 10000 0 0 16:59 03.08.2021
6302 Clear 20 1009 64 10000 2 210 13:57 03.08.2021
6303 Clouds 25 1009 47 10000 5.78 149 10:57 03.08.2021
6304 Clouds 26 1009 41 10000 5.47 137 09:47 03.08.2021
6305 Smoke 15 1008 67 5000 2 20 22:58 02.08.2021
6306 Smoke 17 1007 51 3200 2 330 16:40 02.08.2021
6307 Smoke 20 1007 42 3200 2 50 15:35 02.08.2021
6308 Smoke 25 1007 36 3200 3 60 12:40 02.08.2021
6309 Smoke 25 1007 33 3200 4 70 11:57 02.08.2021
6310 Clear 28 1007 30 10000 3 100 10:26 02.08.2021
6311 Clear 30 1008 21 10000 5 90 07:40 02.08.2021
6312 Smoke 15 1011 77 600 3 330 19:22 01.08.2021
6313 Smoke 18 1012 72 800 1 310 15:52 01.08.2021
6314 Smoke 25 1012 65 1200 1 140 11:39 01.08.2021
6315 Smoke 26 1012 61 1200 0 0 10:55 01.08.2021
6316 Smoke 22 1016 60 900 2 170 03:49 01.08.2021
6317 Smoke 11 1017 82 1000 2 250 23:43 31.07.2021
6318 Smoke 10 1017 81 1100 1 260 22:33 31.07.2021
6319 Smoke 12 1016 71 2100 1 270 19:28 31.07.2021
6320 Smoke 14 1016 67 1800 1 240 16:37 31.07.2021
6321 Smoke 21 1015 46 1800 2 240 13:39 31.07.2021
6322 Smoke 26 1015 25 2100 2 140 10:28 31.07.2021
6323 Smoke 20 1016 42 800 1 280 03:18 31.07.2021
6324 Clear 10 1016 66 10000 1 310 22:25 30.07.2021
6325 Clear 9 1015 76 10000 2 280 20:23 30.07.2021
6326 Clear 17 1014 59 10000 1 160 14:19 30.07.2021
6327 Clear 11 1012 62 10000 3 320 18:53 29.07.2021
6328 Clear 24 1009 25 10000 6 360 08:18 29.07.2021
6329 Clear 22 1010 30 10000 7 350 04:51 29.07.2021
6330 Clear 11 1011 62 10000 4 340 22:26 28.07.2021
6331 Clear 14 1008 54 10000 4 360 17:47 28.07.2021
6332 Clear 16 1008 44 10000 6 10 16:54 28.07.2021
6333 Clear 25 1005 33 10000 6 20 09:39 28.07.2021
6334 Clear 17 1005 63 10000 4 10 23:46 27.07.2021
6335 Smoke 15 1005 67 5000 4 340 21:32 27.07.2021
6336 Smoke 22 1004 46 800 5 310 14:54 27.07.2021
6337 Smoke 23 1003 40 800 4 290 13:44 27.07.2021
6338 Smoke 30 1002 19 5000 4 330 10:20 27.07.2021
6339 Smoke 25 1003 53 2100 4 310 00:49 27.07.2021
6340 Smoke 24 1003 57 5000 3 260 15:33 26.07.2021
6341 Clear 30 1004 26 10000 5 300 08:59 26.07.2021
6342 Smoke 16 1006 77 3200 5 310 20:57 25.07.2021
6343 Smoke 17 1005 77 3200 5 300 19:24 25.07.2021
6344 Clouds 19 1004 68 10000 4 290 16:22 25.07.2021
6345 Clouds 25 1002 44 10000 4 20 11:44 25.07.2021
6346 Clouds 26 1002 41 10000 5 330 08:20 25.07.2021
6347 Clear 20 1000 68 10000 5 300 02:34 25.07.2021
6348 Clear 15 999 100 10000 2 240 20:20 24.07.2021
6349 Clouds 18 1000 94 10000 3 350 15:52 24.07.2021
6350 Smoke 18 999 94 3200 8 20 04:21 24.07.2021
6351 Smoke 20 1002 77 2100 1 210 17:34 23.07.2021
6352 Smoke 25 1003 50 3200 1 120 12:43 23.07.2021
6353 Smoke 26 1004 47 3200 2 180 07:47 23.07.2021
6354 Smoke 15 1006 67 2400 2 300 22:46 22.07.2021
6355 Smoke 21 1005 60 2000 1 270 14:36 22.07.2021
6356 Smoke 28 1004 32 5000 4 280 10:27 22.07.2021
6357 Clear 29 1004 30 10000 6 290 08:23 22.07.2021
6358 Smoke 18 1004 77 3200 6 260 22:33 21.07.2021
6359 Smoke 17 1004 82 5000 5 260 21:31 21.07.2021
6360 Smoke 20 1004 68 5000 4 280 17:28 21.07.2021
6361 Smoke 23 1002 64 5000 3 150 09:54 21.07.2021
6362 Smoke 23 1002 60 5000 4 160 09:19 21.07.2021
6363 Smoke 19 1002 63 3200 4 320 23:56 20.07.2021
6364 Smoke 20 1002 77 2400 4 300 20:28 20.07.2021
6365 Smoke 20 1003 77 1800 2 310 16:33 20.07.2021
6366 Smoke 21 1003 78 1800 2 300 15:26 20.07.2021
6367 Smoke 24 1004 64 2000 2 50 11:19 20.07.2021
6368 Smoke 24 1005 60 2100 2 130 07:23 20.07.2021
6369 Smoke 20 1006 68 900 3 290 00:21 20.07.2021
6370 Smoke 24 1005 69 2400 3 170 17:44 19.07.2021
6371 Smoke 28 1006 51 5000 2 130 12:38 19.07.2021
6372 Smoke 10 1010 71 700 1 320 20:44 18.07.2021
6373 Smoke 16 1009 51 900 2 260 15:20 18.07.2021
6374 Smoke 25 1008 20 2100 3 300 10:19 18.07.2021
6375 Smoke 17 1007 59 300 2 290 22:29 17.07.2021
6376 Smoke 17 1006 59 300 2 340 21:57 17.07.2021
6377 Smoke 17 1006 59 300 2 280 21:38 17.07.2021
6378 Smoke 23 1004 38 1800 3 220 12:34 17.07.2021
6379 Smoke 25 1004 29 2400 3 260 11:29 17.07.2021
6380 Smoke 25 1004 25 3200 7 280 04:47 17.07.2021
6381 Smoke 17 1003 72 5000 3 300 14:24 16.07.2021
6382 Smoke 22 1002 64 3200 5 320 11:42 16.07.2021
6383 Rain 19 1001 88 5000 3 270 07:24 16.07.2021
6384 Clouds 20 1002 64 10000 2 360 17:53 15.07.2021
6385 Clear 22 1004 68 10000 2 360 13:49 15.07.2021
6386 Smoke 25 1006 61 5000 2 70 09:25 15.07.2021
6387 Smoke 18 1010 77 5000 1 180 00:31 15.07.2021
6388 Smoke 17 1009 72 3200 1 180 16:48 14.07.2021
6389 Smoke 28 1008 30 5000 5 220 11:59 14.07.2021
6390 Clear 24 1009 53 10000 4 150 04:44 14.07.2021
6391 Clear 11 1007 82 10000 2 310 20:22 13.07.2021
6392 Clear 12 1007 76 10000 3 300 19:50 13.07.2021
6393 Clear 12 1007 82 10000 2 290 19:21 13.07.2021
6394 Clear 13 1007 76 10000 1 230 18:43 13.07.2021
6395 Clear 13 1007 76 10000 1 230 18:23 13.07.2021
6396 Clear 22 1006 49 10000 1 30 14:34 13.07.2021
6397 Clear 26 1005 34 10000 2 70 09:38 13.07.2021
6398 Clear 11 1008 87 10000 1 290 22:51 12.07.2021
6399 Clear 13 1007 88 10000 1 310 17:28 12.07.2021
6400 Clear 16 1007 82 10000 1 100 15:20 12.07.2021
6401 Clear 13 1006 82 10000 3 180 00:31 12.07.2021
6402 Clear 11 1005 82 10000 2 170 21:57 11.07.2021
6403 Clear 12 1004 71 10000 3 210 15:50 11.07.2021
6404 Rain 12 1003 87 10000 3 270 01:55 11.07.2021
6405 Rain 14 1003 88 5000 3 300 17:19 10.07.2021
6406 Smoke 17 1002 72 5000 3 300 07:57 10.07.2021
6407 Smoke 17 1003 77 5000 2 310 07:22 10.07.2021
6408 Smoke 20 997 88 2400 3 300 19:57 09.07.2021
6409 Smoke 24 997 69 2100 2 300 14:51 09.07.2021
6410 Smoke 25 996 65 1800 1 70 12:48 09.07.2021
6411 Clouds 22 996 64 10000 4 130 23:55 08.07.2021
6412 Clouds 21 997 68 10000 2 110 22:49 08.07.2021
6413 Smoke 19 998 72 5000 1 130 19:49 08.07.2021
6414 Smoke 22 998 64 5000 2 140 18:23 08.07.2021
6415 Smoke 26 999 50 5000 3 120 13:50 08.07.2021
6416 Smoke 27 999 47 5000 4 130 13:30 08.07.2021
6417 Smoke 27 999 47 5000 4 130 13:30 08.07.2021
6418 Clear 28 999 44 10000 3 130 12:34 08.07.2021
6419 Clear 29 999 39 10000 5 150 11:19 08.07.2021
6420 Clear 30 1002 37 10000 5 140 06:33 08.07.2021
6421 Clear 27 1003 50 10000 3 150 03:50 08.07.2021
6422 Clear 20 1003 77 10000 3 170 22:59 07.07.2021
6423 Clear 19 1003 77 10000 2 180 22:19 07.07.2021
6424 Clear 19 1003 82 10000 3 160 21:45 07.07.2021
6425 Clear 19 1003 82 10000 3 170 21:24 07.07.2021
6426 Clear 20 1003 77 10000 2 160 19:58 07.07.2021
6427 Clear 21 1003 78 10000 3 150 19:29 07.07.2021
6428 Clear 22 1003 68 10000 3 170 17:48 07.07.2021
6429 Smoke 24 1003 57 5000 3 170 15:49 07.07.2021
6430 Smoke 24 1003 57 5000 3 150 14:58 07.07.2021
6431 Smoke 29 1004 37 5000 4 150 10:26 07.07.2021
6432 Clear 29 1004 32 10000 4 140 07:18 07.07.2021
6433 Clear 29 1005 30 10000 3 140 05:50 07.07.2021
6434 Smoke 23 1006 64 3200 3 130 02:54 07.07.2021
6435 Smoke 15 1005 82 3200 2 270 19:43 06.07.2021
6436 Smoke 15 1005 88 3200 0 0 18:56 06.07.2021
6437 Smoke 16 1005 88 3200 1 250 18:35 06.07.2021
6438 Smoke 16 1005 94 3200 1 300 17:32 06.07.2021
6439 Smoke 22 1004 60 3200 2 160 13:33 06.07.2021
6440 Smoke 24 1003 57 3200 5 160 09:43 06.07.2021
6441 Smoke 23 1003 64 3200 4 150 08:35 06.07.2021
6442 Smoke 22 1004 64 3200 3 170 07:39 06.07.2021
6443 Clouds 19 1004 68 10000 3 310 01:55 06.07.2021
6444 Smoke 18 1004 68 3200 4 290 23:57 05.07.2021
6445 Smoke 18 1003 68 5000 2 270 21:58 05.07.2021
6446 Smoke 21 1003 64 5000 3 210 17:21 05.07.2021
6447 Smoke 30 1001 30 5000 2 300 09:22 05.07.2021
6448 Smoke 28 1002 39 5000 4 240 05:49 05.07.2021
6449 Smoke 26 1002 50 3200 4 290 04:41 05.07.2021
6450 Smoke 19 1002 82 3200 3 270 23:22 04.07.2021
6451 Rain 20 1002 73 2400 3 220 20:53 04.07.2021
6452 Smoke 24 1000 57 1000 7 280 17:35 04.07.2021
6453 Smoke 26 1000 41 3200 2 270 14:36 04.07.2021
6454 Smoke 30 1000 28 3200 5 290 10:47 04.07.2021
6455 Smoke 29 1002 42 3200 2 140 06:47 04.07.2021
6456 Smoke 18 1003 68 5000 1 290 23:26 03.07.2021
6457 Smoke 16 1002 67 5000 1 330 19:46 03.07.2021
6458 Smoke 28 1002 57 5000 2 70 12:43 03.07.2021
6459 Smoke 29 1002 48 5000 2 60 11:52 03.07.2021
6460 Smoke 30 1003 35 5000 2 80 09:27 03.07.2021
6461 Smoke 32 1003 33 5000 1 90 08:45 03.07.2021
6462 Smoke 14 1006 77 5000 1 320 22:55 02.07.2021
6463 Clear 31 1007 35 10000 2 60 08:59 02.07.2021
6464 Smoke 29 1008 39 5000 2 60 07:28 02.07.2021
6465 Smoke 19 1010 72 5000 1 70 02:25 02.07.2021
6466 Clear 15 1011 67 10000 1 280 22:30 01.07.2021
6467 Smoke 14 1011 72 5000 1 310 21:35 01.07.2021
6468 Smoke 14 1010 72 5000 2 290 20:22 01.07.2021
6469 Smoke 16 1010 72 5000 2 290 19:20 01.07.2021
6470 Smoke 16 1010 67 5000 1 300 18:47 01.07.2021
6471 Smoke 19 1009 59 5000 2 290 17:41 01.07.2021
6472 Clear 20 1009 64 10000 0 0 16:28 01.07.2021
6473 Clear 22 1009 53 10000 2 200 15:23 01.07.2021
6474 Clear 27 1009 50 10000 2 150 13:57 01.07.2021
6475 Clear 34 1009 18 10000 3 190 09:55 01.07.2021
6476 Clear 34 1009 18 10000 3 190 09:55 01.07.2021
6477 Clear 27 1011 47 10000 2 150 03:21 01.07.2021
6478 Clear 19 1011 72 10000 1 290 23:18 30.06.2021
6479 Clear 19 1011 77 10000 1 340 21:58 30.06.2021
6480 Clear 18 1011 82 10000 1 330 21:20 30.06.2021
6481 Clear 18 1010 77 10000 2 350 20:23 30.06.2021
6482 Clear 22 1010 64 10000 3 340 16:50 30.06.2021
6483 Clear 26 1010 53 10000 4 360 14:21 30.06.2021
6484 Clear 30 1009 42 10000 4 30 10:43 30.06.2021
6485 Clear 21 1009 78 10000 2 80 00:54 30.06.2021
6486 Clear 18 1008 77 10000 3 300 20:30 29.06.2021
6487 Clouds 21 1006 56 10000 2 290 17:48 29.06.2021
6488 Clouds 22 1006 49 10000 2 270 17:28 29.06.2021
6489 Clouds 24 1005 41 10000 2 190 15:51 29.06.2021
6490 Clouds 26 1005 44 10000 2 160 14:55 29.06.2021
6491 Clouds 30 1004 30 10000 3 170 13:26 29.06.2021
6492 Clouds 30 1004 30 10000 3 170 13:26 29.06.2021
6493 Clear 32 1004 23 10000 5 170 08:26 29.06.2021
6494 Clear 20 1006 68 10000 1 110 23:52 28.06.2021
6495 Clear 15 1006 77 10000 1 310 21:32 28.06.2021
6496 Clear 17 1005 77 10000 1 190 18:52 28.06.2021
6497 Clear 18 1005 77 10000 2 170 17:21 28.06.2021
6498 Clear 26 1005 44 10000 1 150 14:32 28.06.2021
6499 Clear 27 1005 34 10000 2 160 12:57 28.06.2021
6500 Clear 21 1006 64 10000 2 190 00:20 28.06.2021
6501 Clear 17 1006 72 10000 1 30 22:51 27.06.2021
6502 Clear 14 1005 72 10000 2 250 19:45 27.06.2021
6503 Clear 16 1005 67 10000 1 270 18:56 27.06.2021
6504 Clear 20 1004 56 10000 2 150 15:50 27.06.2021
6505 Clear 29 1003 26 10000 2 70 11:26 27.06.2021
6506 Clear 26 1004 36 10000 1 150 02:32 27.06.2021
6507 Clear 16 1004 67 10000 2 310 22:36 26.06.2021
6508 Clear 15 1004 72 10000 2 330 20:56 26.06.2021
6509 Clear 15 1004 72 10000 2 290 20:35 26.06.2021
6510 Clouds 18 1003 63 10000 1 320 17:33 26.06.2021
6511 Clear 25 1003 41 10000 2 170 14:48 26.06.2021
6512 Clear 29 1003 30 10000 3 150 12:27 26.06.2021
6513 Clouds 30 1003 30 10000 3 120 07:46 26.06.2021
6514 Clear 18 1005 72 10000 1 180 23:29 25.06.2021
6515 Clear 14 1004 82 10000 2 280 20:38 25.06.2021
6516 Clear 16 1004 72 10000 2 290 19:31 25.06.2021
6517 Clear 17 1003 72 10000 2 280 17:43 25.06.2021
6518 Clear 19 1003 72 10000 1 80 16:43 25.06.2021
6519 Clear 23 1002 56 10000 1 120 14:22 25.06.2021
6520 Clear 30 1000 26 10000 2 140 10:49 25.06.2021
6521 Clear 29 1001 30 10000 2 150 07:44 25.06.2021
6522 Clear 29 1001 30 10000 2 150 07:19 25.06.2021
6523 Clear 26 1001 50 10000 2 60 03:46 25.06.2021
6524 Clear 15 1001 94 10000 2 360 21:49 24.06.2021
6525 Clear 14 1001 94 10000 2 340 20:58 24.06.2021
6526 Clear 14 1001 100 10000 1 340 20:39 24.06.2021
6527 Clear 15 1000 94 10000 2 30 18:35 24.06.2021
6528 Clouds 19 1001 77 10000 1 100 15:25 24.06.2021
6529 Clouds 19 1001 82 10000 2 90 14:55 24.06.2021
6530 Clouds 20 1000 83 10000 2 60 13:57 24.06.2021
6531 Rain 19 999 82 10000 3 60 10:39 24.06.2021
6532 Clouds 22 999 56 10000 4 90 09:23 24.06.2021
6533 Clouds 25 999 57 10000 3 80 08:22 24.06.2021
6534 Clear 25 1000 53 10000 4 270 02:32 24.06.2021
6535 Rain 19 1001 68 10000 1 250 22:36 23.06.2021
6536 Clouds 21 1001 60 10000 1 310 21:43 23.06.2021
6537 Clouds 21 1001 60 10000 3 330 20:21 23.06.2021
6538 Clouds 23 1001 53 10000 5 300 18:33 23.06.2021
6539 Clouds 24 1001 50 10000 5 290 17:21 23.06.2021
6540 Clouds 25 1001 47 10000 3 190 15:34 23.06.2021
6541 Clouds 27 1001 44 10000 1 180 12:51 23.06.2021
6542 Clear 29 1001 34 10000 1 100 11:55 23.06.2021
6543 Clear 31 1002 33 10000 2 130 09:55 23.06.2021
6544 Clear 31 1001 35 10000 2 130 08:45 23.06.2021
6545 Clouds 30 1002 39 10000 2 120 07:51 23.06.2021
6546 Clouds 29 1003 42 10000 1 60 06:43 23.06.2021
6547 Clouds 24 1003 50 10000 3 20 03:33 23.06.2021
6548 Clouds 21 1001 60 10000 2 70 00:43 23.06.2021
6549 Clear 21 1001 64 10000 2 80 23:55 22.06.2021
6550 Clear 21 1001 56 10000 3 300 22:44 22.06.2021
6551 Clouds 20 1001 60 10000 2 280 21:56 22.06.2021
6552 Clouds 20 1000 60 10000 2 270 20:58 22.06.2021
6553 Clouds 20 1000 56 10000 1 260 19:32 22.06.2021
6554 Clouds 21 1000 52 10000 1 10 18:53 22.06.2021
6555 Clouds 22 1000 46 10000 2 330 18:21 22.06.2021
6556 Clouds 22 1000 46 10000 2 200 17:21 22.06.2021
6557 Rain 22 1000 56 10000 2 280 16:20 22.06.2021
6558 Clouds 27 999 39 10000 1 200 14:35 22.06.2021
6559 Clear 28 999 36 10000 1 230 13:47 22.06.2021
6560 Clear 32 999 23 10000 2 40 12:35 22.06.2021
6561 Clear 32 999 20 10000 3 60 10:58 22.06.2021
6562 Clear 33 999 19 10000 4 50 09:18 22.06.2021
6563 Clear 32 1000 19 10000 4 40 06:37 22.06.2021
6564 Clear 24 1001 50 10000 4 300 00:37 22.06.2021
6565 Clear 21 1000 56 10000 4 300 22:59 21.06.2021
6566 Clear 20 1000 56 10000 4 300 21:41 21.06.2021
6567 Clear 20 1000 56 10000 4 300 20:52 21.06.2021
6568 Clear 21 1000 52 10000 4 310 20:21 21.06.2021
6569 Clear 21 1000 52 10000 4 300 19:49 21.06.2021
6570 Clear 23 1000 46 10000 4 290 18:25 21.06.2021
6571 Clouds 25 1000 41 10000 3 260 16:56 21.06.2021
6572 Clouds 24 1000 43 10000 2 240 16:30 21.06.2021
6573 Clouds 24 1000 43 10000 2 240 16:30 21.06.2021
6574 Clouds 24 1000 43 10000 3 250 15:57 21.06.2021
6575 Clouds 24 1000 46 10000 2 230 15:20 21.06.2021
6576 Clouds 28 1000 36 10000 3 180 13:52 21.06.2021
6577 Clouds 32 1000 25 10000 2 250 12:56 21.06.2021
6578 Clouds 32 1000 25 10000 4 210 12:35 21.06.2021
6579 Clouds 32 1000 23 10000 3 210 10:55 21.06.2021
6580 Clouds 33 1001 26 10000 3.66 14 10:23 21.06.2021
6581 Clouds 33 1001 21 10000 3 140 08:47 21.06.2021
6582 Clear 33 1001 22 10000 3 150 08:18 21.06.2021
6583 Clear 32 1003 29 10000 3 130 06:23 21.06.2021
6584 Clear 22 1005 49 10000 2 260 23:54 20.06.2021
6585 Clear 19 1005 55 10000 3 280 23:34 20.06.2021
6586 Clear 18 1005 55 10000 2 280 22:50 20.06.2021
6587 Clear 15 1005 63 10000 2 250 21:48 20.06.2021
6588 Clear 15 1005 63 10000 3 290 20:28 20.06.2021
6589 Clear 15 1005 63 10000 2 290 19:39 20.06.2021
6590 Clear 16 1005 63 10000 2 290 18:52 20.06.2021
6591 Clear 18 1005 55 10000 3 290 17:45 20.06.2021
6592 Clear 19 1005 55 10000 3 280 16:45 20.06.2021
6593 Clear 22 1004 43 10000 2 310 15:38 20.06.2021
6594 Clear 22 1004 43 10000 2 310 15:19 20.06.2021
6595 Clear 26 1004 38 10000 1 330 14:38 20.06.2021
6596 Clear 29 1004 28 10000 1 50 13:28 20.06.2021
6597 Clear 31 1004 25 10000 2 70 12:20 20.06.2021
6598 Clear 31 1004 19 10000 2 70 11:43 20.06.2021
6599 Clear 31 1005 18 10000 2 50 09:50 20.06.2021
6600 Clear 31 1005 20 10000 2 90 08:59 20.06.2021
6601 Clear 29 1007 17 10000 2 90 04:32 20.06.2021
6602 Clear 18 1007 52 10000 1 320 23:35 19.06.2021
6603 Clear 16 1007 55 10000 1 320 22:51 19.06.2021
6604 Clear 14 1007 58 10000 2 320 21:49 19.06.2021
6605 Clear 14 1007 58 10000 2 320 21:49 19.06.2021
6606 Clear 13 1007 62 10000 2 310 20:50 19.06.2021
6607 Clear 14 1006 62 10000 2 300 18:50 19.06.2021
6608 Clear 15 1006 58 10000 3 290 18:18 19.06.2021
6609 Clear 17 1006 55 10000 2 320 17:22 19.06.2021
6610 Clear 21 1006 43 10000 2 350 15:55 19.06.2021
6611 Clear 24 1006 35 10000 3 10 14:28 19.06.2021
6612 Clear 28 1006 24 10000 3 20 12:48 19.06.2021
6613 Clear 29 1006 18 10000 3 30 11:53 19.06.2021
6614 Clear 29 1006 21 10000 2 70 10:44 19.06.2021
6615 Clear 30 1006 19 10000 1 60 10:22 19.06.2021
6616 Clear 29 1006 17 10000 2 60 09:23 19.06.2021
6617 Clear 29 1007 15 10000 2 70 07:45 19.06.2021
6618 Clear 28 1008 18 10000 2 50 06:29 19.06.2021
6619 Clear 21 1009 40 10000 1 50 01:46 19.06.2021
6620 Clear 19 1009 45 10000 1 50 00:18 19.06.2021
6621 Clear 18 1009 48 10000 1 50 23:29 18.06.2021
6622 Clear 17 1009 55 10000 1 60 22:50 18.06.2021
6623 Clear 16 1009 63 10000 1 30 22:22 18.06.2021
6624 Clear 14 1009 77 10000 1 20 21:39 18.06.2021
6625 Clear 14 1009 77 10000 1 20 21:19 18.06.2021
6626 Clear 14 1008 82 10000 2 10 19:39 18.06.2021
6627 Clear 15 1008 82 10000 2 360 18:27 18.06.2021
6628 Clear 16 1008 77 10000 2 360 17:29 18.06.2021
6629 Clear 17 1008 72 10000 2 360 16:24 18.06.2021
6630 Clear 17 1008 72 10000 1 40 15:45 18.06.2021
6631 Clear 19 1008 63 10000 2 60 14:32 18.06.2021
6632 Clouds 20 1007 60 10000 2 80 13:41 18.06.2021
6633 Clouds 21 1007 56 10000 3 100 12:45 18.06.2021
6634 Clouds 21 1007 56 10000 3 100 12:45 18.06.2021
6635 Clouds 22 1007 53 10000 2 90 12:27 18.06.2021
6636 Clouds 22 1007 53 10000 4 110 11:28 18.06.2021
6637 Clouds 22 1007 53 10000 4 120 10:52 18.06.2021
6638 Clouds 22 1007 49 10000 5 100 10:23 18.06.2021
6639 Clouds 22 1007 53 10000 4 100 09:45 18.06.2021
6640 Clouds 22 1007 56 10000 2 120 08:50 18.06.2021
6641 Clouds 21 1007 60 10000 4 150 08:23 18.06.2021
6642 Clouds 24 1006 41 10000 6 130 07:29 18.06.2021
6643 Clear 22 1006 37 10000 3 40 01:48 18.06.2021
6644 Clear 18 1006 45 10000 3 360 00:32 18.06.2021
6645 Clear 16 1006 51 10000 3 350 22:56 17.06.2021
6646 Clear 16 1006 48 10000 3 350 22:25 17.06.2021
6647 Clear 15 1006 51 10000 3 340 21:49 17.06.2021
6648 Clear 14 1006 51 10000 3 340 20:58 17.06.2021
6649 Clear 13 1006 58 10000 3 340 20:28 17.06.2021
6650 Clear 13 1006 54 10000 3 340 19:51 17.06.2021
6651 Clear 14 1006 54 10000 3 340 18:51 17.06.2021
6652 Clear 14 1006 58 10000 2 340 17:49 17.06.2021
6653 Clear 14 1005 58 10000 2 350 17:21 17.06.2021
6654 Clear 17 1005 42 10000 2 20 16:28 17.06.2021
6655 Clear 17 1005 45 10000 2 40 15:40 17.06.2021
6656 Clear 20 1005 34 10000 2 50 14:26 17.06.2021
6657 Clear 22 1005 33 10000 2 70 13:20 17.06.2021
6658 Clear 24 1005 29 10000 2 60 12:31 17.06.2021
6659 Clear 27 1004 22 10000 2 40 11:23 17.06.2021
6660 Clear 27 1004 19 10000 5 20 10:42 17.06.2021
6661 Clear 27 1004 19 10000 5 20 10:23 17.06.2021
6662 Clear 27 1005 19 10000 5 20 09:38 17.06.2021
6663 Clear 26 1005 18 10000 5 10 08:33 17.06.2021
6664 Clear 26 1005 19 10000 6 10 07:49 17.06.2021
6665 Clear 24 1006 22 10000 4 30 04:36 17.06.2021
6666 Clear 20 1007 34 10000 3 40 01:24 17.06.2021
6667 Clear 17 1006 51 10000 3 10 23:38 16.06.2021
6668 Clear 17 1006 51 10000 3 10 23:20 16.06.2021
6669 Clear 16 1006 55 10000 3 10 22:18 16.06.2021
6670 Clear 14 1005 67 10000 4 10 21:39 16.06.2021
6671 Clear 14 1005 67 10000 4 10 21:18 16.06.2021
6672 Clear 14 1004 62 10000 4 10 20:36 16.06.2021
6673 Clear 15 1004 58 10000 3 350 19:50 16.06.2021
6674 Clear 17 1003 51 10000 4 360 19:32 16.06.2021
6675 Clear 17 1003 51 10000 4 350 18:51 16.06.2021
6676 Clear 16 1002 51 10000 3 300 18:24 16.06.2021
6677 Clear 17 1002 48 10000 4 290 17:36 16.06.2021
6678 Clear 17 1002 48 10000 4 290 17:18 16.06.2021
6679 Clear 19 1002 39 10000 4 290 16:42 16.06.2021
6680 Clear 19 1001 39 10000 4 290 15:50 16.06.2021
6681 Clear 20 1001 32 10000 3 290 15:28 16.06.2021
6682 Clear 21 1001 30 10000 3 290 14:45 16.06.2021
6683 Clear 23 1000 27 10000 2 300 14:26 16.06.2021
6684 Clear 24 1000 23 10000 2 320 13:44 16.06.2021
6685 Clear 26 1000 19 10000 3 330 13:22 16.06.2021
6686 Clear 26 999 21 10000 4 350 12:41 16.06.2021
6687 Clear 26 999 21 10000 4 350 12:21 16.06.2021
6688 Clear 26 999 24 10000 4 330 11:31 16.06.2021
6689 Clear 27 999 21 10000 2 350 10:45 16.06.2021
6690 Clear 25 999 25 10000 2 60 09:50 16.06.2021
6691 Clear 24 999 31 10000 2 80 09:28 16.06.2021
6692 Clear 24 999 31 10000 3 80 08:24 16.06.2021
6693 Clear 24 999 33 10000 3 60 07:41 16.06.2021
6694 Clear 22 1000 30 10000 4 340 03:19 16.06.2021
6695 Clear 20 1001 40 10000 5 330 01:48 16.06.2021
6696 Clear 16 1001 55 10000 4 320 23:44 15.06.2021
6697 Clear 16 1001 55 10000 4 320 23:44 15.06.2021
6698 Clear 15 1001 55 10000 5 300 23:21 15.06.2021
6699 Clear 13 1001 62 10000 5 300 22:41 15.06.2021
6700 Clear 13 1001 62 10000 5 300 22:21 15.06.2021
6701 Clear 10 1001 71 10000 1 310 20:56 15.06.2021
6702 Clear 10 1002 71 10000 2 300 19:58 15.06.2021
6703 Clear 11 1001 66 10000 2 310 19:28 15.06.2021
6704 Clear 12 1001 66 10000 4 300 17:47 15.06.2021
6705 Clear 13 1002 67 10000 3 290 16:43 15.06.2021
6706 Clear 16 1002 59 10000 2 220 15:42 15.06.2021
6707 Clear 17 1002 59 10000 2 190 14:57 15.06.2021
6708 Clear 19 1002 48 10000 1 140 14:38 15.06.2021
6709 Clear 22 1002 33 10000 2 260 13:37 15.06.2021
6710 Clear 23 1002 31 10000 2 290 12:51 15.06.2021
6711 Clear 23 1002 28 10000 3 280 12:18 15.06.2021
6712 Clear 24 1002 29 10000 4 300 11:25 15.06.2021
6713 Clouds 24 1002 29 10000 2 300 10:56 15.06.2021
6714 Clouds 23 1002 31 10000 3 280 10:36 15.06.2021
6715 Clouds 23 1002 31 10000 4 250 09:52 15.06.2021
6716 Clouds 21 1003 43 10000 4 140 08:44 15.06.2021
6717 Clear 21 1003 37 10000 4 160 08:19 15.06.2021
6718 Clear 21 1003 37 10000 4 190 06:58 15.06.2021
6719 Clear 20 1004 49 10000 3 140 05:59 15.06.2021
6720 Clouds 17 1004 59 10000 2 30 02:54 15.06.2021
6721 Clear 15 1004 58 10000 2 20 00:39 15.06.2021
6722 Clear 13 1004 62 10000 1 340 23:33 14.06.2021
6723 Clear 12 1004 62 10000 2 10 22:49 14.06.2021
6724 Clouds 11 1004 66 10000 1 340 22:22 14.06.2021
6725 Clouds 11 1004 66 10000 2 320 21:58 14.06.2021
6726 Clouds 10 1004 66 10000 2 260 21:37 14.06.2021
6727 Clouds 10 1004 66 10000 2 260 21:18 14.06.2021
6728 Clouds 11 1004 62 10000 2 310 20:42 14.06.2021
6729 Clouds 11 1004 62 10000 2 300 19:49 14.06.2021
6730 Clouds 11 1004 66 10000 3 290 19:29 14.06.2021
6731 Clear 12 1004 62 10000 2 300 18:47 14.06.2021
6732 Clear 12 1004 62 10000 3 300 18:22 14.06.2021
6733 Clear 12 1004 62 10000 3 290 17:36 14.06.2021
6734 Clear 13 1004 62 10000 2 290 16:53 14.06.2021
6735 Clear 13 1004 62 10000 2 310 15:55 14.06.2021
6736 Clear 14 1004 62 10000 1 40 15:36 14.06.2021
6737 Clear 15 1004 63 10000 1 80 14:53 14.06.2021
6738 Clear 20 1004 30 10000 2 180 13:56 14.06.2021
6739 Clear 20 1004 34 10000 2 170 13:28 14.06.2021
6740 Clear 21 1004 30 10000 1 130 12:51 14.06.2021
6741 Clear 22 1004 26 10000 1 80 11:57 14.06.2021
6742 Clear 22 1004 23 10000 1 90 11:37 14.06.2021
6743 Clear 23 1005 21 10000 2 130 10:46 14.06.2021
6744 Clear 23 1005 23 10000 4 140 09:27 14.06.2021
6745 Clear 23 1005 21 10000 2 130 08:49 14.06.2021
6746 Clear 23 1005 21 10000 2 120 08:20 14.06.2021
6747 Clear 23 1006 21 10000 4 140 07:37 14.06.2021
6748 Clear 21 1006 23 10000 3 140 05:45 14.06.2021
6749 Clear 20 1007 30 10000 4 130 04:21 14.06.2021
6750 Clear 14 1008 62 10000 2 140 00:30 14.06.2021
6751 Clear 12 1008 71 10000 2 150 23:25 13.06.2021
6752 Clear 11 1008 71 10000 2 110 22:42 13.06.2021
6753 Clear 11 1008 71 10000 2 110 22:22 13.06.2021
6754 Clear 11 1008 76 10000 3 90 21:58 13.06.2021
6755 Clear 11 1008 58 10000 2 80 21:35 13.06.2021
6756 Clear 12 1008 54 10000 2 270 20:49 13.06.2021
6757 Clear 12 1007 54 10000 3 260 20:30 13.06.2021
6758 Clear 12 1007 54 10000 3 270 19:57 13.06.2021
6759 Clear 13 1007 50 10000 5 270 19:35 13.06.2021
6760 Clear 13 1007 50 10000 5 270 18:59 13.06.2021
6761 Clear 13 1007 50 10000 5 270 18:29 13.06.2021
6762 Clear 14 1007 47 10000 6 250 17:47 13.06.2021
6763 Clouds 13 1007 54 10000 3 200 16:39 13.06.2021
6764 Clouds 14 1007 54 10000 2 180 15:42 13.06.2021
6765 Clouds 15 1007 51 10000 3 190 14:54 13.06.2021
6766 Clouds 15 100